<?xml version="1.0" encoding="UTF-8" standalone="no" ?>
<gpx xmlns="http://www.topografix.com/GPX/1/1" creator="MapSource 6.16.3" version="1.1" xmlns:xsi="http://www.w3.org/2001/XMLSchema-instance" xsi:schemaLocation="http://www.topografix.com/GPX/1/1 http://www.topografix.com/GPX/1/1/gpx.xsd">

  <metadata>
    <link href="http://www.garmin.com">
      <text>Garmin International</text>
    </link>
    <time>2014-09-30T19:07:21Z</time>
    <bounds maxlat="39.843325847759843" maxlon="2.926236307248473" minlat="39.813489206135273" minlon="2.888966090977192"/>
  </metadata>

  <trk>
    <name>04-SEP-14 09:31:46</name>
    <extensions>
      <gpxx:TrackExtension xmlns:gpxx="http://www.garmin.com/xmlschemas/GpxExtensions/v3">
        <gpxx:DisplayColor>DarkBlue</gpxx:DisplayColor>
      </gpxx:TrackExtension>
    </extensions>
    <trkseg>
      <trkpt lat="39.816177366301417" lon="2.89626413024962">
        <ele>524.05999999999995</ele>
        <time>2014-09-04T07:37:24Z</time>
      </trkpt>
      <trkpt lat="39.816195135936141" lon="2.896240409463644">
        <ele>523.58000000000004</ele>
        <time>2014-09-04T07:37:25Z</time>
      </trkpt>
      <trkpt lat="39.81621265411377" lon="2.896218365058303">
        <ele>523.58000000000004</ele>
        <time>2014-09-04T07:37:26Z</time>
      </trkpt>
      <trkpt lat="39.816228831186891" lon="2.896191375330091">
        <ele>523.58000000000004</ele>
        <time>2014-09-04T07:37:27Z</time>
      </trkpt>
      <trkpt lat="39.816247941926122" lon="2.896162709221244">
        <ele>523.58000000000004</ele>
        <time>2014-09-04T07:37:28Z</time>
      </trkpt>
      <trkpt lat="39.816343411803246" lon="2.896020384505391">
        <ele>522.61000000000001</ele>
        <time>2014-09-04T07:37:38Z</time>
      </trkpt>
      <trkpt lat="39.816354895010591" lon="2.896002782508731">
        <ele>522.61000000000001</ele>
        <time>2014-09-04T07:37:41Z</time>
      </trkpt>
      <trkpt lat="39.816369647160172" lon="2.895998172461987">
        <ele>522.61000000000001</ele>
        <time>2014-09-04T07:37:42Z</time>
      </trkpt>
      <trkpt lat="39.816387835890055" lon="2.895988030359149">
        <ele>522.61000000000001</ele>
        <time>2014-09-04T07:37:43Z</time>
      </trkpt>
      <trkpt lat="39.816405018791556" lon="2.895976882427931">
        <ele>522.61000000000001</ele>
        <time>2014-09-04T07:37:44Z</time>
      </trkpt>
      <trkpt lat="39.816398983821273" lon="2.895953832194209">
        <ele>522.13</ele>
        <time>2014-09-04T07:37:49Z</time>
      </trkpt>
      <trkpt lat="39.816397223621607" lon="2.895929189398885">
        <ele>522.61000000000001</ele>
        <time>2014-09-04T07:37:50Z</time>
      </trkpt>
      <trkpt lat="39.816398816183209" lon="2.89589767344296">
        <ele>522.61000000000001</ele>
        <time>2014-09-04T07:37:51Z</time>
      </trkpt>
      <trkpt lat="39.816400660201907" lon="2.895866073668003">
        <ele>522.13</ele>
        <time>2014-09-04T07:37:52Z</time>
      </trkpt>
      <trkpt lat="39.816404096782207" lon="2.895842604339123">
        <ele>522.61000000000001</ele>
        <time>2014-09-04T07:37:53Z</time>
      </trkpt>
      <trkpt lat="39.81640761718154" lon="2.895821649581194">
        <ele>522.13</ele>
        <time>2014-09-04T07:37:54Z</time>
      </trkpt>
      <trkpt lat="39.81641348451376" lon="2.895802371203899">
        <ele>522.13</ele>
        <time>2014-09-04T07:37:55Z</time>
      </trkpt>
      <trkpt lat="39.816418681293726" lon="2.895787367597222">
        <ele>522.13</ele>
        <time>2014-09-04T07:37:56Z</time>
      </trkpt>
      <trkpt lat="39.816451538354158" lon="2.89564210921526">
        <ele>521.16999999999996</ele>
        <time>2014-09-04T07:38:08Z</time>
      </trkpt>
      <trkpt lat="39.816519012674689" lon="2.895344803109765">
        <ele>521.16999999999996</ele>
        <time>2014-09-04T07:38:19Z</time>
      </trkpt>
      <trkpt lat="39.816567795351148" lon="2.895270455628634">
        <ele>519.73000000000002</ele>
        <time>2014-09-04T07:38:30Z</time>
      </trkpt>
      <trkpt lat="39.816593527793884" lon="2.895270623266697">
        <ele>520.21000000000004</ele>
        <time>2014-09-04T07:38:43Z</time>
      </trkpt>
      <trkpt lat="39.816596796736121" lon="2.89527858607471">
        <ele>520.69000000000005</ele>
        <time>2014-09-04T07:38:45Z</time>
      </trkpt>
      <trkpt lat="39.816600820049644" lon="2.89526785723865">
        <ele>520.21000000000004</ele>
        <time>2014-09-04T07:38:54Z</time>
      </trkpt>
      <trkpt lat="39.816564358770847" lon="2.895358297973871">
        <ele>520.69000000000005</ele>
        <time>2014-09-04T07:39:09Z</time>
      </trkpt>
      <trkpt lat="39.816552707925439" lon="2.895387802273035">
        <ele>518.76999999999998</ele>
        <time>2014-09-04T07:39:11Z</time>
      </trkpt>
      <trkpt lat="39.816545080393553" lon="2.895404314622283">
        <ele>520.21000000000004</ele>
        <time>2014-09-04T07:39:12Z</time>
      </trkpt>
      <trkpt lat="39.816540805622935" lon="2.895446643233299">
        <ele>519.25</ele>
        <time>2014-09-04T07:39:16Z</time>
      </trkpt>
      <trkpt lat="39.816504931077361" lon="2.895597936585546">
        <ele>520.69000000000005</ele>
        <time>2014-09-04T07:39:27Z</time>
      </trkpt>
      <trkpt lat="39.816480036824942" lon="2.895667171105743">
        <ele>521.64999999999998</ele>
        <time>2014-09-04T07:39:33Z</time>
      </trkpt>
      <trkpt lat="39.816473918035626" lon="2.895694747567177">
        <ele>521.16999999999996</ele>
        <time>2014-09-04T07:39:34Z</time>
      </trkpt>
      <trkpt lat="39.816467631608248" lon="2.895721988752484">
        <ele>521.16999999999996</ele>
        <time>2014-09-04T07:39:35Z</time>
      </trkpt>
      <trkpt lat="39.816462183371186" lon="2.895744619891048">
        <ele>520.69000000000005</ele>
        <time>2014-09-04T07:39:36Z</time>
      </trkpt>
      <trkpt lat="39.81645648367703" lon="2.895766161382198">
        <ele>521.16999999999996</ele>
        <time>2014-09-04T07:39:37Z</time>
      </trkpt>
      <trkpt lat="39.8164252191782" lon="2.8959353081882">
        <ele>521.16999999999996</ele>
        <time>2014-09-04T07:39:47Z</time>
      </trkpt>
      <trkpt lat="39.816405437886715" lon="2.896051984280348">
        <ele>523.09000000000003</ele>
        <time>2014-09-04T07:39:56Z</time>
      </trkpt>
      <trkpt lat="39.816400827839971" lon="2.896075705066323">
        <ele>523.09000000000003</ele>
        <time>2014-09-04T07:39:57Z</time>
      </trkpt>
      <trkpt lat="39.816397977992892" lon="2.896104538813233">
        <ele>523.58000000000004</ele>
        <time>2014-09-04T07:39:58Z</time>
      </trkpt>
      <trkpt lat="39.816393032670021" lon="2.896127002313733">
        <ele>523.09000000000003</ele>
        <time>2014-09-04T07:39:59Z</time>
      </trkpt>
      <trkpt lat="39.816376436501741" lon="2.896202690899372">
        <ele>523.58000000000004</ele>
        <time>2014-09-04T07:40:04Z</time>
      </trkpt>
      <trkpt lat="39.816374592483044" lon="2.896231608465314">
        <ele>523.09000000000003</ele>
        <time>2014-09-04T07:40:05Z</time>
      </trkpt>
      <trkpt lat="39.816356068477035" lon="2.896402766928077">
        <ele>523.58000000000004</ele>
        <time>2014-09-04T07:40:14Z</time>
      </trkpt>
      <trkpt lat="39.816348860040307" lon="2.896447693929076">
        <ele>524.53999999999996</ele>
        <time>2014-09-04T07:40:18Z</time>
      </trkpt>
      <trkpt lat="39.81635045260191" lon="2.896469905972481">
        <ele>524.05999999999995</ele>
        <time>2014-09-04T07:40:19Z</time>
      </trkpt>
      <trkpt lat="39.81632262468338" lon="2.896542493253946">
        <ele>525.01999999999998</ele>
        <time>2014-09-04T07:40:30Z</time>
      </trkpt>
      <trkpt lat="39.816314410418272" lon="2.896560430526733">
        <ele>525.01999999999998</ele>
        <time>2014-09-04T07:40:31Z</time>
      </trkpt>
      <trkpt lat="39.816306866705418" lon="2.896579541265965">
        <ele>525.01999999999998</ele>
        <time>2014-09-04T07:40:32Z</time>
      </trkpt>
      <trkpt lat="39.816294210031629" lon="2.896601166576147">
        <ele>525.01999999999998</ele>
        <time>2014-09-04T07:40:35Z</time>
      </trkpt>
      <trkpt lat="39.816283481195569" lon="2.896611643955112">
        <ele>524.53999999999996</ele>
        <time>2014-09-04T07:40:36Z</time>
      </trkpt>
      <trkpt lat="39.816274428740144" lon="2.896619187667966">
        <ele>514.44000000000005</ele>
        <time>2014-09-04T07:40:37Z</time>
      </trkpt>
      <trkpt lat="39.816267807036638" lon="2.896622959524393">
        <ele>514.44000000000005</ele>
        <time>2014-09-04T07:40:38Z</time>
      </trkpt>
      <trkpt lat="39.81625908985734" lon="2.896623713895679">
        <ele>529.34000000000003</ele>
        <time>2014-09-04T07:40:39Z</time>
      </trkpt>
      <trkpt lat="39.816254395991564" lon="2.896626563742757">
        <ele>525.01999999999998</ele>
        <time>2014-09-04T07:40:40Z</time>
      </trkpt>
      <trkpt lat="39.816255485638976" lon="2.896672077476978">
        <ele>524.05999999999995</ele>
        <time>2014-09-04T07:40:43Z</time>
      </trkpt>
      <trkpt lat="39.816251629963517" lon="2.896701078861952">
        <ele>524.53999999999996</ele>
        <time>2014-09-04T07:40:44Z</time>
      </trkpt>
      <trkpt lat="39.816231345757842" lon="2.896796381101012">
        <ele>525.98000000000002</ele>
        <time>2014-09-04T07:40:52Z</time>
      </trkpt>
      <trkpt lat="39.816177617758512" lon="2.896912135183811">
        <ele>525.98000000000002</ele>
        <time>2014-09-04T07:41:04Z</time>
      </trkpt>
      <trkpt lat="39.816163955256343" lon="2.896926300600171">
        <ele>526.46000000000004</ele>
        <time>2014-09-04T07:41:05Z</time>
      </trkpt>
      <trkpt lat="39.816153477877378" lon="2.896940968930721">
        <ele>527.41999999999996</ele>
        <time>2014-09-04T07:41:06Z</time>
      </trkpt>
      <trkpt lat="39.816143587231636" lon="2.896955385804176">
        <ele>526.46000000000004</ele>
        <time>2014-09-04T07:41:07Z</time>
      </trkpt>
      <trkpt lat="39.816135624423623" lon="2.896969886496663">
        <ele>525.98000000000002</ele>
        <time>2014-09-04T07:41:08Z</time>
      </trkpt>
      <trkpt lat="39.816131768748164" lon="2.896983381360769">
        <ele>525.98000000000002</ele>
        <time>2014-09-04T07:41:09Z</time>
      </trkpt>
      <trkpt lat="39.816121207550168" lon="2.897015148773789">
        <ele>527.89999999999998</ele>
        <time>2014-09-04T07:41:11Z</time>
      </trkpt>
      <trkpt lat="39.816112825646996" lon="2.897050520405173">
        <ele>527.41999999999996</ele>
        <time>2014-09-04T07:41:14Z</time>
      </trkpt>
      <trkpt lat="39.816106539219618" lon="2.897066781297326">
        <ele>525.98000000000002</ele>
        <time>2014-09-04T07:41:15Z</time>
      </trkpt>
      <trkpt lat="39.816100504249334" lon="2.897083377465606">
        <ele>527.89999999999998</ele>
        <time>2014-09-04T07:41:16Z</time>
      </trkpt>
      <trkpt lat="39.816096145659685" lon="2.897097794339061">
        <ele>529.34000000000003</ele>
        <time>2014-09-04T07:41:17Z</time>
      </trkpt>
      <trkpt lat="39.816096732392907" lon="2.897110618650913">
        <ele>528.86000000000001</ele>
        <time>2014-09-04T07:41:18Z</time>
      </trkpt>
      <trkpt lat="39.816094888374209" lon="2.897138949483633">
        <ele>527.41999999999996</ele>
        <time>2014-09-04T07:41:20Z</time>
      </trkpt>
      <trkpt lat="39.816087260842323" lon="2.897163089364767">
        <ele>529.34000000000003</ele>
        <time>2014-09-04T07:41:22Z</time>
      </trkpt>
      <trkpt lat="39.816081058233976" lon="2.8971803560853">
        <ele>528.38</ele>
        <time>2014-09-04T07:41:23Z</time>
      </trkpt>
      <trkpt lat="39.816077202558517" lon="2.897207345813513">
        <ele>527.41999999999996</ele>
        <time>2014-09-04T07:41:25Z</time>
      </trkpt>
      <trkpt lat="39.816076448187232" lon="2.897223690524697">
        <ele>528.86000000000001</ele>
        <time>2014-09-04T07:41:26Z</time>
      </trkpt>
      <trkpt lat="39.816082566976547" lon="2.897232659161091">
        <ele>529.34000000000003</ele>
        <time>2014-09-04T07:41:27Z</time>
      </trkpt>
      <trkpt lat="39.816088182851672" lon="2.897250931710005">
        <ele>529.82000000000005</ele>
        <time>2014-09-04T07:41:29Z</time>
      </trkpt>
      <trkpt lat="39.816087009385228" lon="2.897264342755079">
        <ele>528.86000000000001</ele>
        <time>2014-09-04T07:41:30Z</time>
      </trkpt>
      <trkpt lat="39.816085249185562" lon="2.897281777113676">
        <ele>527.89999999999998</ele>
        <time>2014-09-04T07:41:31Z</time>
      </trkpt>
      <trkpt lat="39.816086925566196" lon="2.8972995467484">
        <ele>529.34000000000003</ele>
        <time>2014-09-04T07:41:32Z</time>
      </trkpt>
      <trkpt lat="39.816093044355512" lon="2.897316142916679">
        <ele>531.26999999999998</ele>
        <time>2014-09-04T07:41:33Z</time>
      </trkpt>
      <trkpt lat="39.816097151488066" lon="2.897328548133373">
        <ele>530.29999999999995</ele>
        <time>2014-09-04T07:41:34Z</time>
      </trkpt>
      <trkpt lat="39.816094134002924" lon="2.897355873137713">
        <ele>529.82000000000005</ele>
        <time>2014-09-04T07:41:36Z</time>
      </trkpt>
      <trkpt lat="39.816091703251004" lon="2.897439440712333">
        <ele>531.26999999999998</ele>
        <time>2014-09-04T07:41:45Z</time>
      </trkpt>
      <trkpt lat="39.816097067669034" lon="2.897436590865254">
        <ele>530.29999999999995</ele>
        <time>2014-09-04T07:41:52Z</time>
      </trkpt>
      <trkpt lat="39.816116513684392" lon="2.897516302764416">
        <ele>529.82000000000005</ele>
        <time>2014-09-04T07:42:05Z</time>
      </trkpt>
      <trkpt lat="39.816121039912105" lon="2.897551171481609">
        <ele>531.75</ele>
        <time>2014-09-04T07:42:07Z</time>
      </trkpt>
      <trkpt lat="39.81612766161561" lon="2.897575814276934">
        <ele>533.19000000000005</ele>
        <time>2014-09-04T07:42:09Z</time>
      </trkpt>
      <trkpt lat="39.816117016598582" lon="2.897639265283942">
        <ele>529.82000000000005</ele>
        <time>2014-09-04T07:42:15Z</time>
      </trkpt>
      <trkpt lat="39.816116010770202" lon="2.897650329396129">
        <ele>534.63</ele>
        <time>2014-09-04T07:42:16Z</time>
      </trkpt>
      <trkpt lat="39.816113831475377" lon="2.897662902250886">
        <ele>530.29999999999995</ele>
        <time>2014-09-04T07:42:17Z</time>
      </trkpt>
      <trkpt lat="39.816112574189901" lon="2.897689137607813">
        <ele>532.71000000000004</ele>
        <time>2014-09-04T07:42:19Z</time>
      </trkpt>
      <trkpt lat="39.816108047962189" lon="2.89771880954504">
        <ele>535.59000000000003</ele>
        <time>2014-09-04T07:42:21Z</time>
      </trkpt>
      <trkpt lat="39.816105952486396" lon="2.897728448733687">
        <ele>531.75</ele>
        <time>2014-09-04T07:42:22Z</time>
      </trkpt>
      <trkpt lat="39.816099498420954" lon="2.897776979953051">
        <ele>535.11000000000001</ele>
        <time>2014-09-04T07:42:25Z</time>
      </trkpt>
      <trkpt lat="39.816102096810937" lon="2.897797347977758">
        <ele>535.11000000000001</ele>
        <time>2014-09-04T07:42:26Z</time>
      </trkpt>
      <trkpt lat="39.816110143437982" lon="2.897839928045869">
        <ele>531.75</ele>
        <time>2014-09-04T07:42:29Z</time>
      </trkpt>
      <trkpt lat="39.816115340217948" lon="2.897862056270242">
        <ele>535.11000000000001</ele>
        <time>2014-09-04T07:42:31Z</time>
      </trkpt>
      <trkpt lat="39.81611835770309" lon="2.897875048220158">
        <ele>534.63</ele>
        <time>2014-09-04T07:42:32Z</time>
      </trkpt>
      <trkpt lat="39.816117854788899" lon="2.898028688505292">
        <ele>535.59000000000003</ele>
        <time>2014-09-04T07:42:42Z</time>
      </trkpt>
      <trkpt lat="39.816132187843323" lon="2.898148884996772">
        <ele>536.54999999999995</ele>
        <time>2014-09-04T07:42:50Z</time>
      </trkpt>
      <trkpt lat="39.816120956093073" lon="2.898187525570393">
        <ele>537.02999999999997</ele>
        <time>2014-09-04T07:42:55Z</time>
      </trkpt>
      <trkpt lat="39.816118441522121" lon="2.898205295205116">
        <ele>537.02999999999997</ele>
        <time>2014-09-04T07:42:56Z</time>
      </trkpt>
      <trkpt lat="39.816111652180552" lon="2.898222478106618">
        <ele>536.54999999999995</ele>
        <time>2014-09-04T07:42:57Z</time>
      </trkpt>
      <trkpt lat="39.816109640523791" lon="2.898278469219804">
        <ele>537.50999999999999</ele>
        <time>2014-09-04T07:43:01Z</time>
      </trkpt>
      <trkpt lat="39.816111484542489" lon="2.898301435634494">
        <ele>537.50999999999999</ele>
        <time>2014-09-04T07:43:02Z</time>
      </trkpt>
      <trkpt lat="39.816111233085394" lon="2.898323647677898">
        <ele>537.99000000000001</ele>
        <time>2014-09-04T07:43:03Z</time>
      </trkpt>
      <trkpt lat="39.816111149266362" lon="2.898341668769717">
        <ele>537.50999999999999</ele>
        <time>2014-09-04T07:43:04Z</time>
      </trkpt>
      <trkpt lat="39.816109724342823" lon="2.898463793098927">
        <ele>538.48000000000002</ele>
        <time>2014-09-04T07:43:13Z</time>
      </trkpt>
      <trkpt lat="39.816103857010603" lon="2.898525232449174">
        <ele>539.44000000000005</ele>
        <time>2014-09-04T07:43:24Z</time>
      </trkpt>
      <trkpt lat="39.816101426258683" lon="2.898552976548672">
        <ele>539.44000000000005</ele>
        <time>2014-09-04T07:43:42Z</time>
      </trkpt>
      <trkpt lat="39.816092206165195" lon="2.898606536909938">
        <ele>538.48000000000002</ele>
        <time>2014-09-04T07:43:56Z</time>
      </trkpt>
      <trkpt lat="39.816075190901756" lon="2.898696977645159">
        <ele>540.88</ele>
        <time>2014-09-04T07:44:07Z</time>
      </trkpt>
      <trkpt lat="39.816072341054678" lon="2.898746347054839">
        <ele>540.88</ele>
        <time>2014-09-04T07:44:12Z</time>
      </trkpt>
      <trkpt lat="39.8160694912076" lon="2.898771241307259">
        <ele>541.36000000000001</ele>
        <time>2014-09-04T07:44:14Z</time>
      </trkpt>
      <trkpt lat="39.816074520349503" lon="2.898876434192061">
        <ele>542.79999999999995</ele>
        <time>2014-09-04T07:44:26Z</time>
      </trkpt>
      <trkpt lat="39.81606999412179" lon="2.898897891864181">
        <ele>540.88</ele>
        <time>2014-09-04T07:44:28Z</time>
      </trkpt>
      <trkpt lat="39.81606806628406" lon="2.898912560194731">
        <ele>542.32000000000005</ele>
        <time>2014-09-04T07:44:29Z</time>
      </trkpt>
      <trkpt lat="39.816070161759853" lon="2.898940639570355">
        <ele>542.79999999999995</ele>
        <time>2014-09-04T07:44:31Z</time>
      </trkpt>
      <trkpt lat="39.816068820655346" lon="2.898966707289219">
        <ele>542.32000000000005</ele>
        <time>2014-09-04T07:44:33Z</time>
      </trkpt>
      <trkpt lat="39.816104527562857" lon="2.899043317884207">
        <ele>543.75999999999999</ele>
        <time>2014-09-04T07:44:41Z</time>
      </trkpt>
      <trkpt lat="39.816173342987895" lon="2.899112636223435">
        <ele>544.24000000000001</ele>
        <time>2014-09-04T07:44:46Z</time>
      </trkpt>
      <trkpt lat="39.816206619143486" lon="2.89915974251926">
        <ele>544.72000000000003</ele>
        <time>2014-09-04T07:44:52Z</time>
      </trkpt>
      <trkpt lat="39.816196141764522" lon="2.899257810786367">
        <ele>545.69000000000005</ele>
        <time>2014-09-04T07:44:59Z</time>
      </trkpt>
      <trkpt lat="39.816197650507092" lon="2.899289997294545">
        <ele>546.16999999999996</ele>
        <time>2014-09-04T07:45:01Z</time>
      </trkpt>
      <trkpt lat="39.816260850057006" lon="2.899426789954305">
        <ele>547.61000000000001</ele>
        <time>2014-09-04T07:45:12Z</time>
      </trkpt>
      <trkpt lat="39.816320529207587" lon="2.899522511288524">
        <ele>548.09000000000003</ele>
        <time>2014-09-04T07:45:22Z</time>
      </trkpt>
      <trkpt lat="39.816338885575533" lon="2.899541957303882">
        <ele>548.09000000000003</ele>
        <time>2014-09-04T07:45:23Z</time>
      </trkpt>
      <trkpt lat="39.816354475915432" lon="2.899560900405049">
        <ele>548.57000000000005</ele>
        <time>2014-09-04T07:45:24Z</time>
      </trkpt>
      <trkpt lat="39.816362522542477" lon="2.899612365290523">
        <ele>548.57000000000005</ele>
        <time>2014-09-04T07:45:28Z</time>
      </trkpt>
      <trkpt lat="39.816378783434629" lon="2.899755360558629">
        <ele>550.97000000000003</ele>
        <time>2014-09-04T07:45:41Z</time>
      </trkpt>
      <trkpt lat="39.81641398742795" lon="2.899846555665135">
        <ele>551.92999999999995</ele>
        <time>2014-09-04T07:45:48Z</time>
      </trkpt>
      <trkpt lat="39.816472493112087" lon="2.9000089969486">
        <ele>553.38</ele>
        <time>2014-09-04T07:46:01Z</time>
      </trkpt>
      <trkpt lat="39.816543404012918" lon="2.900121985003352">
        <ele>553.86000000000001</ele>
        <time>2014-09-04T07:46:09Z</time>
      </trkpt>
      <trkpt lat="39.816589001566172" lon="2.900177473202348">
        <ele>554.82000000000005</ele>
        <time>2014-09-04T07:46:16Z</time>
      </trkpt>
      <trkpt lat="39.816668042913079" lon="2.900261711329222">
        <ele>554.82000000000005</ele>
        <time>2014-09-04T07:46:22Z</time>
      </trkpt>
      <trkpt lat="39.81674037873745" lon="2.900393223389983">
        <ele>556.25999999999999</ele>
        <time>2014-09-04T07:46:34Z</time>
      </trkpt>
      <trkpt lat="39.816719759255648" lon="2.900375789031386">
        <ele>556.74000000000001</ele>
        <time>2014-09-04T07:46:37Z</time>
      </trkpt>
      <trkpt lat="39.81663434766233" lon="2.900379477068782">
        <ele>559.13999999999999</ele>
        <time>2014-09-04T07:46:47Z</time>
      </trkpt>
      <trkpt lat="39.816624959930778" lon="2.900437982752919">
        <ele>559.13999999999999</ele>
        <time>2014-09-04T07:46:52Z</time>
      </trkpt>
      <trkpt lat="39.816664354875684" lon="2.900527669116855">
        <ele>559.62</ele>
        <time>2014-09-04T07:46:57Z</time>
      </trkpt>
      <trkpt lat="39.816680196672678" lon="2.900633197277784">
        <ele>561.07000000000005</ele>
        <time>2014-09-04T07:47:04Z</time>
      </trkpt>
      <trkpt lat="39.816698133945465" lon="2.900713579729199">
        <ele>562.02999999999997</ele>
        <time>2014-09-04T07:47:09Z</time>
      </trkpt>
      <trkpt lat="39.816768541932106" lon="2.900862190872431">
        <ele>562.02999999999997</ele>
        <time>2014-09-04T07:47:20Z</time>
      </trkpt>
      <trkpt lat="39.816784467548132" lon="2.900897143408656">
        <ele>562.99000000000001</ele>
        <time>2014-09-04T07:47:27Z</time>
      </trkpt>
      <trkpt lat="39.816737277433276" lon="2.900908375158906">
        <ele>564.42999999999995</ele>
        <time>2014-09-04T07:47:36Z</time>
      </trkpt>
      <trkpt lat="39.816771643236279" lon="2.900979705154896">
        <ele>565.38999999999999</ele>
        <time>2014-09-04T07:47:43Z</time>
      </trkpt>
      <trkpt lat="39.816797291859984" lon="2.901051621884108">
        <ele>565.87</ele>
        <time>2014-09-04T07:47:48Z</time>
      </trkpt>
      <trkpt lat="39.816868202760816" lon="2.901183972135186">
        <ele>566.83000000000004</ele>
        <time>2014-09-04T07:47:59Z</time>
      </trkpt>
      <trkpt lat="39.816901730373502" lon="2.901289332658052">
        <ele>567.79999999999995</ele>
        <time>2014-09-04T07:48:08Z</time>
      </trkpt>
      <trkpt lat="39.816974652931094" lon="2.90138253942132">
        <ele>569.72000000000003</ele>
        <time>2014-09-04T07:48:20Z</time>
      </trkpt>
      <trkpt lat="39.817002061754465" lon="2.901438865810633">
        <ele>570.67999999999995</ele>
        <time>2014-09-04T07:48:24Z</time>
      </trkpt>
      <trkpt lat="39.817059226334095" lon="2.901564091444016">
        <ele>572.12</ele>
        <time>2014-09-04T07:48:35Z</time>
      </trkpt>
      <trkpt lat="39.817141704261303" lon="2.901670122519136">
        <ele>574.52999999999997</ele>
        <time>2014-09-04T07:48:47Z</time>
      </trkpt>
      <trkpt lat="39.817220829427242" lon="2.901753354817629">
        <ele>575.00999999999999</ele>
        <time>2014-09-04T07:48:57Z</time>
      </trkpt>
      <trkpt lat="39.817259386181831" lon="2.901787469163537">
        <ele>576.92999999999995</ele>
        <time>2014-09-04T07:49:06Z</time>
      </trkpt>
      <trkpt lat="39.817332644015551" lon="2.901847315952182">
        <ele>577.40999999999997</ele>
        <time>2014-09-04T07:49:11Z</time>
      </trkpt>
      <trkpt lat="39.817393328994513" lon="2.901909593492746">
        <ele>578.85000000000002</ele>
        <time>2014-09-04T07:49:17Z</time>
      </trkpt>
      <trkpt lat="39.817429538816214" lon="2.901928117498756">
        <ele>579.33000000000004</ele>
        <time>2014-09-04T07:49:21Z</time>
      </trkpt>
      <trkpt lat="39.817567421123385" lon="2.901996094733477">
        <ele>580.28999999999996</ele>
        <time>2014-09-04T07:49:34Z</time>
      </trkpt>
      <trkpt lat="39.817572701722383" lon="2.90200162678957">
        <ele>580.28999999999996</ele>
        <time>2014-09-04T07:49:36Z</time>
      </trkpt>
      <trkpt lat="39.817617544904351" lon="2.902053510770202">
        <ele>581.25</ele>
        <time>2014-09-04T07:49:41Z</time>
      </trkpt>
      <trkpt lat="39.817654257640243" lon="2.90210128761828">
        <ele>582.22000000000003</ele>
        <time>2014-09-04T07:49:47Z</time>
      </trkpt>
      <trkpt lat="39.81771276332438" lon="2.902159709483385">
        <ele>582.70000000000005</ele>
        <time>2014-09-04T07:49:54Z</time>
      </trkpt>
      <trkpt lat="39.81779532507062" lon="2.902218047529459">
        <ele>583.65999999999997</ele>
        <time>2014-09-04T07:50:05Z</time>
      </trkpt>
      <trkpt lat="39.817831953987479" lon="2.902259370312095">
        <ele>584.62</ele>
        <time>2014-09-04T07:50:09Z</time>
      </trkpt>
      <trkpt lat="39.817909402772784" lon="2.902340088039637">
        <ele>585.58000000000004</ele>
        <time>2014-09-04T07:50:16Z</time>
      </trkpt>
      <trkpt lat="39.817950055003166" lon="2.902379650622606">
        <ele>586.05999999999995</ele>
        <time>2014-09-04T07:50:20Z</time>
      </trkpt>
      <trkpt lat="39.818061953410506" lon="2.902436563745141">
        <ele>586.05999999999995</ele>
        <time>2014-09-04T07:50:29Z</time>
      </trkpt>
      <trkpt lat="39.81815499253571" lon="2.902509486302733">
        <ele>585.10000000000002</ele>
        <time>2014-09-04T07:50:39Z</time>
      </trkpt>
      <trkpt lat="39.818210396915674" lon="2.902574194595218">
        <ele>586.05999999999995</ele>
        <time>2014-09-04T07:50:44Z</time>
      </trkpt>
      <trkpt lat="39.818293042480946" lon="2.90268374606967">
        <ele>587.01999999999998</ele>
        <time>2014-09-04T07:50:56Z</time>
      </trkpt>
      <trkpt lat="39.818368814885616" lon="2.902710819616914">
        <ele>587.5</ele>
        <time>2014-09-04T07:51:03Z</time>
      </trkpt>
      <trkpt lat="39.818528909236193" lon="2.902754908427596">
        <ele>587.01999999999998</ele>
        <time>2014-09-04T07:51:15Z</time>
      </trkpt>
      <trkpt lat="39.818571154028177" lon="2.902735965326428">
        <ele>587.01999999999998</ele>
        <time>2014-09-04T07:51:19Z</time>
      </trkpt>
      <trkpt lat="39.818667881190777" lon="2.902701683342457">
        <ele>587.01999999999998</ele>
        <time>2014-09-04T07:51:27Z</time>
      </trkpt>
      <trkpt lat="39.818750359117985" lon="2.902655499055982">
        <ele>587.5</ele>
        <time>2014-09-04T07:51:41Z</time>
      </trkpt>
      <trkpt lat="39.818803165107965" lon="2.902602273970842">
        <ele>586.53999999999996</ele>
        <time>2014-09-04T07:51:49Z</time>
      </trkpt>
      <trkpt lat="39.818820431828499" lon="2.902576541528106">
        <ele>588.46000000000004</ele>
        <time>2014-09-04T07:51:58Z</time>
      </trkpt>
      <trkpt lat="39.818853875622153" lon="2.902526585385203">
        <ele>584.62</ele>
        <time>2014-09-04T07:52:02Z</time>
      </trkpt>
      <trkpt lat="39.818866783753037" lon="2.902506468817592">
        <ele>584.62</ele>
        <time>2014-09-04T07:52:03Z</time>
      </trkpt>
      <trkpt lat="39.81890550814569" lon="2.902446370571852">
        <ele>588.95000000000005</ele>
        <time>2014-09-04T07:52:07Z</time>
      </trkpt>
      <trkpt lat="39.81890550814569" lon="2.902446370571852">
        <ele>587.98000000000002</ele>
        <time>2014-09-04T07:52:08Z</time>
      </trkpt>
      <trkpt lat="39.818942807614803" lon="2.902426170185208">
        <ele>585.10000000000002</ele>
        <time>2014-09-04T07:52:11Z</time>
      </trkpt>
      <trkpt lat="39.818955129012465" lon="2.902419967576861">
        <ele>588.46000000000004</ele>
        <time>2014-09-04T07:52:12Z</time>
      </trkpt>
      <trkpt lat="39.818958817049861" lon="2.902422146871686">
        <ele>587.5</ele>
        <time>2014-09-04T07:52:13Z</time>
      </trkpt>
      <trkpt lat="39.818982118740678" lon="2.902430193498731">
        <ele>585.58000000000004</ele>
        <time>2014-09-04T07:52:15Z</time>
      </trkpt>
      <trkpt lat="39.818989243358374" lon="2.902433043345809">
        <ele>589.90999999999997</ele>
        <time>2014-09-04T07:52:16Z</time>
      </trkpt>
      <trkpt lat="39.818987315520644" lon="2.90243555791676">
        <ele>588.95000000000005</ele>
        <time>2014-09-04T07:52:17Z</time>
      </trkpt>
      <trkpt lat="39.818999385461211" lon="2.902465984225273">
        <ele>587.5</ele>
        <time>2014-09-04T07:52:19Z</time>
      </trkpt>
      <trkpt lat="39.819005085155368" lon="2.902478724718094">
        <ele>591.83000000000004</ele>
        <time>2014-09-04T07:52:20Z</time>
      </trkpt>
      <trkpt lat="39.819008521735668" lon="2.902489537373185">
        <ele>590.38999999999999</ele>
        <time>2014-09-04T07:52:21Z</time>
      </trkpt>
      <trkpt lat="39.819006090983748" lon="2.902501774951816">
        <ele>587.01999999999998</ele>
        <time>2014-09-04T07:52:22Z</time>
      </trkpt>
      <trkpt lat="39.819006510078907" lon="2.902510073035955">
        <ele>589.90999999999997</ele>
        <time>2014-09-04T07:52:23Z</time>
      </trkpt>
      <trkpt lat="39.819012964144349" lon="2.902562040835619">
        <ele>591.35000000000002</ele>
        <time>2014-09-04T07:52:28Z</time>
      </trkpt>
      <trkpt lat="39.819004246965051" lon="2.902622977271676">
        <ele>590.87</ele>
        <time>2014-09-04T07:52:33Z</time>
      </trkpt>
      <trkpt lat="39.819002989679575" lon="2.902661617845297">
        <ele>597.12</ele>
        <time>2014-09-04T07:52:37Z</time>
      </trkpt>
      <trkpt lat="39.819006929174066" lon="2.90267251431942">
        <ele>592.30999999999995</ele>
        <time>2014-09-04T07:52:38Z</time>
      </trkpt>
      <trkpt lat="39.819013047963381" lon="2.902678633108735">
        <ele>587.01999999999998</ele>
        <time>2014-09-04T07:52:44Z</time>
      </trkpt>
      <trkpt lat="39.819013047963381" lon="2.902678633108735">
        <ele>595.66999999999996</ele>
        <time>2014-09-04T07:52:45Z</time>
      </trkpt>
      <trkpt lat="39.819010281935334" lon="2.902700761333108">
        <ele>592.30999999999995</ele>
        <time>2014-09-04T07:52:47Z</time>
      </trkpt>
      <trkpt lat="39.819007767364383" lon="2.902707131579518">
        <ele>595.66999999999996</ele>
        <time>2014-09-04T07:52:48Z</time>
      </trkpt>
      <trkpt lat="39.819004917517304" lon="2.902711071074009">
        <ele>594.71000000000004</ele>
        <time>2014-09-04T07:52:49Z</time>
      </trkpt>
      <trkpt lat="39.819002654403448" lon="2.902718530967832">
        <ele>589.42999999999995</ele>
        <time>2014-09-04T07:52:50Z</time>
      </trkpt>
      <trkpt lat="39.819000139832497" lon="2.902727499604225">
        <ele>592.78999999999996</ele>
        <time>2014-09-04T07:52:51Z</time>
      </trkpt>
      <trkpt lat="39.818997541442513" lon="2.902735294774175">
        <ele>596.14999999999998</ele>
        <time>2014-09-04T07:52:52Z</time>
      </trkpt>
      <trkpt lat="39.818991087377071" lon="2.902742503210902">
        <ele>592.30999999999995</ele>
        <time>2014-09-04T07:52:53Z</time>
      </trkpt>
      <trkpt lat="39.818968959152699" lon="2.90276974439621">
        <ele>595.66999999999996</ele>
        <time>2014-09-04T07:52:56Z</time>
      </trkpt>
      <trkpt lat="39.818938365206122" lon="2.902799667790532">
        <ele>591.83000000000004</ele>
        <time>2014-09-04T07:52:59Z</time>
      </trkpt>
      <trkpt lat="39.818921433761716" lon="2.902822131291032">
        <ele>596.14999999999998</ele>
        <time>2014-09-04T07:53:02Z</time>
      </trkpt>
      <trkpt lat="39.818917997181416" lon="2.902834620326757">
        <ele>587.98000000000002</ele>
        <time>2014-09-04T07:53:04Z</time>
      </trkpt>
      <trkpt lat="39.818914644420147" lon="2.902846522629261">
        <ele>600</ele>
        <time>2014-09-04T07:53:05Z</time>
      </trkpt>
      <trkpt lat="39.818912716582417" lon="2.90285917930305">
        <ele>596.63999999999999</ele>
        <time>2014-09-04T07:53:06Z</time>
      </trkpt>
      <trkpt lat="39.818913470953703" lon="2.902868734672666">
        <ele>591.83000000000004</ele>
        <time>2014-09-04T07:53:07Z</time>
      </trkpt>
      <trkpt lat="39.818913638591766" lon="2.902874518185854">
        <ele>597.12</ele>
        <time>2014-09-04T07:53:08Z</time>
      </trkpt>
      <trkpt lat="39.818913303315639" lon="2.902876026928425">
        <ele>593.75</ele>
        <time>2014-09-04T07:53:09Z</time>
      </trkpt>
      <trkpt lat="39.818917075172067" lon="2.902883151546121">
        <ele>601.44000000000005</ele>
        <time>2014-09-04T07:53:24Z</time>
      </trkpt>
      <trkpt lat="39.818917075172067" lon="2.902883151546121">
        <ele>592.78999999999996</ele>
        <time>2014-09-04T07:53:25Z</time>
      </trkpt>
      <trkpt lat="39.818921601399779" lon="2.902892539277673">
        <ele>596.63999999999999</ele>
        <time>2014-09-04T07:53:26Z</time>
      </trkpt>
      <trkpt lat="39.818921601399779" lon="2.902892539277673">
        <ele>591.35000000000002</ele>
        <time>2014-09-04T07:53:27Z</time>
      </trkpt>
      <trkpt lat="39.818921601399779" lon="2.902892539277673">
        <ele>598.08000000000004</ele>
        <time>2014-09-04T07:53:28Z</time>
      </trkpt>
      <trkpt lat="39.818908860906959" lon="2.902946351096034">
        <ele>593.26999999999998</ele>
        <time>2014-09-04T07:53:41Z</time>
      </trkpt>
      <trkpt lat="39.818904083222151" lon="2.902953727170825">
        <ele>600.96000000000004</ele>
        <time>2014-09-04T07:53:42Z</time>
      </trkpt>
      <trkpt lat="39.818898215889931" lon="2.902962109073997">
        <ele>596.14999999999998</ele>
        <time>2014-09-04T07:53:43Z</time>
      </trkpt>
      <trkpt lat="39.818890588358045" lon="2.902996391057968">
        <ele>599.51999999999998</ele>
        <time>2014-09-04T07:53:46Z</time>
      </trkpt>
      <trkpt lat="39.818891007453203" lon="2.903016256168485">
        <ele>594.71000000000004</ele>
        <time>2014-09-04T07:53:47Z</time>
      </trkpt>
      <trkpt lat="39.81888840906322" lon="2.903022123500705">
        <ele>596.14999999999998</ele>
        <time>2014-09-04T07:53:48Z</time>
      </trkpt>
      <trkpt lat="39.818895868957043" lon="2.903032014146447">
        <ele>599.51999999999998</ele>
        <time>2014-09-04T07:53:49Z</time>
      </trkpt>
      <trkpt lat="39.818895868957043" lon="2.903032014146447">
        <ele>595.66999999999996</ele>
        <time>2014-09-04T07:53:50Z</time>
      </trkpt>
      <trkpt lat="39.818899221718311" lon="2.903035199269652">
        <ele>598.55999999999995</ele>
        <time>2014-09-04T07:54:05Z</time>
      </trkpt>
      <trkpt lat="39.818899221718311" lon="2.903035199269652">
        <ele>591.35000000000002</ele>
        <time>2014-09-04T07:54:06Z</time>
      </trkpt>
      <trkpt lat="39.818899221718311" lon="2.903035199269652">
        <ele>599.51999999999998</ele>
        <time>2014-09-04T07:54:07Z</time>
      </trkpt>
      <trkpt lat="39.818899221718311" lon="2.903035199269652">
        <ele>595.66999999999996</ele>
        <time>2014-09-04T07:54:10Z</time>
      </trkpt>
      <trkpt lat="39.818899221718311" lon="2.903035199269652">
        <ele>601.44000000000005</ele>
        <time>2014-09-04T07:54:12Z</time>
      </trkpt>
      <trkpt lat="39.818903580307961" lon="2.903040815144777">
        <ele>598.55999999999995</ele>
        <time>2014-09-04T07:54:13Z</time>
      </trkpt>
      <trkpt lat="39.8189118783921" lon="2.903067301958799">
        <ele>595.66999999999996</ele>
        <time>2014-09-04T07:54:15Z</time>
      </trkpt>
      <trkpt lat="39.818914225324988" lon="2.903075013309717">
        <ele>599.03999999999996</ele>
        <time>2014-09-04T07:54:16Z</time>
      </trkpt>
      <trkpt lat="39.818917075172067" lon="2.903081383556128">
        <ele>598.55999999999995</ele>
        <time>2014-09-04T07:54:17Z</time>
      </trkpt>
      <trkpt lat="39.818919254466891" lon="2.90309177711606">
        <ele>594.71000000000004</ele>
        <time>2014-09-04T07:54:18Z</time>
      </trkpt>
      <trkpt lat="39.818922188133001" lon="2.903103679418564">
        <ele>597.12</ele>
        <time>2014-09-04T07:54:19Z</time>
      </trkpt>
      <trkpt lat="39.818927720189095" lon="2.903120024129748">
        <ele>598.08000000000004</ele>
        <time>2014-09-04T07:54:21Z</time>
      </trkpt>
      <trkpt lat="39.818939790129662" lon="2.90313913486898">
        <ele>600.96000000000004</ele>
        <time>2014-09-04T07:54:26Z</time>
      </trkpt>
      <trkpt lat="39.818955548107624" lon="2.903185654431582">
        <ele>603.36000000000001</ele>
        <time>2014-09-04T07:54:31Z</time>
      </trkpt>
      <trkpt lat="39.818961583077908" lon="2.903269389644265">
        <ele>602.88</ele>
        <time>2014-09-04T07:54:44Z</time>
      </trkpt>
      <trkpt lat="39.818938029929996" lon="2.903277017176151">
        <ele>602.39999999999998</ele>
        <time>2014-09-04T07:54:47Z</time>
      </trkpt>
      <trkpt lat="39.818843398243189" lon="2.903294702991843">
        <ele>602.39999999999998</ele>
        <time>2014-09-04T07:54:57Z</time>
      </trkpt>
      <trkpt lat="39.818746251985431" lon="2.903327811509371">
        <ele>603.36000000000001</ele>
        <time>2014-09-04T07:55:07Z</time>
      </trkpt>
      <trkpt lat="39.818661594763398" lon="2.903348850086331">
        <ele>603.85000000000002</ele>
        <time>2014-09-04T07:55:12Z</time>
      </trkpt>
      <trkpt lat="39.818618595600128" lon="2.903345245867968">
        <ele>603.85000000000002</ele>
        <time>2014-09-04T07:55:17Z</time>
      </trkpt>
      <trkpt lat="39.8185751773417" lon="2.903357818722725">
        <ele>604.33000000000004</ele>
        <time>2014-09-04T07:55:20Z</time>
      </trkpt>
      <trkpt lat="39.818573584780097" lon="2.903356561437249">
        <ele>604.80999999999995</ele>
        <time>2014-09-04T07:55:22Z</time>
      </trkpt>
      <trkpt lat="39.818513235077262" lon="2.903376426547766">
        <ele>604.80999999999995</ele>
        <time>2014-09-04T07:55:27Z</time>
      </trkpt>
      <trkpt lat="39.818327575922012" lon="2.903407607227564">
        <ele>606.73000000000002</ele>
        <time>2014-09-04T07:55:40Z</time>
      </trkpt>
      <trkpt lat="39.818316679447889" lon="2.903410876169801">
        <ele>606.73000000000002</ele>
        <time>2014-09-04T07:55:44Z</time>
      </trkpt>
      <trkpt lat="39.81828885152936" lon="2.903409283608198">
        <ele>606.73000000000002</ele>
        <time>2014-09-04T07:55:46Z</time>
      </trkpt>
      <trkpt lat="39.818269237875938" lon="2.903401404619217">
        <ele>605.76999999999998</ele>
        <time>2014-09-04T07:55:47Z</time>
      </trkpt>
      <trkpt lat="39.818217186257243" lon="2.903333175927401">
        <ele>605.28999999999996</ele>
        <time>2014-09-04T07:55:56Z</time>
      </trkpt>
      <trkpt lat="39.818232776597142" lon="2.903324542567134">
        <ele>605.76999999999998</ele>
        <time>2014-09-04T07:56:06Z</time>
      </trkpt>
      <trkpt lat="39.818232776597142" lon="2.903324542567134">
        <ele>607.21000000000004</ele>
        <time>2014-09-04T07:56:25Z</time>
      </trkpt>
      <trkpt lat="39.818236464634538" lon="2.903333175927401">
        <ele>607.69000000000005</ele>
        <time>2014-09-04T07:56:26Z</time>
      </trkpt>
      <trkpt lat="39.818253144621849" lon="2.903368715196848">
        <ele>604.80999999999995</ele>
        <time>2014-09-04T07:56:28Z</time>
      </trkpt>
      <trkpt lat="39.818264376372099" lon="2.903388915583491">
        <ele>608.64999999999998</ele>
        <time>2014-09-04T07:56:31Z</time>
      </trkpt>
      <trkpt lat="39.818330928683281" lon="2.903481870889664">
        <ele>608.16999999999996</ele>
        <time>2014-09-04T07:56:36Z</time>
      </trkpt>
      <trkpt lat="39.818341573700309" lon="2.903525540605187">
        <ele>607.69000000000005</ele>
        <time>2014-09-04T07:56:40Z</time>
      </trkpt>
      <trkpt lat="39.818459087982774" lon="2.903671050444245">
        <ele>609.61000000000001</ele>
        <time>2014-09-04T07:56:52Z</time>
      </trkpt>
      <trkpt lat="39.81852731667459" lon="2.903714468702674">
        <ele>611.05999999999995</ele>
        <time>2014-09-04T07:57:01Z</time>
      </trkpt>
      <trkpt lat="39.818620691075921" lon="2.903781021013856">
        <ele>613.94000000000005</ele>
        <time>2014-09-04T07:57:14Z</time>
      </trkpt>
      <trkpt lat="39.818620691075921" lon="2.903781021013856">
        <ele>614.89999999999998</ele>
        <time>2014-09-04T07:57:18Z</time>
      </trkpt>
      <trkpt lat="39.818646674975753" lon="2.903792420402169">
        <ele>614.89999999999998</ele>
        <time>2014-09-04T07:57:20Z</time>
      </trkpt>
      <trkpt lat="39.818754969164729" lon="2.903914796188474">
        <ele>616.82000000000005</ele>
        <time>2014-09-04T07:57:32Z</time>
      </trkpt>
      <trkpt lat="39.81877307407558" lon="2.903946647420526">
        <ele>616.82000000000005</ele>
        <time>2014-09-04T07:57:34Z</time>
      </trkpt>
      <trkpt lat="39.818814732134342" lon="2.903976067900658">
        <ele>617.77999999999997</ele>
        <time>2014-09-04T07:57:39Z</time>
      </trkpt>
      <trkpt lat="39.818936856463552" lon="2.904011439532042">
        <ele>619.71000000000004</ele>
        <time>2014-09-04T07:57:49Z</time>
      </trkpt>
      <trkpt lat="39.818970635533333" lon="2.903999369591475">
        <ele>620.19000000000005</ele>
        <time>2014-09-04T07:57:52Z</time>
      </trkpt>
      <trkpt lat="39.818985890597105" lon="2.903994424268603">
        <ele>619.71000000000004</ele>
        <time>2014-09-04T07:57:53Z</time>
      </trkpt>
      <trkpt lat="39.819002486765385" lon="2.903989478945732">
        <ele>620.19000000000005</ele>
        <time>2014-09-04T07:57:54Z</time>
      </trkpt>
      <trkpt lat="39.81902520172298" lon="2.903972715139389">
        <ele>620.66999999999996</ele>
        <time>2014-09-04T07:57:57Z</time>
      </trkpt>
      <trkpt lat="39.819039450958371" lon="2.903969613835216">
        <ele>620.66999999999996</ele>
        <time>2014-09-04T07:57:58Z</time>
      </trkpt>
      <trkpt lat="39.819143889471889" lon="2.903972798958421">
        <ele>622.11000000000001</ele>
        <time>2014-09-04T07:58:08Z</time>
      </trkpt>
      <trkpt lat="39.819202981889248" lon="2.903955951333046">
        <ele>622.59000000000003</ele>
        <time>2014-09-04T07:58:13Z</time>
      </trkpt>
      <trkpt lat="39.819260481745005" lon="2.90390633046627">
        <ele>624.50999999999999</ele>
        <time>2014-09-04T07:58:22Z</time>
      </trkpt>
      <trkpt lat="39.819333823397756" lon="2.903869869187474">
        <ele>626.91999999999996</ele>
        <time>2014-09-04T07:58:32Z</time>
      </trkpt>
      <trkpt lat="39.819406159222126" lon="2.903823852539063">
        <ele>628.36000000000001</ele>
        <time>2014-09-04T07:58:42Z</time>
      </trkpt>
      <trkpt lat="39.819422923028469" lon="2.903816057369113">
        <ele>628.36000000000001</ele>
        <time>2014-09-04T07:58:43Z</time>
      </trkpt>
      <trkpt lat="39.819458294659853" lon="2.903802897781134">
        <ele>629.79999999999995</ele>
        <time>2014-09-04T07:58:48Z</time>
      </trkpt>
      <trkpt lat="39.819495426490903" lon="2.903794767335057">
        <ele>630.75999999999999</ele>
        <time>2014-09-04T07:58:53Z</time>
      </trkpt>
      <trkpt lat="39.819538677111268" lon="2.90379585698247">
        <ele>631.72000000000003</ele>
        <time>2014-09-04T07:58:58Z</time>
      </trkpt>
      <trkpt lat="39.819556446745992" lon="2.903806585818529">
        <ele>631.72000000000003</ele>
        <time>2014-09-04T07:58:59Z</time>
      </trkpt>
      <trkpt lat="39.819624675437808" lon="2.903780601918697">
        <ele>633.16999999999996</ele>
        <time>2014-09-04T07:59:05Z</time>
      </trkpt>
      <trkpt lat="39.81970002874732" lon="2.903772303834558">
        <ele>634.13</ele>
        <time>2014-09-04T07:59:11Z</time>
      </trkpt>
      <trkpt lat="39.819715870544314" lon="2.903779679909349">
        <ele>634.13</ele>
        <time>2014-09-04T07:59:12Z</time>
      </trkpt>
      <trkpt lat="39.819735065102577" lon="2.903785295784473">
        <ele>634.61000000000001</ele>
        <time>2014-09-04T07:59:13Z</time>
      </trkpt>
      <trkpt lat="39.819763144478202" lon="2.903785211965442">
        <ele>635.09000000000003</ele>
        <time>2014-09-04T07:59:15Z</time>
      </trkpt>
      <trkpt lat="39.819816537201405" lon="2.903794180601835">
        <ele>636.04999999999995</ele>
        <time>2014-09-04T07:59:20Z</time>
      </trkpt>
      <trkpt lat="39.819901613518596" lon="2.903808932751417">
        <ele>638.45000000000005</ele>
        <time>2014-09-04T07:59:30Z</time>
      </trkpt>
      <trkpt lat="39.819958359003067" lon="2.90384816005826">
        <ele>640.38</ele>
        <time>2014-09-04T07:59:40Z</time>
      </trkpt>
      <trkpt lat="39.820037903264165" lon="2.903885459527373">
        <ele>641.82000000000005</ele>
        <time>2014-09-04T07:59:49Z</time>
      </trkpt>
      <trkpt lat="39.820078974589705" lon="2.903878586366773">
        <ele>642.77999999999997</ele>
        <time>2014-09-04T07:59:54Z</time>
      </trkpt>
      <trkpt lat="39.820193387567997" lon="2.903892248868942">
        <ele>645.65999999999997</ele>
        <time>2014-09-04T08:00:04Z</time>
      </trkpt>
      <trkpt lat="39.82020721770823" lon="2.903901301324368">
        <ele>645.65999999999997</ele>
        <time>2014-09-04T08:00:07Z</time>
      </trkpt>
      <trkpt lat="39.820216102525592" lon="2.903913035988808">
        <ele>646.62</ele>
        <time>2014-09-04T08:00:08Z</time>
      </trkpt>
      <trkpt lat="39.820294054225087" lon="2.903966763988137">
        <ele>648.54999999999995</ele>
        <time>2014-09-04T08:00:15Z</time>
      </trkpt>
      <trkpt lat="39.820394637063146" lon="2.90397422388196">
        <ele>650.95000000000005</ele>
        <time>2014-09-04T08:00:25Z</time>
      </trkpt>
      <trkpt lat="39.82041441835463" lon="2.903973385691643">
        <ele>650.47000000000003</ele>
        <time>2014-09-04T08:00:26Z</time>
      </trkpt>
      <trkpt lat="39.820493459701538" lon="2.903967937454581">
        <ele>652.87</ele>
        <time>2014-09-04T08:00:34Z</time>
      </trkpt>
      <trkpt lat="39.820516426116228" lon="2.903965674340725">
        <ele>652.38999999999999</ele>
        <time>2014-09-04T08:00:36Z</time>
      </trkpt>
      <trkpt lat="39.820540733635426" lon="2.903962237760425">
        <ele>652.87</ele>
        <time>2014-09-04T08:00:38Z</time>
      </trkpt>
      <trkpt lat="39.820572668686509" lon="2.903949413448572">
        <ele>652.38999999999999</ele>
        <time>2014-09-04T08:00:42Z</time>
      </trkpt>
      <trkpt lat="39.820585744455457" lon="2.903952430933714">
        <ele>652.87</ele>
        <time>2014-09-04T08:00:43Z</time>
      </trkpt>
      <trkpt lat="39.820623127743602" lon="2.903952766209841">
        <ele>653.83000000000004</ele>
        <time>2014-09-04T08:00:47Z</time>
      </trkpt>
      <trkpt lat="39.820638298988342" lon="2.903956538066268">
        <ele>653.83000000000004</ele>
        <time>2014-09-04T08:00:48Z</time>
      </trkpt>
      <trkpt lat="39.820709293708205" lon="2.903947988525033">
        <ele>655.75999999999999</ele>
        <time>2014-09-04T08:00:58Z</time>
      </trkpt>
      <trkpt lat="39.82073737308383" lon="2.903944300487638">
        <ele>656.24000000000001</ele>
        <time>2014-09-04T08:01:02Z</time>
      </trkpt>
      <trkpt lat="39.82075497508049" lon="2.903942875564098">
        <ele>656.72000000000003</ele>
        <time>2014-09-04T08:01:03Z</time>
      </trkpt>
      <trkpt lat="39.820773750543594" lon="2.903937511146069">
        <ele>657.20000000000005</ele>
        <time>2014-09-04T08:01:04Z</time>
      </trkpt>
      <trkpt lat="39.820869890972972" lon="2.903906079009175">
        <ele>659.60000000000002</ele>
        <time>2014-09-04T08:01:15Z</time>
      </trkpt>
      <trkpt lat="39.820919176563621" lon="2.903861906379461">
        <ele>661.03999999999996</ele>
        <time>2014-09-04T08:01:23Z</time>
      </trkpt>
      <trkpt lat="39.820953123271465" lon="2.903825864195824">
        <ele>661.51999999999998</ele>
        <time>2014-09-04T08:01:29Z</time>
      </trkpt>
      <trkpt lat="39.820977346971631" lon="2.903814883902669">
        <ele>661.03999999999996</ele>
        <time>2014-09-04T08:01:33Z</time>
      </trkpt>
      <trkpt lat="39.821001403033733" lon="2.903793510049582">
        <ele>662.00999999999999</ele>
        <time>2014-09-04T08:01:35Z</time>
      </trkpt>
      <trkpt lat="39.821055047214031" lon="2.903738357126713">
        <ele>662.00999999999999</ele>
        <time>2014-09-04T08:01:42Z</time>
      </trkpt>
      <trkpt lat="39.821058986708522" lon="2.903730478137732">
        <ele>662.97000000000003</ele>
        <time>2014-09-04T08:01:44Z</time>
      </trkpt>
      <trkpt lat="39.821116318926215" lon="2.903671469539404">
        <ele>662.97000000000003</ele>
        <time>2014-09-04T08:01:50Z</time>
      </trkpt>
      <trkpt lat="39.821131071075797" lon="2.90365663357079">
        <ele>663.45000000000005</ele>
        <time>2014-09-04T08:01:51Z</time>
      </trkpt>
      <trkpt lat="39.821188235655427" lon="2.903575412929058">
        <ele>662.97000000000003</ele>
        <time>2014-09-04T08:01:58Z</time>
      </trkpt>
      <trkpt lat="39.821205586194992" lon="2.903559822589159">
        <ele>663.45000000000005</ele>
        <time>2014-09-04T08:01:59Z</time>
      </trkpt>
      <trkpt lat="39.82122846879065" lon="2.903514141216874">
        <ele>664.40999999999997</ele>
        <time>2014-09-04T08:02:04Z</time>
      </trkpt>
      <trkpt lat="39.821248836815357" lon="2.903479021042585">
        <ele>665.37</ele>
        <time>2014-09-04T08:02:07Z</time>
      </trkpt>
      <trkpt lat="39.82127146795392" lon="2.903463514521718">
        <ele>665.37</ele>
        <time>2014-09-04T08:02:09Z</time>
      </trkpt>
      <trkpt lat="39.821326956152916" lon="2.903489246964455">
        <ele>666.80999999999995</ele>
        <time>2014-09-04T08:02:18Z</time>
      </trkpt>
      <trkpt lat="39.821395436301827" lon="2.903655879199505">
        <ele>667.28999999999996</ele>
        <time>2014-09-04T08:02:29Z</time>
      </trkpt>
      <trkpt lat="39.821418235078454" lon="2.903813207522035">
        <ele>669.22000000000003</ele>
        <time>2014-09-04T08:02:40Z</time>
      </trkpt>
      <trkpt lat="39.821507586166263" lon="2.903872048482299">
        <ele>669.70000000000005</ele>
        <time>2014-09-04T08:02:52Z</time>
      </trkpt>
      <trkpt lat="39.821572881191969" lon="2.903912030160427">
        <ele>671.62</ele>
        <time>2014-09-04T08:03:05Z</time>
      </trkpt>
      <trkpt lat="39.821651084348559" lon="2.903991574421525">
        <ele>673.05999999999995</ele>
        <time>2014-09-04T08:03:17Z</time>
      </trkpt>
      <trkpt lat="39.821764826774597" lon="2.904047146439552">
        <ele>675.94000000000005</ele>
        <time>2014-09-04T08:03:29Z</time>
      </trkpt>
      <trkpt lat="39.821786368265748" lon="2.904055444523692">
        <ele>676.41999999999996</ele>
        <time>2014-09-04T08:03:31Z</time>
      </trkpt>
      <trkpt lat="39.821856692433357" lon="2.904127864167094">
        <ele>677.38999999999999</ele>
        <time>2014-09-04T08:03:38Z</time>
      </trkpt>
      <trkpt lat="39.821867421269417" lon="2.904142448678613">
        <ele>676.41999999999996</ele>
        <time>2014-09-04T08:03:39Z</time>
      </trkpt>
      <trkpt lat="39.821910001337528" lon="2.904165918007493">
        <ele>678.35000000000002</ele>
        <time>2014-09-04T08:03:44Z</time>
      </trkpt>
      <trkpt lat="39.822005806490779" lon="2.904239175841212">
        <ele>678.35000000000002</ele>
        <time>2014-09-04T08:03:54Z</time>
      </trkpt>
      <trkpt lat="39.822032460942864" lon="2.9043382499367">
        <ele>679.78999999999996</ele>
        <time>2014-09-04T08:04:07Z</time>
      </trkpt>
      <trkpt lat="39.822052828967571" lon="2.904373118653894">
        <ele>679.78999999999996</ele>
        <time>2014-09-04T08:04:26Z</time>
      </trkpt>
      <trkpt lat="39.822059869766235" lon="2.904374124482274">
        <ele>675.46000000000004</ele>
        <time>2014-09-04T08:04:28Z</time>
      </trkpt>
      <trkpt lat="39.822077471762896" lon="2.904353756457567">
        <ele>675.94000000000005</ele>
        <time>2014-09-04T08:04:30Z</time>
      </trkpt>
      <trkpt lat="39.822080908343196" lon="2.904350990429521">
        <ele>682.19000000000005</ele>
        <time>2014-09-04T08:04:31Z</time>
      </trkpt>
      <trkpt lat="39.822080908343196" lon="2.904350990429521">
        <ele>678.83000000000004</ele>
        <time>2014-09-04T08:04:32Z</time>
      </trkpt>
      <trkpt lat="39.822081914171576" lon="2.904346715658903">
        <ele>686.03999999999996</ele>
        <time>2014-09-04T08:04:33Z</time>
      </trkpt>
      <trkpt lat="39.822085434570909" lon="2.90435048751533">
        <ele>681.23000000000002</ele>
        <time>2014-09-04T08:04:34Z</time>
      </trkpt>
      <trkpt lat="39.822088535875082" lon="2.90437831543386">
        <ele>687</ele>
        <time>2014-09-04T08:04:42Z</time>
      </trkpt>
      <trkpt lat="39.822088535875082" lon="2.90437831543386">
        <ele>675.46000000000004</ele>
        <time>2014-09-04T08:04:43Z</time>
      </trkpt>
      <trkpt lat="39.822093648836017" lon="2.904384769499302">
        <ele>685.55999999999995</ele>
        <time>2014-09-04T08:04:44Z</time>
      </trkpt>
      <trkpt lat="39.822091637179255" lon="2.904389044269919">
        <ele>673.05999999999995</ele>
        <time>2014-09-04T08:04:45Z</time>
      </trkpt>
      <trkpt lat="39.822091637179255" lon="2.904389044269919">
        <ele>682.66999999999996</ele>
        <time>2014-09-04T08:04:46Z</time>
      </trkpt>
      <trkpt lat="39.82212164439261" lon="2.904443023726344">
        <ele>678.35000000000002</ele>
        <time>2014-09-04T08:04:50Z</time>
      </trkpt>
      <trkpt lat="39.822142599150538" lon="2.904430869966745">
        <ele>679.30999999999995</ele>
        <time>2014-09-04T08:04:52Z</time>
      </trkpt>
      <trkpt lat="39.822158860042691" lon="2.904409412294626">
        <ele>678.35000000000002</ele>
        <time>2014-09-04T08:04:54Z</time>
      </trkpt>
      <trkpt lat="39.82216464355588" lon="2.904397426173091">
        <ele>678.35000000000002</ele>
        <time>2014-09-04T08:04:55Z</time>
      </trkpt>
      <trkpt lat="39.82219347730279" lon="2.904391894116998">
        <ele>675.46000000000004</ele>
        <time>2014-09-04T08:04:57Z</time>
      </trkpt>
      <trkpt lat="39.822271931916475" lon="2.904346799477935">
        <ele>679.78999999999996</ele>
        <time>2014-09-04T08:05:03Z</time>
      </trkpt>
      <trkpt lat="39.822293892502785" lon="2.904330957680941">
        <ele>677.38999999999999</ele>
        <time>2014-09-04T08:05:05Z</time>
      </trkpt>
      <trkpt lat="39.822332784533501" lon="2.904319474473596">
        <ele>674.98000000000002</ele>
        <time>2014-09-04T08:05:08Z</time>
      </trkpt>
      <trkpt lat="39.822344938293099" lon="2.904327940195799">
        <ele>676.90999999999997</ele>
        <time>2014-09-04T08:05:10Z</time>
      </trkpt>
      <trkpt lat="39.822358600795269" lon="2.904330287128687">
        <ele>675.94000000000005</ele>
        <time>2014-09-04T08:05:12Z</time>
      </trkpt>
      <trkpt lat="39.822459686547518" lon="2.904318133369088">
        <ele>676.90999999999997</ele>
        <time>2014-09-04T08:05:20Z</time>
      </trkpt>
      <trkpt lat="39.822464548051357" lon="2.904320061206818">
        <ele>676.90999999999997</ele>
        <time>2014-09-04T08:05:22Z</time>
      </trkpt>
      <trkpt lat="39.82249497435987" lon="2.904315367341042">
        <ele>676.90999999999997</ele>
        <time>2014-09-04T08:05:24Z</time>
      </trkpt>
      <trkpt lat="39.822513666003942" lon="2.90430698543787">
        <ele>676.90999999999997</ele>
        <time>2014-09-04T08:05:25Z</time>
      </trkpt>
      <trkpt lat="39.82257611118257" lon="2.904306314885616">
        <ele>676.90999999999997</ele>
        <time>2014-09-04T08:05:30Z</time>
      </trkpt>
      <trkpt lat="39.822589438408613" lon="2.904305560514331">
        <ele>676.90999999999997</ele>
        <time>2014-09-04T08:05:31Z</time>
      </trkpt>
      <trkpt lat="39.82260687276721" lon="2.904309332370758">
        <ele>676.90999999999997</ele>
        <time>2014-09-04T08:05:32Z</time>
      </trkpt>
      <trkpt lat="39.822736792266369" lon="2.904299777001143">
        <ele>678.35000000000002</ele>
        <time>2014-09-04T08:05:42Z</time>
      </trkpt>
      <trkpt lat="39.822744000703096" lon="2.904284605756402">
        <ele>680.26999999999998</ele>
        <time>2014-09-04T08:05:45Z</time>
      </trkpt>
      <trkpt lat="39.822764620184898" lon="2.904262645170093">
        <ele>677.38999999999999</ele>
        <time>2014-09-04T08:05:46Z</time>
      </trkpt>
      <trkpt lat="39.82278666459024" lon="2.904250239953399">
        <ele>674.98000000000002</ele>
        <time>2014-09-04T08:05:47Z</time>
      </trkpt>
      <trkpt lat="39.822805523872375" lon="2.904238253831863">
        <ele>678.35000000000002</ele>
        <time>2014-09-04T08:05:49Z</time>
      </trkpt>
      <trkpt lat="39.822813905775547" lon="2.904240014031529">
        <ele>677.87</ele>
        <time>2014-09-04T08:05:50Z</time>
      </trkpt>
      <trkpt lat="39.822831340134144" lon="2.904229201376438">
        <ele>674.5</ele>
        <time>2014-09-04T08:05:56Z</time>
      </trkpt>
      <trkpt lat="39.822842068970203" lon="2.904226686805487">
        <ele>675.94000000000005</ele>
        <time>2014-09-04T08:05:57Z</time>
      </trkpt>
      <trkpt lat="39.822850618511438" lon="2.904242696240544">
        <ele>679.30999999999995</ele>
        <time>2014-09-04T08:05:59Z</time>
      </trkpt>
      <trkpt lat="39.822901077568531" lon="2.904264992102981">
        <ele>675.94000000000005</ele>
        <time>2014-09-04T08:06:05Z</time>
      </trkpt>
      <trkpt lat="39.822912141680717" lon="2.904266500845552">
        <ele>680.26999999999998</ele>
        <time>2014-09-04T08:06:11Z</time>
      </trkpt>
      <trkpt lat="39.822937622666359" lon="2.904240600764751">
        <ele>675.94000000000005</ele>
        <time>2014-09-04T08:06:13Z</time>
      </trkpt>
      <trkpt lat="39.822953632101417" lon="2.904222412034869">
        <ele>676.41999999999996</ele>
        <time>2014-09-04T08:06:14Z</time>
      </trkpt>
      <trkpt lat="39.82297332957387" lon="2.904211264103651">
        <ele>674.98000000000002</ele>
        <time>2014-09-04T08:06:15Z</time>
      </trkpt>
      <trkpt lat="39.823007276281714" lon="2.904192069545388">
        <ele>678.83000000000004</ele>
        <time>2014-09-04T08:06:17Z</time>
      </trkpt>
      <trkpt lat="39.823025381192565" lon="2.904166923835874">
        <ele>678.83000000000004</ele>
        <time>2014-09-04T08:06:19Z</time>
      </trkpt>
      <trkpt lat="39.823040636256337" lon="2.904160050675273">
        <ele>677.38999999999999</ele>
        <time>2014-09-04T08:06:20Z</time>
      </trkpt>
      <trkpt lat="39.823057986795902" lon="2.904161224141717">
        <ele>675.94000000000005</ele>
        <time>2014-09-04T08:06:21Z</time>
      </trkpt>
      <trkpt lat="39.823091011494398" lon="2.90415988303721">
        <ele>678.35000000000002</ele>
        <time>2014-09-04T08:06:24Z</time>
      </trkpt>
      <trkpt lat="39.82309402897954" lon="2.904165582731366">
        <ele>679.30999999999995</ele>
        <time>2014-09-04T08:06:26Z</time>
      </trkpt>
      <trkpt lat="39.823218248784542" lon="2.904208917170763">
        <ele>677.87</ele>
        <time>2014-09-04T08:06:36Z</time>
      </trkpt>
      <trkpt lat="39.823320172727108" lon="2.904189387336373">
        <ele>676.90999999999997</ele>
        <time>2014-09-04T08:06:43Z</time>
      </trkpt>
      <trkpt lat="39.823375912383199" lon="2.90425225161016">
        <ele>676.41999999999996</ele>
        <time>2014-09-04T08:06:50Z</time>
      </trkpt>
      <trkpt lat="39.823395442217588" lon="2.904269099235535">
        <ele>676.41999999999996</ele>
        <time>2014-09-04T08:06:51Z</time>
      </trkpt>
      <trkpt lat="39.823410362005234" lon="2.90428938344121">
        <ele>676.41999999999996</ele>
        <time>2014-09-04T08:06:52Z</time>
      </trkpt>
      <trkpt lat="39.823423940688372" lon="2.904308075085282">
        <ele>676.41999999999996</ele>
        <time>2014-09-04T08:06:53Z</time>
      </trkpt>
      <trkpt lat="39.823459479957819" lon="2.904346715658903">
        <ele>675.94000000000005</ele>
        <time>2014-09-04T08:06:59Z</time>
      </trkpt>
      <trkpt lat="39.823469035327435" lon="2.9043641500175">
        <ele>676.41999999999996</ele>
        <time>2014-09-04T08:07:00Z</time>
      </trkpt>
      <trkpt lat="39.82348152436316" lon="2.904384853318334">
        <ele>676.41999999999996</ele>
        <time>2014-09-04T08:07:01Z</time>
      </trkpt>
      <trkpt lat="39.823493594303727" lon="2.904406730085611">
        <ele>676.41999999999996</ele>
        <time>2014-09-04T08:07:02Z</time>
      </trkpt>
      <trkpt lat="39.823539862409234" lon="2.904464565217495">
        <ele>676.90999999999997</ele>
        <time>2014-09-04T08:07:08Z</time>
      </trkpt>
      <trkpt lat="39.823560817167163" lon="2.904485100880265">
        <ele>676.90999999999997</ele>
        <time>2014-09-04T08:07:09Z</time>
      </trkpt>
      <trkpt lat="39.823578167706728" lon="2.904504798352718">
        <ele>677.38999999999999</ele>
        <time>2014-09-04T08:07:10Z</time>
      </trkpt>
      <trkpt lat="39.823602139949799" lon="2.904548300430179">
        <ele>677.87</ele>
        <time>2014-09-04T08:07:14Z</time>
      </trkpt>
      <trkpt lat="39.823612198233604" lon="2.904564812779427">
        <ele>677.87</ele>
        <time>2014-09-04T08:07:15Z</time>
      </trkpt>
      <trkpt lat="39.823624603450298" lon="2.904583588242531">
        <ele>677.87</ele>
        <time>2014-09-04T08:07:16Z</time>
      </trkpt>
      <trkpt lat="39.823638685047626" lon="2.904603201895952">
        <ele>677.87</ele>
        <time>2014-09-04T08:07:17Z</time>
      </trkpt>
      <trkpt lat="39.823651928454638" lon="2.904616696760058">
        <ele>677.38999999999999</ele>
        <time>2014-09-04T08:07:18Z</time>
      </trkpt>
      <trkpt lat="39.82372485101223" lon="2.904702695086598">
        <ele>678.83000000000004</ele>
        <time>2014-09-04T08:07:27Z</time>
      </trkpt>
      <trkpt lat="39.823763910681009" lon="2.904803613200784">
        <ele>678.83000000000004</ele>
        <time>2014-09-04T08:07:35Z</time>
      </trkpt>
      <trkpt lat="39.823775812983513" lon="2.904826328158379">
        <ele>678.83000000000004</ele>
        <time>2014-09-04T08:07:36Z</time>
      </trkpt>
      <trkpt lat="39.823796348646283" lon="2.904882067814469">
        <ele>679.78999999999996</ele>
        <time>2014-09-04T08:07:40Z</time>
      </trkpt>
      <trkpt lat="39.823800288140774" lon="2.904901932924986">
        <ele>679.78999999999996</ele>
        <time>2014-09-04T08:07:41Z</time>
      </trkpt>
      <trkpt lat="39.823846472427249" lon="2.904981393367052">
        <ele>680.26999999999998</ele>
        <time>2014-09-04T08:07:48Z</time>
      </trkpt>
      <trkpt lat="39.823882849887013" lon="2.90499547496438">
        <ele>680.75</ele>
        <time>2014-09-04T08:07:51Z</time>
      </trkpt>
      <trkpt lat="39.823992317542434" lon="2.905115000903606">
        <ele>679.78999999999996</ele>
        <time>2014-09-04T08:08:00Z</time>
      </trkpt>
      <trkpt lat="39.824008578434587" lon="2.905163867399097">
        <ele>679.78999999999996</ele>
        <time>2014-09-04T08:08:05Z</time>
      </trkpt>
      <trkpt lat="39.824032047763467" lon="2.905176943168044">
        <ele>679.30999999999995</ele>
        <time>2014-09-04T08:08:06Z</time>
      </trkpt>
      <trkpt lat="39.824099773541093" lon="2.905258163809776">
        <ele>678.35000000000002</ele>
        <time>2014-09-04T08:08:14Z</time>
      </trkpt>
      <trkpt lat="39.824148807674646" lon="2.905369140207768">
        <ele>677.38999999999999</ele>
        <time>2014-09-04T08:08:23Z</time>
      </trkpt>
      <trkpt lat="39.824205636978149" lon="2.905461005866528">
        <ele>676.41999999999996</ele>
        <time>2014-09-04T08:08:31Z</time>
      </trkpt>
      <trkpt lat="39.824240002781153" lon="2.905506519600749">
        <ele>675.94000000000005</ele>
        <time>2014-09-04T08:08:36Z</time>
      </trkpt>
      <trkpt lat="39.824255341663957" lon="2.90552512742579">
        <ele>675.94000000000005</ele>
        <time>2014-09-04T08:08:37Z</time>
      </trkpt>
      <trkpt lat="39.824264142662287" lon="2.905541555956006">
        <ele>675.94000000000005</ele>
        <time>2014-09-04T08:08:38Z</time>
      </trkpt>
      <trkpt lat="39.824266321957111" lon="2.905592266470194">
        <ele>675.46000000000004</ele>
        <time>2014-09-04T08:08:42Z</time>
      </trkpt>
      <trkpt lat="39.824270512908697" lon="2.905609449371696">
        <ele>675.94000000000005</ele>
        <time>2014-09-04T08:08:43Z</time>
      </trkpt>
      <trkpt lat="39.824276631698012" lon="2.905629817396402">
        <ele>675.94000000000005</ele>
        <time>2014-09-04T08:08:44Z</time>
      </trkpt>
      <trkpt lat="39.82428484596312" lon="2.905653957277536">
        <ele>675.46000000000004</ele>
        <time>2014-09-04T08:08:45Z</time>
      </trkpt>
      <trkpt lat="39.82430093921721" lon="2.905697962269187">
        <ele>674.5</ele>
        <time>2014-09-04T08:08:52Z</time>
      </trkpt>
      <trkpt lat="39.824308063834906" lon="2.905722688883543">
        <ele>674.5</ele>
        <time>2014-09-04T08:08:53Z</time>
      </trkpt>
      <trkpt lat="39.824312422424555" lon="2.905749762430787">
        <ele>673.53999999999996</ele>
        <time>2014-09-04T08:08:54Z</time>
      </trkpt>
      <trkpt lat="39.824317200109363" lon="2.905773483216763">
        <ele>673.53999999999996</ele>
        <time>2014-09-04T08:08:55Z</time>
      </trkpt>
      <trkpt lat="39.824345111846924" lon="2.905878592282534">
        <ele>673.05999999999995</ele>
        <time>2014-09-04T08:09:02Z</time>
      </trkpt>
      <trkpt lat="39.824356008321047" lon="2.905897283926606">
        <ele>673.05999999999995</ele>
        <time>2014-09-04T08:09:03Z</time>
      </trkpt>
      <trkpt lat="39.824362294748425" lon="2.905913544818759">
        <ele>673.05999999999995</ele>
        <time>2014-09-04T08:09:04Z</time>
      </trkpt>
      <trkpt lat="39.824390709400177" lon="2.9059580527246">
        <ele>672.58000000000004</ele>
        <time>2014-09-04T08:09:10Z</time>
      </trkpt>
      <trkpt lat="39.824452316388488" lon="2.906084870919585">
        <ele>672.10000000000002</ele>
        <time>2014-09-04T08:09:19Z</time>
      </trkpt>
      <trkpt lat="39.824496824294329" lon="2.906171204522252">
        <ele>672.10000000000002</ele>
        <time>2014-09-04T08:09:26Z</time>
      </trkpt>
      <trkpt lat="39.824512498453259" lon="2.906187046319246">
        <ele>672.10000000000002</ele>
        <time>2014-09-04T08:09:27Z</time>
      </trkpt>
      <trkpt lat="39.824576955288649" lon="2.906266674399376">
        <ele>671.62</ele>
        <time>2014-09-04T08:09:36Z</time>
      </trkpt>
      <trkpt lat="39.824593216180801" lon="2.906291652470827">
        <ele>671.13999999999999</ele>
        <time>2014-09-04T08:09:41Z</time>
      </trkpt>
      <trkpt lat="39.824609896168113" lon="2.906304728239775">
        <ele>671.13999999999999</ele>
        <time>2014-09-04T08:09:42Z</time>
      </trkpt>
      <trkpt lat="39.82462540268898" lon="2.90632015094161">
        <ele>671.62</ele>
        <time>2014-09-04T08:09:43Z</time>
      </trkpt>
      <trkpt lat="39.824693547561765" lon="2.906412351876497">
        <ele>671.13999999999999</ele>
        <time>2014-09-04T08:09:52Z</time>
      </trkpt>
      <trkpt lat="39.824692709371448" lon="2.906418805941939">
        <ele>671.62</ele>
        <time>2014-09-04T08:09:54Z</time>
      </trkpt>
      <trkpt lat="39.824702097103" lon="2.906433306634426">
        <ele>671.62</ele>
        <time>2014-09-04T08:09:55Z</time>
      </trkpt>
      <trkpt lat="39.824710562825203" lon="2.906448477879167">
        <ele>671.62</ele>
        <time>2014-09-04T08:09:56Z</time>
      </trkpt>
      <trkpt lat="39.82472212985158" lon="2.906461637467146">
        <ele>672.10000000000002</ele>
        <time>2014-09-04T08:09:57Z</time>
      </trkpt>
      <trkpt lat="39.824749622493982" lon="2.906508827582002">
        <ele>672.58000000000004</ele>
        <time>2014-09-04T08:10:01Z</time>
      </trkpt>
      <trkpt lat="39.824767224490643" lon="2.906537996605039">
        <ele>672.58000000000004</ele>
        <time>2014-09-04T08:10:03Z</time>
      </trkpt>
      <trkpt lat="39.82478616759181" lon="2.906633801758289">
        <ele>672.58000000000004</ele>
        <time>2014-09-04T08:10:07Z</time>
      </trkpt>
      <trkpt lat="39.824790023267269" lon="2.906665401533246">
        <ele>672.58000000000004</ele>
        <time>2014-09-04T08:10:08Z</time>
      </trkpt>
      <trkpt lat="39.824795471504331" lon="2.906689792871475">
        <ele>672.58000000000004</ele>
        <time>2014-09-04T08:10:09Z</time>
      </trkpt>
      <trkpt lat="39.824811816215515" lon="2.90677797049284">
        <ele>673.53999999999996</ele>
        <time>2014-09-04T08:10:15Z</time>
      </trkpt>
      <trkpt lat="39.824816007167101" lon="2.906811581924558">
        <ele>674.01999999999998</ele>
        <time>2014-09-04T08:10:19Z</time>
      </trkpt>
      <trkpt lat="39.824814330786467" lon="2.90683513507247">
        <ele>674.01999999999998</ele>
        <time>2014-09-04T08:10:20Z</time>
      </trkpt>
      <trkpt lat="39.824836207553744" lon="2.906964551657438">
        <ele>674.98000000000002</ele>
        <time>2014-09-04T08:10:29Z</time>
      </trkpt>
      <trkpt lat="39.824856072664261" lon="2.907070582732558">
        <ele>674.98000000000002</ele>
        <time>2014-09-04T08:10:36Z</time>
      </trkpt>
      <trkpt lat="39.824861437082291" lon="2.90709313005209">
        <ele>675.46000000000004</ele>
        <time>2014-09-04T08:10:37Z</time>
      </trkpt>
      <trkpt lat="39.824863029643893" lon="2.907116180285811">
        <ele>675.46000000000004</ele>
        <time>2014-09-04T08:10:38Z</time>
      </trkpt>
      <trkpt lat="39.82487702742219" lon="2.907214080914855">
        <ele>676.41999999999996</ele>
        <time>2014-09-04T08:10:44Z</time>
      </trkpt>
      <trkpt lat="39.824886163696647" lon="2.90721626020968">
        <ele>676.90999999999997</ele>
        <time>2014-09-04T08:10:48Z</time>
      </trkpt>
      <trkpt lat="39.824876943603158" lon="2.907216176390648">
        <ele>676.41999999999996</ele>
        <time>2014-09-04T08:10:56Z</time>
      </trkpt>
      <trkpt lat="39.824877865612507" lon="2.907232437282801">
        <ele>675.94000000000005</ele>
        <time>2014-09-04T08:10:57Z</time>
      </trkpt>
      <trkpt lat="39.82488582842052" lon="2.907311310991645">
        <ele>679.30999999999995</ele>
        <time>2014-09-04T08:11:02Z</time>
      </trkpt>
      <trkpt lat="39.824895048514009" lon="2.907355399802327">
        <ele>676.90999999999997</ele>
        <time>2014-09-04T08:11:05Z</time>
      </trkpt>
      <trkpt lat="39.824892533943057" lon="2.907375935465097">
        <ele>676.90999999999997</ele>
        <time>2014-09-04T08:11:06Z</time>
      </trkpt>
      <trkpt lat="39.824912063777447" lon="2.907407535240054">
        <ele>676.90999999999997</ele>
        <time>2014-09-04T08:11:14Z</time>
      </trkpt>
      <trkpt lat="39.824990518391132" lon="2.90751188993454">
        <ele>676.41999999999996</ele>
        <time>2014-09-04T08:11:24Z</time>
      </trkpt>
      <trkpt lat="39.824996972456574" lon="2.907530078664422">
        <ele>675.46000000000004</ele>
        <time>2014-09-04T08:11:25Z</time>
      </trkpt>
      <trkpt lat="39.825024465098977" lon="2.907597636803985">
        <ele>674.5</ele>
        <time>2014-09-04T08:11:31Z</time>
      </trkpt>
      <trkpt lat="39.825041815638542" lon="2.907600402832031">
        <ele>674.5</ele>
        <time>2014-09-04T08:11:32Z</time>
      </trkpt>
      <trkpt lat="39.825059249997139" lon="2.907607108354569">
        <ele>674.01999999999998</ele>
        <time>2014-09-04T08:11:33Z</time>
      </trkpt>
      <trkpt lat="39.82507735490799" lon="2.907604342326522">
        <ele>673.05999999999995</ele>
        <time>2014-09-04T08:11:34Z</time>
      </trkpt>
      <trkpt lat="39.825090849772096" lon="2.90759738534689">
        <ele>673.05999999999995</ele>
        <time>2014-09-04T08:11:35Z</time>
      </trkpt>
      <trkpt lat="39.825104344636202" lon="2.907607695087791">
        <ele>672.58000000000004</ele>
        <time>2014-09-04T08:11:37Z</time>
      </trkpt>
      <trkpt lat="39.825115157291293" lon="2.907616412267089">
        <ele>672.58000000000004</ele>
        <time>2014-09-04T08:11:38Z</time>
      </trkpt>
      <trkpt lat="39.825133597478271" lon="2.907619932666421">
        <ele>672.10000000000002</ele>
        <time>2014-09-04T08:11:39Z</time>
      </trkpt>
      <trkpt lat="39.825151031836867" lon="2.907618507742882">
        <ele>672.10000000000002</ele>
        <time>2014-09-04T08:11:40Z</time>
      </trkpt>
      <trkpt lat="39.825162682682276" lon="2.907620603218675">
        <ele>672.10000000000002</ele>
        <time>2014-09-04T08:11:41Z</time>
      </trkpt>
      <trkpt lat="39.825191600248218" lon="2.907638791948557">
        <ele>671.13999999999999</ele>
        <time>2014-09-04T08:11:45Z</time>
      </trkpt>
      <trkpt lat="39.825202915817499" lon="2.907653879374266">
        <ele>670.65999999999997</ele>
        <time>2014-09-04T08:11:46Z</time>
      </trkpt>
      <trkpt lat="39.825218422338367" lon="2.907668380066752">
        <ele>671.13999999999999</ele>
        <time>2014-09-04T08:11:47Z</time>
      </trkpt>
      <trkpt lat="39.825235269963741" lon="2.90767609141767">
        <ele>670.65999999999997</ele>
        <time>2014-09-04T08:11:48Z</time>
      </trkpt>
      <trkpt lat="39.825247758999467" lon="2.907678354531527">
        <ele>670.65999999999997</ele>
        <time>2014-09-04T08:11:49Z</time>
      </trkpt>
      <trkpt lat="39.825269216671586" lon="2.907675672322512">
        <ele>669.70000000000005</ele>
        <time>2014-09-04T08:11:54Z</time>
      </trkpt>
      <trkpt lat="39.825277682393789" lon="2.907686065882444">
        <ele>669.70000000000005</ele>
        <time>2014-09-04T08:11:55Z</time>
      </trkpt>
      <trkpt lat="39.825299140065908" lon="2.907734932377935">
        <ele>668.73000000000002</ele>
        <time>2014-09-04T08:12:00Z</time>
      </trkpt>
      <trkpt lat="39.825310371816158" lon="2.907754043117166">
        <ele>668.73000000000002</ele>
        <time>2014-09-04T08:12:01Z</time>
      </trkpt>
      <trkpt lat="39.825322609394789" lon="2.90777089074254">
        <ele>667.76999999999998</ele>
        <time>2014-09-04T08:12:02Z</time>
      </trkpt>
      <trkpt lat="39.8253392893821" lon="2.907798299565911">
        <ele>667.28999999999996</ele>
        <time>2014-09-04T08:12:04Z</time>
      </trkpt>
      <trkpt lat="39.82534565962851" lon="2.907828809693456">
        <ele>667.28999999999996</ele>
        <time>2014-09-04T08:12:07Z</time>
      </trkpt>
      <trkpt lat="39.825383126735687" lon="2.907866192981601">
        <ele>665.85000000000002</ele>
        <time>2014-09-04T08:12:11Z</time>
      </trkpt>
      <trkpt lat="39.825407098978758" lon="2.907892344519496">
        <ele>665.37</ele>
        <time>2014-09-04T08:12:15Z</time>
      </trkpt>
      <trkpt lat="39.825440542772412" lon="2.907922687008977">
        <ele>665.37</ele>
        <time>2014-09-04T08:12:18Z</time>
      </trkpt>
      <trkpt lat="39.825470633804798" lon="2.907952694222331">
        <ele>664.88999999999999</ele>
        <time>2014-09-04T08:12:23Z</time>
      </trkpt>
      <trkpt lat="39.825567612424493" lon="2.907990831881762">
        <ele>663.92999999999995</ele>
        <time>2014-09-04T08:12:31Z</time>
      </trkpt>
      <trkpt lat="39.82560365460813" lon="2.908012121915817">
        <ele>663.45000000000005</ele>
        <time>2014-09-04T08:12:33Z</time>
      </trkpt>
      <trkpt lat="39.825669704005122" lon="2.90807724930346">
        <ele>662.97000000000003</ele>
        <time>2014-09-04T08:12:41Z</time>
      </trkpt>
      <trkpt lat="39.825725695118308" lon="2.908094599843025">
        <ele>662.97000000000003</ele>
        <time>2014-09-04T08:12:46Z</time>
      </trkpt>
      <trkpt lat="39.825741788372397" lon="2.908100299537182">
        <ele>662.00999999999999</ele>
        <time>2014-09-04T08:12:47Z</time>
      </trkpt>
      <trkpt lat="39.825760144740343" lon="2.908109687268734">
        <ele>662.00999999999999</ele>
        <time>2014-09-04T08:12:48Z</time>
      </trkpt>
      <trkpt lat="39.825775735080242" lon="2.90812075138092">
        <ele>661.51999999999998</ele>
        <time>2014-09-04T08:12:49Z</time>
      </trkpt>
      <trkpt lat="39.825806580483913" lon="2.908122595399618">
        <ele>661.03999999999996</ele>
        <time>2014-09-04T08:12:53Z</time>
      </trkpt>
      <trkpt lat="39.825844382867217" lon="2.908156290650368">
        <ele>661.03999999999996</ele>
        <time>2014-09-04T08:12:59Z</time>
      </trkpt>
      <trkpt lat="39.825883274897933" lon="2.908146064728499">
        <ele>660.55999999999995</ele>
        <time>2014-09-04T08:13:01Z</time>
      </trkpt>
      <trkpt lat="39.825957957655191" lon="2.9081822745502">
        <ele>658.63999999999999</ele>
        <time>2014-09-04T08:13:09Z</time>
      </trkpt>
      <trkpt lat="39.8259730450809" lon="2.908176574856043">
        <ele>658.15999999999997</ele>
        <time>2014-09-04T08:13:10Z</time>
      </trkpt>
      <trkpt lat="39.825987461954355" lon="2.908173222094774">
        <ele>658.15999999999997</ele>
        <time>2014-09-04T08:13:11Z</time>
      </trkpt>
      <trkpt lat="39.826032221317291" lon="2.908132402226329">
        <ele>657.20000000000005</ele>
        <time>2014-09-04T08:13:15Z</time>
      </trkpt>
      <trkpt lat="39.826059797778726" lon="2.908075656741858">
        <ele>656.72000000000003</ele>
        <time>2014-09-04T08:13:20Z</time>
      </trkpt>
      <trkpt lat="39.826114950701594" lon="2.908019749447703">
        <ele>655.75999999999999</ele>
        <time>2014-09-04T08:13:26Z</time>
      </trkpt>
      <trkpt lat="39.82612551189959" lon="2.908006673678756">
        <ele>654.79999999999995</ele>
        <time>2014-09-04T08:13:27Z</time>
      </trkpt>
      <trkpt lat="39.826135905459523" lon="2.907989071682096">
        <ele>655.27999999999997</ele>
        <time>2014-09-04T08:13:28Z</time>
      </trkpt>
      <trkpt lat="39.826145209372044" lon="2.907978845760226">
        <ele>655.27999999999997</ele>
        <time>2014-09-04T08:13:29Z</time>
      </trkpt>
      <trkpt lat="39.826168594881892" lon="2.907978594303131">
        <ele>654.79999999999995</ele>
        <time>2014-09-04T08:13:33Z</time>
      </trkpt>
      <trkpt lat="39.826182844117284" lon="2.907972643151879">
        <ele>653.83000000000004</ele>
        <time>2014-09-04T08:13:34Z</time>
      </trkpt>
      <trkpt lat="39.826198434457183" lon="2.907972307875752">
        <ele>654.30999999999995</ele>
        <time>2014-09-04T08:13:35Z</time>
      </trkpt>
      <trkpt lat="39.826210336759686" lon="2.907980438321829">
        <ele>653.35000000000002</ele>
        <time>2014-09-04T08:13:36Z</time>
      </trkpt>
      <trkpt lat="39.826295077800751" lon="2.90806794539094">
        <ele>652.38999999999999</ele>
        <time>2014-09-04T08:13:44Z</time>
      </trkpt>
      <trkpt lat="39.82632827013731" lon="2.908074567094445">
        <ele>651.90999999999997</ele>
        <time>2014-09-04T08:13:49Z</time>
      </trkpt>
      <trkpt lat="39.826344195753336" lon="2.90808261372149">
        <ele>652.38999999999999</ele>
        <time>2014-09-04T08:13:50Z</time>
      </trkpt>
      <trkpt lat="39.826372610405087" lon="2.908094935119152">
        <ele>651.90999999999997</ele>
        <time>2014-09-04T08:13:53Z</time>
      </trkpt>
      <trkpt lat="39.826380405575037" lon="2.908100634813309">
        <ele>651.90999999999997</ele>
        <time>2014-09-04T08:13:54Z</time>
      </trkpt>
      <trkpt lat="39.826504793018103" lon="2.908148914575577">
        <ele>650.47000000000003</ele>
        <time>2014-09-04T08:14:05Z</time>
      </trkpt>
      <trkpt lat="39.826601771637797" lon="2.908186800777912">
        <ele>649.50999999999999</ele>
        <time>2014-09-04T08:14:13Z</time>
      </trkpt>
      <trkpt lat="39.82661409303546" lon="2.908191327005625">
        <ele>649.02999999999997</ele>
        <time>2014-09-04T08:14:16Z</time>
      </trkpt>
      <trkpt lat="39.826633287593722" lon="2.908192165195942">
        <ele>648.54999999999995</ele>
        <time>2014-09-04T08:14:17Z</time>
      </trkpt>
      <trkpt lat="39.826653152704239" lon="2.908199122175574">
        <ele>649.02999999999997</ele>
        <time>2014-09-04T08:14:18Z</time>
      </trkpt>
      <trkpt lat="39.826666144654155" lon="2.908205995336175">
        <ele>648.07000000000005</ele>
        <time>2014-09-04T08:14:19Z</time>
      </trkpt>
      <trkpt lat="39.826673772186041" lon="2.908209096640348">
        <ele>648.54999999999995</ele>
        <time>2014-09-04T08:14:20Z</time>
      </trkpt>
      <trkpt lat="39.826679052785039" lon="2.908218232914805">
        <ele>648.07000000000005</ele>
        <time>2014-09-04T08:14:21Z</time>
      </trkpt>
      <trkpt lat="39.826683159917593" lon="2.908230638131499">
        <ele>648.07000000000005</ele>
        <time>2014-09-04T08:14:22Z</time>
      </trkpt>
      <trkpt lat="39.826699923723936" lon="2.908249078318477">
        <ele>647.59000000000003</ele>
        <time>2014-09-04T08:14:24Z</time>
      </trkpt>
      <trkpt lat="39.826712245121598" lon="2.908256454393268">
        <ele>647.10000000000002</ele>
        <time>2014-09-04T08:14:25Z</time>
      </trkpt>
      <trkpt lat="39.826736133545637" lon="2.908254442736507">
        <ele>646.62</ele>
        <time>2014-09-04T08:14:29Z</time>
      </trkpt>
      <trkpt lat="39.826756417751312" lon="2.908254861831665">
        <ele>646.62</ele>
        <time>2014-09-04T08:14:30Z</time>
      </trkpt>
      <trkpt lat="39.826824143528938" lon="2.908276990056038">
        <ele>645.17999999999995</ele>
        <time>2014-09-04T08:14:37Z</time>
      </trkpt>
      <trkpt lat="39.826840320602059" lon="2.908286042511463">
        <ele>645.17999999999995</ele>
        <time>2014-09-04T08:14:38Z</time>
      </trkpt>
      <trkpt lat="39.826857084408402" lon="2.908296938985586">
        <ele>644.70000000000005</ele>
        <time>2014-09-04T08:14:39Z</time>
      </trkpt>
      <trkpt lat="39.826909555122256" lon="2.908352930098772">
        <ele>644.22000000000003</ele>
        <time>2014-09-04T08:14:46Z</time>
      </trkpt>
      <trkpt lat="39.826968228444457" lon="2.908453345298767">
        <ele>643.74000000000001</ele>
        <time>2014-09-04T08:14:54Z</time>
      </trkpt>
      <trkpt lat="39.826977951452136" lon="2.908468348905444">
        <ele>643.74000000000001</ele>
        <time>2014-09-04T08:14:58Z</time>
      </trkpt>
      <trkpt lat="39.826988345012069" lon="2.908470444381237">
        <ele>644.22000000000003</ele>
        <time>2014-09-04T08:15:08Z</time>
      </trkpt>
      <trkpt lat="39.826969485729933" lon="2.908487962558866">
        <ele>642.77999999999997</ele>
        <time>2014-09-04T08:15:17Z</time>
      </trkpt>
      <trkpt lat="39.82700259424746" lon="2.908477401360869">
        <ele>643.74000000000001</ele>
        <time>2014-09-04T08:15:21Z</time>
      </trkpt>
      <trkpt lat="39.827038971707225" lon="2.90851310826838">
        <ele>643.25999999999999</ele>
        <time>2014-09-04T08:15:26Z</time>
      </trkpt>
      <trkpt lat="39.827125389128923" lon="2.908589718863368">
        <ele>641.82000000000005</ele>
        <time>2014-09-04T08:15:34Z</time>
      </trkpt>
      <trkpt lat="39.827141398563981" lon="2.908644955605269">
        <ele>639.40999999999997</ele>
        <time>2014-09-04T08:15:39Z</time>
      </trkpt>
      <trkpt lat="39.827192025259137" lon="2.908701365813613">
        <ele>639.88999999999999</ele>
        <time>2014-09-04T08:15:45Z</time>
      </trkpt>
      <trkpt lat="39.827207196503878" lon="2.908715782687068">
        <ele>640.38</ele>
        <time>2014-09-04T08:15:46Z</time>
      </trkpt>
      <trkpt lat="39.827223289757967" lon="2.908729696646333">
        <ele>640.86000000000001</ele>
        <time>2014-09-04T08:15:47Z</time>
      </trkpt>
      <trkpt lat="39.82725664973259" lon="2.908771857619286">
        <ele>638.92999999999995</ele>
        <time>2014-09-04T08:15:52Z</time>
      </trkpt>
      <trkpt lat="39.827282885089517" lon="2.908815611153841">
        <ele>638.92999999999995</ele>
        <time>2014-09-04T08:15:56Z</time>
      </trkpt>
      <trkpt lat="39.827294033020735" lon="2.908828351646662">
        <ele>638.45000000000005</ele>
        <time>2014-09-04T08:15:57Z</time>
      </trkpt>
      <trkpt lat="39.827336696907878" lon="2.908861543983221">
        <ele>637.97000000000003</ele>
        <time>2014-09-04T08:16:04Z</time>
      </trkpt>
      <trkpt lat="39.827356394380331" lon="2.908867327496409">
        <ele>637.97000000000003</ele>
        <time>2014-09-04T08:16:05Z</time>
      </trkpt>
      <trkpt lat="39.827394699677825" lon="2.908900268375874">
        <ele>637.97000000000003</ele>
        <time>2014-09-04T08:16:08Z</time>
      </trkpt>
      <trkpt lat="39.827425628900528" lon="2.908912505954504">
        <ele>637.49000000000001</ele>
        <time>2014-09-04T08:16:11Z</time>
      </trkpt>
      <trkpt lat="39.827441219240427" lon="2.908917535096407">
        <ele>637.97000000000003</ele>
        <time>2014-09-04T08:16:12Z</time>
      </trkpt>
      <trkpt lat="39.827497964724898" lon="2.908922145143151">
        <ele>638.45000000000005</ele>
        <time>2014-09-04T08:16:17Z</time>
      </trkpt>
      <trkpt lat="39.827544149011374" lon="2.908942680805922">
        <ele>638.92999999999995</ele>
        <time>2014-09-04T08:16:22Z</time>
      </trkpt>
      <trkpt lat="39.827601397410035" lon="2.908977549523115">
        <ele>638.92999999999995</ele>
        <time>2014-09-04T08:16:29Z</time>
      </trkpt>
      <trkpt lat="39.827621513977647" lon="2.908984841778874">
        <ele>638.45000000000005</ele>
        <time>2014-09-04T08:16:30Z</time>
      </trkpt>
      <trkpt lat="39.827688150107861" lon="2.909063044935465">
        <ele>640.86000000000001</ele>
        <time>2014-09-04T08:16:40Z</time>
      </trkpt>
      <trkpt lat="39.827695107087493" lon="2.909092046320438">
        <ele>641.82000000000005</ele>
        <time>2014-09-04T08:16:44Z</time>
      </trkpt>
      <trkpt lat="39.827697286382318" lon="2.909147869795561">
        <ele>642.29999999999995</ele>
        <time>2014-09-04T08:16:52Z</time>
      </trkpt>
      <trkpt lat="39.82769351452589" lon="2.909163543954492">
        <ele>642.77999999999997</ele>
        <time>2014-09-04T08:16:53Z</time>
      </trkpt>
      <trkpt lat="39.827693179249763" lon="2.909176787361503">
        <ele>642.77999999999997</ele>
        <time>2014-09-04T08:16:54Z</time>
      </trkpt>
      <trkpt lat="39.827714972198009" lon="2.909254319965839">
        <ele>644.22000000000003</ele>
        <time>2014-09-04T08:17:00Z</time>
      </trkpt>
      <trkpt lat="39.827723102644086" lon="2.909349873661995">
        <ele>644.70000000000005</ele>
        <time>2014-09-04T08:17:07Z</time>
      </trkpt>
      <trkpt lat="39.827750260010362" lon="2.909419694915414">
        <ele>645.65999999999997</ele>
        <time>2014-09-04T08:17:13Z</time>
      </trkpt>
      <trkpt lat="39.827763335779309" lon="2.909436207264662">
        <ele>645.65999999999997</ele>
        <time>2014-09-04T08:17:14Z</time>
      </trkpt>
      <trkpt lat="39.827774902805686" lon="2.909454228356481">
        <ele>645.65999999999997</ele>
        <time>2014-09-04T08:17:17Z</time>
      </trkpt>
      <trkpt lat="39.827792169526219" lon="2.909471243619919">
        <ele>645.65999999999997</ele>
        <time>2014-09-04T08:17:18Z</time>
      </trkpt>
      <trkpt lat="39.827819243073463" lon="2.90950401686132">
        <ele>645.65999999999997</ele>
        <time>2014-09-04T08:17:22Z</time>
      </trkpt>
      <trkpt lat="39.827823350206017" lon="2.909522373229265">
        <ele>645.17999999999995</ele>
        <time>2014-09-04T08:17:23Z</time>
      </trkpt>
      <trkpt lat="39.827855117619038" lon="2.909569144248962">
        <ele>644.22000000000003</ele>
        <time>2014-09-04T08:17:28Z</time>
      </trkpt>
      <trkpt lat="39.82788797467947" lon="2.90961298160255">
        <ele>643.74000000000001</ele>
        <time>2014-09-04T08:17:33Z</time>
      </trkpt>
      <trkpt lat="39.827902559190989" lon="2.909622117877007">
        <ele>643.74000000000001</ele>
        <time>2014-09-04T08:17:34Z</time>
      </trkpt>
      <trkpt lat="39.827916137874126" lon="2.909628404304385">
        <ele>644.22000000000003</ele>
        <time>2014-09-04T08:17:35Z</time>
      </trkpt>
      <trkpt lat="39.827952599152923" lon="2.909678863361478">
        <ele>643.74000000000001</ele>
        <time>2014-09-04T08:17:40Z</time>
      </trkpt>
      <trkpt lat="39.827972883358598" lon="2.909700321033597">
        <ele>643.25999999999999</ele>
        <time>2014-09-04T08:17:41Z</time>
      </trkpt>
      <trkpt lat="39.827990066260099" lon="2.909726221114397">
        <ele>642.77999999999997</ele>
        <time>2014-09-04T08:17:42Z</time>
      </trkpt>
      <trkpt lat="39.828010266646743" lon="2.909773914143443">
        <ele>642.77999999999997</ele>
        <time>2014-09-04T08:17:47Z</time>
      </trkpt>
      <trkpt lat="39.828017977997661" lon="2.909792270511389">
        <ele>642.77999999999997</ele>
        <time>2014-09-04T08:17:48Z</time>
      </trkpt>
      <trkpt lat="39.828024515882134" lon="2.909806603565812">
        <ele>643.25999999999999</ele>
        <time>2014-09-04T08:17:49Z</time>
      </trkpt>
      <trkpt lat="39.82803164049983" lon="2.909817919135094">
        <ele>642.77999999999997</ele>
        <time>2014-09-04T08:17:50Z</time>
      </trkpt>
      <trkpt lat="39.828093331307173" lon="2.909896289929748">
        <ele>642.29999999999995</ele>
        <time>2014-09-04T08:18:00Z</time>
      </trkpt>
      <trkpt lat="39.828093834221363" lon="2.909895870834589">
        <ele>642.29999999999995</ele>
        <time>2014-09-04T08:18:01Z</time>
      </trkpt>
      <trkpt lat="39.828100707381964" lon="2.909914897754788">
        <ele>642.29999999999995</ele>
        <time>2014-09-04T08:18:02Z</time>
      </trkpt>
      <trkpt lat="39.828109759837389" lon="2.909931996837258">
        <ele>642.77999999999997</ele>
        <time>2014-09-04T08:18:03Z</time>
      </trkpt>
      <trkpt lat="39.828127361834049" lon="2.909945659339428">
        <ele>642.77999999999997</ele>
        <time>2014-09-04T08:18:06Z</time>
      </trkpt>
      <trkpt lat="39.828161895275116" lon="2.909982623532414">
        <ele>642.29999999999995</ele>
        <time>2014-09-04T08:18:10Z</time>
      </trkpt>
      <trkpt lat="39.828180838376284" lon="2.909997794777155">
        <ele>642.29999999999995</ele>
        <time>2014-09-04T08:18:11Z</time>
      </trkpt>
      <trkpt lat="39.828200787305832" lon="2.910020174458623">
        <ele>642.29999999999995</ele>
        <time>2014-09-04T08:18:13Z</time>
      </trkpt>
      <trkpt lat="39.828215623274446" lon="2.910054204985499">
        <ele>641.82000000000005</ele>
        <time>2014-09-04T08:18:17Z</time>
      </trkpt>
      <trkpt lat="39.828233812004328" lon="2.910071136429906">
        <ele>642.29999999999995</ele>
        <time>2014-09-04T08:18:18Z</time>
      </trkpt>
      <trkpt lat="39.828248228877783" lon="2.910082871094346">
        <ele>642.29999999999995</ele>
        <time>2014-09-04T08:18:19Z</time>
      </trkpt>
      <trkpt lat="39.828283013775945" lon="2.910167193040252">
        <ele>642.77999999999997</ele>
        <time>2014-09-04T08:18:26Z</time>
      </trkpt>
      <trkpt lat="39.828293323516846" lon="2.91018663905561">
        <ele>641.82000000000005</ele>
        <time>2014-09-04T08:18:27Z</time>
      </trkpt>
      <trkpt lat="39.828348811715841" lon="2.910256627947092">
        <ele>644.22000000000003</ele>
        <time>2014-09-04T08:18:38Z</time>
      </trkpt>
      <trkpt lat="39.828347638249397" lon="2.910263082012534">
        <ele>644.22000000000003</ele>
        <time>2014-09-04T08:18:39Z</time>
      </trkpt>
      <trkpt lat="39.828345207497478" lon="2.910273978486657">
        <ele>644.22000000000003</ele>
        <time>2014-09-04T08:18:40Z</time>
      </trkpt>
      <trkpt lat="39.828361133113503" lon="2.910295519977808">
        <ele>644.70000000000005</ele>
        <time>2014-09-04T08:18:43Z</time>
      </trkpt>
      <trkpt lat="39.828380746766925" lon="2.910312032327056">
        <ele>645.17999999999995</ele>
        <time>2014-09-04T08:18:45Z</time>
      </trkpt>
      <trkpt lat="39.828388374298811" lon="2.910328879952431">
        <ele>645.17999999999995</ele>
        <time>2014-09-04T08:18:46Z</time>
      </trkpt>
      <trkpt lat="39.828404802829027" lon="2.910397527739406">
        <ele>645.17999999999995</ele>
        <time>2014-09-04T08:18:53Z</time>
      </trkpt>
      <trkpt lat="39.828406814485788" lon="2.910430887714028">
        <ele>645.17999999999995</ele>
        <time>2014-09-04T08:18:56Z</time>
      </trkpt>
      <trkpt lat="39.828413687646389" lon="2.910449244081974">
        <ele>645.17999999999995</ele>
        <time>2014-09-04T08:18:57Z</time>
      </trkpt>
      <trkpt lat="39.828434893861413" lon="2.910477239638567">
        <ele>645.17999999999995</ele>
        <time>2014-09-04T08:18:59Z</time>
      </trkpt>
      <trkpt lat="39.828477222472429" lon="2.910546222701669">
        <ele>645.65999999999997</ele>
        <time>2014-09-04T08:19:09Z</time>
      </trkpt>
      <trkpt lat="39.828488957136869" lon="2.910558627918363">
        <ele>646.13999999999999</ele>
        <time>2014-09-04T08:19:10Z</time>
      </trkpt>
      <trkpt lat="39.828519131988287" lon="2.910621576011181">
        <ele>646.13999999999999</ele>
        <time>2014-09-04T08:19:15Z</time>
      </trkpt>
      <trkpt lat="39.828523909673095" lon="2.910641105845571">
        <ele>646.62</ele>
        <time>2014-09-04T08:19:16Z</time>
      </trkpt>
      <trkpt lat="39.828525250777602" lon="2.910659797489643">
        <ele>646.13999999999999</ele>
        <time>2014-09-04T08:19:17Z</time>
      </trkpt>
      <trkpt lat="39.828525502234697" lon="2.910686368122697">
        <ele>646.62</ele>
        <time>2014-09-04T08:19:21Z</time>
      </trkpt>
      <trkpt lat="39.828569088131189" lon="2.910781418904662">
        <ele>646.13999999999999</ele>
        <time>2014-09-04T08:19:34Z</time>
      </trkpt>
      <trkpt lat="39.828630862757564" lon="2.91089566424489">
        <ele>644.70000000000005</ele>
        <time>2014-09-04T08:19:48Z</time>
      </trkpt>
      <trkpt lat="39.828699762001634" lon="2.910912847146392">
        <ele>644.70000000000005</ele>
        <time>2014-09-04T08:19:57Z</time>
      </trkpt>
      <trkpt lat="39.828764470294118" lon="2.910954169929028">
        <ele>641.34000000000003</ele>
        <time>2014-09-04T08:20:06Z</time>
      </trkpt>
      <trkpt lat="39.828814929351211" lon="2.910969760268927">
        <ele>640.86000000000001</ele>
        <time>2014-09-04T08:20:11Z</time>
      </trkpt>
      <trkpt lat="39.828829681500793" lon="2.910975376144052">
        <ele>640.86000000000001</ele>
        <time>2014-09-04T08:20:12Z</time>
      </trkpt>
      <trkpt lat="39.828862622380257" lon="2.911007311195135">
        <ele>638.92999999999995</ele>
        <time>2014-09-04T08:20:17Z</time>
      </trkpt>
      <trkpt lat="39.828899083659053" lon="2.911051819100976">
        <ele>638.45000000000005</ele>
        <time>2014-09-04T08:20:21Z</time>
      </trkpt>
      <trkpt lat="39.828944262117147" lon="2.91110822930932">
        <ele>637.00999999999999</ele>
        <time>2014-09-04T08:20:29Z</time>
      </trkpt>
      <trkpt lat="39.829099411144853" lon="2.911094147711992">
        <ele>636.04999999999995</ele>
        <time>2014-09-04T08:20:38Z</time>
      </trkpt>
      <trkpt lat="39.829122796654701" lon="2.911091214045882">
        <ele>636.52999999999997</ele>
        <time>2014-09-04T08:20:39Z</time>
      </trkpt>
      <trkpt lat="39.82914425432682" lon="2.911087358370423">
        <ele>636.04999999999995</ele>
        <time>2014-09-04T08:20:40Z</time>
      </trkpt>
      <trkpt lat="39.829273754730821" lon="2.911053411662579">
        <ele>636.52999999999997</ele>
        <time>2014-09-04T08:20:50Z</time>
      </trkpt>
      <trkpt lat="39.829346425831318" lon="2.911118036136031">
        <ele>636.04999999999995</ele>
        <time>2014-09-04T08:21:00Z</time>
      </trkpt>
      <trkpt lat="39.829443823546171" lon="2.911146115511656">
        <ele>636.52999999999997</ele>
        <time>2014-09-04T08:21:12Z</time>
      </trkpt>
      <trkpt lat="39.829457737505436" lon="2.911152066662908">
        <ele>637.00999999999999</ele>
        <time>2014-09-04T08:21:13Z</time>
      </trkpt>
      <trkpt lat="39.829473244026303" lon="2.911154329776764">
        <ele>637.00999999999999</ele>
        <time>2014-09-04T08:21:14Z</time>
      </trkpt>
      <trkpt lat="39.829486235976219" lon="2.911155838519335">
        <ele>636.52999999999997</ele>
        <time>2014-09-04T08:21:15Z</time>
      </trkpt>
      <trkpt lat="39.829584136605263" lon="2.911224318668246">
        <ele>637.49000000000001</ele>
        <time>2014-09-04T08:21:26Z</time>
      </trkpt>
      <trkpt lat="39.829701986163855" lon="2.911230186000466">
        <ele>637.49000000000001</ele>
        <time>2014-09-04T08:21:38Z</time>
      </trkpt>
      <trkpt lat="39.8297203425318" lon="2.911234544590116">
        <ele>637.97000000000003</ele>
        <time>2014-09-04T08:21:39Z</time>
      </trkpt>
      <trkpt lat="39.829765940085053" lon="2.911250134930015">
        <ele>638.45000000000005</ele>
        <time>2014-09-04T08:21:44Z</time>
      </trkpt>
      <trkpt lat="39.829784464091063" lon="2.911257511004806">
        <ele>637.97000000000003</ele>
        <time>2014-09-04T08:21:45Z</time>
      </trkpt>
      <trkpt lat="39.829907761886716" lon="2.91129288263619">
        <ele>639.40999999999997</ele>
        <time>2014-09-04T08:21:57Z</time>
      </trkpt>
      <trkpt lat="39.830002980306745" lon="2.911345604807138">
        <ele>639.88999999999999</ele>
        <time>2014-09-04T08:22:07Z</time>
      </trkpt>
      <trkpt lat="39.830046901479363" lon="2.911327416077256">
        <ele>641.34000000000003</ele>
        <time>2014-09-04T08:22:14Z</time>
      </trkpt>
      <trkpt lat="39.830059306696057" lon="2.911330349743366">
        <ele>641.34000000000003</ele>
        <time>2014-09-04T08:22:15Z</time>
      </trkpt>
      <trkpt lat="39.830149747431278" lon="2.911367313936353">
        <ele>641.82000000000005</ele>
        <time>2014-09-04T08:22:22Z</time>
      </trkpt>
      <trkpt lat="39.83016206882894" lon="2.911379551514983">
        <ele>641.82000000000005</ele>
        <time>2014-09-04T08:22:23Z</time>
      </trkpt>
      <trkpt lat="39.830185286700726" lon="2.911397572606802">
        <ele>641.82000000000005</ele>
        <time>2014-09-04T08:22:26Z</time>
      </trkpt>
      <trkpt lat="39.830200122669339" lon="2.911395309492946">
        <ele>641.82000000000005</ele>
        <time>2014-09-04T08:22:27Z</time>
      </trkpt>
      <trkpt lat="39.830319983884692" lon="2.911382736638188">
        <ele>642.29999999999995</ele>
        <time>2014-09-04T08:22:37Z</time>
      </trkpt>
      <trkpt lat="39.830386620014906" lon="2.911389777436853">
        <ele>643.25999999999999</ele>
        <time>2014-09-04T08:22:43Z</time>
      </trkpt>
      <trkpt lat="39.830412101000547" lon="2.911381730809808">
        <ele>642.77999999999997</ele>
        <time>2014-09-04T08:22:45Z</time>
      </trkpt>
      <trkpt lat="39.830420818179846" lon="2.911386592313647">
        <ele>642.77999999999997</ele>
        <time>2014-09-04T08:22:49Z</time>
      </trkpt>
      <trkpt lat="39.83044009655714" lon="2.911393130198121">
        <ele>642.29999999999995</ele>
        <time>2014-09-04T08:22:50Z</time>
      </trkpt>
      <trkpt lat="39.830458452925086" lon="2.911397824063897">
        <ele>642.77999999999997</ele>
        <time>2014-09-04T08:22:51Z</time>
      </trkpt>
      <trkpt lat="39.830510839819908" lon="2.911415342241526">
        <ele>643.74000000000001</ele>
        <time>2014-09-04T08:22:58Z</time>
      </trkpt>
      <trkpt lat="39.830589881166816" lon="2.911415258422494">
        <ele>644.70000000000005</ele>
        <time>2014-09-04T08:23:06Z</time>
      </trkpt>
      <trkpt lat="39.830629108473659" lon="2.911429675295949">
        <ele>643.74000000000001</ele>
        <time>2014-09-04T08:23:10Z</time>
      </trkpt>
      <trkpt lat="39.830685267224908" lon="2.911430764943361">
        <ele>645.17999999999995</ele>
        <time>2014-09-04T08:23:15Z</time>
      </trkpt>
      <trkpt lat="39.830809822306037" lon="2.911478290334344">
        <ele>646.13999999999999</ele>
        <time>2014-09-04T08:23:27Z</time>
      </trkpt>
      <trkpt lat="39.8308617901057" lon="2.911461023613811">
        <ele>646.62</ele>
        <time>2014-09-04T08:23:33Z</time>
      </trkpt>
      <trkpt lat="39.830948039889336" lon="2.911482313647866">
        <ele>648.07000000000005</ele>
        <time>2014-09-04T08:23:44Z</time>
      </trkpt>
      <trkpt lat="39.831024566665292" lon="2.91144534945488">
        <ele>649.50999999999999</ele>
        <time>2014-09-04T08:23:52Z</time>
      </trkpt>
      <trkpt lat="39.83104795217514" lon="2.91142632253468">
        <ele>650.95000000000005</ele>
        <time>2014-09-04T08:23:55Z</time>
      </trkpt>
      <trkpt lat="39.831081982702017" lon="2.911420790478587">
        <ele>651.42999999999995</ele>
        <time>2014-09-04T08:23:58Z</time>
      </trkpt>
      <trkpt lat="39.831107882782817" lon="2.911414001137018">
        <ele>652.87</ele>
        <time>2014-09-04T08:24:07Z</time>
      </trkpt>
      <trkpt lat="39.831107882782817" lon="2.911414001137018">
        <ele>652.38999999999999</ele>
        <time>2014-09-04T08:24:10Z</time>
      </trkpt>
      <trkpt lat="39.831127664074302" lon="2.911394806578755">
        <ele>651.42999999999995</ele>
        <time>2014-09-04T08:24:14Z</time>
      </trkpt>
      <trkpt lat="39.831134704872966" lon="2.911401009187102">
        <ele>651.90999999999997</ele>
        <time>2014-09-04T08:24:15Z</time>
      </trkpt>
      <trkpt lat="39.831162868067622" lon="2.911402601748705">
        <ele>651.42999999999995</ele>
        <time>2014-09-04T08:24:18Z</time>
      </trkpt>
      <trkpt lat="39.831209639087319" lon="2.911376953125">
        <ele>651.90999999999997</ele>
        <time>2014-09-04T08:24:22Z</time>
      </trkpt>
      <trkpt lat="39.831223301589489" lon="2.911378042772412">
        <ele>651.90999999999997</ele>
        <time>2014-09-04T08:24:23Z</time>
      </trkpt>
      <trkpt lat="39.83129614032805" lon="2.911375444382429">
        <ele>652.87</ele>
        <time>2014-09-04T08:24:27Z</time>
      </trkpt>
      <trkpt lat="39.831306785345078" lon="2.911366643384099">
        <ele>652.87</ele>
        <time>2014-09-04T08:24:28Z</time>
      </trkpt>
      <trkpt lat="39.831398315727711" lon="2.911286512389779">
        <ele>653.83000000000004</ele>
        <time>2014-09-04T08:24:39Z</time>
      </trkpt>
      <trkpt lat="39.831475345417857" lon="2.911203363910317">
        <ele>653.83000000000004</ele>
        <time>2014-09-04T08:24:48Z</time>
      </trkpt>
      <trkpt lat="39.831532258540392" lon="2.911200849339366">
        <ele>655.75999999999999</ele>
        <time>2014-09-04T08:24:59Z</time>
      </trkpt>
      <trkpt lat="39.831546926870942" lon="2.911158604547381">
        <ele>656.72000000000003</ele>
        <time>2014-09-04T08:25:08Z</time>
      </trkpt>
      <trkpt lat="39.83158104121685" lon="2.911102613434196">
        <ele>658.15999999999997</ele>
        <time>2014-09-04T08:25:15Z</time>
      </trkpt>
      <trkpt lat="39.831661339849234" lon="2.911066738888621">
        <ele>660.08000000000004</ele>
        <time>2014-09-04T08:25:27Z</time>
      </trkpt>
      <trkpt lat="39.831703500822186" lon="2.911041341722012">
        <ele>662.00999999999999</ele>
        <time>2014-09-04T08:25:33Z</time>
      </trkpt>
      <trkpt lat="39.831734430044889" lon="2.911017285659909">
        <ele>662.00999999999999</ele>
        <time>2014-09-04T08:25:35Z</time>
      </trkpt>
      <trkpt lat="39.831759743392467" lon="2.910999935120344">
        <ele>662.97000000000003</ele>
        <time>2014-09-04T08:25:39Z</time>
      </trkpt>
      <trkpt lat="39.831829899922013" lon="2.910994905978441">
        <ele>662.49000000000001</ele>
        <time>2014-09-04T08:25:48Z</time>
      </trkpt>
      <trkpt lat="39.831839539110661" lon="2.910999599844217">
        <ele>662.00999999999999</ele>
        <time>2014-09-04T08:25:49Z</time>
      </trkpt>
      <trkpt lat="39.831896787509322" lon="2.910979315638542">
        <ele>661.03999999999996</ele>
        <time>2014-09-04T08:25:59Z</time>
      </trkpt>
      <trkpt lat="39.831943474709988" lon="2.910967664793134">
        <ele>659.12</ele>
        <time>2014-09-04T08:26:11Z</time>
      </trkpt>
      <trkpt lat="39.832023521885276" lon="2.910930197685957">
        <ele>657.20000000000005</ele>
        <time>2014-09-04T08:26:25Z</time>
      </trkpt>
      <trkpt lat="39.832077249884605" lon="2.910887869074941">
        <ele>657.20000000000005</ele>
        <time>2014-09-04T08:26:33Z</time>
      </trkpt>
      <trkpt lat="39.832182694226503" lon="2.910936232656241">
        <ele>656.72000000000003</ele>
        <time>2014-09-04T08:26:41Z</time>
      </trkpt>
      <trkpt lat="39.832240948453546" lon="2.910936987027526">
        <ele>657.20000000000005</ele>
        <time>2014-09-04T08:26:45Z</time>
      </trkpt>
      <trkpt lat="39.832257376983762" lon="2.910943860188127">
        <ele>657.20000000000005</ele>
        <time>2014-09-04T08:26:46Z</time>
      </trkpt>
      <trkpt lat="39.832347985357046" lon="2.910956768319011">
        <ele>658.15999999999997</ele>
        <time>2014-09-04T08:26:58Z</time>
      </trkpt>
      <trkpt lat="39.832364665344357" lon="2.910967329517007">
        <ele>658.15999999999997</ele>
        <time>2014-09-04T08:26:59Z</time>
      </trkpt>
      <trkpt lat="39.832449238747358" lon="2.910975711420178">
        <ele>658.15999999999997</ele>
        <time>2014-09-04T08:27:05Z</time>
      </trkpt>
      <trkpt lat="39.832470947876573" lon="2.910978058353066">
        <ele>658.15999999999997</ele>
        <time>2014-09-04T08:27:06Z</time>
      </trkpt>
      <trkpt lat="39.83249768614769" lon="2.910982500761747">
        <ele>657.67999999999995</ele>
        <time>2014-09-04T08:27:07Z</time>
      </trkpt>
      <trkpt lat="39.832593994215131" lon="2.910976046696305">
        <ele>657.67999999999995</ele>
        <time>2014-09-04T08:27:15Z</time>
      </trkpt>
      <trkpt lat="39.832617798820138" lon="2.910978309810162">
        <ele>657.67999999999995</ele>
        <time>2014-09-04T08:27:18Z</time>
      </trkpt>
      <trkpt lat="39.83266088180244" lon="2.910984344780445">
        <ele>657.20000000000005</ele>
        <time>2014-09-04T08:27:23Z</time>
      </trkpt>
      <trkpt lat="39.832748891785741" lon="2.911043604835868">
        <ele>655.75999999999999</ele>
        <time>2014-09-04T08:27:35Z</time>
      </trkpt>
      <trkpt lat="39.83275911770761" lon="2.911041425541043">
        <ele>655.75999999999999</ele>
        <time>2014-09-04T08:27:36Z</time>
      </trkpt>
      <trkpt lat="39.832810331135988" lon="2.911060033366084">
        <ele>655.27999999999997</ele>
        <time>2014-09-04T08:27:40Z</time>
      </trkpt>
      <trkpt lat="39.832923822104931" lon="2.911246111616492">
        <ele>655.75999999999999</ele>
        <time>2014-09-04T08:27:52Z</time>
      </trkpt>
      <trkpt lat="39.832934215664864" lon="2.911261785775423">
        <ele>655.75999999999999</ele>
        <time>2014-09-04T08:27:53Z</time>
      </trkpt>
      <trkpt lat="39.832978472113609" lon="2.911291960626841">
        <ele>655.75999999999999</ele>
        <time>2014-09-04T08:27:58Z</time>
      </trkpt>
      <trkpt lat="39.832985261455178" lon="2.911310149356723">
        <ele>655.27999999999997</ele>
        <time>2014-09-04T08:27:59Z</time>
      </trkpt>
      <trkpt lat="39.832999594509602" lon="2.911367984488607">
        <ele>655.27999999999997</ele>
        <time>2014-09-04T08:28:04Z</time>
      </trkpt>
      <trkpt lat="39.833004288375378" lon="2.911390867084265">
        <ele>654.79999999999995</ele>
        <time>2014-09-04T08:28:05Z</time>
      </trkpt>
      <trkpt lat="39.833016358315945" lon="2.911408301442862">
        <ele>654.79999999999995</ele>
        <time>2014-09-04T08:28:06Z</time>
      </trkpt>
      <trkpt lat="39.833031697198749" lon="2.91142045520246">
        <ele>654.30999999999995</ele>
        <time>2014-09-04T08:28:07Z</time>
      </trkpt>
      <trkpt lat="39.833043683320284" lon="2.911428082734346">
        <ele>654.30999999999995</ele>
        <time>2014-09-04T08:28:08Z</time>
      </trkpt>
      <trkpt lat="39.833046700805426" lon="2.911427244544029">
        <ele>654.79999999999995</ele>
        <time>2014-09-04T08:28:11Z</time>
      </trkpt>
      <trkpt lat="39.833055417984724" lon="2.911454988643527">
        <ele>654.30999999999995</ele>
        <time>2014-09-04T08:28:12Z</time>
      </trkpt>
      <trkpt lat="39.833068661391735" lon="2.911496730521321">
        <ele>653.83000000000004</ele>
        <time>2014-09-04T08:28:16Z</time>
      </trkpt>
      <trkpt lat="39.83308014459908" lon="2.911515170708299">
        <ele>653.83000000000004</ele>
        <time>2014-09-04T08:28:17Z</time>
      </trkpt>
      <trkpt lat="39.833092549815774" lon="2.911535622552037">
        <ele>653.35000000000002</ele>
        <time>2014-09-04T08:28:18Z</time>
      </trkpt>
      <trkpt lat="39.833101853728294" lon="2.911559594795108">
        <ele>652.87</ele>
        <time>2014-09-04T08:28:19Z</time>
      </trkpt>
      <trkpt lat="39.833124484866858" lon="2.911625728011131">
        <ele>652.87</ele>
        <time>2014-09-04T08:28:25Z</time>
      </trkpt>
      <trkpt lat="39.833136722445488" lon="2.911637797951698">
        <ele>652.87</ele>
        <time>2014-09-04T08:28:26Z</time>
      </trkpt>
      <trkpt lat="39.833151055499911" lon="2.911640396341682">
        <ele>652.38999999999999</ele>
        <time>2014-09-04T08:28:27Z</time>
      </trkpt>
      <trkpt lat="39.833225570619106" lon="2.911688843742013">
        <ele>651.90999999999997</ele>
        <time>2014-09-04T08:28:34Z</time>
      </trkpt>
      <trkpt lat="39.833236299455166" lon="2.911705607548356">
        <ele>651.90999999999997</ele>
        <time>2014-09-04T08:28:39Z</time>
      </trkpt>
      <trkpt lat="39.833252057433128" lon="2.911722538992763">
        <ele>651.90999999999997</ele>
        <time>2014-09-04T08:28:40Z</time>
      </trkpt>
      <trkpt lat="39.833268318325281" lon="2.911737291142345">
        <ele>651.42999999999995</ele>
        <time>2014-09-04T08:28:41Z</time>
      </trkpt>
      <trkpt lat="39.833281813189387" lon="2.911750869825482">
        <ele>651.42999999999995</ele>
        <time>2014-09-04T08:28:42Z</time>
      </trkpt>
      <trkpt lat="39.833315508440137" lon="2.91177517734468">
        <ele>651.42999999999995</ele>
        <time>2014-09-04T08:28:47Z</time>
      </trkpt>
      <trkpt lat="39.833330092951655" lon="2.911796802654862">
        <ele>651.42999999999995</ele>
        <time>2014-09-04T08:28:48Z</time>
      </trkpt>
      <trkpt lat="39.833346018567681" lon="2.91182354092598">
        <ele>651.42999999999995</ele>
        <time>2014-09-04T08:28:49Z</time>
      </trkpt>
      <trkpt lat="39.833404691889882" lon="2.911883220076561">
        <ele>652.38999999999999</ele>
        <time>2014-09-04T08:28:57Z</time>
      </trkpt>
      <trkpt lat="39.833420449867845" lon="2.911898223683238">
        <ele>651.90999999999997</ele>
        <time>2014-09-04T08:28:59Z</time>
      </trkpt>
      <trkpt lat="39.833428496494889" lon="2.911914484575391">
        <ele>652.38999999999999</ele>
        <time>2014-09-04T08:29:00Z</time>
      </trkpt>
      <trkpt lat="39.833511896431446" lon="2.912025125697255">
        <ele>652.87</ele>
        <time>2014-09-04T08:29:11Z</time>
      </trkpt>
      <trkpt lat="39.833528576418757" lon="2.912033088505268">
        <ele>653.35000000000002</ele>
        <time>2014-09-04T08:29:12Z</time>
      </trkpt>
      <trkpt lat="39.83354676514864" lon="2.912038955837488">
        <ele>653.35000000000002</ele>
        <time>2014-09-04T08:29:13Z</time>
      </trkpt>
      <trkpt lat="39.833638546988368" lon="2.912077512592077">
        <ele>653.83000000000004</ele>
        <time>2014-09-04T08:29:23Z</time>
      </trkpt>
      <trkpt lat="39.833715744316578" lon="2.912135180085897">
        <ele>653.83000000000004</ele>
        <time>2014-09-04T08:29:30Z</time>
      </trkpt>
      <trkpt lat="39.833735777065158" lon="2.912144400179386">
        <ele>654.30999999999995</ele>
        <time>2014-09-04T08:29:31Z</time>
      </trkpt>
      <trkpt lat="39.833772741258144" lon="2.912184381857514">
        <ele>654.30999999999995</ele>
        <time>2014-09-04T08:29:35Z</time>
      </trkpt>
      <trkpt lat="39.833815153688192" lon="2.912247497588396">
        <ele>654.79999999999995</ele>
        <time>2014-09-04T08:29:46Z</time>
      </trkpt>
      <trkpt lat="39.833871480077505" lon="2.912321425974369">
        <ele>655.27999999999997</ele>
        <time>2014-09-04T08:29:58Z</time>
      </trkpt>
      <trkpt lat="39.833892686292529" lon="2.912331484258175">
        <ele>655.27999999999997</ele>
        <time>2014-09-04T08:30:17Z</time>
      </trkpt>
      <trkpt lat="39.833868630230427" lon="2.912476658821106">
        <ele>656.72000000000003</ele>
        <time>2014-09-04T08:30:30Z</time>
      </trkpt>
      <trkpt lat="39.833879191428423" lon="2.912516891956329">
        <ele>657.20000000000005</ele>
        <time>2014-09-04T08:30:44Z</time>
      </trkpt>
      <trkpt lat="39.83392789028585" lon="2.912659551948309">
        <ele>658.63999999999999</ele>
        <time>2014-09-04T08:30:59Z</time>
      </trkpt>
      <trkpt lat="39.83402956277132" lon="2.912797434255481">
        <ele>660.55999999999995</ele>
        <time>2014-09-04T08:31:13Z</time>
      </trkpt>
      <trkpt lat="39.834095612168312" lon="2.912889886647463">
        <ele>663.92999999999995</ele>
        <time>2014-09-04T08:31:24Z</time>
      </trkpt>
      <trkpt lat="39.834188483655453" lon="2.912991056218743">
        <ele>663.45000000000005</ele>
        <time>2014-09-04T08:31:35Z</time>
      </trkpt>
      <trkpt lat="39.834247827529907" lon="2.913045287132263">
        <ele>665.85000000000002</ele>
        <time>2014-09-04T08:31:46Z</time>
      </trkpt>
      <trkpt lat="39.834292000159621" lon="2.913083592429757">
        <ele>666.80999999999995</ele>
        <time>2014-09-04T08:31:53Z</time>
      </trkpt>
      <trkpt lat="39.834321504458785" lon="2.913102619349957">
        <ele>667.28999999999996</ele>
        <time>2014-09-04T08:31:57Z</time>
      </trkpt>
      <trkpt lat="39.834349164739251" lon="2.91313799098134">
        <ele>667.76999999999998</ele>
        <time>2014-09-04T08:32:01Z</time>
      </trkpt>
      <trkpt lat="39.834427367895842" lon="2.913221977651119">
        <ele>670.65999999999997</ele>
        <time>2014-09-04T08:32:14Z</time>
      </trkpt>
      <trkpt lat="39.834432397037745" lon="2.913226000964642">
        <ele>670.65999999999997</ele>
        <time>2014-09-04T08:32:15Z</time>
      </trkpt>
      <trkpt lat="39.834503894671798" lon="2.91332021355629">
        <ele>672.10000000000002</ele>
        <time>2014-09-04T08:32:27Z</time>
      </trkpt>
      <trkpt lat="39.834517640992999" lon="2.91332121938467">
        <ele>672.58000000000004</ele>
        <time>2014-09-04T08:32:29Z</time>
      </trkpt>
      <trkpt lat="39.834604142233729" lon="2.913421047851443">
        <ele>675.46000000000004</ele>
        <time>2014-09-04T08:32:42Z</time>
      </trkpt>
      <trkpt lat="39.834646638482809" lon="2.91346195153892">
        <ele>677.87</ele>
        <time>2014-09-04T08:32:54Z</time>
      </trkpt>
      <trkpt lat="39.834691230207682" lon="2.913531102240086">
        <ele>679.78999999999996</ele>
        <time>2014-09-04T08:33:06Z</time>
      </trkpt>
      <trkpt lat="39.834705982357264" lon="2.913554739207029">
        <ele>680.75</ele>
        <time>2014-09-04T08:33:10Z</time>
      </trkpt>
      <trkpt lat="39.83474831096828" lon="2.913614921271801">
        <ele>682.19000000000005</ele>
        <time>2014-09-04T08:33:17Z</time>
      </trkpt>
      <trkpt lat="39.834819473326206" lon="2.913733860477805">
        <ele>684.12</ele>
        <time>2014-09-04T08:33:29Z</time>
      </trkpt>
      <trkpt lat="39.834869597107172" lon="2.913852045312524">
        <ele>685.08000000000004</ele>
        <time>2014-09-04T08:33:43Z</time>
      </trkpt>
      <trkpt lat="39.834896167740226" lon="2.913958327844739">
        <ele>686.51999999999998</ele>
        <time>2014-09-04T08:33:54Z</time>
      </trkpt>
      <trkpt lat="39.834902957081795" lon="2.913991268724203">
        <ele>687</ele>
        <time>2014-09-04T08:33:59Z</time>
      </trkpt>
      <trkpt lat="39.834964564070106" lon="2.914074920117855">
        <ele>687</ele>
        <time>2014-09-04T08:34:05Z</time>
      </trkpt>
      <trkpt lat="39.834972191601992" lon="2.914109705016017">
        <ele>687.48000000000002</ele>
        <time>2014-09-04T08:34:08Z</time>
      </trkpt>
      <trkpt lat="39.834991469979286" lon="2.914169384166598">
        <ele>688.91999999999996</ele>
        <time>2014-09-04T08:34:20Z</time>
      </trkpt>
      <trkpt lat="39.834949476644397" lon="2.914168797433376">
        <ele>692.28999999999996</ele>
        <time>2014-09-04T08:34:30Z</time>
      </trkpt>
      <trkpt lat="39.834925085306168" lon="2.914154632017016">
        <ele>693.73000000000002</ele>
        <time>2014-09-04T08:34:42Z</time>
      </trkpt>
      <trkpt lat="39.834869932383299" lon="2.914124121889472">
        <ele>695.16999999999996</ele>
        <time>2014-09-04T08:34:54Z</time>
      </trkpt>
      <trkpt lat="39.834844786673784" lon="2.914120266214013">
        <ele>697.09000000000003</ele>
        <time>2014-09-04T08:35:04Z</time>
      </trkpt>
      <trkpt lat="39.834821484982967" lon="2.914142813533545">
        <ele>697.09000000000003</ele>
        <time>2014-09-04T08:35:17Z</time>
      </trkpt>
      <trkpt lat="39.834821987897158" lon="2.91414407081902">
        <ele>696.61000000000001</ele>
        <time>2014-09-04T08:35:42Z</time>
      </trkpt>
      <trkpt lat="39.834823161363602" lon="2.914148848503828">
        <ele>697.09000000000003</ele>
        <time>2014-09-04T08:35:59Z</time>
      </trkpt>
      <trkpt lat="39.834823412820697" lon="2.914156140759587">
        <ele>695.16999999999996</ele>
        <time>2014-09-04T08:36:34Z</time>
      </trkpt>
      <trkpt lat="39.834823412820697" lon="2.914156140759587">
        <ele>695.64999999999998</ele>
        <time>2014-09-04T08:36:59Z</time>
      </trkpt>
      <trkpt lat="39.834820227697492" lon="2.914160583168268">
        <ele>695.16999999999996</ele>
        <time>2014-09-04T08:37:22Z</time>
      </trkpt>
      <trkpt lat="39.834818551316857" lon="2.914159828796983">
        <ele>693.73000000000002</ele>
        <time>2014-09-04T08:37:44Z</time>
      </trkpt>
      <trkpt lat="39.834814947098494" lon="2.914151195436716">
        <ele>701.41999999999996</ele>
        <time>2014-09-04T08:37:45Z</time>
      </trkpt>
      <trkpt lat="39.834813270717859" lon="2.914159242063761">
        <ele>696.13</ele>
        <time>2014-09-04T08:37:46Z</time>
      </trkpt>
      <trkpt lat="39.834813270717859" lon="2.914159242063761">
        <ele>694.69000000000005</ele>
        <time>2014-09-04T08:37:48Z</time>
      </trkpt>
      <trkpt lat="39.834799692034721" lon="2.914184052497149">
        <ele>694.21000000000004</ele>
        <time>2014-09-04T08:38:07Z</time>
      </trkpt>
      <trkpt lat="39.834775887429714" lon="2.914216658100486">
        <ele>697.09000000000003</ele>
        <time>2014-09-04T08:38:21Z</time>
      </trkpt>
      <trkpt lat="39.834754094481468" lon="2.914221351966262">
        <ele>699.01999999999998</ele>
        <time>2014-09-04T08:38:29Z</time>
      </trkpt>
      <trkpt lat="39.834696678444743" lon="2.914216741919518">
        <ele>700.94000000000005</ele>
        <time>2014-09-04T08:38:40Z</time>
      </trkpt>
      <trkpt lat="39.834633395075798" lon="2.914247084408999">
        <ele>702.38</ele>
        <time>2014-09-04T08:38:50Z</time>
      </trkpt>
      <trkpt lat="39.834619145840406" lon="2.914257813245058">
        <ele>702.38</ele>
        <time>2014-09-04T08:38:53Z</time>
      </trkpt>
      <trkpt lat="39.834542702883482" lon="2.914226967841387">
        <ele>705.25999999999999</ele>
        <time>2014-09-04T08:39:06Z</time>
      </trkpt>
      <trkpt lat="39.834511606022716" lon="2.914216574281454">
        <ele>706.71000000000004</ele>
        <time>2014-09-04T08:39:11Z</time>
      </trkpt>
      <trkpt lat="39.83446198515594" lon="2.914203247055411">
        <ele>708.14999999999998</ele>
        <time>2014-09-04T08:39:21Z</time>
      </trkpt>
      <trkpt lat="39.83444781973958" lon="2.914221016690135">
        <ele>709.11000000000001</ele>
        <time>2014-09-04T08:39:24Z</time>
      </trkpt>
      <trkpt lat="39.834482772275805" lon="2.914299555122852">
        <ele>709.59000000000003</ele>
        <time>2014-09-04T08:39:36Z</time>
      </trkpt>
      <trkpt lat="39.834491573274136" lon="2.914342638105154">
        <ele>709.59000000000003</ele>
        <time>2014-09-04T08:39:41Z</time>
      </trkpt>
      <trkpt lat="39.834506073966622" lon="2.914363173767924">
        <ele>709.11000000000001</ele>
        <time>2014-09-04T08:39:43Z</time>
      </trkpt>
      <trkpt lat="39.834526944905519" lon="2.914417572319508">
        <ele>710.07000000000005</ele>
        <time>2014-09-04T08:39:51Z</time>
      </trkpt>
      <trkpt lat="39.834558796137571" lon="2.914424780756235">
        <ele>711.02999999999997</ele>
        <time>2014-09-04T08:39:54Z</time>
      </trkpt>
      <trkpt lat="39.834609087556601" lon="2.914497703313828">
        <ele>713.44000000000005</ele>
        <time>2014-09-04T08:40:04Z</time>
      </trkpt>
      <trkpt lat="39.834615960717201" lon="2.914506839588285">
        <ele>712.95000000000005</ele>
        <time>2014-09-04T08:40:06Z</time>
      </trkpt>
      <trkpt lat="39.834633730351925" lon="2.914529806002975">
        <ele>713.44000000000005</ele>
        <time>2014-09-04T08:40:09Z</time>
      </trkpt>
      <trkpt lat="39.834663737565279" lon="2.914575571194291">
        <ele>715.84000000000003</ele>
        <time>2014-09-04T08:40:18Z</time>
      </trkpt>
      <trkpt lat="39.834658037871122" lon="2.914618318900466">
        <ele>717.75999999999999</ele>
        <time>2014-09-04T08:40:27Z</time>
      </trkpt>
      <trkpt lat="39.834640854969621" lon="2.914639357477427">
        <ele>718.24000000000001</ele>
        <time>2014-09-04T08:40:30Z</time>
      </trkpt>
      <trkpt lat="39.834636831656098" lon="2.91472602635622">
        <ele>720.64999999999998</ele>
        <time>2014-09-04T08:40:43Z</time>
      </trkpt>
      <trkpt lat="39.834663821384311" lon="2.914785956963897">
        <ele>722.57000000000005</ele>
        <time>2014-09-04T08:40:55Z</time>
      </trkpt>
      <trkpt lat="39.834685865789652" lon="2.914890982210636">
        <ele>724.49000000000001</ele>
        <time>2014-09-04T08:41:09Z</time>
      </trkpt>
      <trkpt lat="39.834680333733559" lon="2.914918977767229">
        <ele>725.92999999999995</ele>
        <time>2014-09-04T08:41:12Z</time>
      </trkpt>
      <trkpt lat="39.83469064347446" lon="2.914936831220985">
        <ele>726.40999999999997</ele>
        <time>2014-09-04T08:41:15Z</time>
      </trkpt>
      <trkpt lat="39.834687458351254" lon="2.914976142346859">
        <ele>726.88999999999999</ele>
        <time>2014-09-04T08:41:18Z</time>
      </trkpt>
      <trkpt lat="39.834693744778633" lon="2.915021236985922">
        <ele>727.37</ele>
        <time>2014-09-04T08:41:21Z</time>
      </trkpt>
      <trkpt lat="39.834738252684474" lon="2.915059542283416">
        <ele>729.29999999999995</ele>
        <time>2014-09-04T08:41:33Z</time>
      </trkpt>
      <trkpt lat="39.834745796397328" lon="2.915066163986921">
        <ele>729.29999999999995</ele>
        <time>2014-09-04T08:41:34Z</time>
      </trkpt>
      <trkpt lat="39.834764990955591" lon="2.915131123736501">
        <ele>731.22000000000003</ele>
        <time>2014-09-04T08:41:44Z</time>
      </trkpt>
      <trkpt lat="39.834803463891149" lon="2.915198430418968">
        <ele>733.13999999999999</ele>
        <time>2014-09-04T08:41:54Z</time>
      </trkpt>
      <trkpt lat="39.834823412820697" lon="2.915238998830319">
        <ele>734.58000000000004</ele>
        <time>2014-09-04T08:42:05Z</time>
      </trkpt>
      <trkpt lat="39.834871357306838" lon="2.915269676595926">
        <ele>735.54999999999995</ele>
        <time>2014-09-04T08:42:12Z</time>
      </trkpt>
      <trkpt lat="39.834940088912845" lon="2.915332792326808">
        <ele>736.50999999999999</ele>
        <time>2014-09-04T08:42:21Z</time>
      </trkpt>
      <trkpt lat="39.834963390603662" lon="2.915366152301431">
        <ele>736.99000000000001</ele>
        <time>2014-09-04T08:42:27Z</time>
      </trkpt>
      <trkpt lat="39.8349804058671" lon="2.915394064038992">
        <ele>737.95000000000005</ele>
        <time>2014-09-04T08:42:30Z</time>
      </trkpt>
      <trkpt lat="39.835002282634377" lon="2.915453994646668">
        <ele>739.38999999999999</ele>
        <time>2014-09-04T08:42:43Z</time>
      </trkpt>
      <trkpt lat="39.835018292069435" lon="2.91549464687705">
        <ele>741.78999999999996</ele>
        <time>2014-09-04T08:42:54Z</time>
      </trkpt>
      <trkpt lat="39.83502927236259" lon="2.915469417348504">
        <ele>742.27999999999997</ele>
        <time>2014-09-04T08:42:57Z</time>
      </trkpt>
      <trkpt lat="39.835018208250403" lon="2.915467908605933">
        <ele>742.27999999999997</ele>
        <time>2014-09-04T08:43:00Z</time>
      </trkpt>
      <trkpt lat="39.835064560174942" lon="2.915551476180553">
        <ele>744.20000000000005</ele>
        <time>2014-09-04T08:43:10Z</time>
      </trkpt>
      <trkpt lat="39.83509917743504" lon="2.915639989078045">
        <ele>746.60000000000002</ele>
        <time>2014-09-04T08:43:21Z</time>
      </trkpt>
      <trkpt lat="39.83514997176826" lon="2.915669409558177">
        <ele>749.49000000000001</ele>
        <time>2014-09-04T08:43:32Z</time>
      </trkpt>
      <trkpt lat="39.835150055587292" lon="2.91565733961761">
        <ele>750.92999999999995</ele>
        <time>2014-09-04T08:43:36Z</time>
      </trkpt>
      <trkpt lat="39.835163382813334" lon="2.915729591622949">
        <ele>752.37</ele>
        <time>2014-09-04T08:43:47Z</time>
      </trkpt>
      <trkpt lat="39.835166651755571" lon="2.915747025981545">
        <ele>752.37</ele>
        <time>2014-09-04T08:43:48Z</time>
      </trkpt>
      <trkpt lat="39.835170675069094" lon="2.915785498917103">
        <ele>751.88999999999999</ele>
        <time>2014-09-04T08:43:50Z</time>
      </trkpt>
      <trkpt lat="39.835172770544887" lon="2.915823385119438">
        <ele>753.33000000000004</ele>
        <time>2014-09-04T08:43:52Z</time>
      </trkpt>
      <trkpt lat="39.835180062800646" lon="2.915856409817934">
        <ele>753.80999999999995</ele>
        <time>2014-09-04T08:43:55Z</time>
      </trkpt>
      <trkpt lat="39.835183247923851" lon="2.915869485586882">
        <ele>754.28999999999996</ele>
        <time>2014-09-04T08:43:58Z</time>
      </trkpt>
      <trkpt lat="39.835211159661412" lon="2.91597350500524">
        <ele>757.17999999999995</ele>
        <time>2014-09-04T08:44:10Z</time>
      </trkpt>
      <trkpt lat="39.835229683667421" lon="2.915994040668011">
        <ele>758.13999999999999</ele>
        <time>2014-09-04T08:44:17Z</time>
      </trkpt>
      <trkpt lat="39.835255667567253" lon="2.916017090901732">
        <ele>759.58000000000004</ele>
        <time>2014-09-04T08:44:31Z</time>
      </trkpt>
      <trkpt lat="39.835266480222344" lon="2.916033267974854">
        <ele>759.58000000000004</ele>
        <time>2014-09-04T08:44:50Z</time>
      </trkpt>
      <trkpt lat="39.83528533950448" lon="2.916053887456656">
        <ele>760.53999999999996</ele>
        <time>2014-09-04T08:45:10Z</time>
      </trkpt>
      <trkpt lat="39.835287602618337" lon="2.916051121428609">
        <ele>760.05999999999995</ele>
        <time>2014-09-04T08:45:11Z</time>
      </trkpt>
      <trkpt lat="39.835368655622005" lon="2.916088504716754">
        <ele>760.53999999999996</ele>
        <time>2014-09-04T08:45:20Z</time>
      </trkpt>
      <trkpt lat="39.835372008383274" lon="2.916084565222263">
        <ele>761.98000000000002</ele>
        <time>2014-09-04T08:45:39Z</time>
      </trkpt>
      <trkpt lat="39.835391789674759" lon="2.916072243824601">
        <ele>760.05999999999995</ele>
        <time>2014-09-04T08:45:50Z</time>
      </trkpt>
      <trkpt lat="39.83540310524404" lon="2.916068723425269">
        <ele>757.17999999999995</ele>
        <time>2014-09-04T08:46:01Z</time>
      </trkpt>
      <trkpt lat="39.835448618978262" lon="2.916056318208575">
        <ele>756.21000000000004</ele>
        <time>2014-09-04T08:46:09Z</time>
      </trkpt>
      <trkpt lat="39.835480134934187" lon="2.916080206632614">
        <ele>754.76999999999998</ele>
        <time>2014-09-04T08:46:13Z</time>
      </trkpt>
      <trkpt lat="39.835521457716823" lon="2.916109710931778">
        <ele>757.17999999999995</ele>
        <time>2014-09-04T08:46:17Z</time>
      </trkpt>
      <trkpt lat="39.835524978116155" lon="2.916121277958155">
        <ele>760.53999999999996</ele>
        <time>2014-09-04T08:46:18Z</time>
      </trkpt>
      <trkpt lat="39.83555456623435" lon="2.916146591305733">
        <ele>760.53999999999996</ele>
        <time>2014-09-04T08:46:22Z</time>
      </trkpt>
      <trkpt lat="39.835594883188605" lon="2.91617576032877">
        <ele>761.01999999999998</ele>
        <time>2014-09-04T08:46:28Z</time>
      </trkpt>
      <trkpt lat="39.835610976442695" lon="2.916205180808902">
        <ele>766.30999999999995</ele>
        <time>2014-09-04T08:46:31Z</time>
      </trkpt>
      <trkpt lat="39.8356175981462" lon="2.916210796684027">
        <ele>758.62</ele>
        <time>2014-09-04T08:46:32Z</time>
      </trkpt>
      <trkpt lat="39.835618939250708" lon="2.916215574368835">
        <ele>765.35000000000002</ele>
        <time>2014-09-04T08:46:33Z</time>
      </trkpt>
      <trkpt lat="39.835619945079088" lon="2.916222531348467">
        <ele>761.98000000000002</ele>
        <time>2014-09-04T08:46:34Z</time>
      </trkpt>
      <trkpt lat="39.83562346547842" lon="2.916227392852306">
        <ele>765.83000000000004</ele>
        <time>2014-09-04T08:46:36Z</time>
      </trkpt>
      <trkpt lat="39.83562346547842" lon="2.916227392852306">
        <ele>761.98000000000002</ele>
        <time>2014-09-04T08:46:37Z</time>
      </trkpt>
      <trkpt lat="39.83562346547842" lon="2.916227392852306">
        <ele>767.26999999999998</ele>
        <time>2014-09-04T08:46:39Z</time>
      </trkpt>
      <trkpt lat="39.835628578439355" lon="2.916232673451304">
        <ele>763.89999999999998</ele>
        <time>2014-09-04T08:46:40Z</time>
      </trkpt>
      <trkpt lat="39.835650874301791" lon="2.916249101981521">
        <ele>761.98000000000002</ele>
        <time>2014-09-04T08:46:42Z</time>
      </trkpt>
      <trkpt lat="39.835645677521825" lon="2.916243737563491">
        <ele>768.23000000000002</ele>
        <time>2014-09-04T08:46:43Z</time>
      </trkpt>
      <trkpt lat="39.835645677521825" lon="2.916243737563491">
        <ele>764.87</ele>
        <time>2014-09-04T08:46:45Z</time>
      </trkpt>
      <trkpt lat="39.835644755512476" lon="2.916249101981521">
        <ele>765.83000000000004</ele>
        <time>2014-09-04T08:46:46Z</time>
      </trkpt>
      <trkpt lat="39.835685826838017" lon="2.916283886879683">
        <ele>770.63</ele>
        <time>2014-09-04T08:46:54Z</time>
      </trkpt>
      <trkpt lat="39.835693286731839" lon="2.91631012223661">
        <ele>768.71000000000004</ele>
        <time>2014-09-04T08:46:56Z</time>
      </trkpt>
      <trkpt lat="39.835695130750537" lon="2.916312301531434">
        <ele>768.71000000000004</ele>
        <time>2014-09-04T08:46:59Z</time>
      </trkpt>
      <trkpt lat="39.835747433826327" lon="2.916390588507056">
        <ele>771.11000000000001</ele>
        <time>2014-09-04T08:47:10Z</time>
      </trkpt>
      <trkpt lat="39.83580325730145" lon="2.916436018422246">
        <ele>773.03999999999996</ele>
        <time>2014-09-04T08:47:22Z</time>
      </trkpt>
      <trkpt lat="39.835817590355873" lon="2.916471306234598">
        <ele>774</ele>
        <time>2014-09-04T08:47:34Z</time>
      </trkpt>
      <trkpt lat="39.835825134068727" lon="2.916485136374831">
        <ele>774.96000000000004</ele>
        <time>2014-09-04T08:47:38Z</time>
      </trkpt>
      <trkpt lat="39.835831839591265" lon="2.916535679250956">
        <ele>775.91999999999996</ele>
        <time>2014-09-04T08:47:41Z</time>
      </trkpt>
      <trkpt lat="39.8358403891325" lon="2.916575828567147">
        <ele>777.36000000000001</ele>
        <time>2014-09-04T08:47:50Z</time>
      </trkpt>
      <trkpt lat="39.835849357768893" lon="2.916619163006544">
        <ele>779.28999999999996</ele>
        <time>2014-09-04T08:47:58Z</time>
      </trkpt>
      <trkpt lat="39.835848268121481" lon="2.916615977883339">
        <ele>780.25</ele>
        <time>2014-09-04T08:48:08Z</time>
      </trkpt>
      <trkpt lat="39.835884226486087" lon="2.916690995916724">
        <ele>782.64999999999998</ele>
        <time>2014-09-04T08:48:15Z</time>
      </trkpt>
      <trkpt lat="39.835925633087754" lon="2.916722092777491">
        <ele>785.04999999999995</ele>
        <time>2014-09-04T08:48:27Z</time>
      </trkpt>
      <trkpt lat="39.835934182628989" lon="2.916741035878658">
        <ele>786.5</ele>
        <time>2014-09-04T08:48:31Z</time>
      </trkpt>
      <trkpt lat="39.835977600887418" lon="2.916764002293348">
        <ele>786.98000000000002</ele>
        <time>2014-09-04T08:48:39Z</time>
      </trkpt>
      <trkpt lat="39.836012469604611" lon="2.91682074777782">
        <ele>788.41999999999996</ele>
        <time>2014-09-04T08:48:48Z</time>
      </trkpt>
      <trkpt lat="39.836012050509453" lon="2.916839104145765">
        <ele>789.38</ele>
        <time>2014-09-04T08:48:50Z</time>
      </trkpt>
      <trkpt lat="39.836039878427982" lon="2.916885791346431">
        <ele>790.34000000000003</ele>
        <time>2014-09-04T08:48:55Z</time>
      </trkpt>
      <trkpt lat="39.836064940318465" lon="2.916896436363459">
        <ele>791.77999999999997</ele>
        <time>2014-09-04T08:49:01Z</time>
      </trkpt>
      <trkpt lat="39.836133839562535" lon="2.916947985067964">
        <ele>793.22000000000003</ele>
        <time>2014-09-04T08:49:13Z</time>
      </trkpt>
      <trkpt lat="39.836170803755522" lon="2.916970197111368">
        <ele>793.22000000000003</ele>
        <time>2014-09-04T08:49:19Z</time>
      </trkpt>
      <trkpt lat="39.83620198443532" lon="2.9169702809304">
        <ele>793.22000000000003</ele>
        <time>2014-09-04T08:49:22Z</time>
      </trkpt>
      <trkpt lat="39.836277673020959" lon="2.916937507688999">
        <ele>792.25999999999999</ele>
        <time>2014-09-04T08:49:32Z</time>
      </trkpt>
      <trkpt lat="39.836279517039657" lon="2.91693557985127">
        <ele>793.22000000000003</ele>
        <time>2014-09-04T08:49:37Z</time>
      </trkpt>
      <trkpt lat="39.836305836215615" lon="2.916932310909033">
        <ele>793.71000000000004</ele>
        <time>2014-09-04T08:49:40Z</time>
      </trkpt>
      <trkpt lat="39.836339866742492" lon="2.916925521567464">
        <ele>794.19000000000005</ele>
        <time>2014-09-04T08:49:43Z</time>
      </trkpt>
      <trkpt lat="39.83640574850142" lon="2.916972208768129">
        <ele>796.59000000000003</ele>
        <time>2014-09-04T08:49:53Z</time>
      </trkpt>
      <trkpt lat="39.83640574850142" lon="2.916972208768129">
        <ele>796.59000000000003</ele>
        <time>2014-09-04T08:49:54Z</time>
      </trkpt>
      <trkpt lat="39.836458135396242" lon="2.916969358921051">
        <ele>797.07000000000005</ele>
        <time>2014-09-04T08:50:10Z</time>
      </trkpt>
      <trkpt lat="39.836458135396242" lon="2.916969358921051">
        <ele>798.02999999999997</ele>
        <time>2014-09-04T08:50:12Z</time>
      </trkpt>
      <trkpt lat="39.836458135396242" lon="2.916969358921051">
        <ele>800.44000000000005</ele>
        <time>2014-09-04T08:50:23Z</time>
      </trkpt>
      <trkpt lat="39.836458135396242" lon="2.916969358921051">
        <ele>802.84000000000003</ele>
        <time>2014-09-04T08:50:33Z</time>
      </trkpt>
      <trkpt lat="39.836548157036304" lon="2.916933232918382">
        <ele>803.79999999999995</ele>
        <time>2014-09-04T08:50:41Z</time>
      </trkpt>
      <trkpt lat="39.836586629971862" lon="2.916918564587832">
        <ele>803.79999999999995</ele>
        <time>2014-09-04T08:50:44Z</time>
      </trkpt>
      <trkpt lat="39.836635664105415" lon="2.916904650628567">
        <ele>804.75999999999999</ele>
        <time>2014-09-04T08:50:54Z</time>
      </trkpt>
      <trkpt lat="39.836705652996898" lon="2.916948990896344">
        <ele>806.20000000000005</ele>
        <time>2014-09-04T08:51:05Z</time>
      </trkpt>
      <trkpt lat="39.836762733757496" lon="2.917001880705357">
        <ele>808.13</ele>
        <time>2014-09-04T08:51:15Z</time>
      </trkpt>
      <trkpt lat="39.836797267198563" lon="2.917001964524388">
        <ele>809.09000000000003</ele>
        <time>2014-09-04T08:51:18Z</time>
      </trkpt>
      <trkpt lat="39.836831716820598" lon="2.917002886533737">
        <ele>810.52999999999997</ele>
        <time>2014-09-04T08:51:27Z</time>
      </trkpt>
      <trkpt lat="39.836855437606573" lon="2.917000120505691">
        <ele>812.45000000000005</ele>
        <time>2014-09-04T08:51:37Z</time>
      </trkpt>
      <trkpt lat="39.836904890835285" lon="2.917005568742752">
        <ele>814.85000000000002</ele>
        <time>2014-09-04T08:51:46Z</time>
      </trkpt>
      <trkpt lat="39.836904890835285" lon="2.917005568742752">
        <ele>814.37</ele>
        <time>2014-09-04T08:51:53Z</time>
      </trkpt>
      <trkpt lat="39.83699407428503" lon="2.9169961810112">
        <ele>816.29999999999995</ele>
        <time>2014-09-04T08:52:01Z</time>
      </trkpt>
      <trkpt lat="39.837020477280021" lon="2.917009005323052">
        <ele>817.74000000000001</ele>
        <time>2014-09-04T08:52:14Z</time>
      </trkpt>
      <trkpt lat="39.83702533878386" lon="2.917013866826892">
        <ele>812.92999999999995</ele>
        <time>2014-09-04T08:52:20Z</time>
      </trkpt>
      <trkpt lat="39.837026763707399" lon="2.917007077485323">
        <ele>820.62</ele>
        <time>2014-09-04T08:52:21Z</time>
      </trkpt>
      <trkpt lat="39.837031709030271" lon="2.916996600106359">
        <ele>816.77999999999997</ele>
        <time>2014-09-04T08:52:22Z</time>
      </trkpt>
      <trkpt lat="39.837072528898716" lon="2.91699324734509">
        <ele>818.70000000000005</ele>
        <time>2014-09-04T08:52:35Z</time>
      </trkpt>
      <trkpt lat="39.837075043469667" lon="2.916992409154773">
        <ele>814.37</ele>
        <time>2014-09-04T08:52:39Z</time>
      </trkpt>
      <trkpt lat="39.83707319945097" lon="2.916993331164122">
        <ele>820.13999999999999</ele>
        <time>2014-09-04T08:52:40Z</time>
      </trkpt>
      <trkpt lat="39.837075043469667" lon="2.916992409154773">
        <ele>817.74000000000001</ele>
        <time>2014-09-04T08:52:45Z</time>
      </trkpt>
      <trkpt lat="39.837076384574175" lon="2.916990900412202">
        <ele>813.88999999999999</ele>
        <time>2014-09-04T08:52:46Z</time>
      </trkpt>
      <trkpt lat="39.83708443120122" lon="2.916994001716375">
        <ele>813.88999999999999</ele>
        <time>2014-09-04T08:52:47Z</time>
      </trkpt>
      <trkpt lat="39.837092058733106" lon="2.916995091363788">
        <ele>823.02999999999997</ele>
        <time>2014-09-04T08:52:48Z</time>
      </trkpt>
      <trkpt lat="39.837093902751803" lon="2.916990481317043">
        <ele>820.13999999999999</ele>
        <time>2014-09-04T08:52:49Z</time>
      </trkpt>
      <trkpt lat="39.837102703750134" lon="2.917003054171801">
        <ele>824.47000000000003</ele>
        <time>2014-09-04T08:52:53Z</time>
      </trkpt>
      <trkpt lat="39.837100272998214" lon="2.917004311457276">
        <ele>820.62</ele>
        <time>2014-09-04T08:52:54Z</time>
      </trkpt>
      <trkpt lat="39.837100272998214" lon="2.917004311457276">
        <ele>805.24000000000001</ele>
        <time>2014-09-04T08:52:58Z</time>
      </trkpt>
      <trkpt lat="39.837095495313406" lon="2.917006323114038">
        <ele>828.78999999999996</ele>
        <time>2014-09-04T08:52:59Z</time>
      </trkpt>
      <trkpt lat="39.837098009884357" lon="2.917010597884655">
        <ele>824.47000000000003</ele>
        <time>2014-09-04T08:53:00Z</time>
      </trkpt>
      <trkpt lat="39.837098009884357" lon="2.917010597884655">
        <ele>814.37</ele>
        <time>2014-09-04T08:53:01Z</time>
      </trkpt>
      <trkpt lat="39.837095998227596" lon="2.917015878483653">
        <ele>824.95000000000005</ele>
        <time>2014-09-04T08:53:02Z</time>
      </trkpt>
      <trkpt lat="39.837099770084023" lon="2.917033229023218">
        <ele>821.58000000000004</ele>
        <time>2014-09-04T08:53:04Z</time>
      </trkpt>
      <trkpt lat="39.837098177522421" lon="2.917039431631565">
        <ele>817.74000000000001</ele>
        <time>2014-09-04T08:53:05Z</time>
      </trkpt>
      <trkpt lat="39.837094489485025" lon="2.917043287307024">
        <ele>826.38999999999999</ele>
        <time>2014-09-04T08:53:06Z</time>
      </trkpt>
      <trkpt lat="39.837092645466328" lon="2.91705041192472">
        <ele>821.58000000000004</ele>
        <time>2014-09-04T08:53:07Z</time>
      </trkpt>
      <trkpt lat="39.837087783962488" lon="2.917060218751431">
        <ele>825.90999999999997</ele>
        <time>2014-09-04T08:53:11Z</time>
      </trkpt>
      <trkpt lat="39.837089879438281" lon="2.917060805484653">
        <ele>821.58000000000004</ele>
        <time>2014-09-04T08:53:12Z</time>
      </trkpt>
      <trkpt lat="39.837089879438281" lon="2.917060805484653">
        <ele>828.78999999999996</ele>
        <time>2014-09-04T08:53:13Z</time>
      </trkpt>
      <trkpt lat="39.837089879438281" lon="2.917060805484653">
        <ele>822.05999999999995</ele>
        <time>2014-09-04T08:53:14Z</time>
      </trkpt>
      <trkpt lat="39.837089292705059" lon="2.91706508025527">
        <ele>825.42999999999995</ele>
        <time>2014-09-04T08:53:16Z</time>
      </trkpt>
      <trkpt lat="39.837081916630268" lon="2.917083855718374">
        <ele>821.58000000000004</ele>
        <time>2014-09-04T08:53:19Z</time>
      </trkpt>
      <trkpt lat="39.837081916630268" lon="2.917083855718374">
        <ele>831.20000000000005</ele>
        <time>2014-09-04T08:53:20Z</time>
      </trkpt>
      <trkpt lat="39.837085688486695" lon="2.917090309783816">
        <ele>818.22000000000003</ele>
        <time>2014-09-04T08:53:21Z</time>
      </trkpt>
      <trkpt lat="39.837087029591203" lon="2.917098272591829">
        <ele>832.15999999999997</ele>
        <time>2014-09-04T08:53:22Z</time>
      </trkpt>
      <trkpt lat="39.83708493411541" lon="2.917106403037906">
        <ele>820.62</ele>
        <time>2014-09-04T08:53:23Z</time>
      </trkpt>
      <trkpt lat="39.83708149753511" lon="2.91711444966495">
        <ele>831.67999999999995</ele>
        <time>2014-09-04T08:53:24Z</time>
      </trkpt>
      <trkpt lat="39.837077977135777" lon="2.917117299512029">
        <ele>826.38999999999999</ele>
        <time>2014-09-04T08:53:25Z</time>
      </trkpt>
      <trkpt lat="39.837078060954809" lon="2.917127693071961">
        <ele>821.10000000000002</ele>
        <time>2014-09-04T08:53:27Z</time>
      </trkpt>
      <trkpt lat="39.837080491706729" lon="2.917124591767788">
        <ele>827.83000000000004</ele>
        <time>2014-09-04T08:53:28Z</time>
      </trkpt>
      <trkpt lat="39.837092645466328" lon="2.917134650051594">
        <ele>833.60000000000002</ele>
        <time>2014-09-04T08:53:30Z</time>
      </trkpt>
      <trkpt lat="39.837097087875009" lon="2.917141523212194">
        <ele>820.62</ele>
        <time>2014-09-04T08:53:31Z</time>
      </trkpt>
      <trkpt lat="39.837099518626928" lon="2.917139679193497">
        <ele>833.60000000000002</ele>
        <time>2014-09-04T08:53:32Z</time>
      </trkpt>
      <trkpt lat="39.837099518626928" lon="2.917139679193497">
        <ele>822.54999999999995</ele>
        <time>2014-09-04T08:53:33Z</time>
      </trkpt>
      <trkpt lat="39.837115444242954" lon="2.917140182107687">
        <ele>829.26999999999998</ele>
        <time>2014-09-04T08:53:34Z</time>
      </trkpt>
      <trkpt lat="39.837135309353471" lon="2.917139595374465">
        <ele>835.03999999999996</ele>
        <time>2014-09-04T08:53:37Z</time>
      </trkpt>
      <trkpt lat="39.837130447849631" lon="2.917146719992161">
        <ele>828.30999999999995</ele>
        <time>2014-09-04T08:53:38Z</time>
      </trkpt>
      <trkpt lat="39.837126759812236" lon="2.917148228734732">
        <ele>831.67999999999995</ele>
        <time>2014-09-04T08:53:39Z</time>
      </trkpt>
      <trkpt lat="39.837123993784189" lon="2.917152252048254">
        <ele>824.95000000000005</ele>
        <time>2014-09-04T08:53:40Z</time>
      </trkpt>
      <trkpt lat="39.837124077603221" lon="2.917149066925049">
        <ele>830.72000000000003</ele>
        <time>2014-09-04T08:53:41Z</time>
      </trkpt>
      <trkpt lat="39.837127514183521" lon="2.917156107723713">
        <ele>834.08000000000004</ele>
        <time>2014-09-04T08:53:42Z</time>
      </trkpt>
      <trkpt lat="39.837130280211568" lon="2.917163986712694">
        <ele>827.35000000000002</ele>
        <time>2014-09-04T08:53:43Z</time>
      </trkpt>
      <trkpt lat="39.837129022926092" lon="2.917172955349088">
        <ele>831.67999999999995</ele>
        <time>2014-09-04T08:53:44Z</time>
      </trkpt>
      <trkpt lat="39.837125586345792" lon="2.917191060259938">
        <ele>827.35000000000002</ele>
        <time>2014-09-04T08:53:48Z</time>
      </trkpt>
      <trkpt lat="39.837126675993204" lon="2.917196759954095">
        <ele>830.72000000000003</ele>
        <time>2014-09-04T08:53:49Z</time>
      </trkpt>
      <trkpt lat="39.837126843631268" lon="2.917201789095998">
        <ele>834.55999999999995</ele>
        <time>2014-09-04T08:53:50Z</time>
      </trkpt>
      <trkpt lat="39.837122401222587" lon="2.917207069694996">
        <ele>830.72000000000003</ele>
        <time>2014-09-04T08:53:51Z</time>
      </trkpt>
      <trkpt lat="39.837125251069665" lon="2.9172448720783">
        <ele>832.63999999999999</ele>
        <time>2014-09-04T08:54:03Z</time>
      </trkpt>
      <trkpt lat="39.837125251069665" lon="2.9172448720783">
        <ele>825.42999999999995</ele>
        <time>2014-09-04T08:54:04Z</time>
      </trkpt>
      <trkpt lat="39.837127514183521" lon="2.917250571772456">
        <ele>834.08000000000004</ele>
        <time>2014-09-04T08:54:05Z</time>
      </trkpt>
      <trkpt lat="39.83712793327868" lon="2.917255265638232">
        <ele>830.24000000000001</ele>
        <time>2014-09-04T08:54:06Z</time>
      </trkpt>
      <trkpt lat="39.837127598002553" lon="2.917258786037564">
        <ele>833.12</ele>
        <time>2014-09-04T08:54:07Z</time>
      </trkpt>
      <trkpt lat="39.837126508355141" lon="2.917263060808182">
        <ele>825.90999999999997</ele>
        <time>2014-09-04T08:54:10Z</time>
      </trkpt>
      <trkpt lat="39.83712793327868" lon="2.91726054623723">
        <ele>842.25</ele>
        <time>2014-09-04T08:54:11Z</time>
      </trkpt>
      <trkpt lat="39.837126592174172" lon="2.91726641356945">
        <ele>832.15999999999997</ele>
        <time>2014-09-04T08:54:12Z</time>
      </trkpt>
      <trkpt lat="39.837125921621919" lon="2.917273622006178">
        <ele>837.92999999999995</ele>
        <time>2014-09-04T08:54:13Z</time>
      </trkpt>
      <trkpt lat="39.837125167250633" lon="2.917281584814191">
        <ele>833.60000000000002</ele>
        <time>2014-09-04T08:54:14Z</time>
      </trkpt>
      <trkpt lat="39.837121479213238" lon="2.917290218174458">
        <ele>838.88999999999999</ele>
        <time>2014-09-04T08:54:15Z</time>
      </trkpt>
      <trkpt lat="39.837113851681352" lon="2.917296504601836">
        <ele>834.08000000000004</ele>
        <time>2014-09-04T08:54:18Z</time>
      </trkpt>
      <trkpt lat="39.837097255513072" lon="2.917310921475291">
        <ele>830.72000000000003</ele>
        <time>2014-09-04T08:54:28Z</time>
      </trkpt>
      <trkpt lat="39.83709960244596" lon="2.91730941273272">
        <ele>836.48000000000002</ele>
        <time>2014-09-04T08:54:29Z</time>
      </trkpt>
      <trkpt lat="39.83709960244596" lon="2.91730941273272">
        <ele>833.12</ele>
        <time>2014-09-04T08:54:30Z</time>
      </trkpt>
      <trkpt lat="39.83709909953177" lon="2.917313352227211">
        <ele>836.96000000000004</ele>
        <time>2014-09-04T08:54:31Z</time>
      </trkpt>
      <trkpt lat="39.837105134502053" lon="2.917322404682636">
        <ele>833.60000000000002</ele>
        <time>2014-09-04T08:54:32Z</time>
      </trkpt>
      <trkpt lat="39.837112762033939" lon="2.91732894256711">
        <ele>839.37</ele>
        <time>2014-09-04T08:54:33Z</time>
      </trkpt>
      <trkpt lat="39.837129777297378" lon="2.917337073013187">
        <ele>833.12</ele>
        <time>2014-09-04T08:54:35Z</time>
      </trkpt>
      <trkpt lat="39.837133549153805" lon="2.917342940345407">
        <ele>839.85000000000002</ele>
        <time>2014-09-04T08:54:36Z</time>
      </trkpt>
      <trkpt lat="39.837164226919413" lon="2.917336318641901">
        <ele>838.88999999999999</ele>
        <time>2014-09-04T08:54:43Z</time>
      </trkpt>
      <trkpt lat="39.837179565802217" lon="2.917326427996159">
        <ele>839.37</ele>
        <time>2014-09-04T08:54:47Z</time>
      </trkpt>
      <trkpt lat="39.837184092029929" lon="2.917343191802502">
        <ele>845.13999999999999</ele>
        <time>2014-09-04T08:54:50Z</time>
      </trkpt>
      <trkpt lat="39.837184762582183" lon="2.917347634211183">
        <ele>837.45000000000005</ele>
        <time>2014-09-04T08:54:51Z</time>
      </trkpt>
      <trkpt lat="39.837185181677341" lon="2.917347466573119">
        <ele>841.28999999999996</ele>
        <time>2014-09-04T08:54:52Z</time>
      </trkpt>
      <trkpt lat="39.837192809209228" lon="2.917380910366774">
        <ele>844.65999999999997</ele>
        <time>2014-09-04T08:54:58Z</time>
      </trkpt>
      <trkpt lat="39.837191216647625" lon="2.917392728850246">
        <ele>832.63999999999999</ele>
        <time>2014-09-04T08:54:59Z</time>
      </trkpt>
      <trkpt lat="39.837190127000213" lon="2.917399937286973">
        <ele>843.21000000000004</ele>
        <time>2014-09-04T08:55:00Z</time>
      </trkpt>
      <trkpt lat="39.837194820865989" lon="2.91741251014173">
        <ele>843.69000000000005</ele>
        <time>2014-09-04T08:55:04Z</time>
      </trkpt>
      <trkpt lat="39.837193563580513" lon="2.917412342503667">
        <ele>840.80999999999995</ele>
        <time>2014-09-04T08:55:08Z</time>
      </trkpt>
      <trkpt lat="39.837189875543118" lon="2.917413683608174">
        <ele>848.01999999999998</ele>
        <time>2014-09-04T08:55:09Z</time>
      </trkpt>
      <trkpt lat="39.837189875543118" lon="2.917413683608174">
        <ele>844.17999999999995</ele>
        <time>2014-09-04T08:55:10Z</time>
      </trkpt>
      <trkpt lat="39.8371821641922" lon="2.917428184300661">
        <ele>847.53999999999996</ele>
        <time>2014-09-04T08:55:15Z</time>
      </trkpt>
      <trkpt lat="39.8371821641922" lon="2.917434219270945">
        <ele>842.73000000000002</ele>
        <time>2014-09-04T08:55:16Z</time>
      </trkpt>
      <trkpt lat="39.837187025696039" lon="2.917435392737389">
        <ele>845.62</ele>
        <time>2014-09-04T08:55:17Z</time>
      </trkpt>
      <trkpt lat="39.837206555530429" lon="2.917433883994818">
        <ele>842.73000000000002</ele>
        <time>2014-09-04T08:55:20Z</time>
      </trkpt>
      <trkpt lat="39.837229941040277" lon="2.917422233149409">
        <ele>843.21000000000004</ele>
        <time>2014-09-04T08:55:22Z</time>
      </trkpt>
      <trkpt lat="39.837230946868658" lon="2.917426424100995">
        <ele>853.30999999999995</ele>
        <time>2014-09-04T08:55:23Z</time>
      </trkpt>
      <trkpt lat="39.837234634906054" lon="2.917435811832547">
        <ele>843.69000000000005</ele>
        <time>2014-09-04T08:55:24Z</time>
      </trkpt>
      <trkpt lat="39.837239580228925" lon="2.917440589517355">
        <ele>857.63</ele>
        <time>2014-09-04T08:55:25Z</time>
      </trkpt>
      <trkpt lat="39.837239077314734" lon="2.91744327172637">
        <ele>845.62</ele>
        <time>2014-09-04T08:55:26Z</time>
      </trkpt>
      <trkpt lat="39.837238909676671" lon="2.917449306696653">
        <ele>850.41999999999996</ele>
        <time>2014-09-04T08:55:28Z</time>
      </trkpt>
      <trkpt lat="39.8372374009341" lon="2.917456850409508">
        <ele>847.53999999999996</ele>
        <time>2014-09-04T08:55:29Z</time>
      </trkpt>
      <trkpt lat="39.83723689801991" lon="2.91746623814106">
        <ele>851.38</ele>
        <time>2014-09-04T08:55:32Z</time>
      </trkpt>
      <trkpt lat="39.837233377620578" lon="2.917471183463931">
        <ele>847.53999999999996</ele>
        <time>2014-09-04T08:55:33Z</time>
      </trkpt>
      <trkpt lat="39.837255757302046" lon="2.917494317516685">
        <ele>844.17999999999995</ele>
        <time>2014-09-04T08:55:39Z</time>
      </trkpt>
      <trkpt lat="39.837257266044617" lon="2.917499514296651">
        <ele>851.87</ele>
        <time>2014-09-04T08:55:40Z</time>
      </trkpt>
      <trkpt lat="39.837254835292697" lon="2.917503956705332">
        <ele>850.41999999999996</ele>
        <time>2014-09-04T08:55:44Z</time>
      </trkpt>
      <trkpt lat="39.837250728160143" lon="2.917507812380791">
        <ele>851.38</ele>
        <time>2014-09-04T08:55:59Z</time>
      </trkpt>
      <trkpt lat="39.837254332378507" lon="2.917510075494647">
        <ele>855.23000000000002</ele>
        <time>2014-09-04T08:56:03Z</time>
      </trkpt>
      <trkpt lat="39.83725349418819" lon="2.917514182627201">
        <ele>850.89999999999998</ele>
        <time>2014-09-04T08:56:04Z</time>
      </trkpt>
      <trkpt lat="39.83725399710238" lon="2.917516110464931">
        <ele>851.38</ele>
        <time>2014-09-04T08:56:20Z</time>
      </trkpt>
      <trkpt lat="39.837256511673331" lon="2.917512003332377">
        <ele>852.35000000000002</ele>
        <time>2014-09-04T08:56:37Z</time>
      </trkpt>
      <trkpt lat="39.837256260216236" lon="2.917517451569438">
        <ele>850.41999999999996</ele>
        <time>2014-09-04T08:56:59Z</time>
      </trkpt>
      <trkpt lat="39.837260115891695" lon="2.917519966140389">
        <ele>855.71000000000004</ele>
        <time>2014-09-04T08:57:03Z</time>
      </trkpt>
      <trkpt lat="39.837263552471995" lon="2.917518708854914">
        <ele>852.35000000000002</ele>
        <time>2014-09-04T08:57:04Z</time>
      </trkpt>
      <trkpt lat="39.837266067042947" lon="2.917523235082626">
        <ele>847.05999999999995</ele>
        <time>2014-09-04T08:57:06Z</time>
      </trkpt>
      <trkpt lat="39.837265899404883" lon="2.917517786845565">
        <ele>856.19000000000005</ele>
        <time>2014-09-04T08:57:07Z</time>
      </trkpt>
      <trkpt lat="39.837265899404883" lon="2.917517786845565">
        <ele>852.35000000000002</ele>
        <time>2014-09-04T08:57:08Z</time>
      </trkpt>
      <trkpt lat="39.837270174175501" lon="2.917521977797151">
        <ele>848.01999999999998</ele>
        <time>2014-09-04T08:57:27Z</time>
      </trkpt>
      <trkpt lat="39.83727210201323" lon="2.917533544823527">
        <ele>855.71000000000004</ele>
        <time>2014-09-04T08:57:28Z</time>
      </trkpt>
      <trkpt lat="39.83727503567934" lon="2.917543100193143">
        <ele>854.26999999999998</ele>
        <time>2014-09-04T08:57:29Z</time>
      </trkpt>
      <trkpt lat="39.837275287136436" lon="2.917545782402158">
        <ele>851.87</ele>
        <time>2014-09-04T08:57:31Z</time>
      </trkpt>
      <trkpt lat="39.837275287136436" lon="2.917545782402158">
        <ele>858.11000000000001</ele>
        <time>2014-09-04T08:57:33Z</time>
      </trkpt>
      <trkpt lat="39.837275287136436" lon="2.917545782402158">
        <ele>852.83000000000004</ele>
        <time>2014-09-04T08:57:34Z</time>
      </trkpt>
      <trkpt lat="39.837275287136436" lon="2.917545782402158">
        <ele>848.01999999999998</ele>
        <time>2014-09-04T08:57:51Z</time>
      </trkpt>
      <trkpt lat="39.837275287136436" lon="2.917545782402158">
        <ele>856.19000000000005</ele>
        <time>2014-09-04T08:57:52Z</time>
      </trkpt>
      <trkpt lat="39.837275287136436" lon="2.917545782402158">
        <ele>848.5</ele>
        <time>2014-09-04T08:57:54Z</time>
      </trkpt>
      <trkpt lat="39.837275287136436" lon="2.917545782402158">
        <ele>857.14999999999998</ele>
        <time>2014-09-04T08:57:55Z</time>
      </trkpt>
      <trkpt lat="39.83727989718318" lon="2.917544776573777">
        <ele>848.01999999999998</ele>
        <time>2014-09-04T08:57:56Z</time>
      </trkpt>
      <trkpt lat="39.837275287136436" lon="2.917545782402158">
        <ele>858.11000000000001</ele>
        <time>2014-09-04T08:57:57Z</time>
      </trkpt>
      <trkpt lat="39.837275287136436" lon="2.917545782402158">
        <ele>855.23000000000002</ele>
        <time>2014-09-04T08:58:00Z</time>
      </trkpt>
      <trkpt lat="39.837275287136436" lon="2.917545782402158">
        <ele>859.08000000000004</ele>
        <time>2014-09-04T08:58:01Z</time>
      </trkpt>
      <trkpt lat="39.837275287136436" lon="2.917545782402158">
        <ele>857.63</ele>
        <time>2014-09-04T08:58:02Z</time>
      </trkpt>
      <trkpt lat="39.837275287136436" lon="2.917545782402158">
        <ele>848.98000000000002</ele>
        <time>2014-09-04T08:58:03Z</time>
      </trkpt>
      <trkpt lat="39.837275287136436" lon="2.917545782402158">
        <ele>860.03999999999996</ele>
        <time>2014-09-04T08:58:04Z</time>
      </trkpt>
      <trkpt lat="39.837275287136436" lon="2.917545782402158">
        <ele>848.5</ele>
        <time>2014-09-04T08:58:05Z</time>
      </trkpt>
      <trkpt lat="39.837276209145784" lon="2.917541926726699">
        <ele>863.39999999999998</ele>
        <time>2014-09-04T08:58:06Z</time>
      </trkpt>
      <trkpt lat="39.837275287136436" lon="2.917545782402158">
        <ele>857.14999999999998</ele>
        <time>2014-09-04T08:58:07Z</time>
      </trkpt>
      <trkpt lat="39.837275287136436" lon="2.917548296973109">
        <ele>849.46000000000004</ele>
        <time>2014-09-04T08:58:12Z</time>
      </trkpt>
      <trkpt lat="39.837272604927421" lon="2.917551817372441">
        <ele>859.08000000000004</ele>
        <time>2014-09-04T08:58:13Z</time>
      </trkpt>
      <trkpt lat="39.837275287136436" lon="2.917548296973109">
        <ele>850.89999999999998</ele>
        <time>2014-09-04T08:58:14Z</time>
      </trkpt>
      <trkpt lat="39.837275287136436" lon="2.917548296973109">
        <ele>864.84000000000003</ele>
        <time>2014-09-04T08:58:15Z</time>
      </trkpt>
      <trkpt lat="39.837280819192529" lon="2.917553661391139">
        <ele>851.87</ele>
        <time>2014-09-04T08:58:16Z</time>
      </trkpt>
      <trkpt lat="39.837275287136436" lon="2.917548296973109">
        <ele>858.59000000000003</ele>
        <time>2014-09-04T08:58:17Z</time>
      </trkpt>
      <trkpt lat="39.837275287136436" lon="2.917548296973109">
        <ele>854.75</ele>
        <time>2014-09-04T08:58:18Z</time>
      </trkpt>
      <trkpt lat="39.837278220802546" lon="2.917546201497316">
        <ele>858.11000000000001</ele>
        <time>2014-09-04T08:58:19Z</time>
      </trkpt>
      <trkpt lat="39.837275287136436" lon="2.917548296973109">
        <ele>859.08000000000004</ele>
        <time>2014-09-04T08:58:21Z</time>
      </trkpt>
      <trkpt lat="39.837283585220575" lon="2.917551230639219">
        <ele>855.23000000000002</ele>
        <time>2014-09-04T08:58:30Z</time>
      </trkpt>
      <trkpt lat="39.837293811142445" lon="2.917558858171105">
        <ele>858.11000000000001</ele>
        <time>2014-09-04T08:58:31Z</time>
      </trkpt>
      <trkpt lat="39.837303198873997" lon="2.917565563693643">
        <ele>864.84000000000003</ele>
        <time>2014-09-04T08:58:32Z</time>
      </trkpt>
      <trkpt lat="39.837346784770489" lon="2.91750974021852">
        <ele>856.66999999999996</ele>
        <time>2014-09-04T08:58:33Z</time>
      </trkpt>
      <trkpt lat="39.837349718436599" lon="2.917514266446233">
        <ele>860.51999999999998</ele>
        <time>2014-09-04T08:58:34Z</time>
      </trkpt>
      <trkpt lat="39.837360614910722" lon="2.917490545660257">
        <ele>854.26999999999998</ele>
        <time>2014-09-04T08:58:38Z</time>
      </trkpt>
      <trkpt lat="39.837363297119737" lon="2.917490210384131">
        <ele>859.55999999999995</ele>
        <time>2014-09-04T08:58:39Z</time>
      </trkpt>
      <trkpt lat="39.837366985157132" lon="2.917490294203162">
        <ele>856.19000000000005</ele>
        <time>2014-09-04T08:58:40Z</time>
      </trkpt>
      <trkpt lat="39.837372433394194" lon="2.917492892593145">
        <ele>861.96000000000004</ele>
        <time>2014-09-04T08:58:41Z</time>
      </trkpt>
      <trkpt lat="39.837374361231923" lon="2.917499262839556">
        <ele>861.96000000000004</ele>
        <time>2014-09-04T08:58:42Z</time>
      </trkpt>
      <trkpt lat="39.837375031784177" lon="2.917505213990808">
        <ele>855.71000000000004</ele>
        <time>2014-09-04T08:58:43Z</time>
      </trkpt>
      <trkpt lat="39.837371427565813" lon="2.917501023039222">
        <ele>862.91999999999996</ele>
        <time>2014-09-04T08:58:44Z</time>
      </trkpt>
      <trkpt lat="39.837366817519069" lon="2.917505130171776">
        <ele>857.63</ele>
        <time>2014-09-04T08:58:46Z</time>
      </trkpt>
      <trkpt lat="39.837370505556464" lon="2.917510243132711">
        <ele>866.28999999999996</ele>
        <time>2014-09-04T08:58:47Z</time>
      </trkpt>
      <trkpt lat="39.837372349575162" lon="2.917503453791142">
        <ele>854.26999999999998</ele>
        <time>2014-09-04T08:58:48Z</time>
      </trkpt>
      <trkpt lat="39.837371930480003" lon="2.917506890371442">
        <ele>869.64999999999998</ele>
        <time>2014-09-04T08:58:49Z</time>
      </trkpt>
      <trkpt lat="39.837375031784177" lon="2.917503118515015">
        <ele>861</ele>
        <time>2014-09-04T08:58:50Z</time>
      </trkpt>
      <trkpt lat="39.837375367060304" lon="2.917503034695983">
        <ele>864.84000000000003</ele>
        <time>2014-09-04T08:58:51Z</time>
      </trkpt>
      <trkpt lat="39.837378803640604" lon="2.917504711076617">
        <ele>858.11000000000001</ele>
        <time>2014-09-04T08:58:52Z</time>
      </trkpt>
      <trkpt lat="39.837378803640604" lon="2.917504711076617">
        <ele>863.88</ele>
        <time>2014-09-04T08:58:53Z</time>
      </trkpt>
      <trkpt lat="39.837379725649953" lon="2.917507560923696">
        <ele>867.25</ele>
        <time>2014-09-04T08:58:56Z</time>
      </trkpt>
      <trkpt lat="39.837379725649953" lon="2.917507560923696">
        <ele>858.59000000000003</ele>
        <time>2014-09-04T08:58:57Z</time>
      </trkpt>
      <trkpt lat="39.837379725649953" lon="2.917507560923696">
        <ele>859.55999999999995</ele>
        <time>2014-09-04T08:58:58Z</time>
      </trkpt>
      <trkpt lat="39.837379725649953" lon="2.917507560923696">
        <ele>871.57000000000005</ele>
        <time>2014-09-04T08:58:59Z</time>
      </trkpt>
      <trkpt lat="39.837384084239602" lon="2.917512338608503">
        <ele>858.11000000000001</ele>
        <time>2014-09-04T08:59:00Z</time>
      </trkpt>
      <trkpt lat="39.837387856096029" lon="2.917515775188804">
        <ele>866.76999999999998</ele>
        <time>2014-09-04T08:59:01Z</time>
      </trkpt>
      <trkpt lat="39.837388945743442" lon="2.917516529560089">
        <ele>863.39999999999998</ele>
        <time>2014-09-04T08:59:07Z</time>
      </trkpt>
      <trkpt lat="39.837384168058634" lon="2.917521307244897">
        <ele>867.73000000000002</ele>
        <time>2014-09-04T08:59:09Z</time>
      </trkpt>
      <trkpt lat="39.83739179559052" lon="2.917518205940723">
        <ele>862.44000000000005</ele>
        <time>2014-09-04T08:59:20Z</time>
      </trkpt>
      <trkpt lat="39.83740009367466" lon="2.917530778795481">
        <ele>869.16999999999996</ele>
        <time>2014-09-04T08:59:21Z</time>
      </trkpt>
      <trkpt lat="39.837403781712055" lon="2.917541088536382">
        <ele>866.28999999999996</ele>
        <time>2014-09-04T08:59:22Z</time>
      </trkpt>
      <trkpt lat="39.837410403415561" lon="2.917553745210171">
        <ele>871.57000000000005</ele>
        <time>2014-09-04T08:59:25Z</time>
      </trkpt>
      <trkpt lat="39.837410487234592" lon="2.917549218982458">
        <ele>862.91999999999996</ele>
        <time>2014-09-04T08:59:26Z</time>
      </trkpt>
      <trkpt lat="39.837412750348449" lon="2.917555421590805">
        <ele>870.61000000000001</ele>
        <time>2014-09-04T08:59:27Z</time>
      </trkpt>
      <trkpt lat="39.837414426729083" lon="2.917559277266264">
        <ele>866.76999999999998</ele>
        <time>2014-09-04T08:59:28Z</time>
      </trkpt>
      <trkpt lat="39.837419623509049" lon="2.91756690479815">
        <ele>871.57000000000005</ele>
        <time>2014-09-04T08:59:31Z</time>
      </trkpt>
      <trkpt lat="39.837436052039266" lon="2.917564641684294">
        <ele>866.76999999999998</ele>
        <time>2014-09-04T08:59:33Z</time>
      </trkpt>
      <trkpt lat="39.837445104494691" lon="2.917559863999486">
        <ele>868.69000000000005</ele>
        <time>2014-09-04T08:59:34Z</time>
      </trkpt>
      <trkpt lat="39.837453486397862" lon="2.917562127113342">
        <ele>873.5</ele>
        <time>2014-09-04T08:59:37Z</time>
      </trkpt>
      <trkpt lat="39.837458347901702" lon="2.91755860671401">
        <ele>870.13</ele>
        <time>2014-09-04T08:59:38Z</time>
      </trkpt>
      <trkpt lat="39.837464969605207" lon="2.917565396055579">
        <ele>873.5</ele>
        <time>2014-09-04T08:59:44Z</time>
      </trkpt>
      <trkpt lat="39.837464969605207" lon="2.917565396055579">
        <ele>870.13</ele>
        <time>2014-09-04T08:59:45Z</time>
      </trkpt>
      <trkpt lat="39.837470920756459" lon="2.91756690479815">
        <ele>874.94000000000005</ele>
        <time>2014-09-04T08:59:46Z</time>
      </trkpt>
      <trkpt lat="39.837465556338429" lon="2.917584339156747">
        <ele>868.21000000000004</ele>
        <time>2014-09-04T08:59:47Z</time>
      </trkpt>
      <trkpt lat="39.837465556338429" lon="2.917584339156747">
        <ele>877.34000000000003</ele>
        <time>2014-09-04T08:59:48Z</time>
      </trkpt>
      <trkpt lat="39.837461281567812" lon="2.917591463774443">
        <ele>867.73000000000002</ele>
        <time>2014-09-04T08:59:49Z</time>
      </trkpt>
      <trkpt lat="39.837461281567812" lon="2.917591463774443">
        <ele>873.00999999999999</ele>
        <time>2014-09-04T08:59:50Z</time>
      </trkpt>
      <trkpt lat="39.837460443377495" lon="2.917584171518683">
        <ele>872.04999999999995</ele>
        <time>2014-09-04T08:59:54Z</time>
      </trkpt>
      <trkpt lat="39.837467316538095" lon="2.917568078264594">
        <ele>875.89999999999998</ele>
        <time>2014-09-04T08:59:57Z</time>
      </trkpt>
      <trkpt lat="39.837466645985842" lon="2.917568581178784">
        <ele>872.04999999999995</ele>
        <time>2014-09-04T08:59:59Z</time>
      </trkpt>
      <trkpt lat="39.837466645985842" lon="2.917568581178784">
        <ele>868.21000000000004</ele>
        <time>2014-09-04T09:00:01Z</time>
      </trkpt>
      <trkpt lat="39.837466645985842" lon="2.917568581178784">
        <ele>872.52999999999997</ele>
        <time>2014-09-04T09:00:02Z</time>
      </trkpt>
      <trkpt lat="39.837466645985842" lon="2.917568581178784">
        <ele>879.25999999999999</ele>
        <time>2014-09-04T09:00:04Z</time>
      </trkpt>
      <trkpt lat="39.837465640157461" lon="2.917564054951072">
        <ele>872.52999999999997</ele>
        <time>2014-09-04T09:00:05Z</time>
      </trkpt>
      <trkpt lat="39.837461616843939" lon="2.917547877877951">
        <ele>866.28999999999996</ele>
        <time>2014-09-04T09:00:07Z</time>
      </trkpt>
      <trkpt lat="39.837461030110717" lon="2.917543016374111">
        <ele>876.86000000000001</ele>
        <time>2014-09-04T09:00:08Z</time>
      </trkpt>
      <trkpt lat="39.837462455034256" lon="2.91753857396543">
        <ele>873.00999999999999</ele>
        <time>2014-09-04T09:00:09Z</time>
      </trkpt>
      <trkpt lat="39.837460359558463" lon="2.91753220371902">
        <ele>868.21000000000004</ele>
        <time>2014-09-04T09:00:10Z</time>
      </trkpt>
      <trkpt lat="39.837460359558463" lon="2.91753220371902">
        <ele>872.52999999999997</ele>
        <time>2014-09-04T09:00:11Z</time>
      </trkpt>
      <trkpt lat="39.837477961555123" lon="2.917488869279623">
        <ele>872.52999999999997</ele>
        <time>2014-09-04T09:00:25Z</time>
      </trkpt>
      <trkpt lat="39.837468406185508" lon="2.917478810995817">
        <ele>872.52999999999997</ele>
        <time>2014-09-04T09:00:41Z</time>
      </trkpt>
      <trkpt lat="39.837468406185508" lon="2.917478810995817">
        <ele>873.98000000000002</ele>
        <time>2014-09-04T09:01:13Z</time>
      </trkpt>
      <trkpt lat="39.837478213012218" lon="2.9174745362252">
        <ele>873.5</ele>
        <time>2014-09-04T09:01:24Z</time>
      </trkpt>
      <trkpt lat="39.837476788088679" lon="2.917469507083297">
        <ele>873.5</ele>
        <time>2014-09-04T09:01:41Z</time>
      </trkpt>
      <trkpt lat="39.837476788088679" lon="2.917469507083297">
        <ele>873.5</ele>
        <time>2014-09-04T09:02:03Z</time>
      </trkpt>
      <trkpt lat="39.83747779391706" lon="2.917467076331377">
        <ele>873.5</ele>
        <time>2014-09-04T09:02:34Z</time>
      </trkpt>
      <trkpt lat="39.837474608793855" lon="2.917468501254916">
        <ele>874.46000000000004</ele>
        <time>2014-09-04T09:02:44Z</time>
      </trkpt>
      <trkpt lat="39.837486762553453" lon="2.91745500639081">
        <ele>872.52999999999997</ele>
        <time>2014-09-04T09:03:01Z</time>
      </trkpt>
      <trkpt lat="39.837474189698696" lon="2.917463472113013">
        <ele>875.89999999999998</ele>
        <time>2014-09-04T09:03:15Z</time>
      </trkpt>
      <trkpt lat="39.837476201355457" lon="2.917461795732379">
        <ele>874.94000000000005</ele>
        <time>2014-09-04T09:03:28Z</time>
      </trkpt>
      <trkpt lat="39.837476201355457" lon="2.917461795732379">
        <ele>872.52999999999997</ele>
        <time>2014-09-04T09:03:31Z</time>
      </trkpt>
      <trkpt lat="39.837450720369816" lon="2.917490210384131">
        <ele>874.46000000000004</ele>
        <time>2014-09-04T09:03:40Z</time>
      </trkpt>
      <trkpt lat="39.837452229112387" lon="2.917480068281293">
        <ele>878.77999999999997</ele>
        <time>2014-09-04T09:03:44Z</time>
      </trkpt>
      <trkpt lat="39.837452983483672" lon="2.917482247576118">
        <ele>874.94000000000005</ele>
        <time>2014-09-04T09:03:45Z</time>
      </trkpt>
      <trkpt lat="39.837452983483672" lon="2.917482247576118">
        <ele>859.55999999999995</ele>
        <time>2014-09-04T09:03:46Z</time>
      </trkpt>
      <trkpt lat="39.837450720369816" lon="2.917484510689974">
        <ele>876.86000000000001</ele>
        <time>2014-09-04T09:03:47Z</time>
      </trkpt>
      <trkpt lat="39.837445188313723" lon="2.917494317516685">
        <ele>872.52999999999997</ele>
        <time>2014-09-04T09:03:49Z</time>
      </trkpt>
      <trkpt lat="39.837438650429249" lon="2.917513512074947">
        <ele>866.28999999999996</ele>
        <time>2014-09-04T09:04:01Z</time>
      </trkpt>
      <trkpt lat="39.837437057867646" lon="2.917514853179455">
        <ele>871.57000000000005</ele>
        <time>2014-09-04T09:04:02Z</time>
      </trkpt>
      <trkpt lat="39.837437141686678" lon="2.917513931170106">
        <ele>873.5</ele>
        <time>2014-09-04T09:04:04Z</time>
      </trkpt>
      <trkpt lat="39.837430603802204" lon="2.917519379407167">
        <ele>863.39999999999998</ele>
        <time>2014-09-04T09:04:05Z</time>
      </trkpt>
      <trkpt lat="39.837425826117396" lon="2.917524576187134">
        <ele>877.34000000000003</ele>
        <time>2014-09-04T09:04:06Z</time>
      </trkpt>
      <trkpt lat="39.837422892451286" lon="2.917522732168436">
        <ele>871.09000000000003</ele>
        <time>2014-09-04T09:04:07Z</time>
      </trkpt>
      <trkpt lat="39.837422892451286" lon="2.917522732168436">
        <ele>875.41999999999996</ele>
        <time>2014-09-04T09:04:09Z</time>
      </trkpt>
      <trkpt lat="39.837421802803874" lon="2.917526252567768">
        <ele>870.13</ele>
        <time>2014-09-04T09:04:10Z</time>
      </trkpt>
      <trkpt lat="39.837411995977163" lon="2.917556092143059">
        <ele>866.28999999999996</ele>
        <time>2014-09-04T09:04:17Z</time>
      </trkpt>
      <trkpt lat="39.837410654872656" lon="2.917553326115012">
        <ele>867.25</ele>
        <time>2014-09-04T09:04:18Z</time>
      </trkpt>
      <trkpt lat="39.837403278797865" lon="2.917573526501656">
        <ele>875.41999999999996</ele>
        <time>2014-09-04T09:04:22Z</time>
      </trkpt>
      <trkpt lat="39.837403865531087" lon="2.917579561471939">
        <ele>869.64999999999998</ele>
        <time>2014-09-04T09:04:23Z</time>
      </trkpt>
      <trkpt lat="39.837394393980503" lon="2.91758886538446">
        <ele>874.46000000000004</ele>
        <time>2014-09-04T09:04:30Z</time>
      </trkpt>
      <trkpt lat="39.837385006248951" lon="2.917588111013174">
        <ele>869.16999999999996</ele>
        <time>2014-09-04T09:04:31Z</time>
      </trkpt>
      <trkpt lat="39.837389113381505" lon="2.917591296136379">
        <ele>867.73000000000002</ele>
        <time>2014-09-04T09:04:33Z</time>
      </trkpt>
      <trkpt lat="39.837381821125746" lon="2.917621051892638">
        <ele>869.64999999999998</ele>
        <time>2014-09-04T09:04:42Z</time>
      </trkpt>
      <trkpt lat="39.837388023734093" lon="2.917647622525692">
        <ele>865.79999999999995</ele>
        <time>2014-09-04T09:04:45Z</time>
      </trkpt>
      <trkpt lat="39.8373893648386" lon="2.917654076591134">
        <ele>868.69000000000005</ele>
        <time>2014-09-04T09:04:46Z</time>
      </trkpt>
      <trkpt lat="39.837387939915061" lon="2.917680395767093">
        <ele>864.84000000000003</ele>
        <time>2014-09-04T09:04:50Z</time>
      </trkpt>
      <trkpt lat="39.837388610467315" lon="2.917686766013503">
        <ele>869.64999999999998</ele>
        <time>2014-09-04T09:04:51Z</time>
      </trkpt>
      <trkpt lat="39.837388778105378" lon="2.917693387717009">
        <ele>862.91999999999996</ele>
        <time>2014-09-04T09:04:52Z</time>
      </trkpt>
      <trkpt lat="39.837388778105378" lon="2.917693387717009">
        <ele>872.04999999999995</ele>
        <time>2014-09-04T09:04:53Z</time>
      </trkpt>
      <trkpt lat="39.837392214685678" lon="2.91771350428462">
        <ele>859.55999999999995</ele>
        <time>2014-09-04T09:04:55Z</time>
      </trkpt>
      <trkpt lat="39.837398333474994" lon="2.917717527598143">
        <ele>875.89999999999998</ele>
        <time>2014-09-04T09:04:56Z</time>
      </trkpt>
      <trkpt lat="39.837396740913391" lon="2.917714342474937">
        <ele>870.13</ele>
        <time>2014-09-04T09:04:57Z</time>
      </trkpt>
      <trkpt lat="39.837394813075662" lon="2.91771836578846">
        <ele>864.36000000000001</ele>
        <time>2014-09-04T09:04:58Z</time>
      </trkpt>
      <trkpt lat="39.837392549961805" lon="2.917723478749394">
        <ele>880.22000000000003</ele>
        <time>2014-09-04T09:04:59Z</time>
      </trkpt>
      <trkpt lat="39.837389616295695" lon="2.917726160958409">
        <ele>870.61000000000001</ele>
        <time>2014-09-04T09:05:00Z</time>
      </trkpt>
      <trkpt lat="39.837395651265979" lon="2.91773647069931">
        <ele>873.98000000000002</ele>
        <time>2014-09-04T09:05:02Z</time>
      </trkpt>
      <trkpt lat="39.837393304333091" lon="2.9177335370332">
        <ele>869.16999999999996</ele>
        <time>2014-09-04T09:05:03Z</time>
      </trkpt>
      <trkpt lat="39.837393974885345" lon="2.917725574225187">
        <ele>873.00999999999999</ele>
        <time>2014-09-04T09:05:16Z</time>
      </trkpt>
      <trkpt lat="39.837393974885345" lon="2.917725574225187">
        <ele>868.69000000000005</ele>
        <time>2014-09-04T09:05:24Z</time>
      </trkpt>
      <trkpt lat="39.837397411465645" lon="2.917723227292299">
        <ele>878.77999999999997</ele>
        <time>2014-09-04T09:05:25Z</time>
      </trkpt>
      <trkpt lat="39.837392214685678" lon="2.917718784883618">
        <ele>872.52999999999997</ele>
        <time>2014-09-04T09:05:26Z</time>
      </trkpt>
      <trkpt lat="39.837391963228583" lon="2.917726412415505">
        <ele>876.86000000000001</ele>
        <time>2014-09-04T09:05:28Z</time>
      </trkpt>
      <trkpt lat="39.837394142523408" lon="2.917729010805488">
        <ele>871.57000000000005</ele>
        <time>2014-09-04T09:05:29Z</time>
      </trkpt>
      <trkpt lat="39.837398501113057" lon="2.917733285576105">
        <ele>875.89999999999998</ele>
        <time>2014-09-04T09:05:30Z</time>
      </trkpt>
      <trkpt lat="39.837399674579501" lon="2.917739823460579">
        <ele>869.64999999999998</ele>
        <time>2014-09-04T09:05:33Z</time>
      </trkpt>
      <trkpt lat="39.837397579103708" lon="2.917749965563417">
        <ele>881.66999999999996</ele>
        <time>2014-09-04T09:05:34Z</time>
      </trkpt>
      <trkpt lat="39.837399171665311" lon="2.917757174000144">
        <ele>874.94000000000005</ele>
        <time>2014-09-04T09:05:35Z</time>
      </trkpt>
      <trkpt lat="39.837406296283007" lon="2.91777309961617">
        <ele>867.73000000000002</ele>
        <time>2014-09-04T09:05:37Z</time>
      </trkpt>
      <trkpt lat="39.837407134473324" lon="2.917784918099642">
        <ele>877.82000000000005</ele>
        <time>2014-09-04T09:05:38Z</time>
      </trkpt>
      <trkpt lat="39.83740939758718" lon="2.917798077687621">
        <ele>877.82000000000005</ele>
        <time>2014-09-04T09:05:39Z</time>
      </trkpt>
      <trkpt lat="39.837410487234592" lon="2.917807968333364">
        <ele>871.09000000000003</ele>
        <time>2014-09-04T09:05:40Z</time>
      </trkpt>
      <trkpt lat="39.837409732863307" lon="2.917814506217837">
        <ele>882.63</ele>
        <time>2014-09-04T09:05:41Z</time>
      </trkpt>
      <trkpt lat="39.837407888844609" lon="2.917823474854231">
        <ele>865.79999999999995</ele>
        <time>2014-09-04T09:05:42Z</time>
      </trkpt>
      <trkpt lat="39.837407888844609" lon="2.917823474854231">
        <ele>879.74000000000001</ele>
        <time>2014-09-04T09:05:43Z</time>
      </trkpt>
      <trkpt lat="39.837405541911721" lon="2.917834706604481">
        <ele>868.21000000000004</ele>
        <time>2014-09-04T09:05:44Z</time>
      </trkpt>
      <trkpt lat="39.837405541911721" lon="2.917834706604481">
        <ele>880.22000000000003</ele>
        <time>2014-09-04T09:05:45Z</time>
      </trkpt>
      <trkpt lat="39.837400848045945" lon="2.917840322479606">
        <ele>876.38</ele>
        <time>2014-09-04T09:05:47Z</time>
      </trkpt>
      <trkpt lat="39.837407050654292" lon="2.917863372713327">
        <ele>878.29999999999995</ele>
        <time>2014-09-04T09:05:51Z</time>
      </trkpt>
      <trkpt lat="39.83740646392107" lon="2.917874185368419">
        <ele>885.02999999999997</ele>
        <time>2014-09-04T09:05:53Z</time>
      </trkpt>
      <trkpt lat="39.837401518598199" lon="2.9178820643574">
        <ele>869.64999999999998</ele>
        <time>2014-09-04T09:05:54Z</time>
      </trkpt>
      <trkpt lat="39.837398333474994" lon="2.91789036244154">
        <ele>888.88</ele>
        <time>2014-09-04T09:05:55Z</time>
      </trkpt>
      <trkpt lat="39.837392549961805" lon="2.917898073792458">
        <ele>871.09000000000003</ele>
        <time>2014-09-04T09:05:56Z</time>
      </trkpt>
      <trkpt lat="39.837388694286346" lon="2.917903941124678">
        <ele>884.54999999999995</ele>
        <time>2014-09-04T09:05:57Z</time>
      </trkpt>
      <trkpt lat="39.837389113381505" lon="2.917912239208818">
        <ele>875.89999999999998</ele>
        <time>2014-09-04T09:05:58Z</time>
      </trkpt>
      <trkpt lat="39.837389281019568" lon="2.917919028550386">
        <ele>882.63</ele>
        <time>2014-09-04T09:05:59Z</time>
      </trkpt>
      <trkpt lat="39.837385173887014" lon="2.917924728244543">
        <ele>879.25999999999999</ele>
        <time>2014-09-04T09:06:00Z</time>
      </trkpt>
      <trkpt lat="39.837380228564143" lon="2.917927578091621">
        <ele>883.59000000000003</ele>
        <time>2014-09-04T09:06:01Z</time>
      </trkpt>
      <trkpt lat="39.837382743135095" lon="2.917924895882607">
        <ele>880.71000000000004</ele>
        <time>2014-09-04T09:06:02Z</time>
      </trkpt>
      <trkpt lat="39.837382240220904" lon="2.91794216260314">
        <ele>872.04999999999995</ele>
        <time>2014-09-04T09:06:06Z</time>
      </trkpt>
      <trkpt lat="39.837383329868317" lon="2.917950712144375">
        <ele>889.84000000000003</ele>
        <time>2014-09-04T09:06:07Z</time>
      </trkpt>
      <trkpt lat="39.837386095896363" lon="2.917959513142705">
        <ele>885.02999999999997</ele>
        <time>2014-09-04T09:06:08Z</time>
      </trkpt>
      <trkpt lat="39.837388778105378" lon="2.91796856559813">
        <ele>877.34000000000003</ele>
        <time>2014-09-04T09:06:09Z</time>
      </trkpt>
      <trkpt lat="39.837390119209886" lon="2.917977115139365">
        <ele>888.39999999999998</ele>
        <time>2014-09-04T09:06:10Z</time>
      </trkpt>
      <trkpt lat="39.837392130866647" lon="2.917988514527679">
        <ele>877.82000000000005</ele>
        <time>2014-09-04T09:06:11Z</time>
      </trkpt>
      <trkpt lat="39.837391544133425" lon="2.917985077947378">
        <ele>883.11000000000001</ele>
        <time>2014-09-04T09:06:12Z</time>
      </trkpt>
      <trkpt lat="39.837393052875996" lon="2.917990023270249">
        <ele>890.79999999999995</ele>
        <time>2014-09-04T09:06:15Z</time>
      </trkpt>
      <trkpt lat="39.837400931864977" lon="2.918003182858229">
        <ele>893.20000000000005</ele>
        <time>2014-09-04T09:06:17Z</time>
      </trkpt>
      <trkpt lat="39.837403949350119" lon="2.918014246970415">
        <ele>874.94000000000005</ele>
        <time>2014-09-04T09:06:18Z</time>
      </trkpt>
      <trkpt lat="39.837405793368816" lon="2.91802522726357">
        <ele>890.32000000000005</ele>
        <time>2014-09-04T09:06:19Z</time>
      </trkpt>
      <trkpt lat="39.837410990148783" lon="2.918039560317993">
        <ele>882.14999999999998</ele>
        <time>2014-09-04T09:06:21Z</time>
      </trkpt>
      <trkpt lat="39.837410235777497" lon="2.918045092374086">
        <ele>892.24000000000001</ele>
        <time>2014-09-04T09:06:22Z</time>
      </trkpt>
      <trkpt lat="39.837408475577831" lon="2.918047104030848">
        <ele>887.90999999999997</ele>
        <time>2014-09-04T09:06:23Z</time>
      </trkpt>
      <trkpt lat="39.837406044825912" lon="2.918051294982433">
        <ele>894.15999999999997</ele>
        <time>2014-09-04T09:06:27Z</time>
      </trkpt>
      <trkpt lat="39.83740696683526" lon="2.918052887544036">
        <ele>885.99000000000001</ele>
        <time>2014-09-04T09:06:28Z</time>
      </trkpt>
      <trkpt lat="39.837405038997531" lon="2.918057078495622">
        <ele>894.15999999999997</ele>
        <time>2014-09-04T09:06:30Z</time>
      </trkpt>
      <trkpt lat="39.837405709549785" lon="2.918055485934019">
        <ele>888.39999999999998</ele>
        <time>2014-09-04T09:06:31Z</time>
      </trkpt>
      <trkpt lat="39.837405709549785" lon="2.918055485934019">
        <ele>881.66999999999996</ele>
        <time>2014-09-04T09:06:32Z</time>
      </trkpt>
      <trkpt lat="39.837402440607548" lon="2.918061017990112">
        <ele>889.84000000000003</ele>
        <time>2014-09-04T09:06:33Z</time>
      </trkpt>
      <trkpt lat="39.837390286847949" lon="2.918068394064903">
        <ele>885.99000000000001</ele>
        <time>2014-09-04T09:06:35Z</time>
      </trkpt>
      <trkpt lat="39.837382659316063" lon="2.918069818988442">
        <ele>891.75999999999999</ele>
        <time>2014-09-04T09:06:36Z</time>
      </trkpt>
      <trkpt lat="39.837385341525078" lon="2.918070238083601">
        <ele>888.88</ele>
        <time>2014-09-04T09:06:37Z</time>
      </trkpt>
      <trkpt lat="39.837385341525078" lon="2.918070238083601">
        <ele>889.84000000000003</ele>
        <time>2014-09-04T09:07:03Z</time>
      </trkpt>
      <trkpt lat="39.837385341525078" lon="2.918070238083601">
        <ele>886.47000000000003</ele>
        <time>2014-09-04T09:07:05Z</time>
      </trkpt>
      <trkpt lat="39.837385341525078" lon="2.918070238083601">
        <ele>892.72000000000003</ele>
        <time>2014-09-04T09:07:06Z</time>
      </trkpt>
      <trkpt lat="39.837388610467315" lon="2.918077362701297">
        <ele>888.88</ele>
        <time>2014-09-04T09:07:17Z</time>
      </trkpt>
      <trkpt lat="39.837384670972824" lon="2.918088342994452">
        <ele>895.12</ele>
        <time>2014-09-04T09:07:21Z</time>
      </trkpt>
      <trkpt lat="39.837373858317733" lon="2.918090773746371">
        <ele>891.27999999999997</ele>
        <time>2014-09-04T09:07:22Z</time>
      </trkpt>
      <trkpt lat="39.837370505556464" lon="2.918093120679259">
        <ele>890.32000000000005</ele>
        <time>2014-09-04T09:07:23Z</time>
      </trkpt>
      <trkpt lat="39.837372852489352" lon="2.918124636635184">
        <ele>896.57000000000005</ele>
        <time>2014-09-04T09:07:27Z</time>
      </trkpt>
      <trkpt lat="39.837373774498701" lon="2.918124301359057">
        <ele>896.09000000000003</ele>
        <time>2014-09-04T09:07:28Z</time>
      </trkpt>
      <trkpt lat="39.837370589375496" lon="2.918122624978423">
        <ele>894.15999999999997</ele>
        <time>2014-09-04T09:07:30Z</time>
      </trkpt>
      <trkpt lat="39.837379138916731" lon="2.918126899749041">
        <ele>898.49000000000001</ele>
        <time>2014-09-04T09:07:35Z</time>
      </trkpt>
      <trkpt lat="39.83738106675446" lon="2.918127654120326">
        <ele>894.15999999999997</ele>
        <time>2014-09-04T09:07:36Z</time>
      </trkpt>
      <trkpt lat="39.837384922429919" lon="2.918122038245201">
        <ele>901.85000000000002</ele>
        <time>2014-09-04T09:07:38Z</time>
      </trkpt>
      <trkpt lat="39.837388442829251" lon="2.918116087093949">
        <ele>895.61000000000001</ele>
        <time>2014-09-04T09:07:39Z</time>
      </trkpt>
      <trkpt lat="39.837388442829251" lon="2.918116087093949">
        <ele>903.29999999999995</ele>
        <time>2014-09-04T09:07:41Z</time>
      </trkpt>
      <trkpt lat="39.837390705943108" lon="2.918117847293615">
        <ele>897.52999999999997</ele>
        <time>2014-09-04T09:07:42Z</time>
      </trkpt>
      <trkpt lat="39.837389616295695" lon="2.91812832467258">
        <ele>901.85000000000002</ele>
        <time>2014-09-04T09:07:44Z</time>
      </trkpt>
      <trkpt lat="39.837388945743442" lon="2.91813662275672">
        <ele>895.12</ele>
        <time>2014-09-04T09:07:45Z</time>
      </trkpt>
      <trkpt lat="39.837388945743442" lon="2.91813662275672">
        <ele>898.97000000000003</ele>
        <time>2014-09-04T09:07:46Z</time>
      </trkpt>
      <trkpt lat="39.837424820289016" lon="2.918192697688937">
        <ele>900.40999999999997</ele>
        <time>2014-09-04T09:07:56Z</time>
      </trkpt>
      <trkpt lat="39.837449379265308" lon="2.918213317170739">
        <ele>907.62</ele>
        <time>2014-09-04T09:08:02Z</time>
      </trkpt>
      <trkpt lat="39.837453067302704" lon="2.918220525607467">
        <ele>897.04999999999995</ele>
        <time>2014-09-04T09:08:03Z</time>
      </trkpt>
      <trkpt lat="39.83745239675045" lon="2.918218933045864">
        <ele>902.33000000000004</ele>
        <time>2014-09-04T09:08:04Z</time>
      </trkpt>
      <trkpt lat="39.837460359558463" lon="2.918224465101957">
        <ele>906.17999999999995</ele>
        <time>2014-09-04T09:08:07Z</time>
      </trkpt>
      <trkpt lat="39.837460359558463" lon="2.918224465101957">
        <ele>901.85000000000002</ele>
        <time>2014-09-04T09:08:08Z</time>
      </trkpt>
      <trkpt lat="39.837463879957795" lon="2.918225890025497">
        <ele>899.45000000000005</ele>
        <time>2014-09-04T09:08:28Z</time>
      </trkpt>
      <trkpt lat="39.837463879957795" lon="2.918225890025497">
        <ele>905.22000000000003</ele>
        <time>2014-09-04T09:08:29Z</time>
      </trkpt>
      <trkpt lat="39.837473686784506" lon="2.918227985501289">
        <ele>901.85000000000002</ele>
        <time>2014-09-04T09:08:30Z</time>
      </trkpt>
      <trkpt lat="39.837482571601868" lon="2.918231757357717">
        <ele>902.82000000000005</ele>
        <time>2014-09-04T09:08:31Z</time>
      </trkpt>
      <trkpt lat="39.837490534409881" lon="2.918232763186097">
        <ele>906.17999999999995</ele>
        <time>2014-09-04T09:08:32Z</time>
      </trkpt>
      <trkpt lat="39.837499419227242" lon="2.918234691023827">
        <ele>902.82000000000005</ele>
        <time>2014-09-04T09:08:33Z</time>
      </trkpt>
      <trkpt lat="39.837504448369145" lon="2.918238211423159">
        <ele>907.62</ele>
        <time>2014-09-04T09:08:34Z</time>
      </trkpt>
      <trkpt lat="39.837509980425239" lon="2.918243575841188">
        <ele>901.37</ele>
        <time>2014-09-04T09:08:35Z</time>
      </trkpt>
      <trkpt lat="39.837520122528076" lon="2.918251622468233">
        <ele>908.58000000000004</ele>
        <time>2014-09-04T09:08:37Z</time>
      </trkpt>
      <trkpt lat="39.837527666240931" lon="2.918254723772407">
        <ele>904.25999999999999</ele>
        <time>2014-09-04T09:08:38Z</time>
      </trkpt>
      <trkpt lat="39.837537053972483" lon="2.918256567791104">
        <ele>906.17999999999995</ele>
        <time>2014-09-04T09:08:41Z</time>
      </trkpt>
      <trkpt lat="39.837589105591178" lon="2.9182895924896">
        <ele>910.50999999999999</ele>
        <time>2014-09-04T09:08:50Z</time>
      </trkpt>
      <trkpt lat="39.837592290714383" lon="2.918297136202455">
        <ele>906.65999999999997</ele>
        <time>2014-09-04T09:08:51Z</time>
      </trkpt>
      <trkpt lat="39.837637469172478" lon="2.918350696563721">
        <ele>910.02999999999997</ele>
        <time>2014-09-04T09:09:02Z</time>
      </trkpt>
      <trkpt lat="39.837650628760457" lon="2.918362095952034">
        <ele>904.74000000000001</ele>
        <time>2014-09-04T09:09:04Z</time>
      </trkpt>
      <trkpt lat="39.837656579911709" lon="2.918365532532334">
        <ele>911.47000000000003</ele>
        <time>2014-09-04T09:09:05Z</time>
      </trkpt>
      <trkpt lat="39.837702345103025" lon="2.918415572494268">
        <ele>912.90999999999997</ele>
        <time>2014-09-04T09:09:14Z</time>
      </trkpt>
      <trkpt lat="39.837702345103025" lon="2.918501319363713">
        <ele>915.30999999999995</ele>
        <time>2014-09-04T09:09:24Z</time>
      </trkpt>
      <trkpt lat="39.837699998170137" lon="2.918536858633161">
        <ele>919.63999999999999</ele>
        <time>2014-09-04T09:09:32Z</time>
      </trkpt>
      <trkpt lat="39.837702931836247" lon="2.918535685166717">
        <ele>916.26999999999998</ele>
        <time>2014-09-04T09:09:33Z</time>
      </trkpt>
      <trkpt lat="39.837719108909369" lon="2.91853778064251">
        <ele>920.12</ele>
        <time>2014-09-04T09:09:38Z</time>
      </trkpt>
      <trkpt lat="39.837717348709702" lon="2.918544318526983">
        <ele>914.35000000000002</ele>
        <time>2014-09-04T09:09:39Z</time>
      </trkpt>
      <trkpt lat="39.837715420871973" lon="2.918548760935664">
        <ele>919.63999999999999</ele>
        <time>2014-09-04T09:09:40Z</time>
      </trkpt>
      <trkpt lat="39.837734280154109" lon="2.918579187244177">
        <ele>920.60000000000002</ele>
        <time>2014-09-04T09:09:53Z</time>
      </trkpt>
      <trkpt lat="39.837765460833907" lon="2.918614391237497">
        <ele>916.26999999999998</ele>
        <time>2014-09-04T09:09:59Z</time>
      </trkpt>
      <trkpt lat="39.837768813595176" lon="2.918620258569717">
        <ele>921.55999999999995</ele>
        <time>2014-09-04T09:10:00Z</time>
      </trkpt>
      <trkpt lat="39.837776608765125" lon="2.918630568310618">
        <ele>922.51999999999998</ele>
        <time>2014-09-04T09:10:02Z</time>
      </trkpt>
      <trkpt lat="39.837793372571468" lon="2.918658647686243">
        <ele>921.55999999999995</ele>
        <time>2014-09-04T09:10:05Z</time>
      </trkpt>
      <trkpt lat="39.837798401713371" lon="2.91866535320878">
        <ele>925.40999999999997</ele>
        <time>2014-09-04T09:10:06Z</time>
      </trkpt>
      <trkpt lat="39.83780276030302" lon="2.918672394007444">
        <ele>921.55999999999995</ele>
        <time>2014-09-04T09:10:07Z</time>
      </trkpt>
      <trkpt lat="39.837817428633571" lon="2.918684715405107">
        <ele>925.40999999999997</ele>
        <time>2014-09-04T09:10:09Z</time>
      </trkpt>
      <trkpt lat="39.837820697575808" lon="2.918692426756024">
        <ele>923.48000000000002</ele>
        <time>2014-09-04T09:10:10Z</time>
      </trkpt>
      <trkpt lat="39.837835617363453" lon="2.918701814487577">
        <ele>927.33000000000004</ele>
        <time>2014-09-04T09:10:24Z</time>
      </trkpt>
      <trkpt lat="39.8378418199718" lon="2.918700892478228">
        <ele>923.48000000000002</ele>
        <time>2014-09-04T09:10:25Z</time>
      </trkpt>
      <trkpt lat="39.837848441675305" lon="2.918698126450181">
        <ele>923.96000000000004</ele>
        <time>2014-09-04T09:10:26Z</time>
      </trkpt>
      <trkpt lat="39.837858835235238" lon="2.918701060116291">
        <ele>926.85000000000002</ele>
        <time>2014-09-04T09:10:27Z</time>
      </trkpt>
      <trkpt lat="39.837866043671966" lon="2.91870835237205">
        <ele>930.21000000000004</ele>
        <time>2014-09-04T09:10:30Z</time>
      </trkpt>
      <trkpt lat="39.837863948196173" lon="2.918707178905606">
        <ele>925.88999999999999</ele>
        <time>2014-09-04T09:10:31Z</time>
      </trkpt>
      <trkpt lat="39.837867049500346" lon="2.918722936883569">
        <ele>931.16999999999996</ele>
        <time>2014-09-04T09:10:32Z</time>
      </trkpt>
      <trkpt lat="39.837867384776473" lon="2.918736767023802">
        <ele>925.88999999999999</ele>
        <time>2014-09-04T09:10:33Z</time>
      </trkpt>
      <trkpt lat="39.837870402261615" lon="2.918762834742665">
        <ele>928.28999999999996</ele>
        <time>2014-09-04T09:10:36Z</time>
      </trkpt>
      <trkpt lat="39.837880376726389" lon="2.91877088136971">
        <ele>926.37</ele>
        <time>2014-09-04T09:10:38Z</time>
      </trkpt>
      <trkpt lat="39.837896469980478" lon="2.918766438961029">
        <ele>932.13999999999999</ele>
        <time>2014-09-04T09:10:47Z</time>
      </trkpt>
      <trkpt lat="39.837900493294001" lon="2.918766355141997">
        <ele>927.80999999999995</ele>
        <time>2014-09-04T09:10:48Z</time>
      </trkpt>
      <trkpt lat="39.837923040613532" lon="2.918766103684902">
        <ele>929.25</ele>
        <time>2014-09-04T09:10:52Z</time>
      </trkpt>
      <trkpt lat="39.837927231565118" lon="2.918761158362031">
        <ele>932.62</ele>
        <time>2014-09-04T09:10:56Z</time>
      </trkpt>
      <trkpt lat="39.837929159402847" lon="2.918761409819126">
        <ele>925.40999999999997</ele>
        <time>2014-09-04T09:10:57Z</time>
      </trkpt>
      <trkpt lat="39.837929159402847" lon="2.918761409819126">
        <ele>934.05999999999995</ele>
        <time>2014-09-04T09:10:58Z</time>
      </trkpt>
      <trkpt lat="39.837929159402847" lon="2.918761409819126">
        <ele>924.92999999999995</ele>
        <time>2014-09-04T09:10:59Z</time>
      </trkpt>
      <trkpt lat="39.83793318271637" lon="2.918761074542999">
        <ele>938.38</ele>
        <time>2014-09-04T09:11:00Z</time>
      </trkpt>
      <trkpt lat="39.837935110554099" lon="2.918765768408775">
        <ele>931.64999999999998</ele>
        <time>2014-09-04T09:11:01Z</time>
      </trkpt>
      <trkpt lat="39.837939720600843" lon="2.918771887198091">
        <ele>924.92999999999995</ele>
        <time>2014-09-04T09:11:02Z</time>
      </trkpt>
      <trkpt lat="39.837946007028222" lon="2.918780101463199">
        <ele>935.98000000000002</ele>
        <time>2014-09-04T09:11:03Z</time>
      </trkpt>
      <trkpt lat="39.837949275970459" lon="2.918788567185402">
        <ele>932.13999999999999</ele>
        <time>2014-09-04T09:11:04Z</time>
      </trkpt>
      <trkpt lat="39.837949778884649" lon="2.918822765350342">
        <ele>937.89999999999998</ele>
        <time>2014-09-04T09:11:09Z</time>
      </trkpt>
      <trkpt lat="39.837950617074966" lon="2.918822010979056">
        <ele>932.13999999999999</ele>
        <time>2014-09-04T09:11:10Z</time>
      </trkpt>
      <trkpt lat="39.837950617074966" lon="2.918822010979056">
        <ele>926.85000000000002</ele>
        <time>2014-09-04T09:11:25Z</time>
      </trkpt>
      <trkpt lat="39.837955310940742" lon="2.9188197478652">
        <ele>935.01999999999998</ele>
        <time>2014-09-04T09:11:26Z</time>
      </trkpt>
      <trkpt lat="39.837970398366451" lon="2.918841456994414">
        <ele>931.16999999999996</ele>
        <time>2014-09-04T09:11:28Z</time>
      </trkpt>
      <trkpt lat="39.837972493842244" lon="2.91884271427989">
        <ele>933.10000000000002</ele>
        <time>2014-09-04T09:11:29Z</time>
      </trkpt>
      <trkpt lat="39.837970398366451" lon="2.918841456994414">
        <ele>936.46000000000004</ele>
        <time>2014-09-04T09:11:30Z</time>
      </trkpt>
      <trkpt lat="39.837953550741076" lon="2.91890281252563">
        <ele>935.98000000000002</ele>
        <time>2014-09-04T09:11:42Z</time>
      </trkpt>
      <trkpt lat="39.837953886017203" lon="2.918909015133977">
        <ele>931.16999999999996</ele>
        <time>2014-09-04T09:11:59Z</time>
      </trkpt>
      <trkpt lat="39.837953886017203" lon="2.918909015133977">
        <ele>935.98000000000002</ele>
        <time>2014-09-04T09:12:00Z</time>
      </trkpt>
      <trkpt lat="39.837955478578806" lon="2.918914714828134">
        <ele>943.66999999999996</ele>
        <time>2014-09-04T09:12:01Z</time>
      </trkpt>
      <trkpt lat="39.837954472750425" lon="2.918912703171372">
        <ele>936.94000000000005</ele>
        <time>2014-09-04T09:12:02Z</time>
      </trkpt>
      <trkpt lat="39.837964279577136" lon="2.918933657929301">
        <ele>942.23000000000002</ele>
        <time>2014-09-04T09:12:06Z</time>
      </trkpt>
      <trkpt lat="39.837960759177804" lon="2.918930891901255">
        <ele>937.41999999999996</ele>
        <time>2014-09-04T09:12:07Z</time>
      </trkpt>
      <trkpt lat="39.837969643995166" lon="2.918944219127297">
        <ele>948</ele>
        <time>2014-09-04T09:12:15Z</time>
      </trkpt>
      <trkpt lat="39.837971152737737" lon="2.918946566060185">
        <ele>939.83000000000004</ele>
        <time>2014-09-04T09:12:16Z</time>
      </trkpt>
      <trkpt lat="39.837971152737737" lon="2.918946566060185">
        <ele>943.66999999999996</ele>
        <time>2014-09-04T09:12:17Z</time>
      </trkpt>
      <trkpt lat="39.837971152737737" lon="2.918946566060185">
        <ele>940.30999999999995</ele>
        <time>2014-09-04T09:12:18Z</time>
      </trkpt>
      <trkpt lat="39.837971152737737" lon="2.918946566060185">
        <ele>944.63</ele>
        <time>2014-09-04T09:12:20Z</time>
      </trkpt>
      <trkpt lat="39.837971152737737" lon="2.918946566060185">
        <ele>938.86000000000001</ele>
        <time>2014-09-04T09:12:21Z</time>
      </trkpt>
      <trkpt lat="39.837971152737737" lon="2.918946566060185">
        <ele>944.63</ele>
        <time>2014-09-04T09:12:22Z</time>
      </trkpt>
      <trkpt lat="39.837971739470959" lon="2.918950337916613">
        <ele>940.30999999999995</ele>
        <time>2014-09-04T09:12:23Z</time>
      </trkpt>
      <trkpt lat="39.837976852431893" lon="2.918950924649835">
        <ele>951.36000000000001</ele>
        <time>2014-09-04T09:12:25Z</time>
      </trkpt>
      <trkpt lat="39.8379713203758" lon="2.91895067319274">
        <ele>941.75</ele>
        <time>2014-09-04T09:12:26Z</time>
      </trkpt>
      <trkpt lat="39.837966542690992" lon="2.91895067319274">
        <ele>936.94000000000005</ele>
        <time>2014-09-04T09:12:27Z</time>
      </trkpt>
      <trkpt lat="39.837974505499005" lon="2.918951511383057">
        <ele>941.26999999999998</ele>
        <time>2014-09-04T09:12:28Z</time>
      </trkpt>
      <trkpt lat="39.837975092232227" lon="2.918947488069534">
        <ele>949.44000000000005</ele>
        <time>2014-09-04T09:12:29Z</time>
      </trkpt>
      <trkpt lat="39.837975176051259" lon="2.9189492482692">
        <ele>941.75</ele>
        <time>2014-09-04T09:12:30Z</time>
      </trkpt>
      <trkpt lat="39.837986407801509" lon="2.918946146965027">
        <ele>943.66999999999996</ele>
        <time>2014-09-04T09:12:33Z</time>
      </trkpt>
      <trkpt lat="39.837990766391158" lon="2.918959809467197">
        <ele>952.32000000000005</ele>
        <time>2014-09-04T09:12:35Z</time>
      </trkpt>
      <trkpt lat="39.837992191314697" lon="2.918963329866529">
        <ele>941.75</ele>
        <time>2014-09-04T09:12:36Z</time>
      </trkpt>
      <trkpt lat="39.838001662865281" lon="2.918967436999083">
        <ele>944.63</ele>
        <time>2014-09-04T09:12:38Z</time>
      </trkpt>
      <trkpt lat="39.838001662865281" lon="2.918967436999083">
        <ele>945.59000000000003</ele>
        <time>2014-09-04T09:12:45Z</time>
      </trkpt>
      <trkpt lat="39.838001662865281" lon="2.918967436999083">
        <ele>941.75</ele>
        <time>2014-09-04T09:12:47Z</time>
      </trkpt>
      <trkpt lat="39.838004680350423" lon="2.918977411463857">
        <ele>945.11000000000001</ele>
        <time>2014-09-04T09:12:48Z</time>
      </trkpt>
      <trkpt lat="39.838004680350423" lon="2.918982692062855">
        <ele>939.83000000000004</ele>
        <time>2014-09-04T09:12:49Z</time>
      </trkpt>
      <trkpt lat="39.83800602145493" lon="2.918988391757011">
        <ele>946.55999999999995</ele>
        <time>2014-09-04T09:12:50Z</time>
      </trkpt>
      <trkpt lat="39.83800602145493" lon="2.918988391757011">
        <ele>942.71000000000004</ele>
        <time>2014-09-04T09:12:51Z</time>
      </trkpt>
      <trkpt lat="39.83801431953907" lon="2.918998282402754">
        <ele>947.03999999999996</ele>
        <time>2014-09-04T09:12:52Z</time>
      </trkpt>
      <trkpt lat="39.838018426671624" lon="2.919002389535308">
        <ele>943.19000000000005</ele>
        <time>2014-09-04T09:12:53Z</time>
      </trkpt>
      <trkpt lat="39.838018426671624" lon="2.919002389535308">
        <ele>947.03999999999996</ele>
        <time>2014-09-04T09:12:54Z</time>
      </trkpt>
      <trkpt lat="39.838022282347083" lon="2.919008508324623">
        <ele>937.89999999999998</ele>
        <time>2014-09-04T09:12:56Z</time>
      </trkpt>
      <trkpt lat="39.838026724755764" lon="2.919014543294907">
        <ele>955.21000000000004</ele>
        <time>2014-09-04T09:12:57Z</time>
      </trkpt>
      <trkpt lat="39.838026640936732" lon="2.919017225503922">
        <ele>946.55999999999995</ele>
        <time>2014-09-04T09:12:58Z</time>
      </trkpt>
      <trkpt lat="39.838031250983477" lon="2.919022925198078">
        <ele>950.39999999999998</ele>
        <time>2014-09-04T09:13:05Z</time>
      </trkpt>
      <trkpt lat="39.838034268468618" lon="2.919030636548996">
        <ele>946.55999999999995</ele>
        <time>2014-09-04T09:13:06Z</time>
      </trkpt>
      <trkpt lat="39.838072154670954" lon="2.919079083949328">
        <ele>949.91999999999996</ele>
        <time>2014-09-04T09:13:09Z</time>
      </trkpt>
      <trkpt lat="39.838086236268282" lon="2.919130129739642">
        <ele>949.44000000000005</ele>
        <time>2014-09-04T09:13:17Z</time>
      </trkpt>
      <trkpt lat="39.83810861594975" lon="2.919166842475534">
        <ele>950.39999999999998</ele>
        <time>2014-09-04T09:13:21Z</time>
      </trkpt>
      <trkpt lat="39.8381682112813" lon="2.919185617938638">
        <ele>951.84000000000003</ele>
        <time>2014-09-04T09:13:29Z</time>
      </trkpt>
      <trkpt lat="39.838206181302667" lon="2.919205063953996">
        <ele>952.32000000000005</ele>
        <time>2014-09-04T09:13:32Z</time>
      </trkpt>
      <trkpt lat="39.838213389739394" lon="2.919211015105248">
        <ele>952.79999999999995</ele>
        <time>2014-09-04T09:13:35Z</time>
      </trkpt>
      <trkpt lat="39.838215652853251" lon="2.919274047017098">
        <ele>953.27999999999997</ele>
        <time>2014-09-04T09:13:44Z</time>
      </trkpt>
      <trkpt lat="39.838229063898325" lon="2.919307658448815">
        <ele>953.76999999999998</ele>
        <time>2014-09-04T09:13:48Z</time>
      </trkpt>
      <trkpt lat="39.83824297785759" lon="2.919379575178027">
        <ele>955.21000000000004</ele>
        <time>2014-09-04T09:13:56Z</time>
      </trkpt>
      <trkpt lat="39.838245073333383" lon="2.919470435008407">
        <ele>957.61000000000001</ele>
        <time>2014-09-04T09:14:09Z</time>
      </trkpt>
      <trkpt lat="39.838241636753082" lon="2.919543273746967">
        <ele>959.04999999999995</ele>
        <time>2014-09-04T09:14:19Z</time>
      </trkpt>
      <trkpt lat="39.838239541277289" lon="2.919556014239788">
        <ele>960.00999999999999</ele>
        <time>2014-09-04T09:14:30Z</time>
      </trkpt>
      <trkpt lat="39.838230405002832" lon="2.919582249596715">
        <ele>961.94000000000005</ele>
        <time>2014-09-04T09:14:33Z</time>
      </trkpt>
      <trkpt lat="39.838207606226206" lon="2.919647879898548">
        <ele>963.38</ele>
        <time>2014-09-04T09:14:44Z</time>
      </trkpt>
      <trkpt lat="39.838202744722366" lon="2.919712420552969">
        <ele>963.86000000000001</ele>
        <time>2014-09-04T09:14:52Z</time>
      </trkpt>
      <trkpt lat="39.838197212666273" lon="2.919730106368661">
        <ele>963.86000000000001</ele>
        <time>2014-09-04T09:14:54Z</time>
      </trkpt>
      <trkpt lat="39.838195201009512" lon="2.919802274554968">
        <ele>966.74000000000001</ele>
        <time>2014-09-04T09:15:06Z</time>
      </trkpt>
      <trkpt lat="39.838191596791148" lon="2.919852817431092">
        <ele>968.66999999999996</ele>
        <time>2014-09-04T09:15:16Z</time>
      </trkpt>
      <trkpt lat="39.8382009845227" lon="2.919956417754293">
        <ele>970.11000000000001</ele>
        <time>2014-09-04T09:15:26Z</time>
      </trkpt>
      <trkpt lat="39.838205259293318" lon="2.919968571513891">
        <ele>970.59000000000003</ele>
        <time>2014-09-04T09:15:29Z</time>
      </trkpt>
      <trkpt lat="39.838216323405504" lon="2.920031184330583">
        <ele>972.99000000000001</ele>
        <time>2014-09-04T09:15:38Z</time>
      </trkpt>
      <trkpt lat="39.838204504922032" lon="2.920070998370647">
        <ele>973.47000000000003</ele>
        <time>2014-09-04T09:15:43Z</time>
      </trkpt>
      <trkpt lat="39.838241133838892" lon="2.92013025842607">
        <ele>974.90999999999997</ele>
        <time>2014-09-04T09:15:53Z</time>
      </trkpt>
      <trkpt lat="39.838245492428541" lon="2.920162780210376">
        <ele>976.84000000000003</ele>
        <time>2014-09-04T09:16:03Z</time>
      </trkpt>
      <trkpt lat="39.838247420266271" lon="2.920187674462795">
        <ele>977.79999999999995</ele>
        <time>2014-09-04T09:16:09Z</time>
      </trkpt>
      <trkpt lat="39.838268123567104" lon="2.920266715809703">
        <ele>979.72000000000003</ele>
        <time>2014-09-04T09:16:20Z</time>
      </trkpt>
      <trkpt lat="39.838285474106669" lon="2.920306529849768">
        <ele>981.15999999999997</ele>
        <time>2014-09-04T09:16:27Z</time>
      </trkpt>
      <trkpt lat="39.838295951485634" lon="2.920355731621385">
        <ele>982.60000000000002</ele>
        <time>2014-09-04T09:16:36Z</time>
      </trkpt>
      <trkpt lat="39.838314726948738" lon="2.920392947271466">
        <ele>985.00999999999999</ele>
        <time>2014-09-04T09:16:47Z</time>
      </trkpt>
      <trkpt lat="39.838323779404163" lon="2.920446759089828">
        <ele>986.45000000000005</ele>
        <time>2014-09-04T09:16:56Z</time>
      </trkpt>
      <trkpt lat="39.838310787454247" lon="2.920503001660109">
        <ele>988.85000000000002</ele>
        <time>2014-09-04T09:17:06Z</time>
      </trkpt>
      <trkpt lat="39.838303495198488" lon="2.920515825971961">
        <ele>990.29999999999995</ele>
        <time>2014-09-04T09:17:19Z</time>
      </trkpt>
      <trkpt lat="39.838303495198488" lon="2.920515825971961">
        <ele>989.80999999999995</ele>
        <time>2014-09-04T09:17:21Z</time>
      </trkpt>
      <trkpt lat="39.838319253176451" lon="2.920555053278804">
        <ele>991.74000000000001</ele>
        <time>2014-09-04T09:17:29Z</time>
      </trkpt>
      <trkpt lat="39.83832654543221" lon="2.920607272535563">
        <ele>993.17999999999995</ele>
        <time>2014-09-04T09:17:36Z</time>
      </trkpt>
      <trkpt lat="39.838339872658253" lon="2.920649014413357">
        <ele>994.13999999999999</ele>
        <time>2014-09-04T09:17:41Z</time>
      </trkpt>
      <trkpt lat="39.838346494361758" lon="2.92067114263773">
        <ele>994.62</ele>
        <time>2014-09-04T09:17:44Z</time>
      </trkpt>
      <trkpt lat="39.838347248733044" lon="2.920716824010015">
        <ele>997.50999999999999</ele>
        <time>2014-09-04T09:17:55Z</time>
      </trkpt>
      <trkpt lat="39.838351439684629" lon="2.920737862586975">
        <ele>1000.39</ele>
        <time>2014-09-04T09:18:05Z</time>
      </trkpt>
      <trkpt lat="39.838354289531708" lon="2.920748759061098">
        <ele>1000.87</ele>
        <time>2014-09-04T09:18:16Z</time>
      </trkpt>
      <trkpt lat="39.83835001476109" lon="2.920752028003335">
        <ele>999.90999999999997</ele>
        <time>2014-09-04T09:18:28Z</time>
      </trkpt>
      <trkpt lat="39.83835001476109" lon="2.920752028003335">
        <ele>1000.39</ele>
        <time>2014-09-04T09:18:55Z</time>
      </trkpt>
      <trkpt lat="39.838341046124697" lon="2.920765187591314">
        <ele>999.90999999999997</ele>
        <time>2014-09-04T09:19:18Z</time>
      </trkpt>
      <trkpt lat="39.838333167135715" lon="2.920767366886139">
        <ele>1000.87</ele>
        <time>2014-09-04T09:19:47Z</time>
      </trkpt>
      <trkpt lat="39.838329143822193" lon="2.920771557837725">
        <ele>1000.87</ele>
        <time>2014-09-04T09:20:17Z</time>
      </trkpt>
      <trkpt lat="39.838331323117018" lon="2.920771893113852">
        <ele>1000.39</ele>
        <time>2014-09-04T09:20:42Z</time>
      </trkpt>
      <trkpt lat="39.838329227641225" lon="2.920771390199661">
        <ele>1000.39</ele>
        <time>2014-09-04T09:21:12Z</time>
      </trkpt>
      <trkpt lat="39.838338615372777" lon="2.920786561444402">
        <ele>1001.35</ele>
        <time>2014-09-04T09:21:21Z</time>
      </trkpt>
      <trkpt lat="39.838336771354079" lon="2.920787902548909">
        <ele>993.17999999999995</ele>
        <time>2014-09-04T09:21:26Z</time>
      </trkpt>
      <trkpt lat="39.838336771354079" lon="2.920787902548909">
        <ele>995.10000000000002</ele>
        <time>2014-09-04T09:21:27Z</time>
      </trkpt>
      <trkpt lat="39.838336771354079" lon="2.920787902548909">
        <ele>1000.87</ele>
        <time>2014-09-04T09:21:28Z</time>
      </trkpt>
      <trkpt lat="39.838336771354079" lon="2.920787902548909">
        <ele>1000.87</ele>
        <time>2014-09-04T09:21:29Z</time>
      </trkpt>
      <trkpt lat="39.838336771354079" lon="2.920787902548909">
        <ele>1004.72</ele>
        <time>2014-09-04T09:21:30Z</time>
      </trkpt>
      <trkpt lat="39.838336771354079" lon="2.920787902548909">
        <ele>998.95000000000005</ele>
        <time>2014-09-04T09:21:31Z</time>
      </trkpt>
      <trkpt lat="39.838304501026869" lon="2.920777592808008">
        <ele>1018.65</ele>
        <time>2014-09-04T09:21:48Z</time>
      </trkpt>
      <trkpt lat="39.838299388065934" lon="2.920776503160596">
        <ele>1004.72</ele>
        <time>2014-09-04T09:21:49Z</time>
      </trkpt>
      <trkpt lat="39.838296119123697" lon="2.920776084065437">
        <ele>1000.87</ele>
        <time>2014-09-04T09:21:50Z</time>
      </trkpt>
      <trkpt lat="39.838294694200158" lon="2.920776419341564">
        <ele>1000.39</ele>
        <time>2014-09-04T09:21:51Z</time>
      </trkpt>
      <trkpt lat="39.838322186842561" lon="2.920796116814017">
        <ele>998.47000000000003</ele>
        <time>2014-09-04T09:22:08Z</time>
      </trkpt>
      <trkpt lat="39.83833190985024" lon="2.920826375484467">
        <ele>993.65999999999997</ele>
        <time>2014-09-04T09:22:14Z</time>
      </trkpt>
      <trkpt lat="39.83833190985024" lon="2.920826375484467">
        <ele>1002.3099999999999</ele>
        <time>2014-09-04T09:22:15Z</time>
      </trkpt>
      <trkpt lat="39.83833190985024" lon="2.920826375484467">
        <ele>1008.5599999999999</ele>
        <time>2014-09-04T09:22:16Z</time>
      </trkpt>
      <trkpt lat="39.838345488533378" lon="2.920847581699491">
        <ele>997.50999999999999</ele>
        <time>2014-09-04T09:22:17Z</time>
      </trkpt>
      <trkpt lat="39.838375244289637" lon="2.920851018279791">
        <ele>1006.16</ele>
        <time>2014-09-04T09:22:18Z</time>
      </trkpt>
      <trkpt lat="39.838386056944728" lon="2.920858394354582">
        <ele>997.50999999999999</ele>
        <time>2014-09-04T09:22:19Z</time>
      </trkpt>
      <trkpt lat="39.838391253724694" lon="2.920866440981627">
        <ele>1006.64</ele>
        <time>2014-09-04T09:22:20Z</time>
      </trkpt>
      <trkpt lat="39.838389661163092" lon="2.920871553942561">
        <ele>1002.79</ele>
        <time>2014-09-04T09:22:21Z</time>
      </trkpt>
      <trkpt lat="39.838379770517349" lon="2.920870380476117">
        <ele>1004.23</ele>
        <time>2014-09-04T09:22:27Z</time>
      </trkpt>
      <trkpt lat="39.838362587615848" lon="2.920900974422693">
        <ele>1000.87</ele>
        <time>2014-09-04T09:22:31Z</time>
      </trkpt>
      <trkpt lat="39.838359402492642" lon="2.920908853411675">
        <ele>1006.16</ele>
        <time>2014-09-04T09:22:32Z</time>
      </trkpt>
      <trkpt lat="39.838353199884295" lon="2.920959312468767">
        <ele>1009.52</ele>
        <time>2014-09-04T09:22:39Z</time>
      </trkpt>
      <trkpt lat="39.838352780789137" lon="2.920981273055077">
        <ele>1008.5599999999999</ele>
        <time>2014-09-04T09:22:41Z</time>
      </trkpt>
      <trkpt lat="39.838336436077952" lon="2.920996947214007">
        <ele>1011.4400000000001</ele>
        <time>2014-09-04T09:22:44Z</time>
      </trkpt>
      <trkpt lat="39.838331574574113" lon="2.921003988012672">
        <ele>1006.64</ele>
        <time>2014-09-04T09:22:45Z</time>
      </trkpt>
      <trkpt lat="39.838327635079622" lon="2.92100926861167">
        <ele>1010.48</ele>
        <time>2014-09-04T09:22:46Z</time>
      </trkpt>
      <trkpt lat="39.838322103023529" lon="2.921031313017011">
        <ele>1010</ele>
        <time>2014-09-04T09:22:51Z</time>
      </trkpt>
      <trkpt lat="39.838325874879956" lon="2.921056542545557">
        <ele>1010.48</ele>
        <time>2014-09-04T09:22:54Z</time>
      </trkpt>
      <trkpt lat="39.838333334773779" lon="2.921121837571263">
        <ele>1011.9299999999999</ele>
        <time>2014-09-04T09:23:01Z</time>
      </trkpt>
      <trkpt lat="39.838345739990473" lon="2.921168776229024">
        <ele>1012.41</ele>
        <time>2014-09-04T09:23:04Z</time>
      </trkpt>
      <trkpt lat="39.838409777730703" lon="2.921262066811323">
        <ele>1013.85</ele>
        <time>2014-09-04T09:23:15Z</time>
      </trkpt>
      <trkpt lat="39.838426122441888" lon="2.921294756233692">
        <ele>1014.8099999999999</ele>
        <time>2014-09-04T09:23:18Z</time>
      </trkpt>
      <trkpt lat="39.83847364783287" lon="2.921374635770917">
        <ele>1016.25</ele>
        <time>2014-09-04T09:23:28Z</time>
      </trkpt>
      <trkpt lat="39.838538020849228" lon="2.921430040150881">
        <ele>1018.17</ele>
        <time>2014-09-04T09:23:39Z</time>
      </trkpt>
      <trkpt lat="39.838540367782116" lon="2.921435069292784">
        <ele>1019.13</ele>
        <time>2014-09-04T09:23:40Z</time>
      </trkpt>
      <trkpt lat="39.838548079133034" lon="2.9214549344033">
        <ele>1020.1</ele>
        <time>2014-09-04T09:23:44Z</time>
      </trkpt>
      <trkpt lat="39.838557215407491" lon="2.921493323519826">
        <ele>1020.58</ele>
        <time>2014-09-04T09:23:48Z</time>
      </trkpt>
      <trkpt lat="39.838577499613166" lon="2.921537831425667">
        <ele>1022.02</ele>
        <time>2014-09-04T09:23:53Z</time>
      </trkpt>
      <trkpt lat="39.838601471856236" lon="2.921587200835347">
        <ele>1022.5</ele>
        <time>2014-09-04T09:23:57Z</time>
      </trkpt>
      <trkpt lat="39.838653355836868" lon="2.921662470325828">
        <ele>1023.9400000000001</ele>
        <time>2014-09-04T09:24:07Z</time>
      </trkpt>
      <trkpt lat="39.838664922863245" lon="2.921681832522154">
        <ele>1023.9400000000001</ele>
        <time>2014-09-04T09:24:10Z</time>
      </trkpt>
      <trkpt lat="39.838683446869254" lon="2.921699937433004">
        <ele>1023.9400000000001</ele>
        <time>2014-09-04T09:24:12Z</time>
      </trkpt>
      <trkpt lat="39.838685374706984" lon="2.921725837513804">
        <ele>1024.9000000000001</ele>
        <time>2014-09-04T09:24:15Z</time>
      </trkpt>
      <trkpt lat="39.8387018032372" lon="2.921792306005955">
        <ele>1026.3399999999999</ele>
        <time>2014-09-04T09:24:22Z</time>
      </trkpt>
      <trkpt lat="39.838710352778435" lon="2.921806136146188">
        <ele>1026.3399999999999</ele>
        <time>2014-09-04T09:24:24Z</time>
      </trkpt>
      <trkpt lat="39.838717142120004" lon="2.921836227178574">
        <ele>1026.8299999999999</ele>
        <time>2014-09-04T09:24:27Z</time>
      </trkpt>
      <trkpt lat="39.838737258687615" lon="2.92192691937089">
        <ele>1028.75</ele>
        <time>2014-09-04T09:24:37Z</time>
      </trkpt>
      <trkpt lat="39.838745472952724" lon="2.921957932412624">
        <ele>1029.23</ele>
        <time>2014-09-04T09:24:40Z</time>
      </trkpt>
      <trkpt lat="39.838749496266246" lon="2.921990705654025">
        <ele>1030.1900000000001</ele>
        <time>2014-09-04T09:24:43Z</time>
      </trkpt>
      <trkpt lat="39.838749915361404" lon="2.922024317085743">
        <ele>1031.1500000000001</ele>
        <time>2014-09-04T09:24:46Z</time>
      </trkpt>
      <trkpt lat="39.838743461295962" lon="2.922078212723136">
        <ele>1031.1500000000001</ele>
        <time>2014-09-04T09:24:50Z</time>
      </trkpt>
      <trkpt lat="39.838746730238199" lon="2.92211308144033">
        <ele>1032.5899999999999</ele>
        <time>2014-09-04T09:24:55Z</time>
      </trkpt>
      <trkpt lat="39.838748825713992" lon="2.92220545001328">
        <ele>1033.55</ele>
        <time>2014-09-04T09:25:03Z</time>
      </trkpt>
      <trkpt lat="39.838752094656229" lon="2.922235541045666">
        <ele>1034.04</ele>
        <time>2014-09-04T09:25:07Z</time>
      </trkpt>
      <trkpt lat="39.838754525408149" lon="2.922295806929469">
        <ele>1035.48</ele>
        <time>2014-09-04T09:25:13Z</time>
      </trkpt>
      <trkpt lat="39.838754357770085" lon="2.922384487465024">
        <ele>1035.48</ele>
        <time>2014-09-04T09:25:23Z</time>
      </trkpt>
      <trkpt lat="39.838750334456563" lon="2.922455482184887">
        <ele>1035.48</ele>
        <time>2014-09-04T09:25:33Z</time>
      </trkpt>
      <trkpt lat="39.838750334456563" lon="2.922455482184887">
        <ele>1035.48</ele>
        <time>2014-09-04T09:25:52Z</time>
      </trkpt>
      <trkpt lat="39.83876726590097" lon="2.922473503276706">
        <ele>1035.96</ele>
        <time>2014-09-04T09:25:57Z</time>
      </trkpt>
      <trkpt lat="39.8387795034796" lon="2.922489512711763">
        <ele>1035.48</ele>
        <time>2014-09-04T09:26:01Z</time>
      </trkpt>
      <trkpt lat="39.838801044970751" lon="2.922485070303083">
        <ele>1036.4400000000001</ele>
        <time>2014-09-04T09:26:05Z</time>
      </trkpt>
      <trkpt lat="39.838834824040532" lon="2.922482471913099">
        <ele>1036.4400000000001</ele>
        <time>2014-09-04T09:26:11Z</time>
      </trkpt>
      <trkpt lat="39.838865417987108" lon="2.922493116930127">
        <ele>1036.9200000000001</ele>
        <time>2014-09-04T09:26:15Z</time>
      </trkpt>
      <trkpt lat="39.83890607021749" lon="2.922515077516437">
        <ele>1036.9200000000001</ele>
        <time>2014-09-04T09:26:19Z</time>
      </trkpt>
      <trkpt lat="39.838930461555719" lon="2.922545587643981">
        <ele>1037.4000000000001</ele>
        <time>2014-09-04T09:26:22Z</time>
      </trkpt>
      <trkpt lat="39.838983854278922" lon="2.922586407512426">
        <ele>1037.4000000000001</ele>
        <time>2014-09-04T09:26:25Z</time>
      </trkpt>
      <trkpt lat="39.839058117941022" lon="2.922630999237299">
        <ele>1038.8399999999999</ele>
        <time>2014-09-04T09:26:35Z</time>
      </trkpt>
      <trkpt lat="39.839085107669234" lon="2.922640135511756">
        <ele>1039.8</ele>
        <time>2014-09-04T09:26:38Z</time>
      </trkpt>
      <trkpt lat="39.839115953072906" lon="2.922664694488049">
        <ele>1039.3199999999999</ele>
        <time>2014-09-04T09:26:42Z</time>
      </trkpt>
      <trkpt lat="39.839143194258213" lon="2.922683134675026">
        <ele>1040.28</ele>
        <time>2014-09-04T09:26:45Z</time>
      </trkpt>
      <trkpt lat="39.839166831225157" lon="2.9226931091398">
        <ele>1040.76</ele>
        <time>2014-09-04T09:26:51Z</time>
      </trkpt>
      <trkpt lat="39.83920999802649" lon="2.922722948715091">
        <ele>1040.76</ele>
        <time>2014-09-04T09:26:55Z</time>
      </trkpt>
      <trkpt lat="39.839242855086923" lon="2.922730576246977">
        <ele>1040.76</ele>
        <time>2014-09-04T09:26:58Z</time>
      </trkpt>
      <trkpt lat="39.839276047423482" lon="2.922733426094055">
        <ele>1041.25</ele>
        <time>2014-09-04T09:27:01Z</time>
      </trkpt>
      <trkpt lat="39.839336229488254" lon="2.922746250405908">
        <ele>1046.05</ele>
        <time>2014-09-04T09:27:07Z</time>
      </trkpt>
      <trkpt lat="39.839336229488254" lon="2.922746250405908">
        <ele>1041.73</ele>
        <time>2014-09-04T09:27:08Z</time>
      </trkpt>
      <trkpt lat="39.839347461238503" lon="2.922758990898728">
        <ele>1042.21</ele>
        <time>2014-09-04T09:27:11Z</time>
      </trkpt>
      <trkpt lat="39.839391130954027" lon="2.922768210992217">
        <ele>1041.73</ele>
        <time>2014-09-04T09:27:15Z</time>
      </trkpt>
      <trkpt lat="39.839416025206447" lon="2.922769635915756">
        <ele>1042.21</ele>
        <time>2014-09-04T09:27:18Z</time>
      </trkpt>
      <trkpt lat="39.839475452899933" lon="2.922792015597224">
        <ele>1042.6900000000001</ele>
        <time>2014-09-04T09:27:27Z</time>
      </trkpt>
      <trkpt lat="39.839503616094589" lon="2.922810623422265">
        <ele>1043.6500000000001</ele>
        <time>2014-09-04T09:27:39Z</time>
      </trkpt>
      <trkpt lat="39.839503616094589" lon="2.922810623422265">
        <ele>1047.97</ele>
        <time>2014-09-04T09:27:43Z</time>
      </trkpt>
      <trkpt lat="39.839503616094589" lon="2.922810623422265">
        <ele>1045.5699999999999</ele>
        <time>2014-09-04T09:27:44Z</time>
      </trkpt>
      <trkpt lat="39.839503616094589" lon="2.922810623422265">
        <ele>1044.1300000000001</ele>
        <time>2014-09-04T09:27:47Z</time>
      </trkpt>
      <trkpt lat="39.839503616094589" lon="2.922810623422265">
        <ele>1044.1300000000001</ele>
        <time>2014-09-04T09:27:49Z</time>
      </trkpt>
      <trkpt lat="39.839569665491581" lon="2.922856891527772">
        <ele>1043.6500000000001</ele>
        <time>2014-09-04T09:27:56Z</time>
      </trkpt>
      <trkpt lat="39.839620878919959" lon="2.922886814922094">
        <ele>1041.73</ele>
        <time>2014-09-04T09:27:59Z</time>
      </trkpt>
      <trkpt lat="39.839648120105267" lon="2.922900142148137">
        <ele>1042.21</ele>
        <time>2014-09-04T09:28:02Z</time>
      </trkpt>
      <trkpt lat="39.839700507000089" lon="2.922948757186532">
        <ele>1042.21</ele>
        <time>2014-09-04T09:28:10Z</time>
      </trkpt>
      <trkpt lat="39.839714672416449" lon="2.92295596562326">
        <ele>1041.73</ele>
        <time>2014-09-04T09:28:11Z</time>
      </trkpt>
      <trkpt lat="39.839749205857515" lon="2.922989241778851">
        <ele>1041.25</ele>
        <time>2014-09-04T09:28:14Z</time>
      </trkpt>
      <trkpt lat="39.839837970212102" lon="2.923032408580184">
        <ele>1042.21</ele>
        <time>2014-09-04T09:28:23Z</time>
      </trkpt>
      <trkpt lat="39.839904271066189" lon="2.923057805746794">
        <ele>1042.21</ele>
        <time>2014-09-04T09:28:31Z</time>
      </trkpt>
      <trkpt lat="39.839928243309259" lon="2.92305369861424">
        <ele>1042.6900000000001</ele>
        <time>2014-09-04T09:28:35Z</time>
      </trkpt>
      <trkpt lat="39.839933188632131" lon="2.923047412186861">
        <ele>1042.6900000000001</ele>
        <time>2014-09-04T09:28:37Z</time>
      </trkpt>
      <trkpt lat="39.839990688487887" lon="2.923084795475006">
        <ele>1043.1700000000001</ele>
        <time>2014-09-04T09:28:45Z</time>
      </trkpt>
      <trkpt lat="39.839995047077537" lon="2.923090662807226">
        <ele>1042.6900000000001</ele>
        <time>2014-09-04T09:28:49Z</time>
      </trkpt>
      <trkpt lat="39.840030753985047" lon="2.9230972006917">
        <ele>1042.6900000000001</ele>
        <time>2014-09-04T09:28:53Z</time>
      </trkpt>
      <trkpt lat="39.840080291032791" lon="2.923077503219247">
        <ele>1043.6500000000001</ele>
        <time>2014-09-04T09:28:59Z</time>
      </trkpt>
      <trkpt lat="39.840133348479867" lon="2.923056464642286">
        <ele>1044.6099999999999</ele>
        <time>2014-09-04T09:29:07Z</time>
      </trkpt>
      <trkpt lat="39.840141730383039" lon="2.923056380823255">
        <ele>1045.0899999999999</ele>
        <time>2014-09-04T09:29:10Z</time>
      </trkpt>
      <trkpt lat="39.840170564129949" lon="2.923076497390866">
        <ele>1045.5699999999999</ele>
        <time>2014-09-04T09:29:14Z</time>
      </trkpt>
      <trkpt lat="39.840207695960999" lon="2.923091165721417">
        <ele>1045.5699999999999</ele>
        <time>2014-09-04T09:29:18Z</time>
      </trkpt>
      <trkpt lat="39.840241307392716" lon="2.923128129914403">
        <ele>1045.0899999999999</ele>
        <time>2014-09-04T09:29:22Z</time>
      </trkpt>
      <trkpt lat="39.840256478637457" lon="2.923118323087692">
        <ele>1045.5699999999999</ele>
        <time>2014-09-04T09:29:26Z</time>
      </trkpt>
      <trkpt lat="39.840302830561996" lon="2.923092003911734">
        <ele>1045.5699999999999</ele>
        <time>2014-09-04T09:29:37Z</time>
      </trkpt>
      <trkpt lat="39.840319594368339" lon="2.923089405521751">
        <ele>1045.0899999999999</ele>
        <time>2014-09-04T09:29:43Z</time>
      </trkpt>
      <trkpt lat="39.840321186929941" lon="2.923084124922752">
        <ele>1045.5699999999999</ele>
        <time>2014-09-04T09:29:55Z</time>
      </trkpt>
      <trkpt lat="39.840321186929941" lon="2.923084124922752">
        <ele>1045.5699999999999</ele>
        <time>2014-09-04T09:30:16Z</time>
      </trkpt>
      <trkpt lat="39.840388912707567" lon="2.923079179599881">
        <ele>1048.9400000000001</ele>
        <time>2014-09-04T09:30:26Z</time>
      </trkpt>
      <trkpt lat="39.840422524139285" lon="2.923069121316075">
        <ele>1043.1700000000001</ele>
        <time>2014-09-04T09:30:28Z</time>
      </trkpt>
      <trkpt lat="39.840434342622757" lon="2.923071887344122">
        <ele>1045.0899999999999</ele>
        <time>2014-09-04T09:30:29Z</time>
      </trkpt>
      <trkpt lat="39.84045990742743" lon="2.923070546239615">
        <ele>1045.5699999999999</ele>
        <time>2014-09-04T09:30:31Z</time>
      </trkpt>
      <trkpt lat="39.84047063626349" lon="2.923070462420583">
        <ele>1041.73</ele>
        <time>2014-09-04T09:30:32Z</time>
      </trkpt>
      <trkpt lat="39.840479018166661" lon="2.923074653372169">
        <ele>1044.6099999999999</ele>
        <time>2014-09-04T09:30:33Z</time>
      </trkpt>
      <trkpt lat="39.840515060350299" lon="2.923085130751133">
        <ele>1044.1300000000001</ele>
        <time>2014-09-04T09:30:35Z</time>
      </trkpt>
      <trkpt lat="39.840532243251801" lon="2.923089237883687">
        <ele>1048.45</ele>
        <time>2014-09-04T09:30:37Z</time>
      </trkpt>
      <trkpt lat="39.840539870783687" lon="2.923088986426592">
        <ele>1046.05</ele>
        <time>2014-09-04T09:30:38Z</time>
      </trkpt>
      <trkpt lat="39.840584378689528" lon="2.92309083044529">
        <ele>1046.53</ele>
        <time>2014-09-04T09:30:43Z</time>
      </trkpt>
      <trkpt lat="39.84059477224946" lon="2.923089154064655">
        <ele>1045.0899999999999</ele>
        <time>2014-09-04T09:30:45Z</time>
      </trkpt>
      <trkpt lat="39.840609021484852" lon="2.923082113265991">
        <ele>1044.1300000000001</ele>
        <time>2014-09-04T09:30:47Z</time>
      </trkpt>
      <trkpt lat="39.840608602389693" lon="2.923085130751133">
        <ele>1050.8599999999999</ele>
        <time>2014-09-04T09:30:48Z</time>
      </trkpt>
      <trkpt lat="39.840608602389693" lon="2.923085130751133">
        <ele>1044.6099999999999</ele>
        <time>2014-09-04T09:30:49Z</time>
      </trkpt>
      <trkpt lat="39.840608602389693" lon="2.923085130751133">
        <ele>1047.97</ele>
        <time>2014-09-04T09:30:51Z</time>
      </trkpt>
      <trkpt lat="39.840633748099208" lon="2.923084544017911">
        <ele>1045.5699999999999</ele>
        <time>2014-09-04T09:30:54Z</time>
      </trkpt>
      <trkpt lat="39.840724775567651" lon="2.923104492947459">
        <ele>1046.53</ele>
        <time>2014-09-04T09:31:02Z</time>
      </trkpt>
      <trkpt lat="39.840754028409719" lon="2.923155035823584">
        <ele>1045.0899999999999</ele>
        <time>2014-09-04T09:31:07Z</time>
      </trkpt>
      <trkpt lat="39.840803230181336" lon="2.92314263060689">
        <ele>1046.53</ele>
        <time>2014-09-04T09:31:11Z</time>
      </trkpt>
      <trkpt lat="39.840845810249448" lon="2.923166686668992">
        <ele>1045.5699999999999</ele>
        <time>2014-09-04T09:31:15Z</time>
      </trkpt>
      <trkpt lat="39.840913033112884" lon="2.92320909909904">
        <ele>1046.05</ele>
        <time>2014-09-04T09:31:24Z</time>
      </trkpt>
      <trkpt lat="39.841015208512545" lon="2.923250924795866">
        <ele>1047.49</ele>
        <time>2014-09-04T09:31:34Z</time>
      </trkpt>
      <trkpt lat="39.841022500768304" lon="2.923250505700707">
        <ele>1046.53</ele>
        <time>2014-09-04T09:31:35Z</time>
      </trkpt>
      <trkpt lat="39.841080000624061" lon="2.923280177637935">
        <ele>1046.53</ele>
        <time>2014-09-04T09:31:40Z</time>
      </trkpt>
      <trkpt lat="39.841213021427393" lon="2.923372378572822">
        <ele>1047.01</ele>
        <time>2014-09-04T09:31:48Z</time>
      </trkpt>
      <trkpt lat="39.841253757476807" lon="2.92339526116848">
        <ele>1047.01</ele>
        <time>2014-09-04T09:31:52Z</time>
      </trkpt>
      <trkpt lat="39.84131402336061" lon="2.923440607264638">
        <ele>1047.97</ele>
        <time>2014-09-04T09:31:58Z</time>
      </trkpt>
      <trkpt lat="39.84140345826745" lon="2.923473883420229">
        <ele>1048.45</ele>
        <time>2014-09-04T09:32:07Z</time>
      </trkpt>
      <trkpt lat="39.841410834342241" lon="2.923468435183168">
        <ele>1049.4200000000001</ele>
        <time>2014-09-04T09:32:08Z</time>
      </trkpt>
      <trkpt lat="39.841429693624377" lon="2.923468183726072">
        <ele>1049.4200000000001</ele>
        <time>2014-09-04T09:32:10Z</time>
      </trkpt>
      <trkpt lat="39.841481242328882" lon="2.923476733267307">
        <ele>1049.9000000000001</ele>
        <time>2014-09-04T09:32:18Z</time>
      </trkpt>
      <trkpt lat="39.841520385816693" lon="2.923505399376154">
        <ele>1049.9000000000001</ele>
        <time>2014-09-04T09:32:23Z</time>
      </trkpt>
      <trkpt lat="39.841539915651083" lon="2.923534065485001">
        <ele>1050.3800000000001</ele>
        <time>2014-09-04T09:32:26Z</time>
      </trkpt>
      <trkpt lat="39.841565228998661" lon="2.923577064648271">
        <ele>1050.3800000000001</ele>
        <time>2014-09-04T09:32:30Z</time>
      </trkpt>
      <trkpt lat="39.841586770489812" lon="2.923615705221891">
        <ele>1050.3800000000001</ele>
        <time>2014-09-04T09:32:35Z</time>
      </trkpt>
      <trkpt lat="39.841605043038726" lon="2.923623165115714">
        <ele>1050.3800000000001</ele>
        <time>2014-09-04T09:32:38Z</time>
      </trkpt>
      <trkpt lat="39.84166438691318" lon="2.923660296946764">
        <ele>1051.8199999999999</ele>
        <time>2014-09-04T09:32:44Z</time>
      </trkpt>
      <trkpt lat="39.841698333621025" lon="2.923670103773475">
        <ele>1052.78</ele>
        <time>2014-09-04T09:32:48Z</time>
      </trkpt>
      <trkpt lat="39.841729179024696" lon="2.923674294725061">
        <ele>1052.78</ele>
        <time>2014-09-04T09:32:51Z</time>
      </trkpt>
      <trkpt lat="39.841742673888803" lon="2.923684185370803">
        <ele>1052.3</ele>
        <time>2014-09-04T09:32:54Z</time>
      </trkpt>
      <trkpt lat="39.841767903417349" lon="2.923714108765125">
        <ele>1054.22</ele>
        <time>2014-09-04T09:32:58Z</time>
      </trkpt>
      <trkpt lat="39.841831270605326" lon="2.923741349950433">
        <ele>1055.6700000000001</ele>
        <time>2014-09-04T09:33:07Z</time>
      </trkpt>
      <trkpt lat="39.841842586174607" lon="2.923754844814539">
        <ele>1054.22</ele>
        <time>2014-09-04T09:33:26Z</time>
      </trkpt>
      <trkpt lat="39.841848704963923" lon="2.923761298879981">
        <ele>1049.9000000000001</ele>
        <time>2014-09-04T09:33:27Z</time>
      </trkpt>
      <trkpt lat="39.841852644458413" lon="2.923766663298011">
        <ele>1054.7</ele>
        <time>2014-09-04T09:33:28Z</time>
      </trkpt>
      <trkpt lat="39.841863457113504" lon="2.923783091828227">
        <ele>1057.1099999999999</ele>
        <time>2014-09-04T09:33:30Z</time>
      </trkpt>
      <trkpt lat="39.8418896086514" lon="2.9238017834723">
        <ele>1059.03</ele>
        <time>2014-09-04T09:33:34Z</time>
      </trkpt>
      <trkpt lat="39.841922465711832" lon="2.923838999122381">
        <ele>1053.74</ele>
        <time>2014-09-04T09:33:38Z</time>
      </trkpt>
      <trkpt lat="39.841929422691464" lon="2.923844531178474">
        <ele>1059.03</ele>
        <time>2014-09-04T09:33:39Z</time>
      </trkpt>
      <trkpt lat="39.84193260781467" lon="2.923850314691663">
        <ele>1063.3599999999999</ele>
        <time>2014-09-04T09:33:40Z</time>
      </trkpt>
      <trkpt lat="39.84193897806108" lon="2.923857690766454">
        <ele>1059.51</ele>
        <time>2014-09-04T09:33:41Z</time>
      </trkpt>
      <trkpt lat="39.841946018859744" lon="2.92386582121253">
        <ele>1059.03</ele>
        <time>2014-09-04T09:33:42Z</time>
      </trkpt>
      <trkpt lat="39.841969236731529" lon="2.923889374360442">
        <ele>1059.51</ele>
        <time>2014-09-04T09:33:48Z</time>
      </trkpt>
      <trkpt lat="39.841980468481779" lon="2.923932373523712">
        <ele>1059.03</ele>
        <time>2014-09-04T09:34:00Z</time>
      </trkpt>
      <trkpt lat="39.841968566179276" lon="2.924030609428883">
        <ele>1059.03</ele>
        <time>2014-09-04T09:34:07Z</time>
      </trkpt>
      <trkpt lat="39.841970577836037" lon="2.924067825078964">
        <ele>1058.0699999999999</ele>
        <time>2014-09-04T09:34:09Z</time>
      </trkpt>
      <trkpt lat="39.841980049386621" lon="2.9241091478616">
        <ele>1058.0699999999999</ele>
        <time>2014-09-04T09:34:11Z</time>
      </trkpt>
      <trkpt lat="39.841978373005986" lon="2.924135802313685">
        <ele>1059.51</ele>
        <time>2014-09-04T09:34:13Z</time>
      </trkpt>
      <trkpt lat="39.841979630291462" lon="2.924144854769111">
        <ele>1061.4300000000001</ele>
        <time>2014-09-04T09:34:14Z</time>
      </trkpt>
      <trkpt lat="39.841989856213331" lon="2.924162959679961">
        <ele>1059.51</ele>
        <time>2014-09-04T09:34:16Z</time>
      </trkpt>
      <trkpt lat="39.841997902840376" lon="2.924170419573784">
        <ele>1059.99</ele>
        <time>2014-09-04T09:34:18Z</time>
      </trkpt>
      <trkpt lat="39.842032184824347" lon="2.924191625788808">
        <ele>1059.99</ele>
        <time>2014-09-04T09:34:25Z</time>
      </trkpt>
      <trkpt lat="39.842029837891459" lon="2.924200426787138">
        <ele>1060.47</ele>
        <time>2014-09-04T09:34:26Z</time>
      </trkpt>
      <trkpt lat="39.842026066035032" lon="2.924220291897655">
        <ele>1055.1800000000001</ele>
        <time>2014-09-04T09:34:28Z</time>
      </trkpt>
      <trkpt lat="39.842025227844715" lon="2.924228170886636">
        <ele>1061.9100000000001</ele>
        <time>2014-09-04T09:34:29Z</time>
      </trkpt>
      <trkpt lat="39.84202841296792" lon="2.924236804246903">
        <ele>1058.55</ele>
        <time>2014-09-04T09:34:31Z</time>
      </trkpt>
      <trkpt lat="39.842027155682445" lon="2.924238564446569">
        <ele>1069.1199999999999</ele>
        <time>2014-09-04T09:34:32Z</time>
      </trkpt>
      <trkpt lat="39.842027155682445" lon="2.924238564446569">
        <ele>1055.1800000000001</ele>
        <time>2014-09-04T09:34:33Z</time>
      </trkpt>
      <trkpt lat="39.842029921710491" lon="2.924245353788137">
        <ele>1061.4300000000001</ele>
        <time>2014-09-04T09:34:34Z</time>
      </trkpt>
      <trkpt lat="39.842038387432694" lon="2.924268739297986">
        <ele>1065.28</ele>
        <time>2014-09-04T09:34:37Z</time>
      </trkpt>
      <trkpt lat="39.842040482908487" lon="2.924278546124697">
        <ele>1062.8699999999999</ele>
        <time>2014-09-04T09:34:38Z</time>
      </trkpt>
      <trkpt lat="39.842046685516834" lon="2.924282485619187">
        <ele>1061.4300000000001</ele>
        <time>2014-09-04T09:34:39Z</time>
      </trkpt>
      <trkpt lat="39.842062443494797" lon="2.924291789531708">
        <ele>1064.8</ele>
        <time>2014-09-04T09:34:41Z</time>
      </trkpt>
      <trkpt lat="39.842108795419335" lon="2.924347948282957">
        <ele>1064.8</ele>
        <time>2014-09-04T09:34:51Z</time>
      </trkpt>
      <trkpt lat="39.842153303325176" lon="2.9243837390095">
        <ele>1067.6800000000001</ele>
        <time>2014-09-04T09:34:58Z</time>
      </trkpt>
      <trkpt lat="39.842202588915825" lon="2.92444534599781">
        <ele>1063.3599999999999</ele>
        <time>2014-09-04T09:35:04Z</time>
      </trkpt>
      <trkpt lat="39.842215748503804" lon="2.924471581354737">
        <ele>1072.97</ele>
        <time>2014-09-04T09:35:05Z</time>
      </trkpt>
      <trkpt lat="39.842225722968578" lon="2.924494799226522">
        <ele>1064.3199999999999</ele>
        <time>2014-09-04T09:35:06Z</time>
      </trkpt>
      <trkpt lat="39.842236451804638" lon="2.924514329060912">
        <ele>1070.5699999999999</ele>
        <time>2014-09-04T09:35:07Z</time>
      </trkpt>
      <trkpt lat="39.842244414612651" lon="2.924527321010828">
        <ele>1067.2</ele>
        <time>2014-09-04T09:35:08Z</time>
      </trkpt>
      <trkpt lat="39.842281630262733" lon="2.924594795331359">
        <ele>1068.1600000000001</ele>
        <time>2014-09-04T09:35:17Z</time>
      </trkpt>
      <trkpt lat="39.842282133176923" lon="2.924599573016167">
        <ele>1068.6400000000001</ele>
        <time>2014-09-04T09:35:18Z</time>
      </trkpt>
      <trkpt lat="39.84233770519495" lon="2.924634190276265">
        <ele>1069.5999999999999</ele>
        <time>2014-09-04T09:35:26Z</time>
      </trkpt>
      <trkpt lat="39.842374837026" lon="2.924645505845547">
        <ele>1071.53</ele>
        <time>2014-09-04T09:35:33Z</time>
      </trkpt>
      <trkpt lat="39.842398138716817" lon="2.924733180552721">
        <ele>1072.01</ele>
        <time>2014-09-04T09:35:46Z</time>
      </trkpt>
      <trkpt lat="39.842404508963227" lon="2.924741143360734">
        <ele>1071.53</ele>
        <time>2014-09-04T09:35:47Z</time>
      </trkpt>
      <trkpt lat="39.842426553368568" lon="2.924790596589446">
        <ele>1074.8900000000001</ele>
        <time>2014-09-04T09:35:52Z</time>
      </trkpt>
      <trkpt lat="39.842465361580253" lon="2.924848850816488">
        <ele>1074.8900000000001</ele>
        <time>2014-09-04T09:35:59Z</time>
      </trkpt>
      <trkpt lat="39.842466032132506" lon="2.92485530488193">
        <ele>1074.8900000000001</ele>
        <time>2014-09-04T09:36:00Z</time>
      </trkpt>
      <trkpt lat="39.842466786503792" lon="2.924875840544701">
        <ele>1074.4100000000001</ele>
        <time>2014-09-04T09:36:08Z</time>
      </trkpt>
      <trkpt lat="39.842490758746862" lon="2.924928395077586">
        <ele>1074.4100000000001</ele>
        <time>2014-09-04T09:36:14Z</time>
      </trkpt>
      <trkpt lat="39.842500733211637" lon="2.924958653748035">
        <ele>1074.8900000000001</ele>
        <time>2014-09-04T09:36:17Z</time>
      </trkpt>
      <trkpt lat="39.842525711283088" lon="2.924988744780421">
        <ele>1075.8499999999999</ele>
        <time>2014-09-04T09:36:21Z</time>
      </trkpt>
      <trkpt lat="39.842543564736843" lon="2.925014812499285">
        <ele>1075.8499999999999</ele>
        <time>2014-09-04T09:36:24Z</time>
      </trkpt>
      <trkpt lat="39.842561418190598" lon="2.925065774470568">
        <ele>1075.8499999999999</ele>
        <time>2014-09-04T09:36:28Z</time>
      </trkpt>
      <trkpt lat="39.842598047107458" lon="2.925105504691601">
        <ele>1077.78</ele>
        <time>2014-09-04T09:36:34Z</time>
      </trkpt>
      <trkpt lat="39.842605423182249" lon="2.925131991505623">
        <ele>1079.7</ele>
        <time>2014-09-04T09:36:45Z</time>
      </trkpt>
      <trkpt lat="39.842600813135505" lon="2.925136517733336">
        <ele>1077.29</ele>
        <time>2014-09-04T09:36:55Z</time>
      </trkpt>
      <trkpt lat="39.842602238059044" lon="2.925139367580414">
        <ele>1076.3299999999999</ele>
        <time>2014-09-04T09:36:56Z</time>
      </trkpt>
      <trkpt lat="39.842619840055704" lon="2.925166860222817">
        <ele>1077.78</ele>
        <time>2014-09-04T09:37:00Z</time>
      </trkpt>
      <trkpt lat="39.842643141746521" lon="2.925203992053866">
        <ele>1077.78</ele>
        <time>2014-09-04T09:37:03Z</time>
      </trkpt>
      <trkpt lat="39.842665437608957" lon="2.925289738923311">
        <ele>1078.26</ele>
        <time>2014-09-04T09:37:12Z</time>
      </trkpt>
      <trkpt lat="39.842686140909791" lon="2.925308765843511">
        <ele>1079.22</ele>
        <time>2014-09-04T09:37:15Z</time>
      </trkpt>
      <trkpt lat="39.842707850039005" lon="2.925350423902273">
        <ele>1080.1800000000001</ele>
        <time>2014-09-04T09:37:20Z</time>
      </trkpt>
      <trkpt lat="39.842732241377234" lon="2.925386466085911">
        <ele>1080.1800000000001</ele>
        <time>2014-09-04T09:37:24Z</time>
      </trkpt>
      <trkpt lat="39.842743305489421" lon="2.925432901829481">
        <ele>1080.6600000000001</ele>
        <time>2014-09-04T09:37:28Z</time>
      </trkpt>
      <trkpt lat="39.842780772596598" lon="2.92552275583148">
        <ele>1080.6600000000001</ele>
        <time>2014-09-04T09:37:36Z</time>
      </trkpt>
      <trkpt lat="39.842820838093758" lon="2.925584865733981">
        <ele>1081.1400000000001</ele>
        <time>2014-09-04T09:37:46Z</time>
      </trkpt>
      <trkpt lat="39.842915721237659" lon="2.925681257620454">
        <ele>1082.0999999999999</ele>
        <time>2014-09-04T09:37:58Z</time>
      </trkpt>
      <trkpt lat="39.842958552762866" lon="2.925735739991069">
        <ele>1082.0999999999999</ele>
        <time>2014-09-04T09:38:03Z</time>
      </trkpt>
      <trkpt lat="39.842990236356854" lon="2.925768177956343">
        <ele>1082.5799999999999</ele>
        <time>2014-09-04T09:38:10Z</time>
      </trkpt>
      <trkpt lat="39.842990571632981" lon="2.925766836851835">
        <ele>1084.5</ele>
        <time>2014-09-04T09:38:13Z</time>
      </trkpt>
      <trkpt lat="39.842990571632981" lon="2.925766836851835">
        <ele>1083.54</ele>
        <time>2014-09-04T09:38:43Z</time>
      </trkpt>
      <trkpt lat="39.842990571632981" lon="2.925766836851835">
        <ele>1083.54</ele>
        <time>2014-09-04T09:38:45Z</time>
      </trkpt>
      <trkpt lat="39.843026613816619" lon="2.92579198256135">
        <ele>1078.26</ele>
        <time>2014-09-04T09:38:52Z</time>
      </trkpt>
      <trkpt lat="39.843031140044332" lon="2.92579491622746">
        <ele>1083.54</ele>
        <time>2014-09-04T09:38:53Z</time>
      </trkpt>
      <trkpt lat="39.843047317117453" lon="2.925789719447494">
        <ele>1083.0599999999999</ele>
        <time>2014-09-04T09:38:55Z</time>
      </trkpt>
      <trkpt lat="39.843091322109103" lon="2.925758371129632">
        <ele>1084.99</ele>
        <time>2014-09-04T09:39:00Z</time>
      </trkpt>
      <trkpt lat="39.843107666820288" lon="2.925758706405759">
        <ele>1083.54</ele>
        <time>2014-09-04T09:39:02Z</time>
      </trkpt>
      <trkpt lat="39.843121245503426" lon="2.925758874043822">
        <ele>1083.54</ele>
        <time>2014-09-04T09:39:04Z</time>
      </trkpt>
      <trkpt lat="39.843144631013274" lon="2.925744038075209">
        <ele>1082.5799999999999</ele>
        <time>2014-09-04T09:39:07Z</time>
      </trkpt>
      <trkpt lat="39.843155695125461" lon="2.925740769132972">
        <ele>1086.4300000000001</ele>
        <time>2014-09-04T09:39:08Z</time>
      </trkpt>
      <trkpt lat="39.843186121433973" lon="2.925741607323289">
        <ele>1075.3699999999999</ele>
        <time>2014-09-04T09:39:15Z</time>
      </trkpt>
      <trkpt lat="39.843186121433973" lon="2.925741607323289">
        <ele>1096.04</ele>
        <time>2014-09-04T09:39:16Z</time>
      </trkpt>
      <trkpt lat="39.8431864567101" lon="2.925733057782054">
        <ele>1083.0599999999999</ele>
        <time>2014-09-04T09:39:17Z</time>
      </trkpt>
      <trkpt lat="39.843185618519783" lon="2.925727693364024">
        <ele>1086.4300000000001</ele>
        <time>2014-09-04T09:39:18Z</time>
      </trkpt>
      <trkpt lat="39.843185786157846" lon="2.92573188431561">
        <ele>1085.47</ele>
        <time>2014-09-04T09:39:33Z</time>
      </trkpt>
      <trkpt lat="39.843185786157846" lon="2.92573188431561">
        <ele>1085.95</ele>
        <time>2014-09-04T09:39:53Z</time>
      </trkpt>
      <trkpt lat="39.843181427568197" lon="2.925730291754007">
        <ele>1085.47</ele>
        <time>2014-09-04T09:40:11Z</time>
      </trkpt>
      <trkpt lat="39.843188552185893" lon="2.925745798274875">
        <ele>1084.5</ele>
        <time>2014-09-04T09:40:25Z</time>
      </trkpt>
      <trkpt lat="39.843188552185893" lon="2.925745798274875">
        <ele>1088.3499999999999</ele>
        <time>2014-09-04T09:40:31Z</time>
      </trkpt>
      <trkpt lat="39.843181679025292" lon="2.925747893750668">
        <ele>1083.54</ele>
        <time>2014-09-04T09:40:32Z</time>
      </trkpt>
      <trkpt lat="39.843170950189233" lon="2.925736242905259">
        <ele>1086.9100000000001</ele>
        <time>2014-09-04T09:40:42Z</time>
      </trkpt>
      <trkpt lat="39.843174973502755" lon="2.925735656172037">
        <ele>1084.5</ele>
        <time>2014-09-04T09:40:57Z</time>
      </trkpt>
      <trkpt lat="39.84317421913147" lon="2.925737667828798">
        <ele>1083.54</ele>
        <time>2014-09-04T09:41:14Z</time>
      </trkpt>
      <trkpt lat="39.843175979331136" lon="2.925742194056511">
        <ele>1087.3900000000001</ele>
        <time>2014-09-04T09:41:15Z</time>
      </trkpt>
      <trkpt lat="39.84317421913147" lon="2.925737667828798">
        <ele>1084.99</ele>
        <time>2014-09-04T09:41:18Z</time>
      </trkpt>
      <trkpt lat="39.843166256323457" lon="2.925737835466862">
        <ele>1084.5</ele>
        <time>2014-09-04T09:41:33Z</time>
      </trkpt>
      <trkpt lat="39.843174386769533" lon="2.925790976732969">
        <ele>1083.54</ele>
        <time>2014-09-04T09:41:46Z</time>
      </trkpt>
      <trkpt lat="39.843208836391568" lon="2.92587161064148">
        <ele>1082.0999999999999</ele>
        <time>2014-09-04T09:41:57Z</time>
      </trkpt>
      <trkpt lat="39.843194168061018" lon="2.925958279520273">
        <ele>1079.7</ele>
        <time>2014-09-04T09:42:09Z</time>
      </trkpt>
      <trkpt lat="39.843181008473039" lon="2.925984933972359">
        <ele>1079.22</ele>
        <time>2014-09-04T09:42:23Z</time>
      </trkpt>
      <trkpt lat="39.843173548579216" lon="2.925985939800739">
        <ele>1081.6199999999999</ele>
        <time>2014-09-04T09:42:37Z</time>
      </trkpt>
      <trkpt lat="39.843124346807599" lon="2.926033716648817">
        <ele>1079.22</ele>
        <time>2014-09-04T09:42:45Z</time>
      </trkpt>
      <trkpt lat="39.843080341815948" lon="2.926054168492556">
        <ele>1077.78</ele>
        <time>2014-09-04T09:42:54Z</time>
      </trkpt>
      <trkpt lat="39.843082102015615" lon="2.926054000854492">
        <ele>1074.4100000000001</ele>
        <time>2014-09-04T09:42:58Z</time>
      </trkpt>
      <trkpt lat="39.8430794198066" lon="2.926057018339634">
        <ele>1078.26</ele>
        <time>2014-09-04T09:42:59Z</time>
      </trkpt>
      <trkpt lat="39.843075731769204" lon="2.926065484061837">
        <ele>1077.78</ele>
        <time>2014-09-04T09:43:00Z</time>
      </trkpt>
      <trkpt lat="39.843074139207602" lon="2.92607051320374">
        <ele>1075.3699999999999</ele>
        <time>2014-09-04T09:43:15Z</time>
      </trkpt>
      <trkpt lat="39.843082437291741" lon="2.926074117422104">
        <ele>1076.3299999999999</ele>
        <time>2014-09-04T09:43:28Z</time>
      </trkpt>
      <trkpt lat="39.843083694577217" lon="2.926076715812087">
        <ele>1075.8499999999999</ele>
        <time>2014-09-04T09:43:59Z</time>
      </trkpt>
      <trkpt lat="39.843087550252676" lon="2.926069591194391">
        <ele>1075.8499999999999</ele>
        <time>2014-09-04T09:44:06Z</time>
      </trkpt>
      <trkpt lat="39.843101631850004" lon="2.926061963662505">
        <ele>1075.3699999999999</ele>
        <time>2014-09-04T09:44:14Z</time>
      </trkpt>
      <trkpt lat="39.843097608536482" lon="2.926056934520602">
        <ele>1080.1800000000001</ele>
        <time>2014-09-04T09:44:18Z</time>
      </trkpt>
      <trkpt lat="39.843097608536482" lon="2.926056934520602">
        <ele>1075.3699999999999</ele>
        <time>2014-09-04T09:44:19Z</time>
      </trkpt>
      <trkpt lat="39.843099871650338" lon="2.926060371100903">
        <ele>1078.74</ele>
        <time>2014-09-04T09:44:26Z</time>
      </trkpt>
      <trkpt lat="39.843097608536482" lon="2.926056934520602">
        <ele>1077.29</ele>
        <time>2014-09-04T09:44:29Z</time>
      </trkpt>
      <trkpt lat="39.843097608536482" lon="2.926056934520602">
        <ele>1075.3699999999999</ele>
        <time>2014-09-04T09:44:41Z</time>
      </trkpt>
      <trkpt lat="39.843097608536482" lon="2.926056934520602">
        <ele>1077.78</ele>
        <time>2014-09-04T09:44:42Z</time>
      </trkpt>
      <trkpt lat="39.843101548030972" lon="2.926099682226777">
        <ele>1075.8499999999999</ele>
        <time>2014-09-04T09:44:53Z</time>
      </trkpt>
      <trkpt lat="39.843108588829637" lon="2.926103118807077">
        <ele>1080.1800000000001</ele>
        <time>2014-09-04T09:45:03Z</time>
      </trkpt>
      <trkpt lat="39.843108588829637" lon="2.926103118807077">
        <ele>1076.8099999999999</ele>
        <time>2014-09-04T09:45:04Z</time>
      </trkpt>
      <trkpt lat="39.843108588829637" lon="2.926103118807077">
        <ele>1072.49</ele>
        <time>2014-09-04T09:45:07Z</time>
      </trkpt>
      <trkpt lat="39.843108840286732" lon="2.926105968654156">
        <ele>1076.3299999999999</ele>
        <time>2014-09-04T09:45:08Z</time>
      </trkpt>
      <trkpt lat="39.843108588829637" lon="2.926103118807077">
        <ele>1080.6600000000001</ele>
        <time>2014-09-04T09:45:10Z</time>
      </trkpt>
      <trkpt lat="39.843104900792241" lon="2.926096748560667">
        <ele>1076.3299999999999</ele>
        <time>2014-09-04T09:45:11Z</time>
      </trkpt>
      <trkpt lat="39.843106660991907" lon="2.926096748560667">
        <ele>1070.5699999999999</ele>
        <time>2014-09-04T09:45:17Z</time>
      </trkpt>
      <trkpt lat="39.843106660991907" lon="2.926096748560667">
        <ele>1083.0599999999999</ele>
        <time>2014-09-04T09:45:18Z</time>
      </trkpt>
      <trkpt lat="39.843106660991907" lon="2.926096748560667">
        <ele>1079.7</ele>
        <time>2014-09-04T09:45:19Z</time>
      </trkpt>
      <trkpt lat="39.843104397878051" lon="2.9260881152004">
        <ele>1076.3299999999999</ele>
        <time>2014-09-04T09:45:20Z</time>
      </trkpt>
      <trkpt lat="39.84310238622129" lon="2.926082164049149">
        <ele>1079.22</ele>
        <time>2014-09-04T09:45:21Z</time>
      </trkpt>
      <trkpt lat="39.843102637678385" lon="2.926078895106912">
        <ele>1075.3699999999999</ele>
        <time>2014-09-04T09:45:22Z</time>
      </trkpt>
      <trkpt lat="39.843102637678385" lon="2.926078895106912">
        <ele>1079.22</ele>
        <time>2014-09-04T09:45:24Z</time>
      </trkpt>
      <trkpt lat="39.843102637678385" lon="2.926078895106912">
        <ele>1074.4100000000001</ele>
        <time>2014-09-04T09:45:25Z</time>
      </trkpt>
      <trkpt lat="39.843101715669036" lon="2.926075709983707">
        <ele>1079.7</ele>
        <time>2014-09-04T09:45:26Z</time>
      </trkpt>
      <trkpt lat="39.843102637678385" lon="2.926078895106912">
        <ele>1075.3699999999999</ele>
        <time>2014-09-04T09:45:29Z</time>
      </trkpt>
      <trkpt lat="39.843102637678385" lon="2.926078895106912">
        <ele>1080.6600000000001</ele>
        <time>2014-09-04T09:45:30Z</time>
      </trkpt>
      <trkpt lat="39.843099787831306" lon="2.926076129078865">
        <ele>1075.3699999999999</ele>
        <time>2014-09-04T09:45:32Z</time>
      </trkpt>
      <trkpt lat="39.843101799488068" lon="2.926077470183373">
        <ele>1077.29</ele>
        <time>2014-09-04T09:45:33Z</time>
      </trkpt>
      <trkpt lat="39.843096854165196" lon="2.926074033603072">
        <ele>1071.05</ele>
        <time>2014-09-04T09:45:37Z</time>
      </trkpt>
      <trkpt lat="39.843099787831306" lon="2.926076129078865">
        <ele>1081.6199999999999</ele>
        <time>2014-09-04T09:45:38Z</time>
      </trkpt>
      <trkpt lat="39.843099787831306" lon="2.926076129078865">
        <ele>1072.01</ele>
        <time>2014-09-04T09:45:39Z</time>
      </trkpt>
      <trkpt lat="39.843099787831306" lon="2.926076129078865">
        <ele>1080.1800000000001</ele>
        <time>2014-09-04T09:45:40Z</time>
      </trkpt>
      <trkpt lat="39.843099787831306" lon="2.926076129078865">
        <ele>1072.97</ele>
        <time>2014-09-04T09:45:43Z</time>
      </trkpt>
      <trkpt lat="39.843099787831306" lon="2.926076129078865">
        <ele>1074.4100000000001</ele>
        <time>2014-09-04T09:45:44Z</time>
      </trkpt>
      <trkpt lat="39.843099787831306" lon="2.926076129078865">
        <ele>1087.3900000000001</ele>
        <time>2014-09-04T09:45:45Z</time>
      </trkpt>
      <trkpt lat="39.843099117279053" lon="2.926074033603072">
        <ele>1077.78</ele>
        <time>2014-09-04T09:45:46Z</time>
      </trkpt>
      <trkpt lat="39.843099787831306" lon="2.926076129078865">
        <ele>1072.49</ele>
        <time>2014-09-04T09:45:50Z</time>
      </trkpt>
      <trkpt lat="39.843095429241657" lon="2.92607587762177">
        <ele>1080.6600000000001</ele>
        <time>2014-09-04T09:45:51Z</time>
      </trkpt>
      <trkpt lat="39.843099787831306" lon="2.926076129078865">
        <ele>1076.3299999999999</ele>
        <time>2014-09-04T09:45:53Z</time>
      </trkpt>
      <trkpt lat="39.843095261603594" lon="2.926063723862171">
        <ele>1077.78</ele>
        <time>2014-09-04T09:46:06Z</time>
      </trkpt>
      <trkpt lat="39.843095261603594" lon="2.926063723862171">
        <ele>1073.9300000000001</ele>
        <time>2014-09-04T09:46:09Z</time>
      </trkpt>
      <trkpt lat="39.843095261603594" lon="2.926063723862171">
        <ele>1076.3299999999999</ele>
        <time>2014-09-04T09:46:10Z</time>
      </trkpt>
      <trkpt lat="39.843095261603594" lon="2.926063723862171">
        <ele>1078.26</ele>
        <time>2014-09-04T09:46:12Z</time>
      </trkpt>
      <trkpt lat="39.843093417584896" lon="2.926062131300569">
        <ele>1078.26</ele>
        <time>2014-09-04T09:46:37Z</time>
      </trkpt>
      <trkpt lat="39.843077156692743" lon="2.926058107987046">
        <ele>1078.74</ele>
        <time>2014-09-04T09:46:49Z</time>
      </trkpt>
      <trkpt lat="39.843089142814279" lon="2.926058359444141">
        <ele>1078.74</ele>
        <time>2014-09-04T09:46:55Z</time>
      </trkpt>
      <trkpt lat="39.843104230239987" lon="2.926038578152657">
        <ele>1079.22</ele>
        <time>2014-09-04T09:47:07Z</time>
      </trkpt>
      <trkpt lat="39.843127951025963" lon="2.92604218237102">
        <ele>1078.74</ele>
        <time>2014-09-04T09:47:16Z</time>
      </trkpt>
      <trkpt lat="39.843139266595244" lon="2.926096078008413">
        <ele>1079.22</ele>
        <time>2014-09-04T09:47:23Z</time>
      </trkpt>
      <trkpt lat="39.843130633234978" lon="2.926097083836794">
        <ele>1078.74</ele>
        <time>2014-09-04T09:47:27Z</time>
      </trkpt>
      <trkpt lat="39.843130633234978" lon="2.926097083836794">
        <ele>1079.7</ele>
        <time>2014-09-04T09:47:30Z</time>
      </trkpt>
      <trkpt lat="39.843130884692073" lon="2.926015360280871">
        <ele>1081.6199999999999</ele>
        <time>2014-09-04T09:47:42Z</time>
      </trkpt>
      <trkpt lat="39.843139015138149" lon="2.926000943407416">
        <ele>1082.5799999999999</ele>
        <time>2014-09-04T09:47:52Z</time>
      </trkpt>
      <trkpt lat="39.843140356242657" lon="2.925971187651157">
        <ele>1083.0599999999999</ele>
        <time>2014-09-04T09:48:06Z</time>
      </trkpt>
      <trkpt lat="39.843144379556179" lon="2.925965487957001">
        <ele>1083.0599999999999</ele>
        <time>2014-09-04T09:48:23Z</time>
      </trkpt>
      <trkpt lat="39.843150498345494" lon="2.925962470471859">
        <ele>1083.0599999999999</ele>
        <time>2014-09-04T09:48:37Z</time>
      </trkpt>
      <trkpt lat="39.843135662376881" lon="2.925980743020773">
        <ele>1081.6199999999999</ele>
        <time>2014-09-04T09:48:48Z</time>
      </trkpt>
      <trkpt lat="39.843134740367532" lon="2.926005218178034">
        <ele>1080.6600000000001</ele>
        <time>2014-09-04T09:49:01Z</time>
      </trkpt>
      <trkpt lat="39.843113198876381" lon="2.926018293946981">
        <ele>1080.1800000000001</ele>
        <time>2014-09-04T09:49:13Z</time>
      </trkpt>
      <trkpt lat="39.843113198876381" lon="2.926018293946981">
        <ele>1078.74</ele>
        <time>2014-09-04T09:49:16Z</time>
      </trkpt>
      <trkpt lat="39.843113198876381" lon="2.926018293946981">
        <ele>1079.22</ele>
        <time>2014-09-04T09:49:17Z</time>
      </trkpt>
      <trkpt lat="39.843097273260355" lon="2.926029106602073">
        <ele>1078.26</ele>
        <time>2014-09-04T09:49:21Z</time>
      </trkpt>
      <trkpt lat="39.84309408813715" lon="2.926053497940302">
        <ele>1078.74</ele>
        <time>2014-09-04T09:49:32Z</time>
      </trkpt>
      <trkpt lat="39.843105487525463" lon="2.926051570102572">
        <ele>1078.74</ele>
        <time>2014-09-04T09:49:43Z</time>
      </trkpt>
      <trkpt lat="39.843110935762525" lon="2.926057521253824">
        <ele>1078.74</ele>
        <time>2014-09-04T09:49:53Z</time>
      </trkpt>
      <trkpt lat="39.843122083693743" lon="2.926077134907246">
        <ele>1079.22</ele>
        <time>2014-09-04T09:50:05Z</time>
      </trkpt>
      <trkpt lat="39.843124095350504" lon="2.926078476011753">
        <ele>1078.74</ele>
        <time>2014-09-04T09:50:21Z</time>
      </trkpt>
      <trkpt lat="39.843150079250336" lon="2.926110913977027">
        <ele>1078.74</ele>
        <time>2014-09-04T09:50:31Z</time>
      </trkpt>
      <trkpt lat="39.843159383162856" lon="2.926114518195391">
        <ele>1079.22</ele>
        <time>2014-09-04T09:50:41Z</time>
      </trkpt>
      <trkpt lat="39.843163071200252" lon="2.926117619499564">
        <ele>1078.26</ele>
        <time>2014-09-04T09:50:57Z</time>
      </trkpt>
      <trkpt lat="39.843161646276712" lon="2.92611544020474">
        <ele>1079.22</ele>
        <time>2014-09-04T09:51:04Z</time>
      </trkpt>
      <trkpt lat="39.843133315443993" lon="2.926106890663505">
        <ele>1078.74</ele>
        <time>2014-09-04T09:51:14Z</time>
      </trkpt>
      <trkpt lat="39.84311705455184" lon="2.926115188747644">
        <ele>1077.78</ele>
        <time>2014-09-04T09:51:20Z</time>
      </trkpt>
      <trkpt lat="39.843107415363193" lon="2.926116613671184">
        <ele>1077.29</ele>
        <time>2014-09-04T09:51:22Z</time>
      </trkpt>
      <trkpt lat="39.843093836680055" lon="2.92612424120307">
        <ele>1077.78</ele>
        <time>2014-09-04T09:51:32Z</time>
      </trkpt>
      <trkpt lat="39.843088975176215" lon="2.92611644603312">
        <ele>1078.74</ele>
        <time>2014-09-04T09:51:46Z</time>
      </trkpt>
      <trkpt lat="39.843103559687734" lon="2.926099263131619">
        <ele>1079.22</ele>
        <time>2014-09-04T09:51:57Z</time>
      </trkpt>
      <trkpt lat="39.843113366514444" lon="2.926096748560667">
        <ele>1079.22</ele>
        <time>2014-09-04T09:52:07Z</time>
      </trkpt>
      <trkpt lat="39.843121664598584" lon="2.926093144342303">
        <ele>1080.1800000000001</ele>
        <time>2014-09-04T09:52:21Z</time>
      </trkpt>
      <trkpt lat="39.843104062601924" lon="2.926073949784041">
        <ele>1079.22</ele>
        <time>2014-09-04T09:52:38Z</time>
      </trkpt>
      <trkpt lat="39.84309509396553" lon="2.92606464587152">
        <ele>1079.7</ele>
        <time>2014-09-04T09:52:52Z</time>
      </trkpt>
      <trkpt lat="39.843081096187234" lon="2.926066238433123">
        <ele>1077.78</ele>
        <time>2014-09-04T09:53:02Z</time>
      </trkpt>
      <trkpt lat="39.843071205541492" lon="2.92602114379406">
        <ele>1081.6199999999999</ele>
        <time>2014-09-04T09:53:08Z</time>
      </trkpt>
      <trkpt lat="39.843050418421626" lon="2.925999686121941">
        <ele>1080.6600000000001</ele>
        <time>2014-09-04T09:53:11Z</time>
      </trkpt>
      <trkpt lat="39.843021836131811" lon="2.92593908496201">
        <ele>1078.26</ele>
        <time>2014-09-04T09:53:25Z</time>
      </trkpt>
      <trkpt lat="39.843017309904099" lon="2.925919722765684">
        <ele>1084.99</ele>
        <time>2014-09-04T09:53:27Z</time>
      </trkpt>
      <trkpt lat="39.843016136437654" lon="2.92591611854732">
        <ele>1083.0599999999999</ele>
        <time>2014-09-04T09:53:28Z</time>
      </trkpt>
      <trkpt lat="39.843016136437654" lon="2.92591611854732">
        <ele>1081.1400000000001</ele>
        <time>2014-09-04T09:53:30Z</time>
      </trkpt>
      <trkpt lat="39.843022422865033" lon="2.925912598147988">
        <ele>1079.22</ele>
        <time>2014-09-04T09:53:32Z</time>
      </trkpt>
      <trkpt lat="39.843026949092746" lon="2.925893822684884">
        <ele>1082.5799999999999</ele>
        <time>2014-09-04T09:53:38Z</time>
      </trkpt>
      <trkpt lat="39.843035582453012" lon="2.925885776057839">
        <ele>1076.8099999999999</ele>
        <time>2014-09-04T09:53:40Z</time>
      </trkpt>
      <trkpt lat="39.843042874708772" lon="2.925883512943983">
        <ele>1084.99</ele>
        <time>2014-09-04T09:53:41Z</time>
      </trkpt>
      <trkpt lat="39.843045137822628" lon="2.925879238173366">
        <ele>1084.99</ele>
        <time>2014-09-04T09:53:42Z</time>
      </trkpt>
      <trkpt lat="39.843045137822628" lon="2.925879238173366">
        <ele>1082.0999999999999</ele>
        <time>2014-09-04T09:53:43Z</time>
      </trkpt>
      <trkpt lat="39.843043042346835" lon="2.925867587327957">
        <ele>1085.47</ele>
        <time>2014-09-04T09:53:45Z</time>
      </trkpt>
      <trkpt lat="39.843038516119123" lon="2.925859792158008">
        <ele>1085.47</ele>
        <time>2014-09-04T09:53:46Z</time>
      </trkpt>
      <trkpt lat="39.843060057610273" lon="2.925851829349995">
        <ele>1084.5</ele>
        <time>2014-09-04T09:53:57Z</time>
      </trkpt>
      <trkpt lat="39.843068104237318" lon="2.925846800208092">
        <ele>1088.3499999999999</ele>
        <time>2014-09-04T09:54:06Z</time>
      </trkpt>
      <trkpt lat="39.843062739819288" lon="2.925840681418777">
        <ele>1085.95</ele>
        <time>2014-09-04T09:54:09Z</time>
      </trkpt>
      <trkpt lat="39.843057207763195" lon="2.925833724439144">
        <ele>1086.4300000000001</ele>
        <time>2014-09-04T09:54:25Z</time>
      </trkpt>
      <trkpt lat="39.8430794198066" lon="2.925839340314269">
        <ele>1082.0999999999999</ele>
        <time>2014-09-04T09:54:35Z</time>
      </trkpt>
      <trkpt lat="39.8430794198066" lon="2.925839340314269">
        <ele>1082.0999999999999</ele>
        <time>2014-09-04T09:54:36Z</time>
      </trkpt>
      <trkpt lat="39.843081096187234" lon="2.925839591771364">
        <ele>1088.8299999999999</ele>
        <time>2014-09-04T09:54:37Z</time>
      </trkpt>
      <trkpt lat="39.843081096187234" lon="2.925839591771364">
        <ele>1084.99</ele>
        <time>2014-09-04T09:54:38Z</time>
      </trkpt>
      <trkpt lat="39.843092914670706" lon="2.925844620913267">
        <ele>1081.6199999999999</ele>
        <time>2014-09-04T09:54:40Z</time>
      </trkpt>
      <trkpt lat="39.843097608536482" lon="2.925844453275204">
        <ele>1087.3900000000001</ele>
        <time>2014-09-04T09:54:41Z</time>
      </trkpt>
      <trkpt lat="39.84311462379992" lon="2.925852248445153">
        <ele>1086.9100000000001</ele>
        <time>2014-09-04T09:54:55Z</time>
      </trkpt>
      <trkpt lat="39.843130633234978" lon="2.925865072757006">
        <ele>1086.4300000000001</ele>
        <time>2014-09-04T09:55:02Z</time>
      </trkpt>
      <trkpt lat="39.843147229403257" lon="2.925870269536972">
        <ele>1086.9100000000001</ele>
        <time>2014-09-04T09:55:07Z</time>
      </trkpt>
      <trkpt lat="39.843157203868032" lon="2.92587161064148">
        <ele>1085.95</ele>
        <time>2014-09-04T09:55:17Z</time>
      </trkpt>
      <trkpt lat="39.843166256323457" lon="2.925881836563349">
        <ele>1086.9100000000001</ele>
        <time>2014-09-04T09:55:32Z</time>
      </trkpt>
      <trkpt lat="39.843204729259014" lon="2.925880327820778">
        <ele>1088.3499999999999</ele>
        <time>2014-09-04T09:55:45Z</time>
      </trkpt>
      <trkpt lat="39.843210680410266" lon="2.925872867926955">
        <ele>1086.9100000000001</ele>
        <time>2014-09-04T09:55:46Z</time>
      </trkpt>
      <trkpt lat="39.843240519985557" lon="2.925859959796071">
        <ele>1090.75</ele>
        <time>2014-09-04T09:55:58Z</time>
      </trkpt>
      <trkpt lat="39.843245046213269" lon="2.925859373062849">
        <ele>1088.3499999999999</ele>
        <time>2014-09-04T09:55:59Z</time>
      </trkpt>
      <trkpt lat="39.843277400359511" lon="2.925861887633801">
        <ele>1087.8699999999999</ele>
        <time>2014-09-04T09:56:11Z</time>
      </trkpt>
      <trkpt lat="39.843307491391897" lon="2.925853505730629">
        <ele>1086.4300000000001</ele>
        <time>2014-09-04T09:56:23Z</time>
      </trkpt>
      <trkpt lat="39.843308245763183" lon="2.92585208080709">
        <ele>1090.75</ele>
        <time>2014-09-04T09:56:25Z</time>
      </trkpt>
      <trkpt lat="39.843316040933132" lon="2.925850572064519">
        <ele>1086.9100000000001</ele>
        <time>2014-09-04T09:56:26Z</time>
      </trkpt>
      <trkpt lat="39.843321572989225" lon="2.925853757187724">
        <ele>1086.9100000000001</ele>
        <time>2014-09-04T09:56:27Z</time>
      </trkpt>
      <trkpt lat="39.843325847759843" lon="2.925856271758676">
        <ele>1086.4300000000001</ele>
        <time>2014-09-04T09:56:31Z</time>
      </trkpt>
      <trkpt lat="39.843305563554168" lon="2.925866916775703">
        <ele>1088.8299999999999</ele>
        <time>2014-09-04T09:56:38Z</time>
      </trkpt>
      <trkpt lat="39.843242112547159" lon="2.925915867090225">
        <ele>1088.3499999999999</ele>
        <time>2014-09-04T09:56:50Z</time>
      </trkpt>
      <trkpt lat="39.843197939917445" lon="2.925970433279872">
        <ele>1084.99</ele>
        <time>2014-09-04T09:57:00Z</time>
      </trkpt>
      <trkpt lat="39.843197269365191" lon="2.925968170166016">
        <ele>1084.99</ele>
        <time>2014-09-04T09:57:10Z</time>
      </trkpt>
      <trkpt lat="39.843177236616611" lon="2.926012761890888">
        <ele>1084.5</ele>
        <time>2014-09-04T09:57:21Z</time>
      </trkpt>
      <trkpt lat="39.843165082857013" lon="2.926055174320936">
        <ele>1082.0999999999999</ele>
        <time>2014-09-04T09:57:33Z</time>
      </trkpt>
      <trkpt lat="39.843161562457681" lon="2.926098257303238">
        <ele>1082.0999999999999</ele>
        <time>2014-09-04T09:57:44Z</time>
      </trkpt>
      <trkpt lat="39.843161813914776" lon="2.92610471136868">
        <ele>1081.6199999999999</ele>
        <time>2014-09-04T09:57:55Z</time>
      </trkpt>
      <trkpt lat="39.843161813914776" lon="2.92610471136868">
        <ele>1081.1400000000001</ele>
        <time>2014-09-04T09:58:01Z</time>
      </trkpt>
      <trkpt lat="39.843159299343824" lon="2.926133880391717">
        <ele>1082.0999999999999</ele>
        <time>2014-09-04T09:58:12Z</time>
      </trkpt>
      <trkpt lat="39.843163238838315" lon="2.926168581470847">
        <ele>1080.1800000000001</ele>
        <time>2014-09-04T09:58:22Z</time>
      </trkpt>
      <trkpt lat="39.843164412304759" lon="2.926171515136957">
        <ele>1079.22</ele>
        <time>2014-09-04T09:58:24Z</time>
      </trkpt>
      <trkpt lat="39.843185786157846" lon="2.926188195124269">
        <ele>1079.7</ele>
        <time>2014-09-04T09:58:28Z</time>
      </trkpt>
      <trkpt lat="39.843185786157846" lon="2.926188195124269">
        <ele>1076.8099999999999</ele>
        <time>2014-09-04T09:58:34Z</time>
      </trkpt>
      <trkpt lat="39.843185786157846" lon="2.926188195124269">
        <ele>1079.7</ele>
        <time>2014-09-04T09:58:39Z</time>
      </trkpt>
      <trkpt lat="39.843187965452671" lon="2.92618534527719">
        <ele>1078.74</ele>
        <time>2014-09-04T09:58:52Z</time>
      </trkpt>
      <trkpt lat="39.843177404254675" lon="2.926236307248473">
        <ele>1077.29</ele>
        <time>2014-09-04T09:59:03Z</time>
      </trkpt>
      <trkpt lat="39.8431605566293" lon="2.926217950880528">
        <ele>1082.5799999999999</ele>
        <time>2014-09-04T09:59:12Z</time>
      </trkpt>
      <trkpt lat="39.843151923269033" lon="2.926204791292548">
        <ele>1077.78</ele>
        <time>2014-09-04T09:59:15Z</time>
      </trkpt>
      <trkpt lat="39.843154270201921" lon="2.926206132397056">
        <ele>1077.78</ele>
        <time>2014-09-04T09:59:16Z</time>
      </trkpt>
      <trkpt lat="39.843154270201921" lon="2.926206132397056">
        <ele>1078.26</ele>
        <time>2014-09-04T09:59:28Z</time>
      </trkpt>
      <trkpt lat="39.843145720660686" lon="2.92618727311492">
        <ele>1082.5799999999999</ele>
        <time>2014-09-04T09:59:32Z</time>
      </trkpt>
      <trkpt lat="39.843149576336145" lon="2.926184842363">
        <ele>1080.6600000000001</ele>
        <time>2014-09-04T09:59:33Z</time>
      </trkpt>
      <trkpt lat="39.843149576336145" lon="2.926184842363">
        <ele>1079.7</ele>
        <time>2014-09-04T09:59:35Z</time>
      </trkpt>
      <trkpt lat="39.843146810308099" lon="2.926179645583034">
        <ele>1081.6199999999999</ele>
        <time>2014-09-04T09:59:40Z</time>
      </trkpt>
      <trkpt lat="39.84312635846436" lon="2.926143100485206">
        <ele>1079.7</ele>
        <time>2014-09-04T09:59:52Z</time>
      </trkpt>
      <trkpt lat="39.84312635846436" lon="2.926143100485206">
        <ele>1081.6199999999999</ele>
        <time>2014-09-04T09:59:55Z</time>
      </trkpt>
      <trkpt lat="39.843117473646998" lon="2.926137568429112">
        <ele>1080.1800000000001</ele>
        <time>2014-09-04T09:59:57Z</time>
      </trkpt>
      <trkpt lat="39.843113115057349" lon="2.926131282001734">
        <ele>1079.22</ele>
        <time>2014-09-04T10:00:08Z</time>
      </trkpt>
      <trkpt lat="39.843095932155848" lon="2.926137903705239">
        <ele>1078.74</ele>
        <time>2014-09-04T10:00:13Z</time>
      </trkpt>
      <trkpt lat="39.843086041510105" lon="2.926117451861501">
        <ele>1081.6199999999999</ele>
        <time>2014-09-04T10:00:20Z</time>
      </trkpt>
      <trkpt lat="39.843073803931475" lon="2.926102951169014">
        <ele>1080.1800000000001</ele>
        <time>2014-09-04T10:00:25Z</time>
      </trkpt>
      <trkpt lat="39.843071205541492" lon="2.926102783530951">
        <ele>1080.1800000000001</ele>
        <time>2014-09-04T10:00:49Z</time>
      </trkpt>
      <trkpt lat="39.843072798103094" lon="2.926100017502904">
        <ele>1072.49</ele>
        <time>2014-09-04T10:00:56Z</time>
      </trkpt>
      <trkpt lat="39.843068439513445" lon="2.926105549558997">
        <ele>1087.8699999999999</ele>
        <time>2014-09-04T10:00:57Z</time>
      </trkpt>
      <trkpt lat="39.843067182227969" lon="2.926108483225107">
        <ele>1081.1400000000001</ele>
        <time>2014-09-04T10:00:58Z</time>
      </trkpt>
      <trkpt lat="39.843067182227969" lon="2.926108483225107">
        <ele>1079.22</ele>
        <time>2014-09-04T10:01:00Z</time>
      </trkpt>
      <trkpt lat="39.843071456998587" lon="2.92610663920641">
        <ele>1082.5799999999999</ele>
        <time>2014-09-04T10:01:21Z</time>
      </trkpt>
      <trkpt lat="39.843071959912777" lon="2.92611108161509">
        <ele>1076.3299999999999</ele>
        <time>2014-09-04T10:01:23Z</time>
      </trkpt>
      <trkpt lat="39.84307112172246" lon="2.926108902320266">
        <ele>1057.1099999999999</ele>
        <time>2014-09-04T10:01:24Z</time>
      </trkpt>
      <trkpt lat="39.84307112172246" lon="2.926108902320266">
        <ele>1077.78</ele>
        <time>2014-09-04T10:01:25Z</time>
      </trkpt>
      <trkpt lat="39.84307112172246" lon="2.926108902320266">
        <ele>1087.8699999999999</ele>
        <time>2014-09-04T10:01:26Z</time>
      </trkpt>
      <trkpt lat="39.84307112172246" lon="2.926108902320266">
        <ele>1078.74</ele>
        <time>2014-09-04T10:01:27Z</time>
      </trkpt>
      <trkpt lat="39.84307112172246" lon="2.926108902320266">
        <ele>1084.02</ele>
        <time>2014-09-04T10:01:28Z</time>
      </trkpt>
      <trkpt lat="39.84307112172246" lon="2.926108902320266">
        <ele>1079.7</ele>
        <time>2014-09-04T10:01:29Z</time>
      </trkpt>
      <trkpt lat="39.84307112172246" lon="2.926108902320266">
        <ele>1094.5999999999999</ele>
        <time>2014-09-04T10:01:30Z</time>
      </trkpt>
      <trkpt lat="39.843072965741158" lon="2.926110494881868">
        <ele>1080.1800000000001</ele>
        <time>2014-09-04T10:01:31Z</time>
      </trkpt>
      <trkpt lat="39.84307112172246" lon="2.926108902320266">
        <ele>1076.3299999999999</ele>
        <time>2014-09-04T10:01:33Z</time>
      </trkpt>
      <trkpt lat="39.84307112172246" lon="2.926108902320266">
        <ele>1080.1800000000001</ele>
        <time>2014-09-04T10:01:34Z</time>
      </trkpt>
      <trkpt lat="39.84307112172246" lon="2.926108902320266">
        <ele>1083.54</ele>
        <time>2014-09-04T10:01:36Z</time>
      </trkpt>
      <trkpt lat="39.84307112172246" lon="2.926108902320266">
        <ele>1081.6199999999999</ele>
        <time>2014-09-04T10:01:37Z</time>
      </trkpt>
      <trkpt lat="39.843069445341825" lon="2.926109824329615">
        <ele>1072.01</ele>
        <time>2014-09-04T10:01:40Z</time>
      </trkpt>
      <trkpt lat="39.84307112172246" lon="2.926108902320266">
        <ele>1085.47</ele>
        <time>2014-09-04T10:01:41Z</time>
      </trkpt>
      <trkpt lat="39.84307355247438" lon="2.926102448254824">
        <ele>1083.0599999999999</ele>
        <time>2014-09-04T10:01:42Z</time>
      </trkpt>
      <trkpt lat="39.843080090358853" lon="2.926102867349982">
        <ele>1079.7</ele>
        <time>2014-09-04T10:01:44Z</time>
      </trkpt>
      <trkpt lat="39.843080090358853" lon="2.926102867349982">
        <ele>1082.5799999999999</ele>
        <time>2014-09-04T10:01:45Z</time>
      </trkpt>
      <trkpt lat="39.8430794198066" lon="2.926103202626109">
        <ele>1080.6600000000001</ele>
        <time>2014-09-04T10:01:50Z</time>
      </trkpt>
      <trkpt lat="39.843090232461691" lon="2.926092306151986">
        <ele>1082.5799999999999</ele>
        <time>2014-09-04T10:02:02Z</time>
      </trkpt>
      <trkpt lat="39.843091070652008" lon="2.926095323637128">
        <ele>1076.8099999999999</ele>
        <time>2014-09-04T10:02:11Z</time>
      </trkpt>
      <trkpt lat="39.843090232461691" lon="2.926092306151986">
        <ele>1083.54</ele>
        <time>2014-09-04T10:02:12Z</time>
      </trkpt>
      <trkpt lat="39.843090232461691" lon="2.926092306151986">
        <ele>1072.97</ele>
        <time>2014-09-04T10:02:14Z</time>
      </trkpt>
      <trkpt lat="39.843090232461691" lon="2.926092306151986">
        <ele>1084.02</ele>
        <time>2014-09-04T10:02:15Z</time>
      </trkpt>
      <trkpt lat="39.843090232461691" lon="2.926092306151986">
        <ele>1099.8900000000001</ele>
        <time>2014-09-04T10:02:16Z</time>
      </trkpt>
      <trkpt lat="39.843090232461691" lon="2.926092306151986">
        <ele>1082.0999999999999</ele>
        <time>2014-09-04T10:02:17Z</time>
      </trkpt>
      <trkpt lat="39.843090232461691" lon="2.926092306151986">
        <ele>1076.3299999999999</ele>
        <time>2014-09-04T10:02:20Z</time>
      </trkpt>
      <trkpt lat="39.843091070652008" lon="2.926095323637128">
        <ele>1080.1800000000001</ele>
        <time>2014-09-04T10:02:21Z</time>
      </trkpt>
      <trkpt lat="39.843092327937484" lon="2.926091467961669">
        <ele>1084.02</ele>
        <time>2014-09-04T10:02:23Z</time>
      </trkpt>
      <trkpt lat="39.843090232461691" lon="2.926092306151986">
        <ele>1080.1800000000001</ele>
        <time>2014-09-04T10:02:26Z</time>
      </trkpt>
      <trkpt lat="39.843088053166866" lon="2.926096329465509">
        <ele>1081.1400000000001</ele>
        <time>2014-09-04T10:02:27Z</time>
      </trkpt>
      <trkpt lat="39.843085538595915" lon="2.926097502931953">
        <ele>1085.47</ele>
        <time>2014-09-04T10:02:28Z</time>
      </trkpt>
      <trkpt lat="39.843088053166866" lon="2.926096329465509">
        <ele>1077.78</ele>
        <time>2014-09-04T10:02:29Z</time>
      </trkpt>
      <trkpt lat="39.843088053166866" lon="2.926096329465509">
        <ele>1084.5</ele>
        <time>2014-09-04T10:02:30Z</time>
      </trkpt>
      <trkpt lat="39.843088053166866" lon="2.926096329465509">
        <ele>1071.53</ele>
        <time>2014-09-04T10:02:32Z</time>
      </trkpt>
      <trkpt lat="39.843090064823627" lon="2.926094401627779">
        <ele>1076.3299999999999</ele>
        <time>2014-09-04T10:02:33Z</time>
      </trkpt>
      <trkpt lat="39.843090064823627" lon="2.926093898713589">
        <ele>1093.6400000000001</ele>
        <time>2014-09-04T10:02:34Z</time>
      </trkpt>
      <trkpt lat="39.843094842508435" lon="2.926095658913255">
        <ele>1081.6199999999999</ele>
        <time>2014-09-04T10:02:35Z</time>
      </trkpt>
      <trkpt lat="39.843098530545831" lon="2.92609540745616">
        <ele>1074.4100000000001</ele>
        <time>2014-09-04T10:02:37Z</time>
      </trkpt>
      <trkpt lat="39.843098530545831" lon="2.92609540745616">
        <ele>1091.23</ele>
        <time>2014-09-04T10:02:38Z</time>
      </trkpt>
      <trkpt lat="39.843100793659687" lon="2.926097670570016">
        <ele>1081.1400000000001</ele>
        <time>2014-09-04T10:02:39Z</time>
      </trkpt>
      <trkpt lat="39.843098530545831" lon="2.92609540745616">
        <ele>1072.97</ele>
        <time>2014-09-04T10:02:40Z</time>
      </trkpt>
      <trkpt lat="39.843099117279053" lon="2.926093228161335">
        <ele>1082.5799999999999</ele>
        <time>2014-09-04T10:02:41Z</time>
      </trkpt>
      <trkpt lat="39.843098530545831" lon="2.92609540745616">
        <ele>1090.75</ele>
        <time>2014-09-04T10:02:49Z</time>
      </trkpt>
      <trkpt lat="39.843098530545831" lon="2.92609540745616">
        <ele>1083.0599999999999</ele>
        <time>2014-09-04T10:02:50Z</time>
      </trkpt>
      <trkpt lat="39.843098530545831" lon="2.92609540745616">
        <ele>1081.6199999999999</ele>
        <time>2014-09-04T10:02:52Z</time>
      </trkpt>
      <trkpt lat="39.843104397878051" lon="2.926093144342303">
        <ele>1082.5799999999999</ele>
        <time>2014-09-04T10:03:08Z</time>
      </trkpt>
      <trkpt lat="39.843101967126131" lon="2.926096078008413">
        <ele>1081.6199999999999</ele>
        <time>2014-09-04T10:03:21Z</time>
      </trkpt>
      <trkpt lat="39.843101967126131" lon="2.926096078008413">
        <ele>1078.74</ele>
        <time>2014-09-04T10:03:27Z</time>
      </trkpt>
      <trkpt lat="39.843101967126131" lon="2.926096078008413">
        <ele>1083.54</ele>
        <time>2014-09-04T10:03:30Z</time>
      </trkpt>
      <trkpt lat="39.843101464211941" lon="2.926097419112921">
        <ele>1082.5799999999999</ele>
        <time>2014-09-04T10:03:31Z</time>
      </trkpt>
      <trkpt lat="39.843102805316448" lon="2.926097754389048">
        <ele>1081.1400000000001</ele>
        <time>2014-09-04T10:04:05Z</time>
      </trkpt>
      <trkpt lat="39.843102553859353" lon="2.926100855693221">
        <ele>1081.6199999999999</ele>
        <time>2014-09-04T10:04:35Z</time>
      </trkpt>
      <trkpt lat="39.843102553859353" lon="2.926100855693221">
        <ele>1084.99</ele>
        <time>2014-09-04T10:04:42Z</time>
      </trkpt>
      <trkpt lat="39.843105906620622" lon="2.926094233989716">
        <ele>1083.54</ele>
        <time>2014-09-04T10:04:43Z</time>
      </trkpt>
      <trkpt lat="39.843122754245996" lon="2.926094485446811">
        <ele>1078.74</ele>
        <time>2014-09-04T10:04:48Z</time>
      </trkpt>
      <trkpt lat="39.843129459768534" lon="2.926095072180033">
        <ele>1087.3900000000001</ele>
        <time>2014-09-04T10:04:49Z</time>
      </trkpt>
      <trkpt lat="39.843129459768534" lon="2.926095072180033">
        <ele>1082.5799999999999</ele>
        <time>2014-09-04T10:04:50Z</time>
      </trkpt>
      <trkpt lat="39.843131555244327" lon="2.926087947562337">
        <ele>1085.95</ele>
        <time>2014-09-04T10:04:53Z</time>
      </trkpt>
      <trkpt lat="39.843134488910437" lon="2.926086019724608">
        <ele>1085.95</ele>
        <time>2014-09-04T10:04:54Z</time>
      </trkpt>
      <trkpt lat="39.843146810308099" lon="2.926052995026112">
        <ele>1082.5799999999999</ele>
        <time>2014-09-04T10:05:00Z</time>
      </trkpt>
      <trkpt lat="39.843175476416945" lon="2.925995914265513">
        <ele>1089.79</ele>
        <time>2014-09-04T10:05:07Z</time>
      </trkpt>
      <trkpt lat="39.84318109229207" lon="2.925981413573027">
        <ele>1086.4300000000001</ele>
        <time>2014-09-04T10:05:10Z</time>
      </trkpt>
      <trkpt lat="39.843176063150167" lon="2.92593221180141">
        <ele>1088.8299999999999</ele>
        <time>2014-09-04T10:05:16Z</time>
      </trkpt>
      <trkpt lat="39.84318251721561" lon="2.925916202366352">
        <ele>1083.54</ele>
        <time>2014-09-04T10:05:18Z</time>
      </trkpt>
      <trkpt lat="39.843188216909766" lon="2.925899270921946">
        <ele>1088.8299999999999</ele>
        <time>2014-09-04T10:05:19Z</time>
      </trkpt>
      <trkpt lat="39.843195844441652" lon="2.925884770229459">
        <ele>1084.99</ele>
        <time>2014-09-04T10:05:21Z</time>
      </trkpt>
      <trkpt lat="39.843200789764524" lon="2.925845291465521">
        <ele>1090.27</ele>
        <time>2014-09-04T10:05:24Z</time>
      </trkpt>
      <trkpt lat="39.843193078413606" lon="2.925814110785723">
        <ele>1090.27</ele>
        <time>2014-09-04T10:05:28Z</time>
      </trkpt>
      <trkpt lat="39.843192826956511" lon="2.925783768296242">
        <ele>1091.71</ele>
        <time>2014-09-04T10:05:32Z</time>
      </trkpt>
      <trkpt lat="39.843171453103423" lon="2.925771782174707">
        <ele>1091.23</ele>
        <time>2014-09-04T10:05:44Z</time>
      </trkpt>
      <trkpt lat="39.843162400647998" lon="2.925765747204423">
        <ele>1090.27</ele>
        <time>2014-09-04T10:05:57Z</time>
      </trkpt>
      <trkpt lat="39.843162400647998" lon="2.925765747204423">
        <ele>1095.0799999999999</ele>
        <time>2014-09-04T10:06:05Z</time>
      </trkpt>
      <trkpt lat="39.843162400647998" lon="2.925765747204423">
        <ele>1090.75</ele>
        <time>2014-09-04T10:06:06Z</time>
      </trkpt>
      <trkpt lat="39.843161646276712" lon="2.925746971741319">
        <ele>1089.3099999999999</ele>
        <time>2014-09-04T10:06:13Z</time>
      </trkpt>
      <trkpt lat="39.843169776722789" lon="2.92574018239975">
        <ele>1092.2</ele>
        <time>2014-09-04T10:06:28Z</time>
      </trkpt>
      <trkpt lat="39.843180757015944" lon="2.925762394443154">
        <ele>1090.75</ele>
        <time>2014-09-04T10:06:36Z</time>
      </trkpt>
      <trkpt lat="39.843177488073707" lon="2.925768345594406">
        <ele>1090.27</ele>
        <time>2014-09-04T10:06:47Z</time>
      </trkpt>
      <trkpt lat="39.843177068978548" lon="2.925772871822119">
        <ele>1090.27</ele>
        <time>2014-09-04T10:07:14Z</time>
      </trkpt>
      <trkpt lat="39.843177068978548" lon="2.925772871822119">
        <ele>1090.75</ele>
        <time>2014-09-04T10:07:32Z</time>
      </trkpt>
      <trkpt lat="39.843185199424624" lon="2.925775805488229">
        <ele>1090.27</ele>
        <time>2014-09-04T10:07:54Z</time>
      </trkpt>
      <trkpt lat="39.843185199424624" lon="2.925775805488229">
        <ele>1090.75</ele>
        <time>2014-09-04T10:08:23Z</time>
      </trkpt>
      <trkpt lat="39.843185199424624" lon="2.925775805488229">
        <ele>1089.3099999999999</ele>
        <time>2014-09-04T10:08:27Z</time>
      </trkpt>
      <trkpt lat="39.843185199424624" lon="2.925775805488229">
        <ele>1090.75</ele>
        <time>2014-09-04T10:08:29Z</time>
      </trkpt>
      <trkpt lat="39.843184445053339" lon="2.925775554031134">
        <ele>1089.79</ele>
        <time>2014-09-04T10:08:58Z</time>
      </trkpt>
      <trkpt lat="39.843184445053339" lon="2.925775554031134">
        <ele>1091.23</ele>
        <time>2014-09-04T10:09:11Z</time>
      </trkpt>
      <trkpt lat="39.843184612691402" lon="2.92577194981277">
        <ele>1087.8699999999999</ele>
        <time>2014-09-04T10:09:12Z</time>
      </trkpt>
      <trkpt lat="39.843184864148498" lon="2.925775554031134">
        <ele>1092.6800000000001</ele>
        <time>2014-09-04T10:09:13Z</time>
      </trkpt>
      <trkpt lat="39.843182684853673" lon="2.925778571516275">
        <ele>1080.1800000000001</ele>
        <time>2014-09-04T10:09:16Z</time>
      </trkpt>
      <trkpt lat="39.843184864148498" lon="2.925775554031134">
        <ele>1080.1800000000001</ele>
        <time>2014-09-04T10:09:17Z</time>
      </trkpt>
      <trkpt lat="39.843184864148498" lon="2.925775554031134">
        <ele>1101.3299999999999</ele>
        <time>2014-09-04T10:09:18Z</time>
      </trkpt>
      <trkpt lat="39.843184864148498" lon="2.925775554031134">
        <ele>1091.71</ele>
        <time>2014-09-04T10:09:19Z</time>
      </trkpt>
      <trkpt lat="39.843184864148498" lon="2.925775554031134">
        <ele>1091.23</ele>
        <time>2014-09-04T10:09:41Z</time>
      </trkpt>
      <trkpt lat="39.843178829178214" lon="2.925774799659848">
        <ele>1090.75</ele>
        <time>2014-09-04T10:10:15Z</time>
      </trkpt>
      <trkpt lat="39.843177236616611" lon="2.925775637850165">
        <ele>1091.23</ele>
        <time>2014-09-04T10:10:45Z</time>
      </trkpt>
      <trkpt lat="39.843179751187563" lon="2.925781337544322">
        <ele>1091.23</ele>
        <time>2014-09-04T10:11:15Z</time>
      </trkpt>
      <trkpt lat="39.843179751187563" lon="2.925781337544322">
        <ele>1074.8900000000001</ele>
        <time>2014-09-04T10:11:36Z</time>
      </trkpt>
      <trkpt lat="39.843179751187563" lon="2.925781337544322">
        <ele>1100.8499999999999</ele>
        <time>2014-09-04T10:11:37Z</time>
      </trkpt>
      <trkpt lat="39.843178745359182" lon="2.925783600658178">
        <ele>1093.1600000000001</ele>
        <time>2014-09-04T10:11:38Z</time>
      </trkpt>
      <trkpt lat="39.843179751187563" lon="2.925781337544322">
        <ele>1092.2</ele>
        <time>2014-09-04T10:11:40Z</time>
      </trkpt>
      <trkpt lat="39.843179751187563" lon="2.925781337544322">
        <ele>1088.3499999999999</ele>
        <time>2014-09-04T10:11:50Z</time>
      </trkpt>
      <trkpt lat="39.843184193596244" lon="2.925782511010766">
        <ele>1096.52</ele>
        <time>2014-09-04T10:11:51Z</time>
      </trkpt>
      <trkpt lat="39.843181846663356" lon="2.925765663385391">
        <ele>1092.6800000000001</ele>
        <time>2014-09-04T10:11:52Z</time>
      </trkpt>
      <trkpt lat="39.843180002644658" lon="2.925767339766026">
        <ele>1092.2</ele>
        <time>2014-09-04T10:12:15Z</time>
      </trkpt>
      <trkpt lat="39.843181259930134" lon="2.925765076652169">
        <ele>1092.2</ele>
        <time>2014-09-04T10:12:44Z</time>
      </trkpt>
      <trkpt lat="39.843180840834975" lon="2.925769435241818">
        <ele>1093.6400000000001</ele>
        <time>2014-09-04T10:13:03Z</time>
      </trkpt>
      <trkpt lat="39.843178074806929" lon="2.925765495747328">
        <ele>1092.2</ele>
        <time>2014-09-04T10:13:05Z</time>
      </trkpt>
      <trkpt lat="39.843181259930134" lon="2.92576658539474">
        <ele>1090.27</ele>
        <time>2014-09-04T10:13:29Z</time>
      </trkpt>
      <trkpt lat="39.843181511387229" lon="2.925770943984389">
        <ele>1091.71</ele>
        <time>2014-09-04T10:13:57Z</time>
      </trkpt>
      <trkpt lat="39.843181511387229" lon="2.925770943984389">
        <ele>1092.2</ele>
        <time>2014-09-04T10:14:14Z</time>
      </trkpt>
      <trkpt lat="39.843181511387229" lon="2.925770943984389">
        <ele>1088.3499999999999</ele>
        <time>2014-09-04T10:14:21Z</time>
      </trkpt>
      <trkpt lat="39.843181511387229" lon="2.925770943984389">
        <ele>1092.2</ele>
        <time>2014-09-04T10:14:22Z</time>
      </trkpt>
      <trkpt lat="39.843183858320117" lon="2.925767507404089">
        <ele>1097</ele>
        <time>2014-09-04T10:14:32Z</time>
      </trkpt>
      <trkpt lat="39.843180673196912" lon="2.925774464383721">
        <ele>1092.2</ele>
        <time>2014-09-04T10:14:33Z</time>
      </trkpt>
      <trkpt lat="39.843178493902087" lon="2.925783935934305">
        <ele>1083.0599999999999</ele>
        <time>2014-09-04T10:14:54Z</time>
      </trkpt>
      <trkpt lat="39.843178493902087" lon="2.925783935934305">
        <ele>1092.6800000000001</ele>
        <time>2014-09-04T10:14:55Z</time>
      </trkpt>
      <trkpt lat="39.843178493902087" lon="2.925783935934305">
        <ele>1102.29</ele>
        <time>2014-09-04T10:15:20Z</time>
      </trkpt>
      <trkpt lat="39.843178493902087" lon="2.925783935934305">
        <ele>1093.1600000000001</ele>
        <time>2014-09-04T10:15:21Z</time>
      </trkpt>
      <trkpt lat="39.843178493902087" lon="2.925783935934305">
        <ele>1080.1800000000001</ele>
        <time>2014-09-04T10:15:22Z</time>
      </trkpt>
      <trkpt lat="39.843178493902087" lon="2.925783935934305">
        <ele>1095.5599999999999</ele>
        <time>2014-09-04T10:15:23Z</time>
      </trkpt>
      <trkpt lat="39.843178493902087" lon="2.925783935934305">
        <ele>1091.71</ele>
        <time>2014-09-04T10:15:25Z</time>
      </trkpt>
      <trkpt lat="39.843178493902087" lon="2.925783935934305">
        <ele>1097</ele>
        <time>2014-09-04T10:15:27Z</time>
      </trkpt>
      <trkpt lat="39.843178493902087" lon="2.925783935934305">
        <ele>1095.0799999999999</ele>
        <time>2014-09-04T10:15:28Z</time>
      </trkpt>
      <trkpt lat="39.843178493902087" lon="2.925783935934305">
        <ele>1092.6800000000001</ele>
        <time>2014-09-04T10:15:31Z</time>
      </trkpt>
      <trkpt lat="39.843180170282722" lon="2.925785696133971">
        <ele>1089.3099999999999</ele>
        <time>2014-09-04T10:15:40Z</time>
      </trkpt>
      <trkpt lat="39.843180170282722" lon="2.925785696133971">
        <ele>1093.1600000000001</ele>
        <time>2014-09-04T10:15:43Z</time>
      </trkpt>
      <trkpt lat="39.843180170282722" lon="2.925785696133971">
        <ele>1103.25</ele>
        <time>2014-09-04T10:15:44Z</time>
      </trkpt>
      <trkpt lat="39.843180170282722" lon="2.925785696133971">
        <ele>1093.1600000000001</ele>
        <time>2014-09-04T10:15:45Z</time>
      </trkpt>
      <trkpt lat="39.843180170282722" lon="2.925785696133971">
        <ele>1089.3099999999999</ele>
        <time>2014-09-04T10:15:48Z</time>
      </trkpt>
      <trkpt lat="39.843180170282722" lon="2.925785696133971">
        <ele>1100.3699999999999</ele>
        <time>2014-09-04T10:15:49Z</time>
      </trkpt>
      <trkpt lat="39.843178074806929" lon="2.925788965076208">
        <ele>1095.0799999999999</ele>
        <time>2014-09-04T10:15:50Z</time>
      </trkpt>
      <trkpt lat="39.843174805864692" lon="2.925790809094906">
        <ele>1093.6400000000001</ele>
        <time>2014-09-04T10:15:52Z</time>
      </trkpt>
      <trkpt lat="39.843180254101753" lon="2.925777565687895">
        <ele>1088.8299999999999</ele>
        <time>2014-09-04T10:16:09Z</time>
      </trkpt>
      <trkpt lat="39.843179667368531" lon="2.925778403878212">
        <ele>1093.6400000000001</ele>
        <time>2014-09-04T10:16:10Z</time>
      </trkpt>
      <trkpt lat="39.843180254101753" lon="2.925777565687895">
        <ele>1093.1600000000001</ele>
        <time>2014-09-04T10:16:11Z</time>
      </trkpt>
      <trkpt lat="39.843180170282722" lon="2.925768848508596">
        <ele>1093.6400000000001</ele>
        <time>2014-09-04T10:16:28Z</time>
      </trkpt>
      <trkpt lat="39.843118479475379" lon="2.925796676427126">
        <ele>1092.6800000000001</ele>
        <time>2014-09-04T10:16:39Z</time>
      </trkpt>
      <trkpt lat="39.843091992661357" lon="2.925791228190064">
        <ele>1093.1600000000001</ele>
        <time>2014-09-04T10:16:45Z</time>
      </trkpt>
      <trkpt lat="39.843054777011275" lon="2.925790389999747">
        <ele>1093.1600000000001</ele>
        <time>2014-09-04T10:16:48Z</time>
      </trkpt>
      <trkpt lat="39.843026278540492" lon="2.925774632021785">
        <ele>1090.27</ele>
        <time>2014-09-04T10:16:52Z</time>
      </trkpt>
      <trkpt lat="39.843011107295752" lon="2.925726603716612">
        <ele>1091.71</ele>
        <time>2014-09-04T10:16:57Z</time>
      </trkpt>
      <trkpt lat="39.84300808981061" lon="2.925719982013106">
        <ele>1090.75</ele>
        <time>2014-09-04T10:16:58Z</time>
      </trkpt>
      <trkpt lat="39.84299099072814" lon="2.925696596503258">
        <ele>1090.75</ele>
        <time>2014-09-04T10:17:05Z</time>
      </trkpt>
      <trkpt lat="39.842959893867373" lon="2.925662649795413">
        <ele>1091.23</ele>
        <time>2014-09-04T10:17:11Z</time>
      </trkpt>
      <trkpt lat="39.842930221930146" lon="2.925639851018786">
        <ele>1088.8299999999999</ele>
        <time>2014-09-04T10:17:14Z</time>
      </trkpt>
      <trkpt lat="39.842900549992919" lon="2.925613699480891">
        <ele>1086.9100000000001</ele>
        <time>2014-09-04T10:17:20Z</time>
      </trkpt>
      <trkpt lat="39.842878421768546" lon="2.92560925707221">
        <ele>1089.79</ele>
        <time>2014-09-04T10:17:22Z</time>
      </trkpt>
      <trkpt lat="39.842821005731821" lon="2.925533149391413">
        <ele>1091.23</ele>
        <time>2014-09-04T10:17:31Z</time>
      </trkpt>
      <trkpt lat="39.842795860022306" lon="2.925510602071881">
        <ele>1087.8699999999999</ele>
        <time>2014-09-04T10:17:34Z</time>
      </trkpt>
      <trkpt lat="39.842791669070721" lon="2.925504315644503">
        <ele>1092.2</ele>
        <time>2014-09-04T10:17:35Z</time>
      </trkpt>
      <trkpt lat="39.842791669070721" lon="2.925504315644503">
        <ele>1090.27</ele>
        <time>2014-09-04T10:17:36Z</time>
      </trkpt>
      <trkpt lat="39.842777336016297" lon="2.925492580980063">
        <ele>1088.3499999999999</ele>
        <time>2014-09-04T10:17:45Z</time>
      </trkpt>
      <trkpt lat="39.842753699049354" lon="2.925433404743671">
        <ele>1086.4300000000001</ele>
        <time>2014-09-04T10:17:51Z</time>
      </trkpt>
      <trkpt lat="39.842751603573561" lon="2.925426196306944">
        <ele>1092.6800000000001</ele>
        <time>2014-09-04T10:17:52Z</time>
      </trkpt>
      <trkpt lat="39.842749256640673" lon="2.925413539633155">
        <ele>1088.3499999999999</ele>
        <time>2014-09-04T10:17:53Z</time>
      </trkpt>
      <trkpt lat="39.842737605795264" lon="2.925389818847179">
        <ele>1088.8299999999999</ele>
        <time>2014-09-04T10:17:55Z</time>
      </trkpt>
      <trkpt lat="39.84273299574852" lon="2.92535318993032">
        <ele>1087.3900000000001</ele>
        <time>2014-09-04T10:17:59Z</time>
      </trkpt>
      <trkpt lat="39.842714723199606" lon="2.925322763621807">
        <ele>1086.4300000000001</ele>
        <time>2014-09-04T10:18:03Z</time>
      </trkpt>
      <trkpt lat="39.842706257477403" lon="2.925301473587751">
        <ele>1087.8699999999999</ele>
        <time>2014-09-04T10:18:06Z</time>
      </trkpt>
      <trkpt lat="39.842706173658371" lon="2.925304491072893">
        <ele>1086.9100000000001</ele>
        <time>2014-09-04T10:18:20Z</time>
      </trkpt>
      <trkpt lat="39.842706173658371" lon="2.925304491072893">
        <ele>1087.8699999999999</ele>
        <time>2014-09-04T10:18:21Z</time>
      </trkpt>
      <trkpt lat="39.842688990756869" lon="2.925271969288588">
        <ele>1087.3900000000001</ele>
        <time>2014-09-04T10:18:26Z</time>
      </trkpt>
      <trkpt lat="39.842659067362547" lon="2.925220420584083">
        <ele>1085.95</ele>
        <time>2014-09-04T10:18:32Z</time>
      </trkpt>
      <trkpt lat="39.842639788985252" lon="2.925178846344352">
        <ele>1089.3099999999999</ele>
        <time>2014-09-04T10:18:36Z</time>
      </trkpt>
      <trkpt lat="39.842639621347189" lon="2.925157640129328">
        <ele>1085.95</ele>
        <time>2014-09-04T10:18:38Z</time>
      </trkpt>
      <trkpt lat="39.842639034613967" lon="2.925128219649196">
        <ele>1086.4300000000001</ele>
        <time>2014-09-04T10:18:41Z</time>
      </trkpt>
      <trkpt lat="39.842602321878076" lon="2.925033085048199">
        <ele>1085.47</ele>
        <time>2014-09-04T10:18:51Z</time>
      </trkpt>
      <trkpt lat="39.842594694346189" lon="2.925031492486596">
        <ele>1086.4300000000001</ele>
        <time>2014-09-04T10:18:52Z</time>
      </trkpt>
      <trkpt lat="39.84258052892983" lon="2.925019087269902">
        <ele>1083.54</ele>
        <time>2014-09-04T10:18:54Z</time>
      </trkpt>
      <trkpt lat="39.842555299401283" lon="2.924986816942692">
        <ele>1083.0599999999999</ele>
        <time>2014-09-04T10:18:58Z</time>
      </trkpt>
      <trkpt lat="39.842542307451367" lon="2.924967035651207">
        <ele>1084.5</ele>
        <time>2014-09-04T10:19:00Z</time>
      </trkpt>
      <trkpt lat="39.842515820637345" lon="2.924933508038521">
        <ele>1085.95</ele>
        <time>2014-09-04T10:19:04Z</time>
      </trkpt>
      <trkpt lat="39.842482963576913" lon="2.92490852996707">
        <ele>1082.5799999999999</ele>
        <time>2014-09-04T10:19:09Z</time>
      </trkpt>
      <trkpt lat="39.84245203435421" lon="2.924830494448543">
        <ele>1084.02</ele>
        <time>2014-09-04T10:19:16Z</time>
      </trkpt>
      <trkpt lat="39.842448681592941" lon="2.924803169444203">
        <ele>1083.54</ele>
        <time>2014-09-04T10:19:27Z</time>
      </trkpt>
      <trkpt lat="39.842448681592941" lon="2.924803169444203">
        <ele>1084.99</ele>
        <time>2014-09-04T10:19:40Z</time>
      </trkpt>
      <trkpt lat="39.842448681592941" lon="2.924803169444203">
        <ele>1081.6199999999999</ele>
        <time>2014-09-04T10:19:43Z</time>
      </trkpt>
      <trkpt lat="39.842439964413643" lon="2.924796296283603">
        <ele>1080.6600000000001</ele>
        <time>2014-09-04T10:19:44Z</time>
      </trkpt>
      <trkpt lat="39.842375591397285" lon="2.924803253263235">
        <ele>1082.0999999999999</ele>
        <time>2014-09-04T10:19:51Z</time>
      </trkpt>
      <trkpt lat="39.842353295534849" lon="2.924817921593785">
        <ele>1079.7</ele>
        <time>2014-09-04T10:19:54Z</time>
      </trkpt>
      <trkpt lat="39.842328736558557" lon="2.924811216071248">
        <ele>1075.8499999999999</ele>
        <time>2014-09-04T10:20:01Z</time>
      </trkpt>
      <trkpt lat="39.842319265007973" lon="2.924806019291282">
        <ele>1079.7</ele>
        <time>2014-09-04T10:20:02Z</time>
      </trkpt>
      <trkpt lat="39.842264531180263" lon="2.92475463822484">
        <ele>1074.8900000000001</ele>
        <time>2014-09-04T10:20:11Z</time>
      </trkpt>
      <trkpt lat="39.842260675504804" lon="2.924748435616493">
        <ele>1076.3299999999999</ele>
        <time>2014-09-04T10:20:12Z</time>
      </trkpt>
      <trkpt lat="39.842264447361231" lon="2.924749022349715">
        <ele>1076.8099999999999</ele>
        <time>2014-09-04T10:20:16Z</time>
      </trkpt>
      <trkpt lat="39.842244666069746" lon="2.924688588827848">
        <ele>1075.8499999999999</ele>
        <time>2014-09-04T10:20:22Z</time>
      </trkpt>
      <trkpt lat="39.842222454026341" lon="2.924652211368084">
        <ele>1073.9300000000001</ele>
        <time>2014-09-04T10:20:26Z</time>
      </trkpt>
      <trkpt lat="39.842134863138199" lon="2.924582222476602">
        <ele>1074.4100000000001</ele>
        <time>2014-09-04T10:20:36Z</time>
      </trkpt>
      <trkpt lat="39.842073759064078" lon="2.924543162807822">
        <ele>1072.01</ele>
        <time>2014-09-04T10:20:44Z</time>
      </trkpt>
      <trkpt lat="39.842056492343545" lon="2.924528326839209">
        <ele>1072.01</ele>
        <time>2014-09-04T10:20:56Z</time>
      </trkpt>
      <trkpt lat="39.842031598091125" lon="2.924498822540045">
        <ele>1071.05</ele>
        <time>2014-09-04T10:21:07Z</time>
      </trkpt>
      <trkpt lat="39.842007458209991" lon="2.924470659345388">
        <ele>1070.5699999999999</ele>
        <time>2014-09-04T10:21:12Z</time>
      </trkpt>
      <trkpt lat="39.84201273880899" lon="2.924406118690968">
        <ele>1070.0799999999999</ele>
        <time>2014-09-04T10:21:21Z</time>
      </trkpt>
      <trkpt lat="39.842012571170926" lon="2.9243837390095">
        <ele>1070.5699999999999</ele>
        <time>2014-09-04T10:21:24Z</time>
      </trkpt>
      <trkpt lat="39.84200544655323" lon="2.924359431490302">
        <ele>1070.5699999999999</ele>
        <time>2014-09-04T10:21:26Z</time>
      </trkpt>
      <trkpt lat="39.842006033286452" lon="2.924338141456246">
        <ele>1070.0799999999999</ele>
        <time>2014-09-04T10:21:30Z</time>
      </trkpt>
      <trkpt lat="39.8420225456357" lon="2.924290783703327">
        <ele>1069.5999999999999</ele>
        <time>2014-09-04T10:21:41Z</time>
      </trkpt>
      <trkpt lat="39.841975355520844" lon="2.924201097339392">
        <ele>1068.6400000000001</ele>
        <time>2014-09-04T10:21:49Z</time>
      </trkpt>
      <trkpt lat="39.841964542865753" lon="2.92414577677846">
        <ele>1067.6800000000001</ele>
        <time>2014-09-04T10:21:54Z</time>
      </trkpt>
      <trkpt lat="39.841949623078108" lon="2.924111662432551">
        <ele>1069.5999999999999</ele>
        <time>2014-09-04T10:21:57Z</time>
      </trkpt>
      <trkpt lat="39.841944929212332" lon="2.924100765958428">
        <ele>1069.1199999999999</ele>
        <time>2014-09-04T10:21:58Z</time>
      </trkpt>
      <trkpt lat="39.841940822079778" lon="2.92407494969666">
        <ele>1066.72</ele>
        <time>2014-09-04T10:22:00Z</time>
      </trkpt>
      <trkpt lat="39.841937888413668" lon="2.924058437347412">
        <ele>1067.2</ele>
        <time>2014-09-04T10:22:02Z</time>
      </trkpt>
      <trkpt lat="39.841921459883451" lon="2.924017449840903">
        <ele>1068.1600000000001</ele>
        <time>2014-09-04T10:22:06Z</time>
      </trkpt>
      <trkpt lat="39.841922968626022" lon="2.92399188503623">
        <ele>1066.24</ele>
        <time>2014-09-04T10:22:08Z</time>
      </trkpt>
      <trkpt lat="39.841922884806991" lon="2.923981742933393">
        <ele>1067.6800000000001</ele>
        <time>2014-09-04T10:22:09Z</time>
      </trkpt>
      <trkpt lat="39.841917604207993" lon="2.923957016319037">
        <ele>1067.2</ele>
        <time>2014-09-04T10:22:11Z</time>
      </trkpt>
      <trkpt lat="39.84190134331584" lon="2.923923321068287">
        <ele>1067.2</ele>
        <time>2014-09-04T10:22:15Z</time>
      </trkpt>
      <trkpt lat="39.841897822916508" lon="2.923909490928054">
        <ele>1061.4300000000001</ele>
        <time>2014-09-04T10:22:17Z</time>
      </trkpt>
      <trkpt lat="39.841892374679446" lon="2.923901025205851">
        <ele>1068.6400000000001</ele>
        <time>2014-09-04T10:22:18Z</time>
      </trkpt>
      <trkpt lat="39.841872844845057" lon="2.923884764313698">
        <ele>1064.3199999999999</ele>
        <time>2014-09-04T10:22:20Z</time>
      </trkpt>
      <trkpt lat="39.841854153200984" lon="2.923865066841245">
        <ele>1067.6800000000001</ele>
        <time>2014-09-04T10:22:22Z</time>
      </trkpt>
      <trkpt lat="39.841831522062421" lon="2.923843190073967">
        <ele>1065.28</ele>
        <time>2014-09-04T10:22:24Z</time>
      </trkpt>
      <trkpt lat="39.84176991507411" lon="2.923773117363453">
        <ele>1063.8399999999999</ele>
        <time>2014-09-04T10:22:34Z</time>
      </trkpt>
      <trkpt lat="39.841742338612676" lon="2.923740260303021">
        <ele>1065.28</ele>
        <time>2014-09-04T10:22:43Z</time>
      </trkpt>
      <trkpt lat="39.84169171191752" lon="2.923704637214541">
        <ele>1063.8399999999999</ele>
        <time>2014-09-04T10:22:54Z</time>
      </trkpt>
      <trkpt lat="39.841689364984632" lon="2.923693237826228">
        <ele>1062.8699999999999</ele>
        <time>2014-09-04T10:22:55Z</time>
      </trkpt>
      <trkpt lat="39.841655418276787" lon="2.923634480684996">
        <ele>1063.8399999999999</ele>
        <time>2014-09-04T10:23:00Z</time>
      </trkpt>
      <trkpt lat="39.841636810451746" lon="2.923603719100356">
        <ele>1063.3599999999999</ele>
        <time>2014-09-04T10:23:03Z</time>
      </trkpt>
      <trkpt lat="39.84162138774991" lon="2.923580752685666">
        <ele>1063.3599999999999</ele>
        <time>2014-09-04T10:23:06Z</time>
      </trkpt>
      <trkpt lat="39.841585764661431" lon="2.923526270315051">
        <ele>1062.3900000000001</ele>
        <time>2014-09-04T10:23:11Z</time>
      </trkpt>
      <trkpt lat="39.841531198471785" lon="2.923497604206204">
        <ele>1062.8699999999999</ele>
        <time>2014-09-04T10:23:15Z</time>
      </trkpt>
      <trkpt lat="39.841494569554925" lon="2.923491233959794">
        <ele>1062.3900000000001</ele>
        <time>2014-09-04T10:23:20Z</time>
      </trkpt>
      <trkpt lat="39.841446960344911" lon="2.923490479588509">
        <ele>1058.0699999999999</ele>
        <time>2014-09-04T10:23:26Z</time>
      </trkpt>
      <trkpt lat="39.841446541249752" lon="2.923489725217223">
        <ele>1060.95</ele>
        <time>2014-09-04T10:23:27Z</time>
      </trkpt>
      <trkpt lat="39.841446541249752" lon="2.923489725217223">
        <ele>1061.9100000000001</ele>
        <time>2014-09-04T10:23:32Z</time>
      </trkpt>
      <trkpt lat="39.841446541249752" lon="2.923489725217223">
        <ele>1061.9100000000001</ele>
        <time>2014-09-04T10:23:37Z</time>
      </trkpt>
      <trkpt lat="39.841401278972626" lon="2.92348762974143">
        <ele>1061.4300000000001</ele>
        <time>2014-09-04T10:23:40Z</time>
      </trkpt>
      <trkpt lat="39.841370098292828" lon="2.923463741317391">
        <ele>1061.4300000000001</ele>
        <time>2014-09-04T10:23:52Z</time>
      </trkpt>
      <trkpt lat="39.841337408870459" lon="2.923460137099028">
        <ele>1062.8699999999999</ele>
        <time>2014-09-04T10:24:07Z</time>
      </trkpt>
      <trkpt lat="39.84131745994091" lon="2.923461813479662">
        <ele>1061.9100000000001</ele>
        <time>2014-09-04T10:24:08Z</time>
      </trkpt>
      <trkpt lat="39.84121285378933" lon="2.923403894528747">
        <ele>1061.4300000000001</ele>
        <time>2014-09-04T10:24:17Z</time>
      </trkpt>
      <trkpt lat="39.841146133840084" lon="2.923379922285676">
        <ele>1061.4300000000001</ele>
        <time>2014-09-04T10:24:23Z</time>
      </trkpt>
      <trkpt lat="39.841109504923224" lon="2.923371037468314">
        <ele>1061.4300000000001</ele>
        <time>2014-09-04T10:24:28Z</time>
      </trkpt>
      <trkpt lat="39.841079581528902" lon="2.923334073275328">
        <ele>1060.95</ele>
        <time>2014-09-04T10:24:32Z</time>
      </trkpt>
      <trkpt lat="39.841038677841425" lon="2.923308340832591">
        <ele>1060.95</ele>
        <time>2014-09-04T10:24:39Z</time>
      </trkpt>
      <trkpt lat="39.841009508818388" lon="2.923287218436599">
        <ele>1060.47</ele>
        <time>2014-09-04T10:24:42Z</time>
      </trkpt>
      <trkpt lat="39.840972628444433" lon="2.923255199566484">
        <ele>1060.47</ele>
        <time>2014-09-04T10:24:51Z</time>
      </trkpt>
      <trkpt lat="39.840924683958292" lon="2.923237094655633">
        <ele>1060.47</ele>
        <time>2014-09-04T10:24:55Z</time>
      </trkpt>
      <trkpt lat="39.840883193537593" lon="2.923228042200208">
        <ele>1061.4300000000001</ele>
        <time>2014-09-04T10:25:00Z</time>
      </trkpt>
      <trkpt lat="39.840871542692184" lon="2.923207757994533">
        <ele>1061.4300000000001</ele>
        <time>2014-09-04T10:25:04Z</time>
      </trkpt>
      <trkpt lat="39.840849498286843" lon="2.923191748559475">
        <ele>1062.3900000000001</ele>
        <time>2014-09-04T10:25:06Z</time>
      </trkpt>
      <trkpt lat="39.840852599591017" lon="2.923187976703048">
        <ele>1061.9100000000001</ele>
        <time>2014-09-04T10:25:11Z</time>
      </trkpt>
      <trkpt lat="39.84081513248384" lon="2.923162328079343">
        <ele>1061.4300000000001</ele>
        <time>2014-09-04T10:25:15Z</time>
      </trkpt>
      <trkpt lat="39.840768193826079" lon="2.92314313352108">
        <ele>1061.4300000000001</ele>
        <time>2014-09-04T10:25:21Z</time>
      </trkpt>
      <trkpt lat="39.840744640678167" lon="2.923122849315405">
        <ele>1060.95</ele>
        <time>2014-09-04T10:25:28Z</time>
      </trkpt>
      <trkpt lat="39.840728128328919" lon="2.923114132136107">
        <ele>1060.47</ele>
        <time>2014-09-04T10:25:31Z</time>
      </trkpt>
      <trkpt lat="39.840688146650791" lon="2.923091920092702">
        <ele>1060.95</ele>
        <time>2014-09-04T10:25:41Z</time>
      </trkpt>
      <trkpt lat="39.84064313583076" lon="2.923084879294038">
        <ele>1059.99</ele>
        <time>2014-09-04T10:25:54Z</time>
      </trkpt>
      <trkpt lat="39.840633496642113" lon="2.923079179599881">
        <ele>1060.47</ele>
        <time>2014-09-04T10:26:06Z</time>
      </trkpt>
      <trkpt lat="39.840607428923249" lon="2.923068199306727">
        <ele>1061.4300000000001</ele>
        <time>2014-09-04T10:26:11Z</time>
      </trkpt>
      <trkpt lat="39.840579098090529" lon="2.923061409965158">
        <ele>1060.47</ele>
        <time>2014-09-04T10:26:13Z</time>
      </trkpt>
      <trkpt lat="39.840566189959645" lon="2.923059482127428">
        <ele>1060.95</ele>
        <time>2014-09-04T10:26:15Z</time>
      </trkpt>
      <trkpt lat="39.840482622385025" lon="2.923084795475006">
        <ele>1061.4300000000001</ele>
        <time>2014-09-04T10:26:27Z</time>
      </trkpt>
      <trkpt lat="39.840456638485193" lon="2.923062834888697">
        <ele>1061.9100000000001</ele>
        <time>2014-09-04T10:26:31Z</time>
      </trkpt>
      <trkpt lat="39.840419674292207" lon="2.92305126786232">
        <ele>1062.3900000000001</ele>
        <time>2014-09-04T10:26:36Z</time>
      </trkpt>
      <trkpt lat="39.840346751734614" lon="2.923043221235275">
        <ele>1061.9100000000001</ele>
        <time>2014-09-04T10:26:50Z</time>
      </trkpt>
      <trkpt lat="39.840297717601061" lon="2.923026205971837">
        <ele>1061.9100000000001</ele>
        <time>2014-09-04T10:27:00Z</time>
      </trkpt>
      <trkpt lat="39.840234518051147" lon="2.922969292849302">
        <ele>1063.8399999999999</ele>
        <time>2014-09-04T10:27:12Z</time>
      </trkpt>
      <trkpt lat="39.840215742588043" lon="2.922964012250304">
        <ele>1063.8399999999999</ele>
        <time>2014-09-04T10:27:16Z</time>
      </trkpt>
      <trkpt lat="39.840163020417094" lon="2.92287684045732">
        <ele>1064.8</ele>
        <time>2014-09-04T10:27:22Z</time>
      </trkpt>
      <trkpt lat="39.840136365965009" lon="2.922812467440963">
        <ele>1069.1199999999999</ele>
        <time>2014-09-04T10:27:31Z</time>
      </trkpt>
      <trkpt lat="39.84013544395566" lon="2.922814814373851">
        <ele>1066.24</ele>
        <time>2014-09-04T10:27:34Z</time>
      </trkpt>
      <trkpt lat="39.840133935213089" lon="2.92281280271709">
        <ele>1067.2</ele>
        <time>2014-09-04T10:27:41Z</time>
      </trkpt>
      <trkpt lat="39.840083559975028" lon="2.922728061676025">
        <ele>1069.1199999999999</ele>
        <time>2014-09-04T10:27:48Z</time>
      </trkpt>
      <trkpt lat="39.840062856674194" lon="2.922695456072688">
        <ele>1068.6400000000001</ele>
        <time>2014-09-04T10:27:51Z</time>
      </trkpt>
      <trkpt lat="39.839983144775033" lon="2.922606021165848">
        <ele>1070.5699999999999</ele>
        <time>2014-09-04T10:28:03Z</time>
      </trkpt>
      <trkpt lat="39.839983144775033" lon="2.922606021165848">
        <ele>1071.05</ele>
        <time>2014-09-04T10:28:07Z</time>
      </trkpt>
      <trkpt lat="39.839945677667856" lon="2.922573667019606">
        <ele>1071.53</ele>
        <time>2014-09-04T10:28:11Z</time>
      </trkpt>
      <trkpt lat="39.839908881112933" lon="2.922514071688056">
        <ele>1072.49</ele>
        <time>2014-09-04T10:28:18Z</time>
      </trkpt>
      <trkpt lat="39.839883903041482" lon="2.922481801360846">
        <ele>1073.9300000000001</ele>
        <time>2014-09-04T10:28:25Z</time>
      </trkpt>
      <trkpt lat="39.839874347671866" lon="2.922475598752499">
        <ele>1074.4100000000001</ele>
        <time>2014-09-04T10:28:27Z</time>
      </trkpt>
      <trkpt lat="39.839807124808431" lon="2.922315336763859">
        <ele>1075.8499999999999</ele>
        <time>2014-09-04T10:28:41Z</time>
      </trkpt>
      <trkpt lat="39.839792372658849" lon="2.922292957082391">
        <ele>1076.8099999999999</ele>
        <time>2014-09-04T10:28:43Z</time>
      </trkpt>
      <trkpt lat="39.839736297726631" lon="2.922252304852009">
        <ele>1077.78</ele>
        <time>2014-09-04T10:28:49Z</time>
      </trkpt>
      <trkpt lat="39.839657004922628" lon="2.922119200229645">
        <ele>1077.78</ele>
        <time>2014-09-04T10:29:04Z</time>
      </trkpt>
      <trkpt lat="39.839657004922628" lon="2.922119200229645">
        <ele>1077.78</ele>
        <time>2014-09-04T10:29:05Z</time>
      </trkpt>
      <trkpt lat="39.839648623019457" lon="2.922097574919462">
        <ele>1078.74</ele>
        <time>2014-09-04T10:29:08Z</time>
      </trkpt>
      <trkpt lat="39.839621214196086" lon="2.922064634039998">
        <ele>1077.78</ele>
        <time>2014-09-04T10:29:21Z</time>
      </trkpt>
      <trkpt lat="39.839620124548674" lon="2.922059185802937">
        <ele>1077.78</ele>
        <time>2014-09-04T10:29:40Z</time>
      </trkpt>
      <trkpt lat="39.839610317721963" lon="2.921987939625979">
        <ele>1076.8099999999999</ele>
        <time>2014-09-04T10:29:49Z</time>
      </trkpt>
      <trkpt lat="39.83960235491395" lon="2.921961871907115">
        <ele>1076.3299999999999</ele>
        <time>2014-09-04T10:29:51Z</time>
      </trkpt>
      <trkpt lat="39.839600594714284" lon="2.921910909935832">
        <ele>1074.8900000000001</ele>
        <time>2014-09-04T10:30:01Z</time>
      </trkpt>
      <trkpt lat="39.839601013809443" lon="2.921863216906786">
        <ele>1074.4100000000001</ele>
        <time>2014-09-04T10:30:06Z</time>
      </trkpt>
      <trkpt lat="39.839590033516288" lon="2.921844106167555">
        <ele>1072.97</ele>
        <time>2014-09-04T10:30:09Z</time>
      </trkpt>
      <trkpt lat="39.83959405682981" lon="2.921848967671394">
        <ele>1073.45</ele>
        <time>2014-09-04T10:30:18Z</time>
      </trkpt>
      <trkpt lat="39.839586429297924" lon="2.921839915215969">
        <ele>1072.01</ele>
        <time>2014-09-04T10:30:28Z</time>
      </trkpt>
      <trkpt lat="39.839553404599428" lon="2.921834131702781">
        <ele>1071.05</ele>
        <time>2014-09-04T10:30:37Z</time>
      </trkpt>
      <trkpt lat="39.839553404599428" lon="2.921834131702781">
        <ele>1071.53</ele>
        <time>2014-09-04T10:30:39Z</time>
      </trkpt>
      <trkpt lat="39.839566396549344" lon="2.921802196651697">
        <ele>1071.05</ele>
        <time>2014-09-04T10:30:48Z</time>
      </trkpt>
      <trkpt lat="39.839558433741331" lon="2.921793563291431">
        <ele>1070.5699999999999</ele>
        <time>2014-09-04T10:30:58Z</time>
      </trkpt>
      <trkpt lat="39.839558433741331" lon="2.921793563291431">
        <ele>1071.53</ele>
        <time>2014-09-04T10:31:05Z</time>
      </trkpt>
      <trkpt lat="39.839561283588409" lon="2.921783002093434">
        <ele>1071.53</ele>
        <time>2014-09-04T10:31:21Z</time>
      </trkpt>
      <trkpt lat="39.839575449004769" lon="2.921800687909126">
        <ele>1070.5699999999999</ele>
        <time>2014-09-04T10:31:31Z</time>
      </trkpt>
      <trkpt lat="39.839575449004769" lon="2.921800687909126">
        <ele>1072.01</ele>
        <time>2014-09-04T10:31:45Z</time>
      </trkpt>
      <trkpt lat="39.839575449004769" lon="2.921800687909126">
        <ele>1072.01</ele>
        <time>2014-09-04T10:31:50Z</time>
      </trkpt>
      <trkpt lat="39.839563714340329" lon="2.921742014586926">
        <ele>1071.05</ele>
        <time>2014-09-04T10:32:01Z</time>
      </trkpt>
      <trkpt lat="39.839563714340329" lon="2.921742014586926">
        <ele>1070.5699999999999</ele>
        <time>2014-09-04T10:32:14Z</time>
      </trkpt>
      <trkpt lat="39.839540747925639" lon="2.921760454773903">
        <ele>1072.01</ele>
        <time>2014-09-04T10:32:23Z</time>
      </trkpt>
      <trkpt lat="39.839542675763369" lon="2.9217778891325">
        <ele>1073.45</ele>
        <time>2014-09-04T10:32:35Z</time>
      </trkpt>
      <trkpt lat="39.839546363800764" lon="2.921787276864052">
        <ele>1075.3699999999999</ele>
        <time>2014-09-04T10:32:53Z</time>
      </trkpt>
      <trkpt lat="39.839546950533986" lon="2.921793144196272">
        <ele>1075.3699999999999</ele>
        <time>2014-09-04T10:33:03Z</time>
      </trkpt>
      <trkpt lat="39.839546950533986" lon="2.921793144196272">
        <ele>1074.8900000000001</ele>
        <time>2014-09-04T10:33:23Z</time>
      </trkpt>
      <trkpt lat="39.839547285810113" lon="2.921794485300779">
        <ele>1073.45</ele>
        <time>2014-09-04T10:33:49Z</time>
      </trkpt>
      <trkpt lat="39.839547537267208" lon="2.921799598261714">
        <ele>1073.9300000000001</ele>
        <time>2014-09-04T10:34:06Z</time>
      </trkpt>
      <trkpt lat="39.839543094858527" lon="2.921861708164215">
        <ele>1074.4100000000001</ele>
        <time>2014-09-04T10:34:18Z</time>
      </trkpt>
      <trkpt lat="39.839546447619796" lon="2.921883417293429">
        <ele>1071.05</ele>
        <time>2014-09-04T10:34:20Z</time>
      </trkpt>
      <trkpt lat="39.839544938877225" lon="2.921890458092094">
        <ele>1075.8499999999999</ele>
        <time>2014-09-04T10:34:21Z</time>
      </trkpt>
      <trkpt lat="39.839528426527977" lon="2.921907808631659">
        <ele>1076.8099999999999</ele>
        <time>2014-09-04T10:34:26Z</time>
      </trkpt>
      <trkpt lat="39.839528426527977" lon="2.921907808631659">
        <ele>1076.8099999999999</ele>
        <time>2014-09-04T10:34:30Z</time>
      </trkpt>
      <trkpt lat="39.839513339102268" lon="2.921932283788919">
        <ele>1070.5699999999999</ele>
        <time>2014-09-04T10:34:42Z</time>
      </trkpt>
      <trkpt lat="39.839513339102268" lon="2.921932283788919">
        <ele>1080.1800000000001</ele>
        <time>2014-09-04T10:34:43Z</time>
      </trkpt>
      <trkpt lat="39.839515350759029" lon="2.921997662633658">
        <ele>1073.9300000000001</ele>
        <time>2014-09-04T10:34:56Z</time>
      </trkpt>
      <trkpt lat="39.839510153979063" lon="2.922005709260702">
        <ele>1075.8499999999999</ele>
        <time>2014-09-04T10:34:58Z</time>
      </trkpt>
      <trkpt lat="39.8394909594208" lon="2.922021048143506">
        <ele>1075.3699999999999</ele>
        <time>2014-09-04T10:35:01Z</time>
      </trkpt>
      <trkpt lat="39.839461203664541" lon="2.922041499987245">
        <ele>1074.4100000000001</ele>
        <time>2014-09-04T10:35:07Z</time>
      </trkpt>
      <trkpt lat="39.839383754879236" lon="2.922084834426642">
        <ele>1071.53</ele>
        <time>2014-09-04T10:35:16Z</time>
      </trkpt>
      <trkpt lat="39.839361878111959" lon="2.922093383967876">
        <ele>1071.53</ele>
        <time>2014-09-04T10:35:19Z</time>
      </trkpt>
      <trkpt lat="39.839301025494933" lon="2.922102268785238">
        <ele>1067.6800000000001</ele>
        <time>2014-09-04T10:35:28Z</time>
      </trkpt>
      <trkpt lat="39.839293230324984" lon="2.922103861346841">
        <ele>1067.6800000000001</ele>
        <time>2014-09-04T10:35:29Z</time>
      </trkpt>
      <trkpt lat="39.839226845651865" lon="2.922089025378227">
        <ele>1067.2</ele>
        <time>2014-09-04T10:35:40Z</time>
      </trkpt>
      <trkpt lat="39.839191976934671" lon="2.922100340947509">
        <ele>1064.3199999999999</ele>
        <time>2014-09-04T10:35:46Z</time>
      </trkpt>
      <trkpt lat="39.839186277240515" lon="2.922101598232985">
        <ele>1063.8399999999999</ele>
        <time>2014-09-04T10:35:50Z</time>
      </trkpt>
      <trkpt lat="39.8391576949507" lon="2.922106124460697">
        <ele>1062.8699999999999</ele>
        <time>2014-09-04T10:35:54Z</time>
      </trkpt>
      <trkpt lat="39.839131459593773" lon="2.92209891602397">
        <ele>1062.3900000000001</ele>
        <time>2014-09-04T10:35:58Z</time>
      </trkpt>
      <trkpt lat="39.839106732979417" lon="2.922106040641666">
        <ele>1060.95</ele>
        <time>2014-09-04T10:36:00Z</time>
      </trkpt>
      <trkpt lat="39.839079240337014" lon="2.922107800841332">
        <ele>1060.95</ele>
        <time>2014-09-04T10:36:03Z</time>
      </trkpt>
      <trkpt lat="39.839034983888268" lon="2.922120960429311">
        <ele>1059.03</ele>
        <time>2014-09-04T10:36:07Z</time>
      </trkpt>
      <trkpt lat="39.838954098522663" lon="2.922141747549176">
        <ele>1056.6300000000001</ele>
        <time>2014-09-04T10:36:18Z</time>
      </trkpt>
      <trkpt lat="39.83891487121582" lon="2.922158595174551">
        <ele>1055.1800000000001</ele>
        <time>2014-09-04T10:36:24Z</time>
      </trkpt>
      <trkpt lat="39.838846223428845" lon="2.922136634588242">
        <ele>1053.74</ele>
        <time>2014-09-04T10:36:30Z</time>
      </trkpt>
      <trkpt lat="39.838817222043872" lon="2.922140909358859">
        <ele>1052.78</ele>
        <time>2014-09-04T10:36:33Z</time>
      </trkpt>
      <trkpt lat="39.838782604783773" lon="2.922139065340161">
        <ele>1050.8599999999999</ele>
        <time>2014-09-04T10:36:39Z</time>
      </trkpt>
      <trkpt lat="39.838736671954393" lon="2.922181896865368">
        <ele>1050.8599999999999</ele>
        <time>2014-09-04T10:36:43Z</time>
      </trkpt>
      <trkpt lat="39.838733654469252" lon="2.922146692872047">
        <ele>1050.8599999999999</ele>
        <time>2014-09-04T10:36:52Z</time>
      </trkpt>
      <trkpt lat="39.83871940523386" lon="2.922131773084402">
        <ele>1049.9000000000001</ele>
        <time>2014-09-04T10:36:55Z</time>
      </trkpt>
      <trkpt lat="39.838700126856565" lon="2.922030771151185">
        <ele>1047.97</ele>
        <time>2014-09-04T10:37:02Z</time>
      </trkpt>
      <trkpt lat="39.838700462132692" lon="2.922019371762872">
        <ele>1048.9400000000001</ele>
        <time>2014-09-04T10:37:03Z</time>
      </trkpt>
      <trkpt lat="39.838701132684946" lon="2.921980647370219">
        <ele>1047.49</ele>
        <time>2014-09-04T10:37:07Z</time>
      </trkpt>
      <trkpt lat="39.838686129078269" lon="2.921947706490755">
        <ele>1047.49</ele>
        <time>2014-09-04T10:37:10Z</time>
      </trkpt>
      <trkpt lat="39.838687721639872" lon="2.921918453648686">
        <ele>1046.53</ele>
        <time>2014-09-04T10:37:13Z</time>
      </trkpt>
      <trkpt lat="39.838693756610155" lon="2.921857014298439">
        <ele>1046.05</ele>
        <time>2014-09-04T10:37:18Z</time>
      </trkpt>
      <trkpt lat="39.838675316423178" lon="2.921817870810628">
        <ele>1045.0899999999999</ele>
        <time>2014-09-04T10:37:22Z</time>
      </trkpt>
      <trkpt lat="39.838672718033195" lon="2.92177252471447">
        <ele>1043.1700000000001</ele>
        <time>2014-09-04T10:37:27Z</time>
      </trkpt>
      <trkpt lat="39.83867003582418" lon="2.921764142811298">
        <ele>1043.1700000000001</ele>
        <time>2014-09-04T10:37:28Z</time>
      </trkpt>
      <trkpt lat="39.838660480454564" lon="2.921708151698113">
        <ele>1040.28</ele>
        <time>2014-09-04T10:37:34Z</time>
      </trkpt>
      <trkpt lat="39.838633574545383" lon="2.921676803380251">
        <ele>1040.76</ele>
        <time>2014-09-04T10:37:38Z</time>
      </trkpt>
      <trkpt lat="39.83859920874238" lon="2.921635983511806">
        <ele>1041.25</ele>
        <time>2014-09-04T10:37:42Z</time>
      </trkpt>
      <trkpt lat="39.838584205135703" lon="2.921618800610304">
        <ele>1039.3199999999999</ele>
        <time>2014-09-04T10:37:44Z</time>
      </trkpt>
      <trkpt lat="39.838569285348058" lon="2.921599019318819">
        <ele>1039.8</ele>
        <time>2014-09-04T10:37:46Z</time>
      </trkpt>
      <trkpt lat="39.838559227064252" lon="2.921576807275415">
        <ele>1039.3199999999999</ele>
        <time>2014-09-04T10:37:48Z</time>
      </trkpt>
      <trkpt lat="39.838547995314002" lon="2.92155702598393">
        <ele>1038.3599999999999</ele>
        <time>2014-09-04T10:37:50Z</time>
      </trkpt>
      <trkpt lat="39.838543049991131" lon="2.921544788405299">
        <ele>1038.3599999999999</ele>
        <time>2014-09-04T10:37:51Z</time>
      </trkpt>
      <trkpt lat="39.838538691401482" lon="2.921509332954884">
        <ele>1038.8399999999999</ele>
        <time>2014-09-04T10:37:54Z</time>
      </trkpt>
      <trkpt lat="39.838518407195807" lon="2.921477146446705">
        <ele>1036.9200000000001</ele>
        <time>2014-09-04T10:37:59Z</time>
      </trkpt>
      <trkpt lat="39.838443640619516" lon="2.921426184475422">
        <ele>1035.48</ele>
        <time>2014-09-04T10:38:08Z</time>
      </trkpt>
      <trkpt lat="39.838422015309334" lon="2.921412941068411">
        <ele>1033.55</ele>
        <time>2014-09-04T10:38:10Z</time>
      </trkpt>
      <trkpt lat="39.838406760245562" lon="2.921388382092118">
        <ele>1032.5899999999999</ele>
        <time>2014-09-04T10:38:12Z</time>
      </trkpt>
      <trkpt lat="39.83840181492269" lon="2.921365415677428">
        <ele>1033.55</ele>
        <time>2014-09-04T10:38:14Z</time>
      </trkpt>
      <trkpt lat="39.838382620364428" lon="2.9212960973382">
        <ele>1033.55</ele>
        <time>2014-09-04T10:38:20Z</time>
      </trkpt>
      <trkpt lat="39.838370298966765" lon="2.921269359067082">
        <ele>1031.1500000000001</ele>
        <time>2014-09-04T10:38:23Z</time>
      </trkpt>
      <trkpt lat="39.838348673656583" lon="2.921239268034697">
        <ele>1030.6700000000001</ele>
        <time>2014-09-04T10:38:26Z</time>
      </trkpt>
      <trkpt lat="39.838303830474615" lon="2.921154359355569">
        <ele>1027.3099999999999</ele>
        <time>2014-09-04T10:38:35Z</time>
      </trkpt>
      <trkpt lat="39.838295029476285" lon="2.921117814257741">
        <ele>1027.79</ele>
        <time>2014-09-04T10:38:39Z</time>
      </trkpt>
      <trkpt lat="39.838309530168772" lon="2.921067690476775">
        <ele>1027.3099999999999</ele>
        <time>2014-09-04T10:38:46Z</time>
      </trkpt>
      <trkpt lat="39.838316403329372" lon="2.921023266389966">
        <ele>1026.3399999999999</ele>
        <time>2014-09-04T10:38:57Z</time>
      </trkpt>
      <trkpt lat="39.838309278711677" lon="2.920982530340552">
        <ele>1026.3399999999999</ele>
        <time>2014-09-04T10:39:03Z</time>
      </trkpt>
      <trkpt lat="39.838294610381126" lon="2.920933999121189">
        <ele>1024.4200000000001</ele>
        <time>2014-09-04T10:39:08Z</time>
      </trkpt>
      <trkpt lat="39.838315397500992" lon="2.920898459851742">
        <ele>1023.46</ele>
        <time>2014-09-04T10:39:11Z</time>
      </trkpt>
      <trkpt lat="39.838312044739723" lon="2.920844899490476">
        <ele>1022.98</ele>
        <time>2014-09-04T10:39:22Z</time>
      </trkpt>
      <trkpt lat="39.838309613987803" lon="2.920845234766603">
        <ele>1017.21</ele>
        <time>2014-09-04T10:39:38Z</time>
      </trkpt>
      <trkpt lat="39.838312044739723" lon="2.920844899490476">
        <ele>1026.3399999999999</ele>
        <time>2014-09-04T10:39:39Z</time>
      </trkpt>
      <trkpt lat="39.838312044739723" lon="2.920844899490476">
        <ele>1021.54</ele>
        <time>2014-09-04T10:39:40Z</time>
      </trkpt>
      <trkpt lat="39.838314140215516" lon="2.920842384919524">
        <ele>1011.4400000000001</ele>
        <time>2014-09-04T10:39:41Z</time>
      </trkpt>
      <trkpt lat="39.838314140215516" lon="2.920842384919524">
        <ele>1023.46</ele>
        <time>2014-09-04T10:39:42Z</time>
      </trkpt>
      <trkpt lat="39.838314140215516" lon="2.920842384919524">
        <ele>1015.77</ele>
        <time>2014-09-04T10:39:44Z</time>
      </trkpt>
      <trkpt lat="39.838314140215516" lon="2.920842384919524">
        <ele>1027.3099999999999</ele>
        <time>2014-09-04T10:39:45Z</time>
      </trkpt>
      <trkpt lat="39.83831288293004" lon="2.920838361606002">
        <ele>1019.62</ele>
        <time>2014-09-04T10:39:46Z</time>
      </trkpt>
      <trkpt lat="39.838310535997152" lon="2.920830734074116">
        <ele>1022.98</ele>
        <time>2014-09-04T10:39:48Z</time>
      </trkpt>
      <trkpt lat="39.838310619816184" lon="2.920824699103832">
        <ele>1019.62</ele>
        <time>2014-09-04T10:39:49Z</time>
      </trkpt>
      <trkpt lat="39.83830064535141" lon="2.920817574486136">
        <ele>1018.65</ele>
        <time>2014-09-04T10:39:51Z</time>
      </trkpt>
      <trkpt lat="39.838298549875617" lon="2.920806594192982">
        <ele>1018.65</ele>
        <time>2014-09-04T10:40:04Z</time>
      </trkpt>
      <trkpt lat="39.838297879323363" lon="2.920799553394318">
        <ele>1013.85</ele>
        <time>2014-09-04T10:40:16Z</time>
      </trkpt>
      <trkpt lat="39.838294191285968" lon="2.920800726860762">
        <ele>1018.65</ele>
        <time>2014-09-04T10:40:17Z</time>
      </trkpt>
      <trkpt lat="39.838293353095651" lon="2.920797038823366">
        <ele>1015.77</ele>
        <time>2014-09-04T10:40:19Z</time>
      </trkpt>
      <trkpt lat="39.838293353095651" lon="2.920797038823366">
        <ele>1017.21</ele>
        <time>2014-09-04T10:40:20Z</time>
      </trkpt>
      <trkpt lat="39.838294107466936" lon="2.92078890837729">
        <ele>1014.33</ele>
        <time>2014-09-04T10:40:21Z</time>
      </trkpt>
      <trkpt lat="39.838295113295317" lon="2.920780694112182">
        <ele>1020.1</ele>
        <time>2014-09-04T10:40:22Z</time>
      </trkpt>
      <trkpt lat="39.838295951485634" lon="2.92077424004674">
        <ele>1015.29</ele>
        <time>2014-09-04T10:40:24Z</time>
      </trkpt>
      <trkpt lat="39.838298466056585" lon="2.920765019953251">
        <ele>1010.96</ele>
        <time>2014-09-04T10:40:26Z</time>
      </trkpt>
      <trkpt lat="39.838300812989473" lon="2.920756386592984">
        <ele>1020.1</ele>
        <time>2014-09-04T10:40:27Z</time>
      </trkpt>
      <trkpt lat="39.838301483541727" lon="2.920746663585305">
        <ele>1016.25</ele>
        <time>2014-09-04T10:40:28Z</time>
      </trkpt>
      <trkpt lat="39.838301399722695" lon="2.920740712434053">
        <ele>1010.48</ele>
        <time>2014-09-04T10:40:32Z</time>
      </trkpt>
      <trkpt lat="39.838299304246902" lon="2.920734845101833">
        <ele>1022.98</ele>
        <time>2014-09-04T10:40:33Z</time>
      </trkpt>
      <trkpt lat="39.83829720877111" lon="2.920728055760264">
        <ele>1014.8099999999999</ele>
        <time>2014-09-04T10:40:34Z</time>
      </trkpt>
      <trkpt lat="39.838299136608839" lon="2.920714896172285">
        <ele>1014.33</ele>
        <time>2014-09-04T10:40:38Z</time>
      </trkpt>
      <trkpt lat="39.838298046961427" lon="2.920643649995327">
        <ele>1012.89</ele>
        <time>2014-09-04T10:40:48Z</time>
      </trkpt>
      <trkpt lat="39.838307853788137" lon="2.920588748529553">
        <ele>1010.48</ele>
        <time>2014-09-04T10:40:58Z</time>
      </trkpt>
      <trkpt lat="39.838285474106669" lon="2.920537451282144">
        <ele>1007.12</ele>
        <time>2014-09-04T10:41:11Z</time>
      </trkpt>
      <trkpt lat="39.838266614824533" lon="2.920528315007687">
        <ele>1007.12</ele>
        <time>2014-09-04T10:41:16Z</time>
      </trkpt>
      <trkpt lat="39.838239960372448" lon="2.920482214540243">
        <ele>1005.6799999999999</ele>
        <time>2014-09-04T10:41:27Z</time>
      </trkpt>
      <trkpt lat="39.838240211829543" lon="2.920471569523215">
        <ele>1005.6799999999999</ele>
        <time>2014-09-04T10:41:35Z</time>
      </trkpt>
      <trkpt lat="39.838255802169442" lon="2.920410297811031">
        <ele>1002.3099999999999</ele>
        <time>2014-09-04T10:41:37Z</time>
      </trkpt>
      <trkpt lat="39.838299304246902" lon="2.920350199565291">
        <ele>1000.87</ele>
        <time>2014-09-04T10:41:48Z</time>
      </trkpt>
      <trkpt lat="39.838256305083632" lon="2.920283731073141">
        <ele>997.99000000000001</ele>
        <time>2014-09-04T10:41:59Z</time>
      </trkpt>
      <trkpt lat="39.838256305083632" lon="2.920242240652442">
        <ele>996.05999999999995</ele>
        <time>2014-09-04T10:42:09Z</time>
      </trkpt>
      <trkpt lat="39.838252449408174" lon="2.920237211510539">
        <ele>996.05999999999995</ele>
        <time>2014-09-04T10:42:23Z</time>
      </trkpt>
      <trkpt lat="39.838198805227876" lon="2.920150123536587">
        <ele>994.13999999999999</ele>
        <time>2014-09-04T10:42:35Z</time>
      </trkpt>
      <trkpt lat="39.838199391961098" lon="2.920044343918562">
        <ele>990.77999999999997</ele>
        <time>2014-09-04T10:42:46Z</time>
      </trkpt>
      <trkpt lat="39.838185478001833" lon="2.919934121891856">
        <ele>988.85000000000002</ele>
        <time>2014-09-04T10:42:56Z</time>
      </trkpt>
      <trkpt lat="39.838185645639896" lon="2.919923895969987">
        <ele>988.37</ele>
        <time>2014-09-04T10:42:57Z</time>
      </trkpt>
      <trkpt lat="39.83818044885993" lon="2.919873772189021">
        <ele>986.45000000000005</ele>
        <time>2014-09-04T10:43:04Z</time>
      </trkpt>
      <trkpt lat="39.838178940117359" lon="2.919842675328255">
        <ele>986.45000000000005</ele>
        <time>2014-09-04T10:43:08Z</time>
      </trkpt>
      <trkpt lat="39.838200900703669" lon="2.919755587354302">
        <ele>983.09000000000003</ele>
        <time>2014-09-04T10:43:20Z</time>
      </trkpt>
      <trkpt lat="39.838197464123368" lon="2.919740835204721">
        <ele>984.04999999999995</ele>
        <time>2014-09-04T10:43:22Z</time>
      </trkpt>
      <trkpt lat="39.838176844641566" lon="2.919697249308229">
        <ele>981.63999999999999</ele>
        <time>2014-09-04T10:43:26Z</time>
      </trkpt>
      <trkpt lat="39.838180281221867" lon="2.919655255973339">
        <ele>981.63999999999999</ele>
        <time>2014-09-04T10:43:30Z</time>
      </trkpt>
      <trkpt lat="39.838216407224536" lon="2.919588284566999">
        <ele>979.24000000000001</ele>
        <time>2014-09-04T10:43:40Z</time>
      </trkpt>
      <trkpt lat="39.838213389739394" lon="2.919559367001057">
        <ele>977.79999999999995</ele>
        <time>2014-09-04T10:43:43Z</time>
      </trkpt>
      <trkpt lat="39.838226046413183" lon="2.919530533254147">
        <ele>976.84000000000003</ele>
        <time>2014-09-04T10:43:49Z</time>
      </trkpt>
      <trkpt lat="39.838215820491314" lon="2.919504716992378">
        <ele>976.84000000000003</ele>
        <time>2014-09-04T10:43:56Z</time>
      </trkpt>
      <trkpt lat="39.838210791349411" lon="2.919424921274185">
        <ele>977.32000000000005</ele>
        <time>2014-09-04T10:44:09Z</time>
      </trkpt>
      <trkpt lat="39.838210791349411" lon="2.919424921274185">
        <ele>973.95000000000005</ele>
        <time>2014-09-04T10:44:20Z</time>
      </trkpt>
      <trkpt lat="39.838192267343402" lon="2.919373204931617">
        <ele>974.42999999999995</ele>
        <time>2014-09-04T10:44:27Z</time>
      </trkpt>
      <trkpt lat="39.838182041421533" lon="2.919335570186377">
        <ele>973.95000000000005</ele>
        <time>2014-09-04T10:44:32Z</time>
      </trkpt>
      <trkpt lat="39.838192602619529" lon="2.919304305687547">
        <ele>972.99000000000001</ele>
        <time>2014-09-04T10:44:34Z</time>
      </trkpt>
      <trkpt lat="39.83818824402988" lon="2.919281926006079">
        <ele>972.02999999999997</ele>
        <time>2014-09-04T10:44:36Z</time>
      </trkpt>
      <trkpt lat="39.838134264573455" lon="2.919241106137633">
        <ele>972.50999999999999</ele>
        <time>2014-09-04T10:44:44Z</time>
      </trkpt>
      <trkpt lat="39.838135857135057" lon="2.919218810275197">
        <ele>971.07000000000005</ele>
        <time>2014-09-04T10:44:46Z</time>
      </trkpt>
      <trkpt lat="39.83812621794641" lon="2.919193916022778">
        <ele>969.63</ele>
        <time>2014-09-04T10:44:52Z</time>
      </trkpt>
      <trkpt lat="39.838066790252924" lon="2.91915150359273">
        <ele>968.66999999999996</ele>
        <time>2014-09-04T10:45:03Z</time>
      </trkpt>
      <trkpt lat="39.838067963719368" lon="2.919129626825452">
        <ele>958.09000000000003</ele>
        <time>2014-09-04T10:45:10Z</time>
      </trkpt>
      <trkpt lat="39.838064946234226" lon="2.919126693159342">
        <ele>971.07000000000005</ele>
        <time>2014-09-04T10:45:11Z</time>
      </trkpt>
      <trkpt lat="39.838064359501004" lon="2.919123256579042">
        <ele>967.22000000000003</ele>
        <time>2014-09-04T10:45:12Z</time>
      </trkpt>
      <trkpt lat="39.838065952062607" lon="2.919118730351329">
        <ele>961.94000000000005</ele>
        <time>2014-09-04T10:45:23Z</time>
      </trkpt>
      <trkpt lat="39.838062096387148" lon="2.919119987636805">
        <ele>970.11000000000001</ele>
        <time>2014-09-04T10:45:24Z</time>
      </trkpt>
      <trkpt lat="39.838065365329385" lon="2.919103056192398">
        <ele>967.22000000000003</ele>
        <time>2014-09-04T10:45:25Z</time>
      </trkpt>
      <trkpt lat="39.838068466633558" lon="2.919099284335971">
        <ele>957.61000000000001</ele>
        <time>2014-09-04T10:45:28Z</time>
      </trkpt>
      <trkpt lat="39.838066287338734" lon="2.919097524136305">
        <ele>969.14999999999998</ele>
        <time>2014-09-04T10:45:29Z</time>
      </trkpt>
      <trkpt lat="39.83806511387229" lon="2.919099619612098">
        <ele>963.38</ele>
        <time>2014-09-04T10:45:30Z</time>
      </trkpt>
      <trkpt lat="39.838066287338734" lon="2.919097524136305">
        <ele>971.54999999999995</ele>
        <time>2014-09-04T10:45:32Z</time>
      </trkpt>
      <trkpt lat="39.838066287338734" lon="2.919097524136305">
        <ele>965.77999999999997</ele>
        <time>2014-09-04T10:45:33Z</time>
      </trkpt>
      <trkpt lat="39.838060587644577" lon="2.91909190826118">
        <ele>964.34000000000003</ele>
        <time>2014-09-04T10:45:35Z</time>
      </trkpt>
      <trkpt lat="39.83805782161653" lon="2.919090231880546">
        <ele>963.86000000000001</ele>
        <time>2014-09-04T10:45:56Z</time>
      </trkpt>
      <trkpt lat="39.83805782161653" lon="2.919090231880546">
        <ele>962.41999999999996</ele>
        <time>2014-09-04T10:45:59Z</time>
      </trkpt>
      <trkpt lat="39.838051535189152" lon="2.919074557721615">
        <ele>967.22000000000003</ele>
        <time>2014-09-04T10:46:02Z</time>
      </trkpt>
      <trkpt lat="39.838048685342073" lon="2.91905720718205">
        <ele>962.89999999999998</ele>
        <time>2014-09-04T10:46:04Z</time>
      </trkpt>
      <trkpt lat="39.838045835494995" lon="2.919040778651834">
        <ele>962.89999999999998</ele>
        <time>2014-09-04T10:46:12Z</time>
      </trkpt>
      <trkpt lat="39.838045835494995" lon="2.919040778651834">
        <ele>956.64999999999998</ele>
        <time>2014-09-04T10:46:14Z</time>
      </trkpt>
      <trkpt lat="39.838045835494995" lon="2.919040778651834">
        <ele>964.82000000000005</ele>
        <time>2014-09-04T10:46:15Z</time>
      </trkpt>
      <trkpt lat="39.838042901828885" lon="2.919029882177711">
        <ele>956.64999999999998</ele>
        <time>2014-09-04T10:46:17Z</time>
      </trkpt>
      <trkpt lat="39.838042901828885" lon="2.919029882177711">
        <ele>960.49000000000001</ele>
        <time>2014-09-04T10:46:18Z</time>
      </trkpt>
      <trkpt lat="39.838042901828885" lon="2.919029882177711">
        <ele>966.74000000000001</ele>
        <time>2014-09-04T10:46:19Z</time>
      </trkpt>
      <trkpt lat="39.838042901828885" lon="2.919029882177711">
        <ele>964.82000000000005</ele>
        <time>2014-09-04T10:46:20Z</time>
      </trkpt>
      <trkpt lat="39.838040135800838" lon="2.919030217453837">
        <ele>963.38</ele>
        <time>2014-09-04T10:46:21Z</time>
      </trkpt>
      <trkpt lat="39.838039800524712" lon="2.919022673740983">
        <ele>960.00999999999999</ele>
        <time>2014-09-04T10:46:25Z</time>
      </trkpt>
      <trkpt lat="39.838039800524712" lon="2.919022673740983">
        <ele>963.38</ele>
        <time>2014-09-04T10:46:29Z</time>
      </trkpt>
      <trkpt lat="39.838039800524712" lon="2.919022673740983">
        <ele>960.49000000000001</ele>
        <time>2014-09-04T10:46:30Z</time>
      </trkpt>
      <trkpt lat="39.838039800524712" lon="2.919022673740983">
        <ele>962.89999999999998</ele>
        <time>2014-09-04T10:46:31Z</time>
      </trkpt>
      <trkpt lat="39.838039800524712" lon="2.919022673740983">
        <ele>959.04999999999995</ele>
        <time>2014-09-04T10:46:32Z</time>
      </trkpt>
      <trkpt lat="39.838039800524712" lon="2.919022673740983">
        <ele>959.52999999999997</ele>
        <time>2014-09-04T10:46:33Z</time>
      </trkpt>
      <trkpt lat="39.838038040325046" lon="2.919022170826793">
        <ele>963.38</ele>
        <time>2014-09-04T10:46:36Z</time>
      </trkpt>
      <trkpt lat="39.838036447763443" lon="2.919021919369698">
        <ele>959.52999999999997</ele>
        <time>2014-09-04T10:46:37Z</time>
      </trkpt>
      <trkpt lat="39.83803435228765" lon="2.919017476961017">
        <ele>962.89999999999998</ele>
        <time>2014-09-04T10:46:38Z</time>
      </trkpt>
      <trkpt lat="39.83803435228765" lon="2.919017476961017">
        <ele>958.09000000000003</ele>
        <time>2014-09-04T10:46:40Z</time>
      </trkpt>
      <trkpt lat="39.83803435228765" lon="2.919017476961017">
        <ele>951.84000000000003</ele>
        <time>2014-09-04T10:46:43Z</time>
      </trkpt>
      <trkpt lat="39.83803435228765" lon="2.919017476961017">
        <ele>964.82000000000005</ele>
        <time>2014-09-04T10:46:44Z</time>
      </trkpt>
      <trkpt lat="39.838034519925714" lon="2.919014962390065">
        <ele>959.04999999999995</ele>
        <time>2014-09-04T10:46:45Z</time>
      </trkpt>
      <trkpt lat="39.838032089173794" lon="2.919017225503922">
        <ele>954.73000000000002</ele>
        <time>2014-09-04T10:46:51Z</time>
      </trkpt>
      <trkpt lat="39.838032089173794" lon="2.919017225503922">
        <ele>958.57000000000005</ele>
        <time>2014-09-04T10:46:52Z</time>
      </trkpt>
      <trkpt lat="39.838032089173794" lon="2.919017225503922">
        <ele>957.13</ele>
        <time>2014-09-04T10:46:55Z</time>
      </trkpt>
      <trkpt lat="39.838030748069286" lon="2.919011358171701">
        <ele>962.41999999999996</ele>
        <time>2014-09-04T10:46:57Z</time>
      </trkpt>
      <trkpt lat="39.838029155507684" lon="2.919008675962687">
        <ele>956.64999999999998</ele>
        <time>2014-09-04T10:46:58Z</time>
      </trkpt>
      <trkpt lat="39.838029155507684" lon="2.919008675962687">
        <ele>956.16999999999996</ele>
        <time>2014-09-04T10:47:08Z</time>
      </trkpt>
      <trkpt lat="39.838029155507684" lon="2.919008675962687">
        <ele>957.13</ele>
        <time>2014-09-04T10:47:21Z</time>
      </trkpt>
      <trkpt lat="39.838013062253594" lon="2.918996689841151">
        <ele>956.64999999999998</ele>
        <time>2014-09-04T10:48:00Z</time>
      </trkpt>
      <trkpt lat="39.838013062253594" lon="2.918996689841151">
        <ele>950.88</ele>
        <time>2014-09-04T10:48:14Z</time>
      </trkpt>
      <trkpt lat="39.838012810796499" lon="2.918988894671202">
        <ele>954.25</ele>
        <time>2014-09-04T10:48:15Z</time>
      </trkpt>
      <trkpt lat="39.838010212406516" lon="2.918970286846161">
        <ele>958.09000000000003</ele>
        <time>2014-09-04T10:48:16Z</time>
      </trkpt>
      <trkpt lat="39.838010715320706" lon="2.918958636000752">
        <ele>955.69000000000005</ele>
        <time>2014-09-04T10:48:17Z</time>
      </trkpt>
      <trkpt lat="39.838004680350423" lon="2.918939776718617">
        <ele>959.04999999999995</ele>
        <time>2014-09-04T10:48:28Z</time>
      </trkpt>
      <trkpt lat="39.838003255426884" lon="2.91893994435668">
        <ele>956.16999999999996</ele>
        <time>2014-09-04T10:48:30Z</time>
      </trkpt>
      <trkpt lat="39.838003255426884" lon="2.91893994435668">
        <ele>956.16999999999996</ele>
        <time>2014-09-04T10:48:57Z</time>
      </trkpt>
      <trkpt lat="39.8379972204566" lon="2.918919576331973">
        <ele>954.73000000000002</ele>
        <time>2014-09-04T10:49:08Z</time>
      </trkpt>
      <trkpt lat="39.837990682572126" lon="2.918857801705599">
        <ele>953.76999999999998</ele>
        <time>2014-09-04T10:49:15Z</time>
      </trkpt>
      <trkpt lat="39.837965033948421" lon="2.918830811977387">
        <ele>952.79999999999995</ele>
        <time>2014-09-04T10:49:24Z</time>
      </trkpt>
      <trkpt lat="39.837985234335065" lon="2.918826034292579">
        <ele>942.23000000000002</ele>
        <time>2014-09-04T10:49:30Z</time>
      </trkpt>
      <trkpt lat="39.837988838553429" lon="2.918819915503264">
        <ele>950.88</ele>
        <time>2014-09-04T10:49:31Z</time>
      </trkpt>
      <trkpt lat="39.837991269305348" lon="2.918823854997754">
        <ele>957.13</ele>
        <time>2014-09-04T10:49:32Z</time>
      </trkpt>
      <trkpt lat="39.837991269305348" lon="2.918823854997754">
        <ele>952.32000000000005</ele>
        <time>2014-09-04T10:49:33Z</time>
      </trkpt>
      <trkpt lat="39.837989928200841" lon="2.918828800320625">
        <ele>951.36000000000001</ele>
        <time>2014-09-04T10:49:35Z</time>
      </trkpt>
      <trkpt lat="39.83799328096211" lon="2.918778425082564">
        <ele>948.48000000000002</ele>
        <time>2014-09-04T10:49:46Z</time>
      </trkpt>
      <trkpt lat="39.837959166616201" lon="2.918766941875219">
        <ele>946.55999999999995</ele>
        <time>2014-09-04T10:49:54Z</time>
      </trkpt>
      <trkpt lat="39.837923794984818" lon="2.918759062886238">
        <ele>945.11000000000001</ele>
        <time>2014-09-04T10:50:07Z</time>
      </trkpt>
      <trkpt lat="39.83791021630168" lon="2.918768282979727">
        <ele>945.59000000000003</ele>
        <time>2014-09-04T10:50:11Z</time>
      </trkpt>
      <trkpt lat="39.837860008701682" lon="2.918749088421464">
        <ele>944.14999999999998</ele>
        <time>2014-09-04T10:50:21Z</time>
      </trkpt>
      <trkpt lat="39.837799491360784" lon="2.918725116178393">
        <ele>941.75</ele>
        <time>2014-09-04T10:50:32Z</time>
      </trkpt>
      <trkpt lat="39.837782392278314" lon="2.918711034581065">
        <ele>939.83000000000004</ele>
        <time>2014-09-04T10:50:37Z</time>
      </trkpt>
      <trkpt lat="39.837740315124393" lon="2.918654456734657">
        <ele>937.41999999999996</ele>
        <time>2014-09-04T10:50:48Z</time>
      </trkpt>
      <trkpt lat="39.837731095030904" lon="2.918631238862872">
        <ele>936.94000000000005</ele>
        <time>2014-09-04T10:50:52Z</time>
      </trkpt>
      <trkpt lat="39.837736124172807" lon="2.918545911088586">
        <ele>936.46000000000004</ele>
        <time>2014-09-04T10:50:58Z</time>
      </trkpt>
      <trkpt lat="39.837742242962122" lon="2.918529147282243">
        <ele>934.53999999999996</ele>
        <time>2014-09-04T10:51:00Z</time>
      </trkpt>
      <trkpt lat="39.837731681764126" lon="2.918500900268555">
        <ele>934.53999999999996</ele>
        <time>2014-09-04T10:51:12Z</time>
      </trkpt>
      <trkpt lat="39.837694885209203" lon="2.918451447039843">
        <ele>931.64999999999998</ele>
        <time>2014-09-04T10:51:25Z</time>
      </trkpt>
      <trkpt lat="39.837681725621223" lon="2.918415740132332">
        <ele>930.21000000000004</ele>
        <time>2014-09-04T10:51:34Z</time>
      </trkpt>
      <trkpt lat="39.837678456678987" lon="2.918415572494268">
        <ele>930.21000000000004</ele>
        <time>2014-09-04T10:51:42Z</time>
      </trkpt>
      <trkpt lat="39.837678456678987" lon="2.918415572494268">
        <ele>928.28999999999996</ele>
        <time>2014-09-04T10:51:43Z</time>
      </trkpt>
      <trkpt lat="39.837678456678987" lon="2.918415572494268">
        <ele>927.80999999999995</ele>
        <time>2014-09-04T10:51:49Z</time>
      </trkpt>
      <trkpt lat="39.837678456678987" lon="2.918415572494268">
        <ele>930.69000000000005</ele>
        <time>2014-09-04T10:51:51Z</time>
      </trkpt>
      <trkpt lat="39.837678456678987" lon="2.918415572494268">
        <ele>930.69000000000005</ele>
        <time>2014-09-04T10:51:52Z</time>
      </trkpt>
      <trkpt lat="39.837678456678987" lon="2.918415572494268">
        <ele>928.28999999999996</ele>
        <time>2014-09-04T10:51:53Z</time>
      </trkpt>
      <trkpt lat="39.837602097541094" lon="2.918385984376073">
        <ele>927.33000000000004</ele>
        <time>2014-09-04T10:52:06Z</time>
      </trkpt>
      <trkpt lat="39.837567899376154" lon="2.918358827009797">
        <ele>924.92999999999995</ele>
        <time>2014-09-04T10:52:20Z</time>
      </trkpt>
      <trkpt lat="39.837567899376154" lon="2.918358827009797">
        <ele>919.63999999999999</ele>
        <time>2014-09-04T10:52:27Z</time>
      </trkpt>
      <trkpt lat="39.837567899376154" lon="2.918358827009797">
        <ele>924.45000000000005</ele>
        <time>2014-09-04T10:52:28Z</time>
      </trkpt>
      <trkpt lat="39.837559433653951" lon="2.918344829231501">
        <ele>920.60000000000002</ele>
        <time>2014-09-04T10:52:40Z</time>
      </trkpt>
      <trkpt lat="39.83753009699285" lon="2.91830568574369">
        <ele>920.12</ele>
        <time>2014-09-04T10:52:44Z</time>
      </trkpt>
      <trkpt lat="39.837524313479662" lon="2.918292777612805">
        <ele>920.12</ele>
        <time>2014-09-04T10:52:47Z</time>
      </trkpt>
      <trkpt lat="39.837503107264638" lon="2.91827836073935">
        <ele>919.63999999999999</ele>
        <time>2014-09-04T10:52:50Z</time>
      </trkpt>
      <trkpt lat="39.837479470297694" lon="2.918250951915979">
        <ele>918.67999999999995</ele>
        <time>2014-09-04T10:52:57Z</time>
      </trkpt>
      <trkpt lat="39.837479470297694" lon="2.918250951915979">
        <ele>917.72000000000003</ele>
        <time>2014-09-04T10:53:00Z</time>
      </trkpt>
      <trkpt lat="39.837479470297694" lon="2.918250951915979">
        <ele>919.63999999999999</ele>
        <time>2014-09-04T10:53:08Z</time>
      </trkpt>
      <trkpt lat="39.837479470297694" lon="2.918250951915979">
        <ele>917.72000000000003</ele>
        <time>2014-09-04T10:53:09Z</time>
      </trkpt>
      <trkpt lat="39.837479470297694" lon="2.918250951915979">
        <ele>918.67999999999995</ele>
        <time>2014-09-04T10:53:11Z</time>
      </trkpt>
      <trkpt lat="39.837479470297694" lon="2.918250951915979">
        <ele>916.26999999999998</ele>
        <time>2014-09-04T10:53:12Z</time>
      </trkpt>
      <trkpt lat="39.837475279346108" lon="2.91824659332633">
        <ele>917.72000000000003</ele>
        <time>2014-09-04T10:53:20Z</time>
      </trkpt>
      <trkpt lat="39.837479470297694" lon="2.918250951915979">
        <ele>914.83000000000004</ele>
        <time>2014-09-04T10:53:22Z</time>
      </trkpt>
      <trkpt lat="39.837479470297694" lon="2.918250951915979">
        <ele>912.42999999999995</ele>
        <time>2014-09-04T10:53:25Z</time>
      </trkpt>
      <trkpt lat="39.83747829683125" lon="2.918246844783425">
        <ele>920.12</ele>
        <time>2014-09-04T10:53:26Z</time>
      </trkpt>
      <trkpt lat="39.83747829683125" lon="2.918247096240521">
        <ele>914.83000000000004</ele>
        <time>2014-09-04T10:53:27Z</time>
      </trkpt>
      <trkpt lat="39.837479470297694" lon="2.918250951915979">
        <ele>916.75</ele>
        <time>2014-09-04T10:53:31Z</time>
      </trkpt>
      <trkpt lat="39.837479470297694" lon="2.918250951915979">
        <ele>913.87</ele>
        <time>2014-09-04T10:53:32Z</time>
      </trkpt>
      <trkpt lat="39.837480643764138" lon="2.918195128440857">
        <ele>911.47000000000003</ele>
        <time>2014-09-04T10:53:44Z</time>
      </trkpt>
      <trkpt lat="39.837480979040265" lon="2.91817769408226">
        <ele>910.99000000000001</ele>
        <time>2014-09-04T10:53:47Z</time>
      </trkpt>
      <trkpt lat="39.837459605187178" lon="2.918132683262229">
        <ele>908.10000000000002</ele>
        <time>2014-09-04T10:53:53Z</time>
      </trkpt>
      <trkpt lat="39.837457928806543" lon="2.918135449290276">
        <ele>912.42999999999995</ele>
        <time>2014-09-04T10:53:54Z</time>
      </trkpt>
      <trkpt lat="39.837457090616226" lon="2.91812782175839">
        <ele>910.50999999999999</ele>
        <time>2014-09-04T10:53:55Z</time>
      </trkpt>
      <trkpt lat="39.837457090616226" lon="2.91812782175839">
        <ele>910.99000000000001</ele>
        <time>2014-09-04T10:54:19Z</time>
      </trkpt>
      <trkpt lat="39.83745482750237" lon="2.918126648291946">
        <ele>903.29999999999995</ele>
        <time>2014-09-04T10:54:30Z</time>
      </trkpt>
      <trkpt lat="39.837457844987512" lon="2.918124049901962">
        <ele>914.83000000000004</ele>
        <time>2014-09-04T10:54:31Z</time>
      </trkpt>
      <trkpt lat="39.837460359558463" lon="2.918109549209476">
        <ele>906.17999999999995</ele>
        <time>2014-09-04T10:54:32Z</time>
      </trkpt>
      <trkpt lat="39.837461784482002" lon="2.918106867000461">
        <ele>911.95000000000005</ele>
        <time>2014-09-04T10:54:33Z</time>
      </trkpt>
      <trkpt lat="39.837460359558463" lon="2.918109549209476">
        <ele>914.35000000000002</ele>
        <time>2014-09-04T10:54:34Z</time>
      </trkpt>
      <trkpt lat="39.83746119774878" lon="2.918106196448207">
        <ele>910.02999999999997</ele>
        <time>2014-09-04T10:54:35Z</time>
      </trkpt>
      <trkpt lat="39.837460359558463" lon="2.91809949092567">
        <ele>909.05999999999995</ele>
        <time>2014-09-04T10:54:36Z</time>
      </trkpt>
      <trkpt lat="39.837461700662971" lon="2.918080296367407">
        <ele>910.02999999999997</ele>
        <time>2014-09-04T10:54:38Z</time>
      </trkpt>
      <trkpt lat="39.837464718148112" lon="2.918077111244202">
        <ele>908.58000000000004</ele>
        <time>2014-09-04T10:54:39Z</time>
      </trkpt>
      <trkpt lat="39.837462455034256" lon="2.918060598894954">
        <ele>905.70000000000005</ele>
        <time>2014-09-04T10:54:44Z</time>
      </trkpt>
      <trkpt lat="39.837463460862637" lon="2.918056827038527">
        <ele>909.05999999999995</ele>
        <time>2014-09-04T10:54:45Z</time>
      </trkpt>
      <trkpt lat="39.837468322366476" lon="2.918050289154053">
        <ele>907.62</ele>
        <time>2014-09-04T10:54:46Z</time>
      </trkpt>
      <trkpt lat="39.837482152506709" lon="2.918023634701967">
        <ele>910.99000000000001</ele>
        <time>2014-09-04T10:54:49Z</time>
      </trkpt>
      <trkpt lat="39.837487265467644" lon="2.918011313304305">
        <ele>906.17999999999995</ele>
        <time>2014-09-04T10:54:51Z</time>
      </trkpt>
      <trkpt lat="39.837487265467644" lon="2.918011313304305">
        <ele>903.77999999999997</ele>
        <time>2014-09-04T10:54:54Z</time>
      </trkpt>
      <trkpt lat="39.837488690391183" lon="2.918006367981434">
        <ele>908.10000000000002</ele>
        <time>2014-09-04T10:54:55Z</time>
      </trkpt>
      <trkpt lat="39.837486762553453" lon="2.918000500649214">
        <ele>906.17999999999995</ele>
        <time>2014-09-04T10:54:56Z</time>
      </trkpt>
      <trkpt lat="39.837491707876325" lon="2.917990107089281">
        <ele>904.25999999999999</ele>
        <time>2014-09-04T10:54:58Z</time>
      </trkpt>
      <trkpt lat="39.837493048980832" lon="2.917980048805475">
        <ele>899.92999999999995</ele>
        <time>2014-09-04T10:54:59Z</time>
      </trkpt>
      <trkpt lat="39.837493048980832" lon="2.917980048805475">
        <ele>910.02999999999997</ele>
        <time>2014-09-04T10:55:00Z</time>
      </trkpt>
      <trkpt lat="39.837493048980832" lon="2.917980048805475">
        <ele>906.65999999999997</ele>
        <time>2014-09-04T10:55:01Z</time>
      </trkpt>
      <trkpt lat="39.837488774210215" lon="2.917963117361069">
        <ele>905.22000000000003</ele>
        <time>2014-09-04T10:55:03Z</time>
      </trkpt>
      <trkpt lat="39.837482823058963" lon="2.917959932237864">
        <ele>903.29999999999995</ele>
        <time>2014-09-04T10:55:07Z</time>
      </trkpt>
      <trkpt lat="39.837482823058963" lon="2.917959932237864">
        <ele>906.17999999999995</ele>
        <time>2014-09-04T10:55:08Z</time>
      </trkpt>
      <trkpt lat="39.837482487782836" lon="2.917947862297297">
        <ele>903.29999999999995</ele>
        <time>2014-09-04T10:55:12Z</time>
      </trkpt>
      <trkpt lat="39.837483577430248" lon="2.917937552556396">
        <ele>899.92999999999995</ele>
        <time>2014-09-04T10:55:14Z</time>
      </trkpt>
      <trkpt lat="39.837477961555123" lon="2.917933193966746">
        <ele>909.05999999999995</ele>
        <time>2014-09-04T10:55:15Z</time>
      </trkpt>
      <trkpt lat="39.837478129193187" lon="2.917935959994793">
        <ele>903.77999999999997</ele>
        <time>2014-09-04T10:55:16Z</time>
      </trkpt>
      <trkpt lat="39.837495815008879" lon="2.917884914204478">
        <ele>901.85000000000002</ele>
        <time>2014-09-04T10:55:23Z</time>
      </trkpt>
      <trkpt lat="39.837495731189847" lon="2.917880052700639">
        <ele>897.04999999999995</ele>
        <time>2014-09-04T10:55:24Z</time>
      </trkpt>
      <trkpt lat="39.837497575208545" lon="2.917875777930021">
        <ele>904.74000000000001</ele>
        <time>2014-09-04T10:55:25Z</time>
      </trkpt>
      <trkpt lat="39.837501347064972" lon="2.917878041043878">
        <ele>905.22000000000003</ele>
        <time>2014-09-04T10:55:27Z</time>
      </trkpt>
      <trkpt lat="39.837521631270647" lon="2.917849039658904">
        <ele>900.88999999999999</ele>
        <time>2014-09-04T10:55:28Z</time>
      </trkpt>
      <trkpt lat="39.837525319308043" lon="2.917847698554397">
        <ele>901.37</ele>
        <time>2014-09-04T10:55:29Z</time>
      </trkpt>
      <trkpt lat="39.837529007345438" lon="2.917839149013162">
        <ele>899.45000000000005</ele>
        <time>2014-09-04T10:55:34Z</time>
      </trkpt>
      <trkpt lat="39.837528336793184" lon="2.917837891727686">
        <ele>900.88999999999999</ele>
        <time>2014-09-04T10:55:35Z</time>
      </trkpt>
      <trkpt lat="39.837528336793184" lon="2.917837891727686">
        <ele>898.97000000000003</ele>
        <time>2014-09-04T10:55:36Z</time>
      </trkpt>
      <trkpt lat="39.837528336793184" lon="2.917837891727686">
        <ele>895.12</ele>
        <time>2014-09-04T10:55:43Z</time>
      </trkpt>
      <trkpt lat="39.837529258802533" lon="2.917831940576434">
        <ele>900.88999999999999</ele>
        <time>2014-09-04T10:55:44Z</time>
      </trkpt>
      <trkpt lat="39.837528336793184" lon="2.917837891727686">
        <ele>897.52999999999997</ele>
        <time>2014-09-04T10:55:45Z</time>
      </trkpt>
      <trkpt lat="39.837528336793184" lon="2.917837891727686">
        <ele>896.09000000000003</ele>
        <time>2014-09-04T10:55:58Z</time>
      </trkpt>
      <trkpt lat="39.83752422966063" lon="2.917832527309656">
        <ele>896.57000000000005</ele>
        <time>2014-09-04T10:56:18Z</time>
      </trkpt>
      <trkpt lat="39.83752422966063" lon="2.917832527309656">
        <ele>898.00999999999999</ele>
        <time>2014-09-04T10:56:35Z</time>
      </trkpt>
      <trkpt lat="39.837523559108377" lon="2.917829928919673">
        <ele>896.09000000000003</ele>
        <time>2014-09-04T10:56:36Z</time>
      </trkpt>
      <trkpt lat="39.83752422966063" lon="2.917832527309656">
        <ele>894.63999999999999</ele>
        <time>2014-09-04T10:56:40Z</time>
      </trkpt>
      <trkpt lat="39.83751785941422" lon="2.917798077687621">
        <ele>894.63999999999999</ele>
        <time>2014-09-04T10:56:50Z</time>
      </trkpt>
      <trkpt lat="39.837470920756459" lon="2.917729429900646">
        <ele>890.79999999999995</ele>
        <time>2014-09-04T10:56:57Z</time>
      </trkpt>
      <trkpt lat="39.837466310709715" lon="2.917718114331365">
        <ele>896.09000000000003</ele>
        <time>2014-09-04T10:56:58Z</time>
      </trkpt>
      <trkpt lat="39.837461281567812" lon="2.917702691629529">
        <ele>892.72000000000003</ele>
        <time>2014-09-04T10:56:59Z</time>
      </trkpt>
      <trkpt lat="39.837438734248281" lon="2.91760940104723">
        <ele>895.12</ele>
        <time>2014-09-04T10:57:08Z</time>
      </trkpt>
      <trkpt lat="39.837438734248281" lon="2.91760940104723">
        <ele>887.42999999999995</ele>
        <time>2014-09-04T10:57:10Z</time>
      </trkpt>
      <trkpt lat="39.837438734248281" lon="2.91760940104723">
        <ele>887.42999999999995</ele>
        <time>2014-09-04T10:57:11Z</time>
      </trkpt>
      <trkpt lat="39.837438734248281" lon="2.91760940104723">
        <ele>894.63999999999999</ele>
        <time>2014-09-04T10:57:12Z</time>
      </trkpt>
      <trkpt lat="39.837438734248281" lon="2.91760940104723">
        <ele>894.15999999999997</ele>
        <time>2014-09-04T10:57:13Z</time>
      </trkpt>
      <trkpt lat="39.837438734248281" lon="2.91760940104723">
        <ele>891.75999999999999</ele>
        <time>2014-09-04T10:57:22Z</time>
      </trkpt>
      <trkpt lat="39.837438734248281" lon="2.91760940104723">
        <ele>894.63999999999999</ele>
        <time>2014-09-04T10:57:23Z</time>
      </trkpt>
      <trkpt lat="39.837438734248281" lon="2.91760940104723">
        <ele>896.09000000000003</ele>
        <time>2014-09-04T10:57:26Z</time>
      </trkpt>
      <trkpt lat="39.837438734248281" lon="2.91760940104723">
        <ele>893.67999999999995</ele>
        <time>2014-09-04T10:57:28Z</time>
      </trkpt>
      <trkpt lat="39.837439656257629" lon="2.917607892304659">
        <ele>885.50999999999999</ele>
        <time>2014-09-04T10:57:47Z</time>
      </trkpt>
      <trkpt lat="39.837439656257629" lon="2.917607892304659">
        <ele>885.50999999999999</ele>
        <time>2014-09-04T10:57:48Z</time>
      </trkpt>
      <trkpt lat="39.837440745905042" lon="2.917611580342054">
        <ele>910.50999999999999</ele>
        <time>2014-09-04T10:57:49Z</time>
      </trkpt>
      <trkpt lat="39.8374411650002" lon="2.91761476546526">
        <ele>893.20000000000005</ele>
        <time>2014-09-04T10:57:50Z</time>
      </trkpt>
      <trkpt lat="39.8374411650002" lon="2.91761476546526">
        <ele>894.63999999999999</ele>
        <time>2014-09-04T10:58:02Z</time>
      </trkpt>
      <trkpt lat="39.8374411650002" lon="2.91761476546526">
        <ele>894.63999999999999</ele>
        <time>2014-09-04T10:58:05Z</time>
      </trkpt>
      <trkpt lat="39.8374411650002" lon="2.91761476546526">
        <ele>889.36000000000001</ele>
        <time>2014-09-04T10:58:06Z</time>
      </trkpt>
      <trkpt lat="39.837437812238932" lon="2.917618118226528">
        <ele>916.75</ele>
        <time>2014-09-04T10:58:07Z</time>
      </trkpt>
      <trkpt lat="39.837434962391853" lon="2.917623650282621">
        <ele>899.45000000000005</ele>
        <time>2014-09-04T10:58:08Z</time>
      </trkpt>
      <trkpt lat="39.837435046210885" lon="2.917615352198482">
        <ele>895.12</ele>
        <time>2014-09-04T10:58:09Z</time>
      </trkpt>
      <trkpt lat="39.837437979876995" lon="2.917586602270603">
        <ele>896.09000000000003</ele>
        <time>2014-09-04T10:58:12Z</time>
      </trkpt>
      <trkpt lat="39.837437979876995" lon="2.917586602270603">
        <ele>894.63999999999999</ele>
        <time>2014-09-04T10:58:13Z</time>
      </trkpt>
      <trkpt lat="39.837439069524407" lon="2.917591296136379">
        <ele>893.67999999999995</ele>
        <time>2014-09-04T10:58:18Z</time>
      </trkpt>
      <trkpt lat="39.837440494447947" lon="2.917588530108333">
        <ele>895.12</ele>
        <time>2014-09-04T10:58:19Z</time>
      </trkpt>
      <trkpt lat="39.837440494447947" lon="2.917588530108333">
        <ele>885.50999999999999</ele>
        <time>2014-09-04T10:58:21Z</time>
      </trkpt>
      <trkpt lat="39.837440494447947" lon="2.917588530108333">
        <ele>885.50999999999999</ele>
        <time>2014-09-04T10:58:22Z</time>
      </trkpt>
      <trkpt lat="39.837440494447947" lon="2.917588530108333">
        <ele>895.61000000000001</ele>
        <time>2014-09-04T10:58:23Z</time>
      </trkpt>
      <trkpt lat="39.837439823895693" lon="2.917584339156747">
        <ele>899.45000000000005</ele>
        <time>2014-09-04T10:58:24Z</time>
      </trkpt>
      <trkpt lat="39.837440494447947" lon="2.917588530108333">
        <ele>893.20000000000005</ele>
        <time>2014-09-04T10:58:25Z</time>
      </trkpt>
      <trkpt lat="39.837440494447947" lon="2.917588530108333">
        <ele>891.75999999999999</ele>
        <time>2014-09-04T10:58:27Z</time>
      </trkpt>
      <trkpt lat="39.837440494447947" lon="2.917588530108333">
        <ele>894.63999999999999</ele>
        <time>2014-09-04T10:58:28Z</time>
      </trkpt>
      <trkpt lat="39.837438566610217" lon="2.917588446289301">
        <ele>891.27999999999997</ele>
        <time>2014-09-04T10:58:29Z</time>
      </trkpt>
      <trkpt lat="39.837440494447947" lon="2.917588530108333">
        <ele>898.49000000000001</ele>
        <time>2014-09-04T10:58:30Z</time>
      </trkpt>
      <trkpt lat="39.837438147515059" lon="2.917587524279952">
        <ele>891.75999999999999</ele>
        <time>2014-09-04T10:58:31Z</time>
      </trkpt>
      <trkpt lat="39.837440494447947" lon="2.917588530108333">
        <ele>894.63999999999999</ele>
        <time>2014-09-04T10:58:33Z</time>
      </trkpt>
      <trkpt lat="39.837440494447947" lon="2.917588530108333">
        <ele>891.27999999999997</ele>
        <time>2014-09-04T10:58:39Z</time>
      </trkpt>
      <trkpt lat="39.837441584095359" lon="2.917578052729368">
        <ele>890.79999999999995</ele>
        <time>2014-09-04T10:58:40Z</time>
      </trkpt>
      <trkpt lat="39.837443009018898" lon="2.91749993339181">
        <ele>890.79999999999995</ele>
        <time>2014-09-04T10:58:45Z</time>
      </trkpt>
      <trkpt lat="39.837443344295025" lon="2.917491719126701">
        <ele>892.24000000000001</ele>
        <time>2014-09-04T10:58:46Z</time>
      </trkpt>
      <trkpt lat="39.837445188313723" lon="2.917486941441894">
        <ele>890.32000000000005</ele>
        <time>2014-09-04T10:58:47Z</time>
      </trkpt>
      <trkpt lat="39.837445858865976" lon="2.9174486361444">
        <ele>892.72000000000003</ele>
        <time>2014-09-04T10:58:53Z</time>
      </trkpt>
      <trkpt lat="39.837442338466644" lon="2.917439164593816">
        <ele>889.36000000000001</ele>
        <time>2014-09-04T10:58:58Z</time>
      </trkpt>
      <trkpt lat="39.837425658479333" lon="2.917433045804501">
        <ele>889.84000000000003</ele>
        <time>2014-09-04T10:59:05Z</time>
      </trkpt>
      <trkpt lat="39.83733169734478" lon="2.917460119351745">
        <ele>886.95000000000005</ele>
        <time>2014-09-04T10:59:15Z</time>
      </trkpt>
      <trkpt lat="39.83733169734478" lon="2.917460119351745">
        <ele>885.02999999999997</ele>
        <time>2014-09-04T10:59:17Z</time>
      </trkpt>
      <trkpt lat="39.83733169734478" lon="2.917460119351745">
        <ele>888.39999999999998</ele>
        <time>2014-09-04T10:59:21Z</time>
      </trkpt>
      <trkpt lat="39.837333541363478" lon="2.917453497648239">
        <ele>882.14999999999998</ele>
        <time>2014-09-04T10:59:25Z</time>
      </trkpt>
      <trkpt lat="39.837334463372827" lon="2.917450061067939">
        <ele>885.99000000000001</ele>
        <time>2014-09-04T10:59:26Z</time>
      </trkpt>
      <trkpt lat="39.83733463101089" lon="2.917446875944734">
        <ele>893.67999999999995</ele>
        <time>2014-09-04T10:59:27Z</time>
      </trkpt>
      <trkpt lat="39.837334463372827" lon="2.917450061067939">
        <ele>891.75999999999999</ele>
        <time>2014-09-04T10:59:28Z</time>
      </trkpt>
      <trkpt lat="39.837334463372827" lon="2.917450061067939">
        <ele>886.95000000000005</ele>
        <time>2014-09-04T10:59:29Z</time>
      </trkpt>
      <trkpt lat="39.837334463372827" lon="2.917450061067939">
        <ele>887.42999999999995</ele>
        <time>2014-09-04T10:59:30Z</time>
      </trkpt>
      <trkpt lat="39.837327422574162" lon="2.917451653629541">
        <ele>882.14999999999998</ele>
        <time>2014-09-04T10:59:36Z</time>
      </trkpt>
      <trkpt lat="39.837324908003211" lon="2.917450983077288">
        <ele>886.95000000000005</ele>
        <time>2014-09-04T10:59:38Z</time>
      </trkpt>
      <trkpt lat="39.837324656546116" lon="2.917450228706002">
        <ele>887.42999999999995</ele>
        <time>2014-09-04T10:59:39Z</time>
      </trkpt>
      <trkpt lat="39.837324656546116" lon="2.917450228706002">
        <ele>883.59000000000003</ele>
        <time>2014-09-04T10:59:41Z</time>
      </trkpt>
      <trkpt lat="39.837324656546116" lon="2.917450228706002">
        <ele>884.54999999999995</ele>
        <time>2014-09-04T10:59:42Z</time>
      </trkpt>
      <trkpt lat="39.837321806699038" lon="2.917422484606504">
        <ele>888.88</ele>
        <time>2014-09-04T10:59:56Z</time>
      </trkpt>
      <trkpt lat="39.837316107004881" lon="2.917409241199493">
        <ele>888.88</ele>
        <time>2014-09-04T10:59:57Z</time>
      </trkpt>
      <trkpt lat="39.837314011529088" lon="2.917402368038893">
        <ele>884.54999999999995</ele>
        <time>2014-09-04T10:59:58Z</time>
      </trkpt>
      <trkpt lat="39.837315017357469" lon="2.917398512363434">
        <ele>883.59000000000003</ele>
        <time>2014-09-04T11:00:00Z</time>
      </trkpt>
      <trkpt lat="39.837304037064314" lon="2.917337073013187">
        <ele>881.19000000000005</ele>
        <time>2014-09-04T11:00:06Z</time>
      </trkpt>
      <trkpt lat="39.837295487523079" lon="2.917309580370784">
        <ele>869.16999999999996</ele>
        <time>2014-09-04T11:00:17Z</time>
      </trkpt>
      <trkpt lat="39.837295487523079" lon="2.917309580370784">
        <ele>884.07000000000005</ele>
        <time>2014-09-04T11:00:18Z</time>
      </trkpt>
      <trkpt lat="39.837294481694698" lon="2.91730597615242">
        <ele>879.74000000000001</ele>
        <time>2014-09-04T11:00:19Z</time>
      </trkpt>
      <trkpt lat="39.837295487523079" lon="2.917309580370784">
        <ele>879.74000000000001</ele>
        <time>2014-09-04T11:00:20Z</time>
      </trkpt>
      <trkpt lat="39.837273526936769" lon="2.917307149618864">
        <ele>878.29999999999995</ele>
        <time>2014-09-04T11:00:26Z</time>
      </trkpt>
      <trkpt lat="39.837263720110059" lon="2.917273286730051">
        <ele>873.98000000000002</ele>
        <time>2014-09-04T11:00:34Z</time>
      </trkpt>
      <trkpt lat="39.837260115891695" lon="2.917265826836228">
        <ele>877.34000000000003</ele>
        <time>2014-09-04T11:00:36Z</time>
      </trkpt>
      <trkpt lat="39.83727210201323" lon="2.917237496003509">
        <ele>873.5</ele>
        <time>2014-09-04T11:00:43Z</time>
      </trkpt>
      <trkpt lat="39.837271682918072" lon="2.917239675298333">
        <ele>873.5</ele>
        <time>2014-09-04T11:00:44Z</time>
      </trkpt>
      <trkpt lat="39.837271682918072" lon="2.917239675298333">
        <ele>877.34000000000003</ele>
        <time>2014-09-04T11:00:46Z</time>
      </trkpt>
      <trkpt lat="39.837268246337771" lon="2.917235987260938">
        <ele>873.00999999999999</ele>
        <time>2014-09-04T11:00:47Z</time>
      </trkpt>
      <trkpt lat="39.837263887748122" lon="2.917233975604177">
        <ele>875.89999999999998</ele>
        <time>2014-09-04T11:00:48Z</time>
      </trkpt>
      <trkpt lat="39.837250895798206" lon="2.917239926755428">
        <ele>872.52999999999997</ele>
        <time>2014-09-04T11:00:51Z</time>
      </trkpt>
      <trkpt lat="39.837248800322413" lon="2.917237160727382">
        <ele>875.41999999999996</ele>
        <time>2014-09-04T11:00:52Z</time>
      </trkpt>
      <trkpt lat="39.837243771180511" lon="2.917236993089318">
        <ele>873.00999999999999</ele>
        <time>2014-09-04T11:01:05Z</time>
      </trkpt>
      <trkpt lat="39.837223570793867" lon="2.917195251211524">
        <ele>871.57000000000005</ele>
        <time>2014-09-04T11:01:19Z</time>
      </trkpt>
      <trkpt lat="39.837227175012231" lon="2.91716868057847">
        <ele>869.64999999999998</ele>
        <time>2014-09-04T11:01:26Z</time>
      </trkpt>
      <trkpt lat="39.837227091193199" lon="2.917191311717033">
        <ele>867.73000000000002</ele>
        <time>2014-09-04T11:01:38Z</time>
      </trkpt>
      <trkpt lat="39.837211333215237" lon="2.917189635336399">
        <ele>855.23000000000002</ele>
        <time>2014-09-04T11:01:46Z</time>
      </trkpt>
      <trkpt lat="39.837207728996873" lon="2.917187456041575">
        <ele>874.94000000000005</ele>
        <time>2014-09-04T11:01:47Z</time>
      </trkpt>
      <trkpt lat="39.837204040959477" lon="2.917183851823211">
        <ele>866.76999999999998</ele>
        <time>2014-09-04T11:01:48Z</time>
      </trkpt>
      <trkpt lat="39.837197000160813" lon="2.917169183492661">
        <ele>864.84000000000003</ele>
        <time>2014-09-04T11:01:51Z</time>
      </trkpt>
      <trkpt lat="39.837172273546457" lon="2.91716474108398">
        <ele>862.44000000000005</ele>
        <time>2014-09-04T11:02:00Z</time>
      </trkpt>
      <trkpt lat="39.837156012654305" lon="2.917140936478972">
        <ele>862.91999999999996</ele>
        <time>2014-09-04T11:02:11Z</time>
      </trkpt>
      <trkpt lat="39.837154000997543" lon="2.91713741607964">
        <ele>855.71000000000004</ele>
        <time>2014-09-04T11:02:13Z</time>
      </trkpt>
      <trkpt lat="39.83715333044529" lon="2.917138170450926">
        <ele>867.73000000000002</ele>
        <time>2014-09-04T11:02:14Z</time>
      </trkpt>
      <trkpt lat="39.837150061503053" lon="2.91713934391737">
        <ele>865.32000000000005</ele>
        <time>2014-09-04T11:02:15Z</time>
      </trkpt>
      <trkpt lat="39.83715039677918" lon="2.917136326432228">
        <ele>861.96000000000004</ele>
        <time>2014-09-04T11:02:17Z</time>
      </trkpt>
      <trkpt lat="39.837141847237945" lon="2.917121993377805">
        <ele>860.51999999999998</ele>
        <time>2014-09-04T11:02:23Z</time>
      </trkpt>
      <trkpt lat="39.837129022926092" lon="2.917095338925719">
        <ele>858.59000000000003</ele>
        <time>2014-09-04T11:02:36Z</time>
      </trkpt>
      <trkpt lat="39.837140087038279" lon="2.917064828798175">
        <ele>858.11000000000001</ele>
        <time>2014-09-04T11:02:52Z</time>
      </trkpt>
      <trkpt lat="39.837134974077344" lon="2.917066588997841">
        <ele>855.71000000000004</ele>
        <time>2014-09-04T11:03:03Z</time>
      </trkpt>
      <trkpt lat="39.837111672386527" lon="2.917024930939078">
        <ele>852.83000000000004</ele>
        <time>2014-09-04T11:03:16Z</time>
      </trkpt>
      <trkpt lat="39.837108822539449" lon="2.917010597884655">
        <ele>856.19000000000005</ele>
        <time>2014-09-04T11:03:17Z</time>
      </trkpt>
      <trkpt lat="39.837096417322755" lon="2.916991990059614">
        <ele>850.41999999999996</ele>
        <time>2014-09-04T11:03:26Z</time>
      </trkpt>
      <trkpt lat="39.837096417322755" lon="2.916991990059614">
        <ele>859.08000000000004</ele>
        <time>2014-09-04T11:03:27Z</time>
      </trkpt>
      <trkpt lat="39.837095327675343" lon="2.916994336992502">
        <ele>853.30999999999995</ele>
        <time>2014-09-04T11:03:28Z</time>
      </trkpt>
      <trkpt lat="39.837090130895376" lon="2.916950164362788">
        <ele>852.35000000000002</ele>
        <time>2014-09-04T11:03:40Z</time>
      </trkpt>
      <trkpt lat="39.837098848074675" lon="2.916941028088331">
        <ele>848.98000000000002</ele>
        <time>2014-09-04T11:03:44Z</time>
      </trkpt>
      <trkpt lat="39.837096417322755" lon="2.916942620649934">
        <ele>852.35000000000002</ele>
        <time>2014-09-04T11:03:45Z</time>
      </trkpt>
      <trkpt lat="39.837080743163824" lon="2.916923593729734">
        <ele>850.89999999999998</ele>
        <time>2014-09-04T11:03:55Z</time>
      </trkpt>
      <trkpt lat="39.837083509191871" lon="2.916911104694009">
        <ele>842.73000000000002</ele>
        <time>2014-09-04T11:04:03Z</time>
      </trkpt>
      <trkpt lat="39.837078396230936" lon="2.916910517960787">
        <ele>844.65999999999997</ele>
        <time>2014-09-04T11:04:04Z</time>
      </trkpt>
      <trkpt lat="39.837074121460319" lon="2.916913786903024">
        <ele>860.51999999999998</ele>
        <time>2014-09-04T11:04:05Z</time>
      </trkpt>
      <trkpt lat="39.837075378745794" lon="2.916913451626897">
        <ele>853.30999999999995</ele>
        <time>2014-09-04T11:04:06Z</time>
      </trkpt>
      <trkpt lat="39.837075378745794" lon="2.916913451626897">
        <ele>849.46000000000004</ele>
        <time>2014-09-04T11:04:07Z</time>
      </trkpt>
      <trkpt lat="39.837073367089033" lon="2.916909595951438">
        <ele>848.98000000000002</ele>
        <time>2014-09-04T11:04:09Z</time>
      </trkpt>
      <trkpt lat="39.837079234421253" lon="2.916904566809535">
        <ele>847.05999999999995</ele>
        <time>2014-09-04T11:04:20Z</time>
      </trkpt>
      <trkpt lat="39.837069595232606" lon="2.916915882378817">
        <ele>847.05999999999995</ele>
        <time>2014-09-04T11:04:39Z</time>
      </trkpt>
      <trkpt lat="39.837047886103392" lon="2.9168960172683">
        <ele>846.10000000000002</ele>
        <time>2014-09-04T11:04:51Z</time>
      </trkpt>
      <trkpt lat="39.837036402896047" lon="2.916884114965797">
        <ele>842.73000000000002</ele>
        <time>2014-09-04T11:05:02Z</time>
      </trkpt>
      <trkpt lat="39.837029026821256" lon="2.916903141885996">
        <ele>843.69000000000005</ele>
        <time>2014-09-04T11:05:16Z</time>
      </trkpt>
      <trkpt lat="39.837012263014913" lon="2.916905069723725">
        <ele>843.21000000000004</ele>
        <time>2014-09-04T11:05:24Z</time>
      </trkpt>
      <trkpt lat="39.837000360712409" lon="2.916899370029569">
        <ele>839.85000000000002</ele>
        <time>2014-09-04T11:05:31Z</time>
      </trkpt>
      <trkpt lat="39.836991643533111" lon="2.916892161592841">
        <ele>833.60000000000002</ele>
        <time>2014-09-04T11:05:36Z</time>
      </trkpt>
      <trkpt lat="39.836984938010573" lon="2.916886294260621">
        <ele>844.17999999999995</ele>
        <time>2014-09-04T11:05:37Z</time>
      </trkpt>
      <trkpt lat="39.836984938010573" lon="2.916886294260621">
        <ele>839.37</ele>
        <time>2014-09-04T11:05:38Z</time>
      </trkpt>
      <trkpt lat="39.836984435096383" lon="2.916874811053276">
        <ele>838.88999999999999</ele>
        <time>2014-09-04T11:05:49Z</time>
      </trkpt>
      <trkpt lat="39.836939424276352" lon="2.916859891265631">
        <ele>838.88999999999999</ele>
        <time>2014-09-04T11:05:59Z</time>
      </trkpt>
      <trkpt lat="39.836908411234617" lon="2.916866345331073">
        <ele>835.03999999999996</ele>
        <time>2014-09-04T11:06:08Z</time>
      </trkpt>
      <trkpt lat="39.836903465911746" lon="2.916864082217217">
        <ele>835.51999999999998</ele>
        <time>2014-09-04T11:06:09Z</time>
      </trkpt>
      <trkpt lat="39.836860718205571" lon="2.916857711970806">
        <ele>834.08000000000004</ele>
        <time>2014-09-04T11:06:14Z</time>
      </trkpt>
      <trkpt lat="39.836789974942803" lon="2.916867937892675">
        <ele>831.67999999999995</ele>
        <time>2014-09-04T11:06:25Z</time>
      </trkpt>
      <trkpt lat="39.836757872253656" lon="2.916887635365129">
        <ele>829.26999999999998</ele>
        <time>2014-09-04T11:06:37Z</time>
      </trkpt>
      <trkpt lat="39.836757872253656" lon="2.916887635365129">
        <ele>832.63999999999999</ele>
        <time>2014-09-04T11:06:45Z</time>
      </trkpt>
      <trkpt lat="39.836757872253656" lon="2.916887635365129">
        <ele>829.75999999999999</ele>
        <time>2014-09-04T11:06:54Z</time>
      </trkpt>
      <trkpt lat="39.836756614968181" lon="2.916882606223226">
        <ele>832.15999999999997</ele>
        <time>2014-09-04T11:06:55Z</time>
      </trkpt>
      <trkpt lat="39.836757872253656" lon="2.916887635365129">
        <ele>828.30999999999995</ele>
        <time>2014-09-04T11:07:06Z</time>
      </trkpt>
      <trkpt lat="39.836737588047981" lon="2.916879085823894">
        <ele>831.67999999999995</ele>
        <time>2014-09-04T11:07:08Z</time>
      </trkpt>
      <trkpt lat="39.836701545864344" lon="2.916857041418552">
        <ele>830.72000000000003</ele>
        <time>2014-09-04T11:07:21Z</time>
      </trkpt>
      <trkpt lat="39.836701545864344" lon="2.916857041418552">
        <ele>826.38999999999999</ele>
        <time>2014-09-04T11:07:33Z</time>
      </trkpt>
      <trkpt lat="39.836701545864344" lon="2.916857041418552">
        <ele>829.75999999999999</ele>
        <time>2014-09-04T11:07:34Z</time>
      </trkpt>
      <trkpt lat="39.836701713502407" lon="2.916859639808536">
        <ele>826.38999999999999</ele>
        <time>2014-09-04T11:07:37Z</time>
      </trkpt>
      <trkpt lat="39.836701545864344" lon="2.916857041418552">
        <ele>829.75999999999999</ele>
        <time>2014-09-04T11:07:43Z</time>
      </trkpt>
      <trkpt lat="39.836693331599236" lon="2.916863244026899">
        <ele>826.87</ele>
        <time>2014-09-04T11:07:49Z</time>
      </trkpt>
      <trkpt lat="39.836657037958503" lon="2.916838098317385">
        <ele>824.95000000000005</ele>
        <time>2014-09-04T11:07:57Z</time>
      </trkpt>
      <trkpt lat="39.836624432355165" lon="2.91683591902256">
        <ele>823.99000000000001</ele>
        <time>2014-09-04T11:08:08Z</time>
      </trkpt>
      <trkpt lat="39.836618984118104" lon="2.916833823546767">
        <ele>821.10000000000002</ele>
        <time>2014-09-04T11:08:21Z</time>
      </trkpt>
      <trkpt lat="39.836464170366526" lon="2.916824938729405">
        <ele>820.13999999999999</ele>
        <time>2014-09-04T11:08:35Z</time>
      </trkpt>
      <trkpt lat="39.836399713531137" lon="2.916847234591842">
        <ele>820.13999999999999</ele>
        <time>2014-09-04T11:08:46Z</time>
      </trkpt>
      <trkpt lat="39.836388817057014" lon="2.916845809668303">
        <ele>819.65999999999997</ele>
        <time>2014-09-04T11:08:50Z</time>
      </trkpt>
      <trkpt lat="39.83632511459291" lon="2.916810186579824">
        <ele>817.74000000000001</ele>
        <time>2014-09-04T11:09:00Z</time>
      </trkpt>
      <trkpt lat="39.836327629163861" lon="2.916812365874648">
        <ele>817.74000000000001</ele>
        <time>2014-09-04T11:09:15Z</time>
      </trkpt>
      <trkpt lat="39.836327629163861" lon="2.916812365874648">
        <ele>818.22000000000003</ele>
        <time>2014-09-04T11:09:33Z</time>
      </trkpt>
      <trkpt lat="39.836288653314114" lon="2.916771797463298">
        <ele>811.49000000000001</ele>
        <time>2014-09-04T11:09:42Z</time>
      </trkpt>
      <trkpt lat="39.836276415735483" lon="2.916750004515052">
        <ele>819.65999999999997</ele>
        <time>2014-09-04T11:09:43Z</time>
      </trkpt>
      <trkpt lat="39.836276415735483" lon="2.916750004515052">
        <ele>816.29999999999995</ele>
        <time>2014-09-04T11:09:45Z</time>
      </trkpt>
      <trkpt lat="39.836267614737153" lon="2.916740868240595">
        <ele>816.77999999999997</ele>
        <time>2014-09-04T11:09:46Z</time>
      </trkpt>
      <trkpt lat="39.836231740191579" lon="2.916718153283">
        <ele>814.37</ele>
        <time>2014-09-04T11:09:59Z</time>
      </trkpt>
      <trkpt lat="39.836184214800596" lon="2.916679512709379">
        <ele>813.40999999999997</ele>
        <time>2014-09-04T11:10:07Z</time>
      </trkpt>
      <trkpt lat="39.83611011877656" lon="2.916600303724408">
        <ele>811.00999999999999</ele>
        <time>2014-09-04T11:10:18Z</time>
      </trkpt>
      <trkpt lat="39.83611011877656" lon="2.916600303724408">
        <ele>805.72000000000003</ele>
        <time>2014-09-04T11:10:24Z</time>
      </trkpt>
      <trkpt lat="39.83611011877656" lon="2.916600303724408">
        <ele>811.00999999999999</ele>
        <time>2014-09-04T11:10:25Z</time>
      </trkpt>
      <trkpt lat="39.83611011877656" lon="2.916600303724408">
        <ele>809.57000000000005</ele>
        <time>2014-09-04T11:10:29Z</time>
      </trkpt>
      <trkpt lat="39.836036106571555" lon="2.916496954858303">
        <ele>806.20000000000005</ele>
        <time>2014-09-04T11:10:42Z</time>
      </trkpt>
      <trkpt lat="39.835966704413295" lon="2.916426546871662">
        <ele>805.24000000000001</ele>
        <time>2014-09-04T11:10:55Z</time>
      </trkpt>
      <trkpt lat="39.835931751877069" lon="2.916367286816239">
        <ele>803.79999999999995</ele>
        <time>2014-09-04T11:11:00Z</time>
      </trkpt>
      <trkpt lat="39.835914820432663" lon="2.916319258511066">
        <ele>808.13</ele>
        <time>2014-09-04T11:11:03Z</time>
      </trkpt>
      <trkpt lat="39.835912808775902" lon="2.91630869731307">
        <ele>802.84000000000003</ele>
        <time>2014-09-04T11:11:04Z</time>
      </trkpt>
      <trkpt lat="39.835890429094434" lon="2.916274918243289">
        <ele>799.95000000000005</ele>
        <time>2014-09-04T11:11:09Z</time>
      </trkpt>
      <trkpt lat="39.835886154323816" lon="2.916263435035944">
        <ele>803.32000000000005</ele>
        <time>2014-09-04T11:11:10Z</time>
      </trkpt>
      <trkpt lat="39.835851956158876" lon="2.916237032040954">
        <ele>800.91999999999996</ele>
        <time>2014-09-04T11:11:15Z</time>
      </trkpt>
      <trkpt lat="39.835798060521483" lon="2.916185315698385">
        <ele>797.07000000000005</ele>
        <time>2014-09-04T11:11:30Z</time>
      </trkpt>
      <trkpt lat="39.835755061358213" lon="2.91613326407969">
        <ele>796.59000000000003</ele>
        <time>2014-09-04T11:11:38Z</time>
      </trkpt>
      <trkpt lat="39.835737626999617" lon="2.916125301271677">
        <ele>795.63</ele>
        <time>2014-09-04T11:11:53Z</time>
      </trkpt>
      <trkpt lat="39.835732514038682" lon="2.916110046207905">
        <ele>795.14999999999998</ele>
        <time>2014-09-04T11:12:07Z</time>
      </trkpt>
      <trkpt lat="39.835711140185595" lon="2.916104095056653">
        <ele>791.77999999999997</ele>
        <time>2014-09-04T11:12:14Z</time>
      </trkpt>
      <trkpt lat="39.835705608129501" lon="2.91609613224864">
        <ele>795.63</ele>
        <time>2014-09-04T11:12:16Z</time>
      </trkpt>
      <trkpt lat="39.835699908435345" lon="2.916086912155151">
        <ele>792.25999999999999</ele>
        <time>2014-09-04T11:12:21Z</time>
      </trkpt>
      <trkpt lat="39.835701333358884" lon="2.916089259088039">
        <ele>797.07000000000005</ele>
        <time>2014-09-04T11:12:22Z</time>
      </trkpt>
      <trkpt lat="39.835694124922156" lon="2.916078362613916">
        <ele>793.22000000000003</ele>
        <time>2014-09-04T11:12:24Z</time>
      </trkpt>
      <trkpt lat="39.835650958120823" lon="2.916027484461665">
        <ele>789.86000000000001</ele>
        <time>2014-09-04T11:12:36Z</time>
      </trkpt>
      <trkpt lat="39.835648611187935" lon="2.916017593815923">
        <ele>789.86000000000001</ele>
        <time>2014-09-04T11:12:37Z</time>
      </trkpt>
      <trkpt lat="39.835644755512476" lon="2.916012899950147">
        <ele>790.34000000000003</ele>
        <time>2014-09-04T11:12:39Z</time>
      </trkpt>
      <trkpt lat="39.835626315325499" lon="2.915982976555824">
        <ele>790.82000000000005</ele>
        <time>2014-09-04T11:12:42Z</time>
      </trkpt>
      <trkpt lat="39.835601756349206" lon="2.915922878310084">
        <ele>788.89999999999998</ele>
        <time>2014-09-04T11:12:56Z</time>
      </trkpt>
      <trkpt lat="39.835587339475751" lon="2.915913825854659">
        <ele>785.52999999999997</ele>
        <time>2014-09-04T11:12:59Z</time>
      </trkpt>
      <trkpt lat="39.835561858490109" lon="2.915912233293057">
        <ele>792.74000000000001</ele>
        <time>2014-09-04T11:13:03Z</time>
      </trkpt>
      <trkpt lat="39.835559176281095" lon="2.915912987664342">
        <ele>784.57000000000005</ele>
        <time>2014-09-04T11:13:04Z</time>
      </trkpt>
      <trkpt lat="39.835557332262397" lon="2.915911646559835">
        <ele>787.94000000000005</ele>
        <time>2014-09-04T11:13:05Z</time>
      </trkpt>
      <trkpt lat="39.835551297292113" lon="2.915913574397564">
        <ele>791.77999999999997</ele>
        <time>2014-09-04T11:13:06Z</time>
      </trkpt>
      <trkpt lat="39.835541239008307" lon="2.915913071483374">
        <ele>781.69000000000005</ele>
        <time>2014-09-04T11:13:07Z</time>
      </trkpt>
      <trkpt lat="39.835533192381263" lon="2.915906701236963">
        <ele>796.11000000000001</ele>
        <time>2014-09-04T11:13:08Z</time>
      </trkpt>
      <trkpt lat="39.835531013086438" lon="2.915904438123107">
        <ele>788.41999999999996</ele>
        <time>2014-09-04T11:13:09Z</time>
      </trkpt>
      <trkpt lat="39.835532186552882" lon="2.915911143645644">
        <ele>791.77999999999997</ele>
        <time>2014-09-04T11:13:13Z</time>
      </trkpt>
      <trkpt lat="39.835502514615655" lon="2.915896223857999">
        <ele>791.77999999999997</ele>
        <time>2014-09-04T11:13:16Z</time>
      </trkpt>
      <trkpt lat="39.835448870435357" lon="2.915887422859669">
        <ele>791.29999999999995</ele>
        <time>2014-09-04T11:13:21Z</time>
      </trkpt>
      <trkpt lat="39.835442584007978" lon="2.915890859439969">
        <ele>791.29999999999995</ele>
        <time>2014-09-04T11:13:22Z</time>
      </trkpt>
      <trkpt lat="39.835415007546544" lon="2.915896642953157">
        <ele>790.82000000000005</ele>
        <time>2014-09-04T11:13:25Z</time>
      </trkpt>
      <trkpt lat="39.835384245961905" lon="2.91589530184865">
        <ele>793.22000000000003</ele>
        <time>2014-09-04T11:13:30Z</time>
      </trkpt>
      <trkpt lat="39.835379803553224" lon="2.915897481143475">
        <ele>786.98000000000002</ele>
        <time>2014-09-04T11:13:33Z</time>
      </trkpt>
      <trkpt lat="39.835379803553224" lon="2.915897481143475">
        <ele>793.22000000000003</ele>
        <time>2014-09-04T11:13:34Z</time>
      </trkpt>
      <trkpt lat="39.835370667278767" lon="2.915891949087381">
        <ele>789.38</ele>
        <time>2014-09-04T11:13:35Z</time>
      </trkpt>
      <trkpt lat="39.835361614823341" lon="2.915881220251322">
        <ele>793.22000000000003</ele>
        <time>2014-09-04T11:13:36Z</time>
      </trkpt>
      <trkpt lat="39.835328422486782" lon="2.915836377069354">
        <ele>789.86000000000001</ele>
        <time>2014-09-04T11:13:42Z</time>
      </trkpt>
      <trkpt lat="39.83532733283937" lon="2.915824223309755">
        <ele>775.44000000000005</ele>
        <time>2014-09-04T11:13:47Z</time>
      </trkpt>
      <trkpt lat="39.835324818268418" lon="2.915821205824614">
        <ele>795.14999999999998</ele>
        <time>2014-09-04T11:13:48Z</time>
      </trkpt>
      <trkpt lat="39.835324818268418" lon="2.915821205824614">
        <ele>789.38</ele>
        <time>2014-09-04T11:13:49Z</time>
      </trkpt>
      <trkpt lat="39.835313335061073" lon="2.9158029332757">
        <ele>788.41999999999996</ele>
        <time>2014-09-04T11:13:51Z</time>
      </trkpt>
      <trkpt lat="39.835279053077102" lon="2.915744511410594">
        <ele>787.46000000000004</ele>
        <time>2014-09-04T11:14:01Z</time>
      </trkpt>
      <trkpt lat="39.835254242643714" lon="2.915720622986555">
        <ele>786.01999999999998</ele>
        <time>2014-09-04T11:14:07Z</time>
      </trkpt>
      <trkpt lat="39.835211075842381" lon="2.915749959647656">
        <ele>785.52999999999997</ele>
        <time>2014-09-04T11:14:17Z</time>
      </trkpt>
      <trkpt lat="39.835192048922181" lon="2.91574576869607">
        <ele>783.61000000000001</ele>
        <time>2014-09-04T11:14:22Z</time>
      </trkpt>
      <trkpt lat="39.835193222388625" lon="2.915747780352831">
        <ele>783.13</ele>
        <time>2014-09-04T11:14:36Z</time>
      </trkpt>
      <trkpt lat="39.835186516866088" lon="2.915735878050327">
        <ele>781.69000000000005</ele>
        <time>2014-09-04T11:14:47Z</time>
      </trkpt>
      <trkpt lat="39.835183499380946" lon="2.91573403403163">
        <ele>780.25</ele>
        <time>2014-09-04T11:14:49Z</time>
      </trkpt>
      <trkpt lat="39.835182158276439" lon="2.915728501975536">
        <ele>778.80999999999995</ele>
        <time>2014-09-04T11:14:53Z</time>
      </trkpt>
      <trkpt lat="39.83514997176826" lon="2.915698578581214">
        <ele>776.88</ele>
        <time>2014-09-04T11:14:59Z</time>
      </trkpt>
      <trkpt lat="39.835084592923522" lon="2.915638480335474">
        <ele>775.44000000000005</ele>
        <time>2014-09-04T11:15:11Z</time>
      </trkpt>
      <trkpt lat="39.835050981491804" lon="2.915605874732137">
        <ele>775.44000000000005</ele>
        <time>2014-09-04T11:15:23Z</time>
      </trkpt>
      <trkpt lat="39.835058357566595" lon="2.915586093440652">
        <ele>774</ele>
        <time>2014-09-04T11:15:27Z</time>
      </trkpt>
      <trkpt lat="39.835080401971936" lon="2.915541334077716">
        <ele>772.55999999999995</ele>
        <time>2014-09-04T11:15:38Z</time>
      </trkpt>
      <trkpt lat="39.835084844380617" lon="2.91554007679224">
        <ele>774</ele>
        <time>2014-09-04T11:15:39Z</time>
      </trkpt>
      <trkpt lat="39.835085598751903" lon="2.915523061528802">
        <ele>770.14999999999998</ele>
        <time>2014-09-04T11:15:46Z</time>
      </trkpt>
      <trkpt lat="39.835078809410334" lon="2.915520211681724">
        <ele>770.14999999999998</ele>
        <time>2014-09-04T11:15:47Z</time>
      </trkpt>
      <trkpt lat="39.835023153573275" lon="2.91549121029675">
        <ele>769.66999999999996</ele>
        <time>2014-09-04T11:16:00Z</time>
      </trkpt>
      <trkpt lat="39.835011921823025" lon="2.915480816736817">
        <ele>768.23000000000002</ele>
        <time>2014-09-04T11:16:02Z</time>
      </trkpt>
      <trkpt lat="39.835001360625029" lon="2.915468830615282">
        <ele>769.66999999999996</ele>
        <time>2014-09-04T11:16:04Z</time>
      </trkpt>
      <trkpt lat="39.834973951801658" lon="2.915433291345835">
        <ele>767.26999999999998</ele>
        <time>2014-09-04T11:16:12Z</time>
      </trkpt>
      <trkpt lat="39.834967581555247" lon="2.915427507832646">
        <ele>767.75</ele>
        <time>2014-09-04T11:16:31Z</time>
      </trkpt>
      <trkpt lat="39.834934053942561" lon="2.915378054603934">
        <ele>766.78999999999996</ele>
        <time>2014-09-04T11:16:43Z</time>
      </trkpt>
      <trkpt lat="39.83492667786777" lon="2.915373109281063">
        <ele>765.83000000000004</ele>
        <time>2014-09-04T11:16:44Z</time>
      </trkpt>
      <trkpt lat="39.834893736988306" lon="2.915328182280064">
        <ele>765.83000000000004</ele>
        <time>2014-09-04T11:16:49Z</time>
      </trkpt>
      <trkpt lat="39.83486901037395" lon="2.915284093469381">
        <ele>765.83000000000004</ele>
        <time>2014-09-04T11:16:54Z</time>
      </trkpt>
      <trkpt lat="39.834864987060428" lon="2.915262384340167">
        <ele>763.89999999999998</ele>
        <time>2014-09-04T11:16:57Z</time>
      </trkpt>
      <trkpt lat="39.834833387285471" lon="2.91520438157022">
        <ele>762.94000000000005</ele>
        <time>2014-09-04T11:17:04Z</time>
      </trkpt>
      <trkpt lat="39.834809750318527" lon="2.915161466225982">
        <ele>761.98000000000002</ele>
        <time>2014-09-04T11:17:09Z</time>
      </trkpt>
      <trkpt lat="39.834804721176624" lon="2.915089633315802">
        <ele>760.53999999999996</ele>
        <time>2014-09-04T11:17:17Z</time>
      </trkpt>
      <trkpt lat="39.834781587123871" lon="2.915020734071732">
        <ele>758.62</ele>
        <time>2014-09-04T11:17:26Z</time>
      </trkpt>
      <trkpt lat="39.834771025925875" lon="2.915004640817642">
        <ele>757.17999999999995</ele>
        <time>2014-09-04T11:17:28Z</time>
      </trkpt>
      <trkpt lat="39.834744958207011" lon="2.914980249479413">
        <ele>757.17999999999995</ele>
        <time>2014-09-04T11:17:31Z</time>
      </trkpt>
      <trkpt lat="39.834696175530553" lon="2.914907578378916">
        <ele>755.25</ele>
        <time>2014-09-04T11:17:42Z</time>
      </trkpt>
      <trkpt lat="39.834698271006346" lon="2.914844043552876">
        <ele>754.28999999999996</ele>
        <time>2014-09-04T11:17:49Z</time>
      </trkpt>
      <trkpt lat="39.834672873839736" lon="2.914816634729505">
        <ele>751.40999999999997</ele>
        <time>2014-09-04T11:17:57Z</time>
      </trkpt>
      <trkpt lat="39.834620570763946" lon="2.9147132858634">
        <ele>749.49000000000001</ele>
        <time>2014-09-04T11:18:09Z</time>
      </trkpt>
      <trkpt lat="39.834601040929556" lon="2.914627371355891">
        <ele>746.60000000000002</ele>
        <time>2014-09-04T11:18:19Z</time>
      </trkpt>
      <trkpt lat="39.834678322076797" lon="2.914549838751555">
        <ele>745.15999999999997</ele>
        <time>2014-09-04T11:18:23Z</time>
      </trkpt>
      <trkpt lat="39.834678908810019" lon="2.914537349715829">
        <ele>744.67999999999995</ele>
        <time>2014-09-04T11:18:29Z</time>
      </trkpt>
      <trkpt lat="39.834652421995997" lon="2.914466271176934">
        <ele>740.83000000000004</ele>
        <time>2014-09-04T11:18:40Z</time>
      </trkpt>
      <trkpt lat="39.834621828049421" lon="2.914452021941543">
        <ele>739.87</ele>
        <time>2014-09-04T11:18:45Z</time>
      </trkpt>
      <trkpt lat="39.834582433104515" lon="2.914402484893799">
        <ele>737.47000000000003</ele>
        <time>2014-09-04T11:18:55Z</time>
      </trkpt>
      <trkpt lat="39.834574135020375" lon="2.914337106049061">
        <ele>735.54999999999995</ele>
        <time>2014-09-04T11:19:03Z</time>
      </trkpt>
      <trkpt lat="39.834557538852096" lon="2.91430626064539">
        <ele>736.02999999999997</ele>
        <time>2014-09-04T11:19:08Z</time>
      </trkpt>
      <trkpt lat="39.834423093125224" lon="2.914096629247069">
        <ele>735.07000000000005</ele>
        <time>2014-09-04T11:19:21Z</time>
      </trkpt>
      <trkpt lat="39.834427032619715" lon="2.914030496031046">
        <ele>734.10000000000002</ele>
        <time>2014-09-04T11:19:24Z</time>
      </trkpt>
      <trkpt lat="39.83445318415761" lon="2.913965620100498">
        <ele>731.70000000000005</ele>
        <time>2014-09-04T11:19:34Z</time>
      </trkpt>
      <trkpt lat="39.834550665691495" lon="2.913918429985642">
        <ele>728.82000000000005</ele>
        <time>2014-09-04T11:19:45Z</time>
      </trkpt>
      <trkpt lat="39.834582265466452" lon="2.913905354216695">
        <ele>728.34000000000003</ele>
        <time>2014-09-04T11:19:49Z</time>
      </trkpt>
      <trkpt lat="39.834655774757266" lon="2.913890182971954">
        <ele>726.88999999999999</ele>
        <time>2014-09-04T11:20:00Z</time>
      </trkpt>
      <trkpt lat="39.834706904366612" lon="2.913883309811354">
        <ele>724.49000000000001</ele>
        <time>2014-09-04T11:20:11Z</time>
      </trkpt>
      <trkpt lat="39.834751328453422" lon="2.913863277062774">
        <ele>723.04999999999995</ele>
        <time>2014-09-04T11:20:18Z</time>
      </trkpt>
      <trkpt lat="39.834739593788981" lon="2.913846680894494">
        <ele>721.61000000000001</ele>
        <time>2014-09-04T11:20:21Z</time>
      </trkpt>
      <trkpt lat="39.834726518020034" lon="2.913819272071123">
        <ele>719.67999999999995</ele>
        <time>2014-09-04T11:20:30Z</time>
      </trkpt>
      <trkpt lat="39.834804302081466" lon="2.913801418617368">
        <ele>718.72000000000003</ele>
        <time>2014-09-04T11:20:37Z</time>
      </trkpt>
      <trkpt lat="39.834884852170944" lon="2.91381910443306">
        <ele>715.84000000000003</ele>
        <time>2014-09-04T11:20:45Z</time>
      </trkpt>
      <trkpt lat="39.834938328713179" lon="2.913859253749251">
        <ele>715.36000000000001</ele>
        <time>2014-09-04T11:20:51Z</time>
      </trkpt>
      <trkpt lat="39.834957774728537" lon="2.913855900987983">
        <ele>715.36000000000001</ele>
        <time>2014-09-04T11:20:53Z</time>
      </trkpt>
      <trkpt lat="39.834975879639387" lon="2.913875598460436">
        <ele>712.95000000000005</ele>
        <time>2014-09-04T11:21:01Z</time>
      </trkpt>
      <trkpt lat="39.835003037005663" lon="2.91385967284441">
        <ele>711.50999999999999</ele>
        <time>2014-09-04T11:21:21Z</time>
      </trkpt>
      <trkpt lat="39.835019214078784" lon="2.913858583196998">
        <ele>709.59000000000003</ele>
        <time>2014-09-04T11:21:24Z</time>
      </trkpt>
      <trkpt lat="39.835012508556247" lon="2.914024041965604">
        <ele>706.23000000000002</ele>
        <time>2014-09-04T11:21:31Z</time>
      </trkpt>
      <trkpt lat="39.835024494677782" lon="2.914039632305503">
        <ele>711.02999999999997</ele>
        <time>2014-09-04T11:21:32Z</time>
      </trkpt>
      <trkpt lat="39.835003288462758" lon="2.913905270397663">
        <ele>709.11000000000001</ele>
        <time>2014-09-04T11:21:43Z</time>
      </trkpt>
      <trkpt lat="39.83498870395124" lon="2.913847854360938">
        <ele>705.75</ele>
        <time>2014-09-04T11:21:50Z</time>
      </trkpt>
      <trkpt lat="39.834961546584964" lon="2.913819942623377">
        <ele>702.86000000000001</ele>
        <time>2014-09-04T11:21:57Z</time>
      </trkpt>
      <trkpt lat="39.834958110004663" lon="2.913810638710856">
        <ele>707.66999999999996</ele>
        <time>2014-09-04T11:21:58Z</time>
      </trkpt>
      <trkpt lat="39.834906561300159" lon="2.913728412240744">
        <ele>705.75</ele>
        <time>2014-09-04T11:22:10Z</time>
      </trkpt>
      <trkpt lat="39.834879236295819" lon="2.913666134700179">
        <ele>703.82000000000005</ele>
        <time>2014-09-04T11:22:18Z</time>
      </trkpt>
      <trkpt lat="39.834851743653417" lon="2.913621962070465">
        <ele>702.38</ele>
        <time>2014-09-04T11:22:22Z</time>
      </trkpt>
      <trkpt lat="39.834832716733217" lon="2.913577705621719">
        <ele>699.5</ele>
        <time>2014-09-04T11:22:30Z</time>
      </trkpt>
      <trkpt lat="39.834798434749246" lon="2.913508219644427">
        <ele>696.61000000000001</ele>
        <time>2014-09-04T11:22:41Z</time>
      </trkpt>
      <trkpt lat="39.834795752540231" lon="2.913497490808368">
        <ele>695.64999999999998</ele>
        <time>2014-09-04T11:22:47Z</time>
      </trkpt>
      <trkpt lat="39.834777479991317" lon="2.913467483595014">
        <ele>694.21000000000004</ele>
        <time>2014-09-04T11:22:52Z</time>
      </trkpt>
      <trkpt lat="39.834741940721869" lon="2.913418030366302">
        <ele>693.25</ele>
        <time>2014-09-04T11:23:03Z</time>
      </trkpt>
      <trkpt lat="39.834735067561269" lon="2.913411241024733">
        <ele>691.80999999999995</ele>
        <time>2014-09-04T11:23:09Z</time>
      </trkpt>
      <trkpt lat="39.834696426987648" lon="2.913345945999026">
        <ele>689.88</ele>
        <time>2014-09-04T11:23:23Z</time>
      </trkpt>
      <trkpt lat="39.8346540145576" lon="2.913294229656458">
        <ele>688.44000000000005</ele>
        <time>2014-09-04T11:23:26Z</time>
      </trkpt>
      <trkpt lat="39.834541110321879" lon="2.913132207468152">
        <ele>687</ele>
        <time>2014-09-04T11:23:40Z</time>
      </trkpt>
      <trkpt lat="39.834534153342247" lon="2.913120640441775">
        <ele>685.55999999999995</ele>
        <time>2014-09-04T11:23:42Z</time>
      </trkpt>
      <trkpt lat="39.834532476961613" lon="2.91312038898468">
        <ele>685.55999999999995</ele>
        <time>2014-09-04T11:23:44Z</time>
      </trkpt>
      <trkpt lat="39.834454441443086" lon="2.913041431456804">
        <ele>684.60000000000002</ele>
        <time>2014-09-04T11:23:48Z</time>
      </trkpt>
      <trkpt lat="39.834365760907531" lon="2.912964569404721">
        <ele>683.63</ele>
        <time>2014-09-04T11:23:54Z</time>
      </trkpt>
      <trkpt lat="39.834267441183329" lon="2.91287605650723">
        <ele>681.23000000000002</ele>
        <time>2014-09-04T11:24:03Z</time>
      </trkpt>
      <trkpt lat="39.834259478375316" lon="2.912868680432439">
        <ele>682.66999999999996</ele>
        <time>2014-09-04T11:24:05Z</time>
      </trkpt>
      <trkpt lat="39.834230728447437" lon="2.912839343771339">
        <ele>681.23000000000002</ele>
        <time>2014-09-04T11:24:08Z</time>
      </trkpt>
      <trkpt lat="39.834204241633415" lon="2.912809923291206">
        <ele>681.23000000000002</ele>
        <time>2014-09-04T11:24:13Z</time>
      </trkpt>
      <trkpt lat="39.834187477827072" lon="2.912734234705567">
        <ele>679.78999999999996</ele>
        <time>2014-09-04T11:24:22Z</time>
      </trkpt>
      <trkpt lat="39.834188483655453" lon="2.912736749276519">
        <ele>680.26999999999998</ele>
        <time>2014-09-04T11:24:31Z</time>
      </trkpt>
      <trkpt lat="39.834187477827072" lon="2.912736162543297">
        <ele>677.38999999999999</ele>
        <time>2014-09-04T11:24:36Z</time>
      </trkpt>
      <trkpt lat="39.834097120910883" lon="2.912573050707579">
        <ele>677.87</ele>
        <time>2014-09-04T11:24:46Z</time>
      </trkpt>
      <trkpt lat="39.834070969372988" lon="2.912508258596063">
        <ele>678.83000000000004</ele>
        <time>2014-09-04T11:24:51Z</time>
      </trkpt>
      <trkpt lat="39.833953455090523" lon="2.912375573068857">
        <ele>674.98000000000002</ele>
        <time>2014-09-04T11:24:59Z</time>
      </trkpt>
      <trkpt lat="39.833953119814396" lon="2.912373980507255">
        <ele>679.78999999999996</ele>
        <time>2014-09-04T11:25:00Z</time>
      </trkpt>
      <trkpt lat="39.833844238892198" lon="2.912304578348994">
        <ele>676.41999999999996</ele>
        <time>2014-09-04T11:25:06Z</time>
      </trkpt>
      <trkpt lat="39.833493456244469" lon="2.912066532298923">
        <ele>677.87</ele>
        <time>2014-09-04T11:25:22Z</time>
      </trkpt>
      <trkpt lat="39.833461856469512" lon="2.912036944180727">
        <ele>674.98000000000002</ele>
        <time>2014-09-04T11:25:25Z</time>
      </trkpt>
      <trkpt lat="39.833426652476192" lon="2.911926805973053">
        <ele>676.41999999999996</ele>
        <time>2014-09-04T11:25:39Z</time>
      </trkpt>
      <trkpt lat="39.833418186753988" lon="2.911924039945006">
        <ele>676.90999999999997</ele>
        <time>2014-09-04T11:26:02Z</time>
      </trkpt>
      <trkpt lat="39.833418857306242" lon="2.911929655820131">
        <ele>676.90999999999997</ele>
        <time>2014-09-04T11:26:27Z</time>
      </trkpt>
      <trkpt lat="39.833413576707244" lon="2.911929236724973">
        <ele>675.94000000000005</ele>
        <time>2014-09-04T11:26:59Z</time>
      </trkpt>
      <trkpt lat="39.833413576707244" lon="2.911929236724973">
        <ele>676.90999999999997</ele>
        <time>2014-09-04T11:27:30Z</time>
      </trkpt>
      <trkpt lat="39.83341340906918" lon="2.911929655820131">
        <ele>675.94000000000005</ele>
        <time>2014-09-04T11:27:56Z</time>
      </trkpt>
      <trkpt lat="39.833412487059832" lon="2.91193007491529">
        <ele>675.46000000000004</ele>
        <time>2014-09-04T11:28:27Z</time>
      </trkpt>
      <trkpt lat="39.833402596414089" lon="2.91193887591362">
        <ele>675.94000000000005</ele>
        <time>2014-09-04T11:29:00Z</time>
      </trkpt>
      <trkpt lat="39.83338650316" lon="2.911898558959365">
        <ele>675.46000000000004</ele>
        <time>2014-09-04T11:29:10Z</time>
      </trkpt>
      <trkpt lat="39.833389185369015" lon="2.911835527047515">
        <ele>674.98000000000002</ele>
        <time>2014-09-04T11:29:14Z</time>
      </trkpt>
      <trkpt lat="39.833361860364676" lon="2.91177324950695">
        <ele>674.98000000000002</ele>
        <time>2014-09-04T11:29:21Z</time>
      </trkpt>
      <trkpt lat="39.833287177607417" lon="2.911711391061544">
        <ele>674.98000000000002</ele>
        <time>2014-09-04T11:29:27Z</time>
      </trkpt>
      <trkpt lat="39.833220792934299" lon="2.911652969196439">
        <ele>675.46000000000004</ele>
        <time>2014-09-04T11:29:32Z</time>
      </trkpt>
      <trkpt lat="39.833090789616108" lon="2.911518020555377">
        <ele>676.41999999999996</ele>
        <time>2014-09-04T11:29:45Z</time>
      </trkpt>
      <trkpt lat="39.833063213154674" lon="2.911439901217818">
        <ele>676.90999999999997</ele>
        <time>2014-09-04T11:29:55Z</time>
      </trkpt>
      <trkpt lat="39.83305768109858" lon="2.911425987258554">
        <ele>676.90999999999997</ele>
        <time>2014-09-04T11:29:56Z</time>
      </trkpt>
      <trkpt lat="39.833029685541987" lon="2.911336133256555">
        <ele>678.35000000000002</ele>
        <time>2014-09-04T11:30:06Z</time>
      </trkpt>
      <trkpt lat="39.83301711268723" lon="2.911266312003136">
        <ele>678.83000000000004</ele>
        <time>2014-09-04T11:30:10Z</time>
      </trkpt>
      <trkpt lat="39.83300537802279" lon="2.911247368901968">
        <ele>678.35000000000002</ele>
        <time>2014-09-04T11:30:11Z</time>
      </trkpt>
      <trkpt lat="39.832989284768701" lon="2.911224737763405">
        <ele>678.35000000000002</ele>
        <time>2014-09-04T11:30:12Z</time>
      </trkpt>
      <trkpt lat="39.832974029704928" lon="2.911203950643539">
        <ele>678.35000000000002</ele>
        <time>2014-09-04T11:30:13Z</time>
      </trkpt>
      <trkpt lat="39.832930779084563" lon="2.911108816042543">
        <ele>679.30999999999995</ele>
        <time>2014-09-04T11:30:22Z</time>
      </trkpt>
      <trkpt lat="39.832845283672214" lon="2.911044610664249">
        <ele>677.38999999999999</ele>
        <time>2014-09-04T11:30:33Z</time>
      </trkpt>
      <trkpt lat="39.83272098004818" lon="2.910969005897641">
        <ele>680.75</ele>
        <time>2014-09-04T11:30:44Z</time>
      </trkpt>
      <trkpt lat="39.832697343081236" lon="2.910973951220512">
        <ele>680.75</ele>
        <time>2014-09-04T11:30:46Z</time>
      </trkpt>
      <trkpt lat="39.832628611475229" lon="2.910950900986791">
        <ele>680.26999999999998</ele>
        <time>2014-09-04T11:30:52Z</time>
      </trkpt>
      <trkpt lat="39.83261251822114" lon="2.910938495770097">
        <ele>679.78999999999996</ele>
        <time>2014-09-04T11:30:53Z</time>
      </trkpt>
      <trkpt lat="39.832530543208122" lon="2.910871021449566">
        <ele>681.23000000000002</ele>
        <time>2014-09-04T11:31:04Z</time>
      </trkpt>
      <trkpt lat="39.832492154091597" lon="2.910838080570102">
        <ele>680.26999999999998</ele>
        <time>2014-09-04T11:31:09Z</time>
      </trkpt>
      <trkpt lat="39.832476563751698" lon="2.910829782485962">
        <ele>679.78999999999996</ele>
        <time>2014-09-04T11:31:10Z</time>
      </trkpt>
      <trkpt lat="39.832396516576409" lon="2.910763481631875">
        <ele>679.30999999999995</ele>
        <time>2014-09-04T11:31:21Z</time>
      </trkpt>
      <trkpt lat="39.83230808749795" lon="2.910749316215515">
        <ele>679.30999999999995</ele>
        <time>2014-09-04T11:31:27Z</time>
      </trkpt>
      <trkpt lat="39.832147909328341" lon="2.910787872970104">
        <ele>681.23000000000002</ele>
        <time>2014-09-04T11:31:40Z</time>
      </trkpt>
      <trkpt lat="39.83207012526691" lon="2.910855347290635">
        <ele>683.14999999999998</ele>
        <time>2014-09-04T11:31:52Z</time>
      </trkpt>
      <trkpt lat="39.831934925168753" lon="2.910922402516007">
        <ele>684.60000000000002</ele>
        <time>2014-09-04T11:32:08Z</time>
      </trkpt>
      <trkpt lat="39.831821685656905" lon="2.910990966483951">
        <ele>685.08000000000004</ele>
        <time>2014-09-04T11:32:20Z</time>
      </trkpt>
      <trkpt lat="39.831811208277941" lon="2.91098702698946">
        <ele>685.08000000000004</ele>
        <time>2014-09-04T11:32:21Z</time>
      </trkpt>
      <trkpt lat="39.83180140145123" lon="2.910979567095637">
        <ele>684.60000000000002</ele>
        <time>2014-09-04T11:32:22Z</time>
      </trkpt>
      <trkpt lat="39.831738620996475" lon="2.910980153828859">
        <ele>683.14999999999998</ele>
        <time>2014-09-04T11:32:30Z</time>
      </trkpt>
      <trkpt lat="39.831696208566427" lon="2.910992475226522">
        <ele>682.66999999999996</ele>
        <time>2014-09-04T11:32:35Z</time>
      </trkpt>
      <trkpt lat="39.831684306263924" lon="2.910979818552733">
        <ele>682.19000000000005</ele>
        <time>2014-09-04T11:32:36Z</time>
      </trkpt>
      <trkpt lat="39.83167776837945" lon="2.910970514640212">
        <ele>680.75</ele>
        <time>2014-09-04T11:32:44Z</time>
      </trkpt>
      <trkpt lat="39.831603085622191" lon="2.911061542108655">
        <ele>677.38999999999999</ele>
        <time>2014-09-04T11:32:55Z</time>
      </trkpt>
      <trkpt lat="39.831519266590476" lon="2.911122478544712">
        <ele>676.90999999999997</ele>
        <time>2014-09-04T11:33:06Z</time>
      </trkpt>
      <trkpt lat="39.831466125324368" lon="2.911175200715661">
        <ele>675.94000000000005</ele>
        <time>2014-09-04T11:33:11Z</time>
      </trkpt>
      <trkpt lat="39.831449277698994" lon="2.911183666437864">
        <ele>675.46000000000004</ele>
        <time>2014-09-04T11:33:12Z</time>
      </trkpt>
      <trkpt lat="39.831352047622204" lon="2.911283746361733">
        <ele>674.01999999999998</ele>
        <time>2014-09-04T11:33:24Z</time>
      </trkpt>
      <trkpt lat="39.831340061500669" lon="2.911333031952381">
        <ele>674.01999999999998</ele>
        <time>2014-09-04T11:33:43Z</time>
      </trkpt>
      <trkpt lat="39.831306533887982" lon="2.911332864314318">
        <ele>673.53999999999996</ele>
        <time>2014-09-04T11:34:07Z</time>
      </trkpt>
      <trkpt lat="39.831285830587149" lon="2.911329679191113">
        <ele>674.01999999999998</ele>
        <time>2014-09-04T11:34:09Z</time>
      </trkpt>
      <trkpt lat="39.831253979355097" lon="2.911333031952381">
        <ele>673.53999999999996</ele>
        <time>2014-09-04T11:34:12Z</time>
      </trkpt>
      <trkpt lat="39.8312331084162" lon="2.911330852657557">
        <ele>672.58000000000004</ele>
        <time>2014-09-04T11:34:14Z</time>
      </trkpt>
      <trkpt lat="39.831226821988821" lon="2.911324398592114">
        <ele>672.10000000000002</ele>
        <time>2014-09-04T11:34:15Z</time>
      </trkpt>
      <trkpt lat="39.831226486712694" lon="2.911321129649878">
        <ele>673.53999999999996</ele>
        <time>2014-09-04T11:34:18Z</time>
      </trkpt>
      <trkpt lat="39.831172088161111" lon="2.911359937861562">
        <ele>672.10000000000002</ele>
        <time>2014-09-04T11:34:20Z</time>
      </trkpt>
      <trkpt lat="39.831135207787156" lon="2.911372678354383">
        <ele>671.62</ele>
        <time>2014-09-04T11:34:23Z</time>
      </trkpt>
      <trkpt lat="39.831058429554105" lon="2.911364296451211">
        <ele>669.70000000000005</ele>
        <time>2014-09-04T11:34:31Z</time>
      </trkpt>
      <trkpt lat="39.831031356006861" lon="2.911372343078256">
        <ele>669.22000000000003</ele>
        <time>2014-09-04T11:34:33Z</time>
      </trkpt>
      <trkpt lat="39.830958936363459" lon="2.91136764921248">
        <ele>668.25</ele>
        <time>2014-09-04T11:34:42Z</time>
      </trkpt>
      <trkpt lat="39.830940579995513" lon="2.911362117156386">
        <ele>667.76999999999998</ele>
        <time>2014-09-04T11:34:43Z</time>
      </trkpt>
      <trkpt lat="39.830875871703029" lon="2.911369996145368">
        <ele>666.80999999999995</ele>
        <time>2014-09-04T11:34:49Z</time>
      </trkpt>
      <trkpt lat="39.830850642174482" lon="2.911364044994116">
        <ele>667.28999999999996</ele>
        <time>2014-09-04T11:34:50Z</time>
      </trkpt>
      <trkpt lat="39.83073815703392" lon="2.911333618685603">
        <ele>665.85000000000002</ele>
        <time>2014-09-04T11:35:00Z</time>
      </trkpt>
      <trkpt lat="39.830603878945112" lon="2.911301432177424">
        <ele>663.45000000000005</ele>
        <time>2014-09-04T11:35:15Z</time>
      </trkpt>
      <trkpt lat="39.830478401854634" lon="2.911251056939364">
        <ele>663.45000000000005</ele>
        <time>2014-09-04T11:35:28Z</time>
      </trkpt>
      <trkpt lat="39.830425512045622" lon="2.911269580945373">
        <ele>662.97000000000003</ele>
        <time>2014-09-04T11:35:33Z</time>
      </trkpt>
      <trkpt lat="39.830403802916408" lon="2.911264467984438">
        <ele>662.97000000000003</ele>
        <time>2014-09-04T11:35:34Z</time>
      </trkpt>
      <trkpt lat="39.830354265868664" lon="2.911236304789782">
        <ele>662.49000000000001</ele>
        <time>2014-09-04T11:35:39Z</time>
      </trkpt>
      <trkpt lat="39.830333311110735" lon="2.911225743591785">
        <ele>662.97000000000003</ele>
        <time>2014-09-04T11:35:40Z</time>
      </trkpt>
      <trkpt lat="39.830298442393541" lon="2.911227252334356">
        <ele>662.49000000000001</ele>
        <time>2014-09-04T11:35:44Z</time>
      </trkpt>
      <trkpt lat="39.830253515392542" lon="2.911231778562069">
        <ele>662.97000000000003</ele>
        <time>2014-09-04T11:35:46Z</time>
      </trkpt>
      <trkpt lat="39.830233315005898" lon="2.911223815754056">
        <ele>662.97000000000003</ele>
        <time>2014-09-04T11:35:47Z</time>
      </trkpt>
      <trkpt lat="39.830219652503729" lon="2.91121962480247">
        <ele>662.97000000000003</ele>
        <time>2014-09-04T11:35:48Z</time>
      </trkpt>
      <trkpt lat="39.830200457945466" lon="2.911213841289282">
        <ele>662.00999999999999</ele>
        <time>2014-09-04T11:35:50Z</time>
      </trkpt>
      <trkpt lat="39.83018402941525" lon="2.911207219585776">
        <ele>662.49000000000001</ele>
        <time>2014-09-04T11:35:51Z</time>
      </trkpt>
      <trkpt lat="39.830087469890714" lon="2.911183750256896">
        <ele>662.00999999999999</ele>
        <time>2014-09-04T11:36:01Z</time>
      </trkpt>
      <trkpt lat="39.829984121024609" lon="2.911139242351055">
        <ele>659.12</ele>
        <time>2014-09-04T11:36:10Z</time>
      </trkpt>
      <trkpt lat="39.829968446865678" lon="2.911144020035863">
        <ele>659.12</ele>
        <time>2014-09-04T11:36:13Z</time>
      </trkpt>
      <trkpt lat="39.829952269792557" lon="2.911144187673926">
        <ele>659.12</ele>
        <time>2014-09-04T11:36:14Z</time>
      </trkpt>
      <trkpt lat="39.829903822392225" lon="2.911151312291622">
        <ele>658.63999999999999</ele>
        <time>2014-09-04T11:36:18Z</time>
      </trkpt>
      <trkpt lat="39.829884795472026" lon="2.911153743043542">
        <ele>658.63999999999999</ele>
        <time>2014-09-04T11:36:19Z</time>
      </trkpt>
      <trkpt lat="39.829776920378208" lon="2.911151899024844">
        <ele>658.63999999999999</ele>
        <time>2014-09-04T11:36:28Z</time>
      </trkpt>
      <trkpt lat="39.829675331711769" lon="2.911096578463912">
        <ele>657.67999999999995</ele>
        <time>2014-09-04T11:36:39Z</time>
      </trkpt>
      <trkpt lat="39.829662004485726" lon="2.911086352542043">
        <ele>657.67999999999995</ele>
        <time>2014-09-04T11:36:40Z</time>
      </trkpt>
      <trkpt lat="39.829622441902757" lon="2.911070426926017">
        <ele>657.20000000000005</ele>
        <time>2014-09-04T11:36:46Z</time>
      </trkpt>
      <trkpt lat="39.82961087487638" lon="2.911059781908989">
        <ele>656.72000000000003</ele>
        <time>2014-09-04T11:36:47Z</time>
      </trkpt>
      <trkpt lat="39.829562678933144" lon="2.911039246246219">
        <ele>657.20000000000005</ele>
        <time>2014-09-04T11:36:52Z</time>
      </trkpt>
      <trkpt lat="39.829541305080056" lon="2.911026086658239">
        <ele>656.72000000000003</ele>
        <time>2014-09-04T11:36:53Z</time>
      </trkpt>
      <trkpt lat="39.829447511583567" lon="2.910998677834868">
        <ele>657.20000000000005</ele>
        <time>2014-09-04T11:37:02Z</time>
      </trkpt>
      <trkpt lat="39.829426892101765" lon="2.910993900150061">
        <ele>657.20000000000005</ele>
        <time>2014-09-04T11:37:03Z</time>
      </trkpt>
      <trkpt lat="39.829301415011287" lon="2.910976549610496">
        <ele>656.24000000000001</ele>
        <time>2014-09-04T11:37:17Z</time>
      </trkpt>
      <trkpt lat="39.829171830788255" lon="2.910964479669929">
        <ele>657.20000000000005</ele>
        <time>2014-09-04T11:37:32Z</time>
      </trkpt>
      <trkpt lat="39.829103937372565" lon="2.910949140787125">
        <ele>657.67999999999995</ele>
        <time>2014-09-04T11:37:36Z</time>
      </trkpt>
      <trkpt lat="39.828981896862388" lon="2.910910416394472">
        <ele>659.12</ele>
        <time>2014-09-04T11:37:48Z</time>
      </trkpt>
      <trkpt lat="39.828852731734514" lon="2.91081503033638">
        <ele>661.03999999999996</ele>
        <time>2014-09-04T11:38:02Z</time>
      </trkpt>
      <trkpt lat="39.828792214393616" lon="2.910826681181788">
        <ele>662.49000000000001</ele>
        <time>2014-09-04T11:38:14Z</time>
      </trkpt>
      <trkpt lat="39.828686434775591" lon="2.910816036164761">
        <ele>664.88999999999999</ele>
        <time>2014-09-04T11:38:26Z</time>
      </trkpt>
      <trkpt lat="39.828673945739865" lon="2.910817544907332">
        <ele>665.85000000000002</ele>
        <time>2014-09-04T11:38:28Z</time>
      </trkpt>
      <trkpt lat="39.828626168891788" lon="2.910825004801154">
        <ele>665.85000000000002</ele>
        <time>2014-09-04T11:38:38Z</time>
      </trkpt>
      <trkpt lat="39.828627426177263" lon="2.910798015072942">
        <ele>666.33000000000004</ele>
        <time>2014-09-04T11:38:43Z</time>
      </trkpt>
      <trkpt lat="39.828635724261403" lon="2.910691313445568">
        <ele>665.85000000000002</ele>
        <time>2014-09-04T11:38:51Z</time>
      </trkpt>
      <trkpt lat="39.828634634613991" lon="2.910640938207507">
        <ele>666.33000000000004</ele>
        <time>2014-09-04T11:38:54Z</time>
      </trkpt>
      <trkpt lat="39.828578308224678" lon="2.910563321784139">
        <ele>666.80999999999995</ele>
        <time>2014-09-04T11:39:03Z</time>
      </trkpt>
      <trkpt lat="39.828564561903477" lon="2.910540103912354">
        <ele>665.85000000000002</ele>
        <time>2014-09-04T11:39:04Z</time>
      </trkpt>
      <trkpt lat="39.828552827239037" lon="2.91052283719182">
        <ele>666.33000000000004</ele>
        <time>2014-09-04T11:39:06Z</time>
      </trkpt>
      <trkpt lat="39.828536650165915" lon="2.910505570471287">
        <ele>666.33000000000004</ele>
        <time>2014-09-04T11:39:07Z</time>
      </trkpt>
      <trkpt lat="39.828522903844714" lon="2.910484867170453">
        <ele>665.85000000000002</ele>
        <time>2014-09-04T11:39:08Z</time>
      </trkpt>
      <trkpt lat="39.828507145866752" lon="2.910462990403175">
        <ele>665.85000000000002</ele>
        <time>2014-09-04T11:39:09Z</time>
      </trkpt>
      <trkpt lat="39.828471858054399" lon="2.9103909060359">
        <ele>665.85000000000002</ele>
        <time>2014-09-04T11:39:18Z</time>
      </trkpt>
      <trkpt lat="39.828455178067088" lon="2.910351846367121">
        <ele>665.85000000000002</ele>
        <time>2014-09-04T11:39:21Z</time>
      </trkpt>
      <trkpt lat="39.82845232822001" lon="2.910327287390828">
        <ele>665.85000000000002</ele>
        <time>2014-09-04T11:39:22Z</time>
      </trkpt>
      <trkpt lat="39.82844403013587" lon="2.910250006243587">
        <ele>664.40999999999997</ele>
        <time>2014-09-04T11:39:30Z</time>
      </trkpt>
      <trkpt lat="39.828445622697473" lon="2.910239025950432">
        <ele>663.92999999999995</ele>
        <time>2014-09-04T11:39:32Z</time>
      </trkpt>
      <trkpt lat="39.828401198610663" lon="2.910184962674975">
        <ele>663.92999999999995</ele>
        <time>2014-09-04T11:39:39Z</time>
      </trkpt>
      <trkpt lat="39.828385021537542" lon="2.910172222182155">
        <ele>662.97000000000003</ele>
        <time>2014-09-04T11:39:40Z</time>
      </trkpt>
      <trkpt lat="39.828340681269765" lon="2.910105921328068">
        <ele>662.00999999999999</ele>
        <time>2014-09-04T11:39:47Z</time>
      </trkpt>
      <trkpt lat="39.82832576148212" lon="2.910087229683995">
        <ele>662.00999999999999</ele>
        <time>2014-09-04T11:39:48Z</time>
      </trkpt>
      <trkpt lat="39.828307069838047" lon="2.910076668485999">
        <ele>662.00999999999999</ele>
        <time>2014-09-04T11:39:49Z</time>
      </trkpt>
      <trkpt lat="39.828275637701154" lon="2.910043559968472">
        <ele>662.49000000000001</ele>
        <time>2014-09-04T11:39:54Z</time>
      </trkpt>
      <trkpt lat="39.828232722356915" lon="2.909993939101696">
        <ele>662.00999999999999</ele>
        <time>2014-09-04T11:39:59Z</time>
      </trkpt>
      <trkpt lat="39.828219478949904" lon="2.909979270771146">
        <ele>662.00999999999999</ele>
        <time>2014-09-04T11:40:00Z</time>
      </trkpt>
      <trkpt lat="39.828201876953244" lon="2.909932248294354">
        <ele>661.51999999999998</ele>
        <time>2014-09-04T11:40:06Z</time>
      </trkpt>
      <trkpt lat="39.82818310149014" lon="2.909886734560132">
        <ele>661.51999999999998</ele>
        <time>2014-09-04T11:40:11Z</time>
      </trkpt>
      <trkpt lat="39.828169941902161" lon="2.909866031259298">
        <ele>662.00999999999999</ele>
        <time>2014-09-04T11:40:12Z</time>
      </trkpt>
      <trkpt lat="39.82814303599298" lon="2.909815907478333">
        <ele>662.97000000000003</ele>
        <time>2014-09-04T11:40:15Z</time>
      </trkpt>
      <trkpt lat="39.82813130132854" lon="2.909801909700036">
        <ele>662.97000000000003</ele>
        <time>2014-09-04T11:40:16Z</time>
      </trkpt>
      <trkpt lat="39.828116549178958" lon="2.909788498654962">
        <ele>662.49000000000001</ele>
        <time>2014-09-04T11:40:17Z</time>
      </trkpt>
      <trkpt lat="39.82808930799365" lon="2.909734938293695">
        <ele>662.49000000000001</ele>
        <time>2014-09-04T11:40:23Z</time>
      </trkpt>
      <trkpt lat="39.828078998252749" lon="2.909711385145783">
        <ele>662.00999999999999</ele>
        <time>2014-09-04T11:40:24Z</time>
      </trkpt>
      <trkpt lat="39.828069359064102" lon="2.90969411842525">
        <ele>662.49000000000001</ele>
        <time>2014-09-04T11:40:25Z</time>
      </trkpt>
      <trkpt lat="39.828046057373285" lon="2.909660423174501">
        <ele>662.49000000000001</ele>
        <time>2014-09-04T11:40:29Z</time>
      </trkpt>
      <trkpt lat="39.828033903613687" lon="2.90963988751173">
        <ele>662.97000000000003</ele>
        <time>2014-09-04T11:40:30Z</time>
      </trkpt>
      <trkpt lat="39.827984785661101" lon="2.909609377384186">
        <ele>663.92999999999995</ele>
        <time>2014-09-04T11:40:34Z</time>
      </trkpt>
      <trkpt lat="39.827969698235393" lon="2.909594289958477">
        <ele>663.45000000000005</ele>
        <time>2014-09-04T11:40:35Z</time>
      </trkpt>
      <trkpt lat="39.827913120388985" lon="2.909535281360149">
        <ele>664.40999999999997</ele>
        <time>2014-09-04T11:40:43Z</time>
      </trkpt>
      <trkpt lat="39.827900044620037" lon="2.909496556967497">
        <ele>664.40999999999997</ele>
        <time>2014-09-04T11:40:47Z</time>
      </trkpt>
      <trkpt lat="39.827891495078802" lon="2.909477865323424">
        <ele>664.88999999999999</ele>
        <time>2014-09-04T11:40:48Z</time>
      </trkpt>
      <trkpt lat="39.827857967466116" lon="2.909445511177182">
        <ele>665.85000000000002</ele>
        <time>2014-09-04T11:40:51Z</time>
      </trkpt>
      <trkpt lat="39.827842460945249" lon="2.909439811483026">
        <ele>665.37</ele>
        <time>2014-09-04T11:40:52Z</time>
      </trkpt>
      <trkpt lat="39.827820081263781" lon="2.909407373517752">
        <ele>664.88999999999999</ele>
        <time>2014-09-04T11:40:56Z</time>
      </trkpt>
      <trkpt lat="39.827816309407353" lon="2.909384742379189">
        <ele>664.88999999999999</ele>
        <time>2014-09-04T11:40:57Z</time>
      </trkpt>
      <trkpt lat="39.827815806493163" lon="2.909359177574515">
        <ele>664.88999999999999</ele>
        <time>2014-09-04T11:40:58Z</time>
      </trkpt>
      <trkpt lat="39.827813543379307" lon="2.909336211159825">
        <ele>665.37</ele>
        <time>2014-09-04T11:40:59Z</time>
      </trkpt>
      <trkpt lat="39.827803233638406" lon="2.909305114299059">
        <ele>664.88999999999999</ele>
        <time>2014-09-04T11:41:04Z</time>
      </trkpt>
      <trkpt lat="39.827798791229725" lon="2.909247865900397">
        <ele>663.45000000000005</ele>
        <time>2014-09-04T11:41:09Z</time>
      </trkpt>
      <trkpt lat="39.827794935554266" lon="2.909221295267344">
        <ele>663.45000000000005</ele>
        <time>2014-09-04T11:41:10Z</time>
      </trkpt>
      <trkpt lat="39.827796276658773" lon="2.909204699099064">
        <ele>663.45000000000005</ele>
        <time>2014-09-04T11:41:11Z</time>
      </trkpt>
      <trkpt lat="39.827801724895835" lon="2.909178463742137">
        <ele>662.00999999999999</ele>
        <time>2014-09-04T11:41:15Z</time>
      </trkpt>
      <trkpt lat="39.827799713239074" lon="2.9091492947191">
        <ele>662.00999999999999</ele>
        <time>2014-09-04T11:41:16Z</time>
      </trkpt>
      <trkpt lat="39.827796779572964" lon="2.909122640267015">
        <ele>662.49000000000001</ele>
        <time>2014-09-04T11:41:17Z</time>
      </trkpt>
      <trkpt lat="39.827779429033399" lon="2.909072767943144">
        <ele>660.55999999999995</ele>
        <time>2014-09-04T11:41:23Z</time>
      </trkpt>
      <trkpt lat="39.827766185626388" lon="2.909048795700073">
        <ele>660.55999999999995</ele>
        <time>2014-09-04T11:41:24Z</time>
      </trkpt>
      <trkpt lat="39.827746823430061" lon="2.908990457653999">
        <ele>659.60000000000002</ele>
        <time>2014-09-04T11:41:30Z</time>
      </trkpt>
      <trkpt lat="39.827735088765621" lon="2.908968413248658">
        <ele>659.60000000000002</ele>
        <time>2014-09-04T11:41:31Z</time>
      </trkpt>
      <trkpt lat="39.827677253633738" lon="2.908926587551832">
        <ele>657.67999999999995</ele>
        <time>2014-09-04T11:41:37Z</time>
      </trkpt>
      <trkpt lat="39.827628638595343" lon="2.908895658329129">
        <ele>658.15999999999997</ele>
        <time>2014-09-04T11:41:40Z</time>
      </trkpt>
      <trkpt lat="39.827588154003024" lon="2.908846959471703">
        <ele>657.67999999999995</ele>
        <time>2014-09-04T11:41:48Z</time>
      </trkpt>
      <trkpt lat="39.827473908662796" lon="2.908799685537815">
        <ele>657.67999999999995</ele>
        <time>2014-09-04T11:41:59Z</time>
      </trkpt>
      <trkpt lat="39.82746141962707" lon="2.908791722729802">
        <ele>657.67999999999995</ele>
        <time>2014-09-04T11:42:01Z</time>
      </trkpt>
      <trkpt lat="39.827412134036422" lon="2.908757189288735">
        <ele>657.20000000000005</ele>
        <time>2014-09-04T11:42:05Z</time>
      </trkpt>
      <trkpt lat="39.827339546754956" lon="2.9086934030056">
        <ele>657.67999999999995</ele>
        <time>2014-09-04T11:42:12Z</time>
      </trkpt>
      <trkpt lat="39.827274503186345" lon="2.908604638651013">
        <ele>659.12</ele>
        <time>2014-09-04T11:42:22Z</time>
      </trkpt>
      <trkpt lat="39.827243406325579" lon="2.908545546233654">
        <ele>659.60000000000002</ele>
        <time>2014-09-04T11:42:30Z</time>
      </trkpt>
      <trkpt lat="39.827142907306552" lon="2.908430295065045">
        <ele>662.00999999999999</ele>
        <time>2014-09-04T11:42:40Z</time>
      </trkpt>
      <trkpt lat="39.827134190127254" lon="2.908424260094762">
        <ele>662.00999999999999</ele>
        <time>2014-09-04T11:42:42Z</time>
      </trkpt>
      <trkpt lat="39.827092280611396" lon="2.908397857099772">
        <ele>662.00999999999999</ele>
        <time>2014-09-04T11:42:46Z</time>
      </trkpt>
      <trkpt lat="39.826979711651802" lon="2.908273888751864">
        <ele>662.97000000000003</ele>
        <time>2014-09-04T11:42:57Z</time>
      </trkpt>
      <trkpt lat="39.82689069584012" lon="2.908173138275743">
        <ele>663.92999999999995</ele>
        <time>2014-09-04T11:43:08Z</time>
      </trkpt>
      <trkpt lat="39.826830932870507" lon="2.908142795786262">
        <ele>666.33000000000004</ele>
        <time>2014-09-04T11:43:19Z</time>
      </trkpt>
      <trkpt lat="39.826676202937961" lon="2.908088145777583">
        <ele>667.76999999999998</ele>
        <time>2014-09-04T11:43:32Z</time>
      </trkpt>
      <trkpt lat="39.826549971476197" lon="2.908034333959222">
        <ele>668.25</ele>
        <time>2014-09-04T11:43:41Z</time>
      </trkpt>
      <trkpt lat="39.826533626765013" lon="2.908033328130841">
        <ele>668.73000000000002</ele>
        <time>2014-09-04T11:43:42Z</time>
      </trkpt>
      <trkpt lat="39.82651979662478" lon="2.908027796074748">
        <ele>668.73000000000002</ele>
        <time>2014-09-04T11:43:43Z</time>
      </trkpt>
      <trkpt lat="39.826429942622781" lon="2.90798295289278">
        <ele>669.22000000000003</ele>
        <time>2014-09-04T11:43:52Z</time>
      </trkpt>
      <trkpt lat="39.826412843540311" lon="2.907975409179926">
        <ele>669.22000000000003</ele>
        <time>2014-09-04T11:43:53Z</time>
      </trkpt>
      <trkpt lat="39.826398175209761" lon="2.907967530190945">
        <ele>669.70000000000005</ele>
        <time>2014-09-04T11:43:54Z</time>
      </trkpt>
      <trkpt lat="39.826372694224119" lon="2.907951604574919">
        <ele>669.70000000000005</ele>
        <time>2014-09-04T11:43:57Z</time>
      </trkpt>
      <trkpt lat="39.826357271522284" lon="2.90794582106173">
        <ele>669.70000000000005</ele>
        <time>2014-09-04T11:43:58Z</time>
      </trkpt>
      <trkpt lat="39.826303711161017" lon="2.907927464693785">
        <ele>670.17999999999995</ele>
        <time>2014-09-04T11:44:06Z</time>
      </trkpt>
      <trkpt lat="39.826191309839487" lon="2.907896535471082">
        <ele>672.10000000000002</ele>
        <time>2014-09-04T11:44:16Z</time>
      </trkpt>
      <trkpt lat="39.826165745034814" lon="2.90792578831315">
        <ele>672.58000000000004</ele>
        <time>2014-09-04T11:44:19Z</time>
      </trkpt>
      <trkpt lat="39.826158285140991" lon="2.907942133024335">
        <ele>672.10000000000002</ele>
        <time>2014-09-04T11:44:20Z</time>
      </trkpt>
      <trkpt lat="39.826149400323629" lon="2.907957471907139">
        <ele>672.58000000000004</ele>
        <time>2014-09-04T11:44:21Z</time>
      </trkpt>
      <trkpt lat="39.826135570183396" lon="2.907982282340527">
        <ele>673.05999999999995</ele>
        <time>2014-09-04T11:44:25Z</time>
      </trkpt>
      <trkpt lat="39.826125176623464" lon="2.907994100823999">
        <ele>673.53999999999996</ele>
        <time>2014-09-04T11:44:26Z</time>
      </trkpt>
      <trkpt lat="39.826091062277555" lon="2.90802838280797">
        <ele>674.5</ele>
        <time>2014-09-04T11:44:32Z</time>
      </trkpt>
      <trkpt lat="39.826078405603766" lon="2.90803668089211">
        <ele>674.98000000000002</ele>
        <time>2014-09-04T11:44:33Z</time>
      </trkpt>
      <trkpt lat="39.826063318178058" lon="2.908041207119823">
        <ele>675.46000000000004</ele>
        <time>2014-09-04T11:44:37Z</time>
      </trkpt>
      <trkpt lat="39.826045632362366" lon="2.908045062795281">
        <ele>675.46000000000004</ele>
        <time>2014-09-04T11:44:38Z</time>
      </trkpt>
      <trkpt lat="39.825941612944007" lon="2.90806601755321">
        <ele>676.90999999999997</ele>
        <time>2014-09-04T11:44:49Z</time>
      </trkpt>
      <trkpt lat="39.82592761516571" lon="2.908057384192944">
        <ele>676.90999999999997</ele>
        <time>2014-09-04T11:44:50Z</time>
      </trkpt>
      <trkpt lat="39.825909342616796" lon="2.90804791264236">
        <ele>676.90999999999997</ele>
        <time>2014-09-04T11:44:51Z</time>
      </trkpt>
      <trkpt lat="39.825879838317633" lon="2.908029388636351">
        <ele>677.38999999999999</ele>
        <time>2014-09-04T11:44:55Z</time>
      </trkpt>
      <trkpt lat="39.825863158330321" lon="2.908019497990608">
        <ele>677.38999999999999</ele>
        <time>2014-09-04T11:44:56Z</time>
      </trkpt>
      <trkpt lat="39.825815800577402" lon="2.90803668089211">
        <ele>678.35000000000002</ele>
        <time>2014-09-04T11:45:04Z</time>
      </trkpt>
      <trkpt lat="39.825807670131326" lon="2.90803081355989">
        <ele>678.35000000000002</ele>
        <time>2014-09-04T11:45:05Z</time>
      </trkpt>
      <trkpt lat="39.825793839991093" lon="2.908018073067069">
        <ele>679.30999999999995</ele>
        <time>2014-09-04T11:45:06Z</time>
      </trkpt>
      <trkpt lat="39.825730808079243" lon="2.907956130802631">
        <ele>679.78999999999996</ele>
        <time>2014-09-04T11:45:14Z</time>
      </trkpt>
      <trkpt lat="39.8256466537714" lon="2.907887315377593">
        <ele>680.26999999999998</ele>
        <time>2014-09-04T11:45:23Z</time>
      </trkpt>
      <trkpt lat="39.825571971014142" lon="2.907843729481101">
        <ele>681.23000000000002</ele>
        <time>2014-09-04T11:45:31Z</time>
      </trkpt>
      <trkpt lat="39.825491001829505" lon="2.907789582386613">
        <ele>682.19000000000005</ele>
        <time>2014-09-04T11:45:39Z</time>
      </trkpt>
      <trkpt lat="39.825420845299959" lon="2.90774155408144">
        <ele>684.12</ele>
        <time>2014-09-04T11:45:50Z</time>
      </trkpt>
      <trkpt lat="39.825334763154387" lon="2.907694950699806">
        <ele>685.55999999999995</ele>
        <time>2014-09-04T11:46:00Z</time>
      </trkpt>
      <trkpt lat="39.825278520584106" lon="2.907668296247721">
        <ele>687</ele>
        <time>2014-09-04T11:46:08Z</time>
      </trkpt>
      <trkpt lat="39.825212974101305" lon="2.90764038451016">
        <ele>688.44000000000005</ele>
        <time>2014-09-04T11:46:16Z</time>
      </trkpt>
      <trkpt lat="39.825114822015166" lon="2.907621106132865">
        <ele>689.39999999999998</ele>
        <time>2014-09-04T11:46:25Z</time>
      </trkpt>
      <trkpt lat="39.825076516717672" lon="2.907600319013">
        <ele>690.84000000000003</ele>
        <time>2014-09-04T11:46:35Z</time>
      </trkpt>
      <trkpt lat="39.824997475370765" lon="2.90755002759397">
        <ele>692.28999999999996</ele>
        <time>2014-09-04T11:46:44Z</time>
      </trkpt>
      <trkpt lat="39.824909716844559" lon="2.907505687326193">
        <ele>693.25</ele>
        <time>2014-09-04T11:46:58Z</time>
      </trkpt>
      <trkpt lat="39.824909716844559" lon="2.907505687326193">
        <ele>692.28999999999996</ele>
        <time>2014-09-04T11:47:15Z</time>
      </trkpt>
      <trkpt lat="39.824907537549734" lon="2.907460425049067">
        <ele>691.33000000000004</ele>
        <time>2014-09-04T11:47:34Z</time>
      </trkpt>
      <trkpt lat="39.824907537549734" lon="2.907460425049067">
        <ele>692.28999999999996</ele>
        <time>2014-09-04T11:47:35Z</time>
      </trkpt>
      <trkpt lat="39.824909968301654" lon="2.907436033710837">
        <ele>691.80999999999995</ele>
        <time>2014-09-04T11:47:36Z</time>
      </trkpt>
      <trkpt lat="39.824915835633874" lon="2.907382138073444">
        <ele>690.36000000000001</ele>
        <time>2014-09-04T11:47:42Z</time>
      </trkpt>
      <trkpt lat="39.824918601661921" lon="2.907352885231376">
        <ele>690.84000000000003</ele>
        <time>2014-09-04T11:47:43Z</time>
      </trkpt>
      <trkpt lat="39.824880547821522" lon="2.907301168888807">
        <ele>690.36000000000001</ele>
        <time>2014-09-04T11:47:46Z</time>
      </trkpt>
      <trkpt lat="39.82487216591835" lon="2.907270239666104">
        <ele>689.39999999999998</ele>
        <time>2014-09-04T11:47:49Z</time>
      </trkpt>
      <trkpt lat="39.824838135391474" lon="2.90718206204474">
        <ele>688.44000000000005</ele>
        <time>2014-09-04T11:47:54Z</time>
      </trkpt>
      <trkpt lat="39.824850875884295" lon="2.90693580172956">
        <ele>687.48000000000002</ele>
        <time>2014-09-04T11:48:03Z</time>
      </trkpt>
      <trkpt lat="39.824839811772108" lon="2.906909147277474">
        <ele>687</ele>
        <time>2014-09-04T11:48:07Z</time>
      </trkpt>
      <trkpt lat="39.824832184240222" lon="2.906892718747258">
        <ele>686.51999999999998</ele>
        <time>2014-09-04T11:48:08Z</time>
      </trkpt>
      <trkpt lat="39.824825478717685" lon="2.906866651028395">
        <ele>686.51999999999998</ele>
        <time>2014-09-04T11:48:09Z</time>
      </trkpt>
      <trkpt lat="39.824817683547735" lon="2.906837146729231">
        <ele>686.51999999999998</ele>
        <time>2014-09-04T11:48:10Z</time>
      </trkpt>
      <trkpt lat="39.824811816215515" lon="2.906814683228731">
        <ele>686.51999999999998</ele>
        <time>2014-09-04T11:48:11Z</time>
      </trkpt>
      <trkpt lat="39.824807289987803" lon="2.906795321032405">
        <ele>686.51999999999998</ele>
        <time>2014-09-04T11:48:12Z</time>
      </trkpt>
      <trkpt lat="39.824767811223865" lon="2.906696414574981">
        <ele>685.55999999999995</ele>
        <time>2014-09-04T11:48:20Z</time>
      </trkpt>
      <trkpt lat="39.824756244197488" lon="2.906683338806033">
        <ele>685.55999999999995</ele>
        <time>2014-09-04T11:48:21Z</time>
      </trkpt>
      <trkpt lat="39.824745850637555" lon="2.906624665483832">
        <ele>685.08000000000004</ele>
        <time>2014-09-04T11:48:29Z</time>
      </trkpt>
      <trkpt lat="39.824744090437889" lon="2.906601279973984">
        <ele>684.60000000000002</ele>
        <time>2014-09-04T11:48:30Z</time>
      </trkpt>
      <trkpt lat="39.824716681614518" lon="2.906532799825072">
        <ele>684.60000000000002</ele>
        <time>2014-09-04T11:48:38Z</time>
      </trkpt>
      <trkpt lat="39.824614925310016" lon="2.906378824263811">
        <ele>684.12</ele>
        <time>2014-09-04T11:48:46Z</time>
      </trkpt>
      <trkpt lat="39.824584666639566" lon="2.906330795958638">
        <ele>684.60000000000002</ele>
        <time>2014-09-04T11:48:48Z</time>
      </trkpt>
      <trkpt lat="39.824487855657935" lon="2.906105574220419">
        <ele>684.12</ele>
        <time>2014-09-04T11:49:01Z</time>
      </trkpt>
      <trkpt lat="39.82444460503757" lon="2.905996441841126">
        <ele>684.60000000000002</ele>
        <time>2014-09-04T11:49:11Z</time>
      </trkpt>
      <trkpt lat="39.82443387620151" lon="2.905981354415417">
        <ele>685.08000000000004</ele>
        <time>2014-09-04T11:49:12Z</time>
      </trkpt>
      <trkpt lat="39.824399929493666" lon="2.905854033306241">
        <ele>685.55999999999995</ele>
        <time>2014-09-04T11:49:24Z</time>
      </trkpt>
      <trkpt lat="39.824380986392498" lon="2.905749510973692">
        <ele>686.51999999999998</ele>
        <time>2014-09-04T11:49:34Z</time>
      </trkpt>
      <trkpt lat="39.824378052726388" lon="2.905729478225112">
        <ele>686.51999999999998</ele>
        <time>2014-09-04T11:49:35Z</time>
      </trkpt>
      <trkpt lat="39.824360618367791" lon="2.905665189027786">
        <ele>687</ele>
        <time>2014-09-04T11:49:39Z</time>
      </trkpt>
      <trkpt lat="39.824354415759444" lon="2.905636858195067">
        <ele>687</ele>
        <time>2014-09-04T11:49:40Z</time>
      </trkpt>
      <trkpt lat="39.824347291141748" lon="2.905607186257839">
        <ele>687</ele>
        <time>2014-09-04T11:49:41Z</time>
      </trkpt>
      <trkpt lat="39.824324995279312" lon="2.905552284792066">
        <ele>687.48000000000002</ele>
        <time>2014-09-04T11:49:45Z</time>
      </trkpt>
      <trkpt lat="39.824316445738077" lon="2.905530156567693">
        <ele>687.96000000000004</ele>
        <time>2014-09-04T11:49:46Z</time>
      </trkpt>
      <trkpt lat="39.824260538443923" lon="2.905441476032138">
        <ele>687.96000000000004</ele>
        <time>2014-09-04T11:49:55Z</time>
      </trkpt>
      <trkpt lat="39.824260538443923" lon="2.905441476032138">
        <ele>687.96000000000004</ele>
        <time>2014-09-04T11:49:58Z</time>
      </trkpt>
      <trkpt lat="39.824256850406528" lon="2.905421694740653">
        <ele>688.91999999999996</ele>
        <time>2014-09-04T11:49:59Z</time>
      </trkpt>
      <trkpt lat="39.824243187904358" lon="2.905369224026799">
        <ele>689.39999999999998</ele>
        <time>2014-09-04T11:50:03Z</time>
      </trkpt>
      <trkpt lat="39.824234722182155" lon="2.905344162136316">
        <ele>689.39999999999998</ele>
        <time>2014-09-04T11:50:04Z</time>
      </trkpt>
      <trkpt lat="39.824205636978149" lon="2.905284818261862">
        <ele>689.88</ele>
        <time>2014-09-04T11:50:08Z</time>
      </trkpt>
      <trkpt lat="39.824205385521054" lon="2.905265539884567">
        <ele>689.39999999999998</ele>
        <time>2014-09-04T11:50:09Z</time>
      </trkpt>
      <trkpt lat="39.824201194569468" lon="2.905246177688241">
        <ele>689.39999999999998</ele>
        <time>2014-09-04T11:50:10Z</time>
      </trkpt>
      <trkpt lat="39.824163895100355" lon="2.905206782743335">
        <ele>690.36000000000001</ele>
        <time>2014-09-04T11:50:14Z</time>
      </trkpt>
      <trkpt lat="39.824149562045932" lon="2.905195131897926">
        <ele>690.36000000000001</ele>
        <time>2014-09-04T11:50:15Z</time>
      </trkpt>
      <trkpt lat="39.824137156829238" lon="2.905181301757693">
        <ele>690.84000000000003</ele>
        <time>2014-09-04T11:50:16Z</time>
      </trkpt>
      <trkpt lat="39.824048057198524" lon="2.905082311481237">
        <ele>690.84000000000003</ele>
        <time>2014-09-04T11:50:25Z</time>
      </trkpt>
      <trkpt lat="39.824033556506038" lon="2.90506630204618">
        <ele>691.33000000000004</ele>
        <time>2014-09-04T11:50:26Z</time>
      </trkpt>
      <trkpt lat="39.82391344383359" lon="2.904952391982079">
        <ele>691.80999999999995</ele>
        <time>2014-09-04T11:50:36Z</time>
      </trkpt>
      <trkpt lat="39.823843874037266" lon="2.904835464432836">
        <ele>691.33000000000004</ele>
        <time>2014-09-04T11:50:47Z</time>
      </trkpt>
      <trkpt lat="39.823836665600538" lon="2.904809145256877">
        <ele>690.36000000000001</ele>
        <time>2014-09-04T11:50:48Z</time>
      </trkpt>
      <trkpt lat="39.823827194049954" lon="2.904782323166728">
        <ele>690.36000000000001</ele>
        <time>2014-09-04T11:50:49Z</time>
      </trkpt>
      <trkpt lat="39.823819063603878" lon="2.904761368408799">
        <ele>690.36000000000001</ele>
        <time>2014-09-04T11:50:50Z</time>
      </trkpt>
      <trkpt lat="39.823789307847619" lon="2.904707556590438">
        <ele>690.36000000000001</ele>
        <time>2014-09-04T11:50:57Z</time>
      </trkpt>
      <trkpt lat="39.823773046955466" lon="2.904698085039854">
        <ele>690.36000000000001</ele>
        <time>2014-09-04T11:50:58Z</time>
      </trkpt>
      <trkpt lat="39.823756366968155" lon="2.904685093089938">
        <ele>690.36000000000001</ele>
        <time>2014-09-04T11:50:59Z</time>
      </trkpt>
      <trkpt lat="39.823742872104049" lon="2.904667071998119">
        <ele>689.39999999999998</ele>
        <time>2014-09-04T11:51:00Z</time>
      </trkpt>
      <trkpt lat="39.82373314909637" lon="2.904648883268237">
        <ele>689.39999999999998</ele>
        <time>2014-09-04T11:51:01Z</time>
      </trkpt>
      <trkpt lat="39.823704985901713" lon="2.904583085328341">
        <ele>688.91999999999996</ele>
        <time>2014-09-04T11:51:08Z</time>
      </trkpt>
      <trkpt lat="39.823685875162482" lon="2.904557520523667">
        <ele>688.91999999999996</ele>
        <time>2014-09-04T11:51:09Z</time>
      </trkpt>
      <trkpt lat="39.823672715574503" lon="2.904538745060563">
        <ele>688.44000000000005</ele>
        <time>2014-09-04T11:51:10Z</time>
      </trkpt>
      <trkpt lat="39.823638182133436" lon="2.904469426721335">
        <ele>687.96000000000004</ele>
        <time>2014-09-04T11:51:16Z</time>
      </trkpt>
      <trkpt lat="39.823565594851971" lon="2.904325341805816">
        <ele>687.96000000000004</ele>
        <time>2014-09-04T11:51:26Z</time>
      </trkpt>
      <trkpt lat="39.823419582098722" lon="2.904148818925023">
        <ele>688.44000000000005</ele>
        <time>2014-09-04T11:51:40Z</time>
      </trkpt>
      <trkpt lat="39.823404997587204" lon="2.904141778126359">
        <ele>688.44000000000005</ele>
        <time>2014-09-04T11:51:41Z</time>
      </trkpt>
      <trkpt lat="39.823326962068677" lon="2.904125852510333">
        <ele>688.91999999999996</ele>
        <time>2014-09-04T11:51:47Z</time>
      </trkpt>
      <trkpt lat="39.82330952771008" lon="2.904125433415175">
        <ele>688.91999999999996</ele>
        <time>2014-09-04T11:51:48Z</time>
      </trkpt>
      <trkpt lat="39.823291338980198" lon="2.904123337939382">
        <ele>688.91999999999996</ele>
        <time>2014-09-04T11:51:49Z</time>
      </trkpt>
      <trkpt lat="39.823159826919436" lon="2.904127193614841">
        <ele>689.39999999999998</ele>
        <time>2014-09-04T11:52:00Z</time>
      </trkpt>
      <trkpt lat="39.823119342327118" lon="2.904128115624189">
        <ele>688.91999999999996</ele>
        <time>2014-09-04T11:52:03Z</time>
      </trkpt>
      <trkpt lat="39.823097046464682" lon="2.904128115624189">
        <ele>689.39999999999998</ele>
        <time>2014-09-04T11:52:04Z</time>
      </trkpt>
      <trkpt lat="39.823079025372863" lon="2.904133647680283">
        <ele>689.88</ele>
        <time>2014-09-04T11:52:05Z</time>
      </trkpt>
      <trkpt lat="39.823061926290393" lon="2.904144208878279">
        <ele>689.88</ele>
        <time>2014-09-04T11:52:06Z</time>
      </trkpt>
      <trkpt lat="39.823049353435636" lon="2.904160721227527">
        <ele>689.39999999999998</ele>
        <time>2014-09-04T11:52:07Z</time>
      </trkpt>
      <trkpt lat="39.823011718690395" lon="2.904197769239545">
        <ele>688.91999999999996</ele>
        <time>2014-09-04T11:52:12Z</time>
      </trkpt>
      <trkpt lat="39.822996631264687" lon="2.904204810038209">
        <ele>689.39999999999998</ele>
        <time>2014-09-04T11:52:13Z</time>
      </trkpt>
      <trkpt lat="39.822979280725121" lon="2.904211012646556">
        <ele>688.91999999999996</ele>
        <time>2014-09-04T11:52:14Z</time>
      </trkpt>
      <trkpt lat="39.82294449582696" lon="2.904213611036539">
        <ele>688.91999999999996</ele>
        <time>2014-09-04T11:52:19Z</time>
      </trkpt>
      <trkpt lat="39.822929659858346" lon="2.90420388802886">
        <ele>688.91999999999996</ele>
        <time>2014-09-04T11:52:20Z</time>
      </trkpt>
      <trkpt lat="39.822915075346828" lon="2.904193243011832">
        <ele>688.91999999999996</ele>
        <time>2014-09-04T11:52:21Z</time>
      </trkpt>
      <trkpt lat="39.822857826948166" lon="2.904190476983786">
        <ele>689.39999999999998</ele>
        <time>2014-09-04T11:52:27Z</time>
      </trkpt>
      <trkpt lat="39.822793370112777" lon="2.904212269932032">
        <ele>688.91999999999996</ele>
        <time>2014-09-04T11:52:33Z</time>
      </trkpt>
      <trkpt lat="39.822774091735482" lon="2.904213359579444">
        <ele>688.91999999999996</ele>
        <time>2014-09-04T11:52:34Z</time>
      </trkpt>
      <trkpt lat="39.822627156972885" lon="2.904233559966087">
        <ele>688.44000000000005</ele>
        <time>2014-09-04T11:52:47Z</time>
      </trkpt>
      <trkpt lat="39.822610476985574" lon="2.904234565794468">
        <ele>688.91999999999996</ele>
        <time>2014-09-04T11:52:49Z</time>
      </trkpt>
      <trkpt lat="39.82258340343833" lon="2.904237331822515">
        <ele>688.91999999999996</ele>
        <time>2014-09-04T11:52:50Z</time>
      </trkpt>
      <trkpt lat="39.822560017928481" lon="2.904243366792798">
        <ele>688.91999999999996</ele>
        <time>2014-09-04T11:52:51Z</time>
      </trkpt>
      <trkpt lat="39.822508385404944" lon="2.904263734817505">
        <ele>688.44000000000005</ele>
        <time>2014-09-04T11:52:57Z</time>
      </trkpt>
      <trkpt lat="39.822494555264711" lon="2.904279157519341">
        <ele>688.44000000000005</ele>
        <time>2014-09-04T11:52:58Z</time>
      </trkpt>
      <trkpt lat="39.822479384019971" lon="2.904293490573764">
        <ele>687.96000000000004</ele>
        <time>2014-09-04T11:52:59Z</time>
      </trkpt>
      <trkpt lat="39.822359103709459" lon="2.904345206916332">
        <ele>687.96000000000004</ele>
        <time>2014-09-04T11:53:09Z</time>
      </trkpt>
      <trkpt lat="39.822341166436672" lon="2.904338166117668">
        <ele>687.96000000000004</ele>
        <time>2014-09-04T11:53:10Z</time>
      </trkpt>
      <trkpt lat="39.822211666032672" lon="2.904326012358069">
        <ele>688.91999999999996</ele>
        <time>2014-09-04T11:53:21Z</time>
      </trkpt>
      <trkpt lat="39.822176713496447" lon="2.904364066198468">
        <ele>689.39999999999998</ele>
        <time>2014-09-04T11:53:29Z</time>
      </trkpt>
      <trkpt lat="39.822125248610973" lon="2.90438124909997">
        <ele>689.39999999999998</ele>
        <time>2014-09-04T11:53:38Z</time>
      </trkpt>
      <trkpt lat="39.822117369621992" lon="2.904376722872257">
        <ele>692.76999999999998</ele>
        <time>2014-09-04T11:53:41Z</time>
      </trkpt>
      <trkpt lat="39.822119297459722" lon="2.904378734529018">
        <ele>689.88</ele>
        <time>2014-09-04T11:53:46Z</time>
      </trkpt>
      <trkpt lat="39.822119297459722" lon="2.904378734529018">
        <ele>696.13</ele>
        <time>2014-09-04T11:53:51Z</time>
      </trkpt>
      <trkpt lat="39.82211435213685" lon="2.904379824176431">
        <ele>689.39999999999998</ele>
        <time>2014-09-04T11:53:52Z</time>
      </trkpt>
      <trkpt lat="39.82211435213685" lon="2.904379824176431">
        <ele>697.09000000000003</ele>
        <time>2014-09-04T11:53:53Z</time>
      </trkpt>
      <trkpt lat="39.822111753746867" lon="2.904378483071923">
        <ele>687.48000000000002</ele>
        <time>2014-09-04T11:53:54Z</time>
      </trkpt>
      <trkpt lat="39.822110747918487" lon="2.904382338747382">
        <ele>695.64999999999998</ele>
        <time>2014-09-04T11:53:55Z</time>
      </trkpt>
      <trkpt lat="39.822110747918487" lon="2.904382338747382">
        <ele>691.80999999999995</ele>
        <time>2014-09-04T11:53:56Z</time>
      </trkpt>
      <trkpt lat="39.822110747918487" lon="2.904382338747382">
        <ele>695.16999999999996</ele>
        <time>2014-09-04T11:54:01Z</time>
      </trkpt>
      <trkpt lat="39.822110747918487" lon="2.904382338747382">
        <ele>692.28999999999996</ele>
        <time>2014-09-04T11:54:03Z</time>
      </trkpt>
      <trkpt lat="39.822038831189275" lon="2.904348140582442">
        <ele>688.91999999999996</ele>
        <time>2014-09-04T11:54:13Z</time>
      </trkpt>
      <trkpt lat="39.822031203657389" lon="2.90434361435473">
        <ele>692.28999999999996</ele>
        <time>2014-09-04T11:54:15Z</time>
      </trkpt>
      <trkpt lat="39.822024665772915" lon="2.904340764507651">
        <ele>688.91999999999996</ele>
        <time>2014-09-04T11:54:26Z</time>
      </trkpt>
      <trkpt lat="39.822024665772915" lon="2.904340764507651">
        <ele>692.28999999999996</ele>
        <time>2014-09-04T11:54:27Z</time>
      </trkpt>
      <trkpt lat="39.82198828831315" lon="2.904279576614499">
        <ele>691.33000000000004</ele>
        <time>2014-09-04T11:54:36Z</time>
      </trkpt>
      <trkpt lat="39.821965238079429" lon="2.904234062880278">
        <ele>690.36000000000001</ele>
        <time>2014-09-04T11:54:41Z</time>
      </trkpt>
      <trkpt lat="39.821846885606647" lon="2.904149405658245">
        <ele>687.96000000000004</ele>
        <time>2014-09-04T11:54:52Z</time>
      </trkpt>
      <trkpt lat="39.821805227547884" lon="2.90407195687294">
        <ele>686.03999999999996</ele>
        <time>2014-09-04T11:55:04Z</time>
      </trkpt>
      <trkpt lat="39.821688216179609" lon="2.903970116749406">
        <ele>684.12</ele>
        <time>2014-09-04T11:55:13Z</time>
      </trkpt>
      <trkpt lat="39.821676900610328" lon="2.903956370428205">
        <ele>684.12</ele>
        <time>2014-09-04T11:55:14Z</time>
      </trkpt>
      <trkpt lat="39.821592913940549" lon="2.903892919421196">
        <ele>682.66999999999996</ele>
        <time>2014-09-04T11:55:23Z</time>
      </trkpt>
      <trkpt lat="39.821542538702488" lon="2.903852937743068">
        <ele>682.19000000000005</ele>
        <time>2014-09-04T11:55:27Z</time>
      </trkpt>
      <trkpt lat="39.821505155414343" lon="2.903800215572119">
        <ele>681.71000000000004</ele>
        <time>2014-09-04T11:55:31Z</time>
      </trkpt>
      <trkpt lat="39.821429885923862" lon="2.903773058205843">
        <ele>681.23000000000002</ele>
        <time>2014-09-04T11:55:35Z</time>
      </trkpt>
      <trkpt lat="39.821394765749574" lon="2.90374799631536">
        <ele>680.26999999999998</ele>
        <time>2014-09-04T11:55:40Z</time>
      </trkpt>
      <trkpt lat="39.821397699415684" lon="2.903632577508688">
        <ele>682.66999999999996</ele>
        <time>2014-09-04T11:55:49Z</time>
      </trkpt>
      <trkpt lat="39.821405494585633" lon="2.903620339930058">
        <ele>679.78999999999996</ele>
        <time>2014-09-04T11:55:50Z</time>
      </trkpt>
      <trkpt lat="39.82141169719398" lon="2.903602486476302">
        <ele>679.30999999999995</ele>
        <time>2014-09-04T11:55:54Z</time>
      </trkpt>
      <trkpt lat="39.821389652788639" lon="2.903512129560113">
        <ele>678.35000000000002</ele>
        <time>2014-09-04T11:56:00Z</time>
      </trkpt>
      <trkpt lat="39.82137355953455" lon="2.903486816212535">
        <ele>678.35000000000002</ele>
        <time>2014-09-04T11:56:02Z</time>
      </trkpt>
      <trkpt lat="39.821350090205669" lon="2.903463849797845">
        <ele>678.35000000000002</ele>
        <time>2014-09-04T11:56:03Z</time>
      </trkpt>
      <trkpt lat="39.821326369419694" lon="2.903443649411202">
        <ele>677.87</ele>
        <time>2014-09-04T11:56:04Z</time>
      </trkpt>
      <trkpt lat="39.821278089657426" lon="2.903427304700017">
        <ele>677.38999999999999</ele>
        <time>2014-09-04T11:56:15Z</time>
      </trkpt>
      <trkpt lat="39.821250764653087" lon="2.90339469909668">
        <ele>676.41999999999996</ele>
        <time>2014-09-04T11:56:21Z</time>
      </trkpt>
      <trkpt lat="39.821239281445742" lon="2.903286488726735">
        <ele>676.90999999999997</ele>
        <time>2014-09-04T11:56:29Z</time>
      </trkpt>
      <trkpt lat="39.821239029988647" lon="2.90326670743525">
        <ele>676.90999999999997</ele>
        <time>2014-09-04T11:56:30Z</time>
      </trkpt>
      <trkpt lat="39.821229977533221" lon="2.903216751292348">
        <ele>676.90999999999997</ele>
        <time>2014-09-04T11:56:33Z</time>
      </trkpt>
      <trkpt lat="39.821227379143238" lon="2.903193952515721">
        <ele>677.87</ele>
        <time>2014-09-04T11:56:34Z</time>
      </trkpt>
      <trkpt lat="39.821225954219699" lon="2.903172578662634">
        <ele>677.38999999999999</ele>
        <time>2014-09-04T11:56:35Z</time>
      </trkpt>
      <trkpt lat="39.821226457133889" lon="2.903038552030921">
        <ele>678.83000000000004</ele>
        <time>2014-09-04T11:56:45Z</time>
      </trkpt>
      <trkpt lat="39.821225451305509" lon="2.903021369129419">
        <ele>679.30999999999995</ele>
        <time>2014-09-04T11:56:46Z</time>
      </trkpt>
      <trkpt lat="39.821232240647078" lon="2.902933862060309">
        <ele>679.78999999999996</ele>
        <time>2014-09-04T11:56:55Z</time>
      </trkpt>
      <trkpt lat="39.821236012503505" lon="2.902915421873331">
        <ele>679.30999999999995</ele>
        <time>2014-09-04T11:56:56Z</time>
      </trkpt>
      <trkpt lat="39.821255458518863" lon="2.902763290330768">
        <ele>681.23000000000002</ele>
        <time>2014-09-04T11:57:07Z</time>
      </trkpt>
      <trkpt lat="39.821288315579295" lon="2.902631526812911">
        <ele>681.23000000000002</ele>
        <time>2014-09-04T11:57:19Z</time>
      </trkpt>
      <trkpt lat="39.821296529844403" lon="2.902607722207904">
        <ele>681.71000000000004</ele>
        <time>2014-09-04T11:57:20Z</time>
      </trkpt>
      <trkpt lat="39.821298290044069" lon="2.902579307556152">
        <ele>682.19000000000005</ele>
        <time>2014-09-04T11:57:21Z</time>
      </trkpt>
      <trkpt lat="39.821291835978627" lon="2.902542594820261">
        <ele>681.71000000000004</ele>
        <time>2014-09-04T11:57:23Z</time>
      </trkpt>
      <trkpt lat="39.821295440196991" lon="2.902525244280696">
        <ele>681.71000000000004</ele>
        <time>2014-09-04T11:57:24Z</time>
      </trkpt>
      <trkpt lat="39.821298373863101" lon="2.902506468817592">
        <ele>681.71000000000004</ele>
        <time>2014-09-04T11:57:25Z</time>
      </trkpt>
      <trkpt lat="39.821338942274451" lon="2.902413932606578">
        <ele>681.71000000000004</ele>
        <time>2014-09-04T11:57:34Z</time>
      </trkpt>
      <trkpt lat="39.821350844576955" lon="2.902396246790886">
        <ele>681.71000000000004</ele>
        <time>2014-09-04T11:57:35Z</time>
      </trkpt>
      <trkpt lat="39.821380935609341" lon="2.902340507134795">
        <ele>682.66999999999996</ele>
        <time>2014-09-04T11:57:39Z</time>
      </trkpt>
      <trkpt lat="39.821383701637387" lon="2.902318378910422">
        <ele>682.66999999999996</ele>
        <time>2014-09-04T11:57:40Z</time>
      </trkpt>
      <trkpt lat="39.821391412988305" lon="2.902267165482044">
        <ele>682.66999999999996</ele>
        <time>2014-09-04T11:57:44Z</time>
      </trkpt>
      <trkpt lat="39.821395436301827" lon="2.9022400919348">
        <ele>683.14999999999998</ele>
        <time>2014-09-04T11:57:46Z</time>
      </trkpt>
      <trkpt lat="39.821407087147236" lon="2.902179909870029">
        <ele>683.14999999999998</ele>
        <time>2014-09-04T11:57:51Z</time>
      </trkpt>
      <trkpt lat="39.821406248956919" lon="2.90215409360826">
        <ele>683.14999999999998</ele>
        <time>2014-09-04T11:57:52Z</time>
      </trkpt>
      <trkpt lat="39.821410523727536" lon="2.902090642601252">
        <ele>682.66999999999996</ele>
        <time>2014-09-04T11:57:57Z</time>
      </trkpt>
      <trkpt lat="39.821413122117519" lon="2.90206415578723">
        <ele>682.66999999999996</ele>
        <time>2014-09-04T11:57:58Z</time>
      </trkpt>
      <trkpt lat="39.821414379402995" lon="2.902039429172874">
        <ele>682.66999999999996</ele>
        <time>2014-09-04T11:57:59Z</time>
      </trkpt>
      <trkpt lat="39.821396442130208" lon="2.901963321492076">
        <ele>682.19000000000005</ele>
        <time>2014-09-04T11:58:06Z</time>
      </trkpt>
      <trkpt lat="39.821399124339223" lon="2.901871288195252">
        <ele>681.71000000000004</ele>
        <time>2014-09-04T11:58:12Z</time>
      </trkpt>
      <trkpt lat="39.821401303634048" lon="2.90184966288507">
        <ele>681.71000000000004</ele>
        <time>2014-09-04T11:58:13Z</time>
      </trkpt>
      <trkpt lat="39.821400381624699" lon="2.901822924613953">
        <ele>681.71000000000004</ele>
        <time>2014-09-04T11:58:18Z</time>
      </trkpt>
      <trkpt lat="39.821394430473447" lon="2.901789313182235">
        <ele>681.71000000000004</ele>
        <time>2014-09-04T11:58:19Z</time>
      </trkpt>
      <trkpt lat="39.821391077712178" lon="2.901752348989248">
        <ele>680.75</ele>
        <time>2014-09-04T11:58:20Z</time>
      </trkpt>
      <trkpt lat="39.82138772495091" lon="2.901725610718131">
        <ele>681.71000000000004</ele>
        <time>2014-09-04T11:58:21Z</time>
      </trkpt>
      <trkpt lat="39.821384539827704" lon="2.901681773364544">
        <ele>680.26999999999998</ele>
        <time>2014-09-04T11:58:26Z</time>
      </trkpt>
      <trkpt lat="39.821392334997654" lon="2.901669116690755">
        <ele>679.78999999999996</ele>
        <time>2014-09-04T11:58:27Z</time>
      </trkpt>
      <trkpt lat="39.821408931165934" lon="2.901644641533494">
        <ele>679.78999999999996</ele>
        <time>2014-09-04T11:58:31Z</time>
      </trkpt>
      <trkpt lat="39.821424186229706" lon="2.901622429490089">
        <ele>679.30999999999995</ele>
        <time>2014-09-04T11:58:32Z</time>
      </trkpt>
      <trkpt lat="39.821448493748903" lon="2.901556547731161">
        <ele>678.83000000000004</ele>
        <time>2014-09-04T11:58:38Z</time>
      </trkpt>
      <trkpt lat="39.821465592831373" lon="2.901515727862716">
        <ele>678.83000000000004</ele>
        <time>2014-09-04T11:58:41Z</time>
      </trkpt>
      <trkpt lat="39.821490151807666" lon="2.901414558291435">
        <ele>679.78999999999996</ele>
        <time>2014-09-04T11:58:52Z</time>
      </trkpt>
      <trkpt lat="39.821481350809336" lon="2.90139670483768">
        <ele>679.30999999999995</ele>
        <time>2014-09-04T11:59:22Z</time>
      </trkpt>
      <trkpt lat="39.821481350809336" lon="2.90139670483768">
        <ele>678.35000000000002</ele>
        <time>2014-09-04T11:59:49Z</time>
      </trkpt>
      <trkpt lat="39.821481518447399" lon="2.901394609361887">
        <ele>679.30999999999995</ele>
        <time>2014-09-04T12:00:17Z</time>
      </trkpt>
      <trkpt lat="39.821485625579953" lon="2.901387736201286">
        <ele>678.83000000000004</ele>
        <time>2014-09-04T12:00:41Z</time>
      </trkpt>
      <trkpt lat="39.821484116837382" lon="2.90141480974853">
        <ele>678.35000000000002</ele>
        <time>2014-09-04T12:00:49Z</time>
      </trkpt>
      <trkpt lat="39.821494678035378" lon="2.901431154459715">
        <ele>674.5</ele>
        <time>2014-09-04T12:00:54Z</time>
      </trkpt>
      <trkpt lat="39.821495180949569" lon="2.901431992650032">
        <ele>679.78999999999996</ele>
        <time>2014-09-04T12:00:55Z</time>
      </trkpt>
      <trkpt lat="39.821495180949569" lon="2.901431992650032">
        <ele>676.41999999999996</ele>
        <time>2014-09-04T12:00:56Z</time>
      </trkpt>
      <trkpt lat="39.821495180949569" lon="2.901431992650032">
        <ele>677.87</ele>
        <time>2014-09-04T12:00:59Z</time>
      </trkpt>
      <trkpt lat="39.821495180949569" lon="2.901431992650032">
        <ele>683.14999999999998</ele>
        <time>2014-09-04T12:01:12Z</time>
      </trkpt>
      <trkpt lat="39.821495180949569" lon="2.901431992650032">
        <ele>677.87</ele>
        <time>2014-09-04T12:01:13Z</time>
      </trkpt>
      <trkpt lat="39.821482105180621" lon="2.9014284722507">
        <ele>678.83000000000004</ele>
        <time>2014-09-04T12:01:26Z</time>
      </trkpt>
      <trkpt lat="39.821481015533209" lon="2.901429058983922">
        <ele>677.38999999999999</ele>
        <time>2014-09-04T12:02:01Z</time>
      </trkpt>
      <trkpt lat="39.821474058553576" lon="2.901435596868396">
        <ele>677.87</ele>
        <time>2014-09-04T12:02:16Z</time>
      </trkpt>
      <trkpt lat="39.821460815146565" lon="2.901461580768228">
        <ele>677.38999999999999</ele>
        <time>2014-09-04T12:02:19Z</time>
      </trkpt>
      <trkpt lat="39.821453187614679" lon="2.901484044268727">
        <ele>676.90999999999997</ele>
        <time>2014-09-04T12:02:20Z</time>
      </trkpt>
      <trkpt lat="39.821443213149905" lon="2.901499550789595">
        <ele>677.38999999999999</ele>
        <time>2014-09-04T12:02:21Z</time>
      </trkpt>
      <trkpt lat="39.821378672495484" lon="2.901554368436337">
        <ele>677.87</ele>
        <time>2014-09-04T12:02:30Z</time>
      </trkpt>
      <trkpt lat="39.821334918960929" lon="2.901643803343177">
        <ele>678.35000000000002</ele>
        <time>2014-09-04T12:02:40Z</time>
      </trkpt>
      <trkpt lat="39.821340031921864" lon="2.901640702039003">
        <ele>679.30999999999995</ele>
        <time>2014-09-04T12:02:50Z</time>
      </trkpt>
      <trkpt lat="39.821343552321196" lon="2.901653526350856">
        <ele>677.87</ele>
        <time>2014-09-04T12:02:52Z</time>
      </trkpt>
      <trkpt lat="39.821352604776621" lon="2.901688227429986">
        <ele>679.78999999999996</ele>
        <time>2014-09-04T12:02:55Z</time>
      </trkpt>
      <trkpt lat="39.821370458230376" lon="2.901763916015625">
        <ele>676.41999999999996</ele>
        <time>2014-09-04T12:03:03Z</time>
      </trkpt>
      <trkpt lat="39.821374900639057" lon="2.901779422536492">
        <ele>679.78999999999996</ele>
        <time>2014-09-04T12:03:04Z</time>
      </trkpt>
      <trkpt lat="39.821373978629708" lon="2.901805825531483">
        <ele>680.75</ele>
        <time>2014-09-04T12:03:06Z</time>
      </trkpt>
      <trkpt lat="39.821370458230376" lon="2.901833904907107">
        <ele>678.35000000000002</ele>
        <time>2014-09-04T12:03:08Z</time>
      </trkpt>
      <trkpt lat="39.821367273107171" lon="2.90184915997088">
        <ele>680.26999999999998</ele>
        <time>2014-09-04T12:03:09Z</time>
      </trkpt>
      <trkpt lat="39.821357885375619" lon="2.901888219639659">
        <ele>680.26999999999998</ele>
        <time>2014-09-04T12:03:13Z</time>
      </trkpt>
      <trkpt lat="39.821391832083464" lon="2.902042111381888">
        <ele>680.26999999999998</ele>
        <time>2014-09-04T12:03:26Z</time>
      </trkpt>
      <trkpt lat="39.821395939216018" lon="2.902065832167864">
        <ele>680.26999999999998</ele>
        <time>2014-09-04T12:03:27Z</time>
      </trkpt>
      <trkpt lat="39.821390574797988" lon="2.902101036161184">
        <ele>680.26999999999998</ele>
        <time>2014-09-04T12:03:31Z</time>
      </trkpt>
      <trkpt lat="39.821386802941561" lon="2.902125678956509">
        <ele>679.78999999999996</ele>
        <time>2014-09-04T12:03:32Z</time>
      </trkpt>
      <trkpt lat="39.821373308077455" lon="2.902203546836972">
        <ele>679.78999999999996</ele>
        <time>2014-09-04T12:03:38Z</time>
      </trkpt>
      <trkpt lat="39.821369955316186" lon="2.902237074449658">
        <ele>679.78999999999996</ele>
        <time>2014-09-04T12:03:39Z</time>
      </trkpt>
      <trkpt lat="39.821365009993315" lon="2.902267081663013">
        <ele>679.78999999999996</ele>
        <time>2014-09-04T12:03:40Z</time>
      </trkpt>
      <trkpt lat="39.821359226480126" lon="2.902289293706417">
        <ele>680.26999999999998</ele>
        <time>2014-09-04T12:03:41Z</time>
      </trkpt>
      <trkpt lat="39.821334583684802" lon="2.902327179908752">
        <ele>679.30999999999995</ele>
        <time>2014-09-04T12:03:46Z</time>
      </trkpt>
      <trkpt lat="39.821324022486806" lon="2.902359198778868">
        <ele>679.30999999999995</ele>
        <time>2014-09-04T12:03:47Z</time>
      </trkpt>
      <trkpt lat="39.821292003616691" lon="2.902487525716424">
        <ele>678.83000000000004</ele>
        <time>2014-09-04T12:03:55Z</time>
      </trkpt>
      <trkpt lat="39.821291249245405" lon="2.902511833235622">
        <ele>679.30999999999995</ele>
        <time>2014-09-04T12:03:56Z</time>
      </trkpt>
      <trkpt lat="39.821294685825706" lon="2.902608728036284">
        <ele>679.30999999999995</ele>
        <time>2014-09-04T12:04:03Z</time>
      </trkpt>
      <trkpt lat="39.821285968646407" lon="2.902636053040624">
        <ele>678.83000000000004</ele>
        <time>2014-09-04T12:04:04Z</time>
      </trkpt>
      <trkpt lat="39.821277922019362" lon="2.902654157951474">
        <ele>678.83000000000004</ele>
        <time>2014-09-04T12:04:05Z</time>
      </trkpt>
      <trkpt lat="39.821272641420364" lon="2.902679974213243">
        <ele>678.83000000000004</ele>
        <time>2014-09-04T12:04:09Z</time>
      </trkpt>
      <trkpt lat="39.821268115192652" lon="2.902706963941455">
        <ele>678.83000000000004</ele>
        <time>2014-09-04T12:04:10Z</time>
      </trkpt>
      <trkpt lat="39.821260068565607" lon="2.902735294774175">
        <ele>678.83000000000004</ele>
        <time>2014-09-04T12:04:11Z</time>
      </trkpt>
      <trkpt lat="39.821251770481467" lon="2.902754237875342">
        <ele>678.83000000000004</ele>
        <time>2014-09-04T12:04:12Z</time>
      </trkpt>
      <trkpt lat="39.821240371093154" lon="2.902791453525424">
        <ele>678.35000000000002</ele>
        <time>2014-09-04T12:04:17Z</time>
      </trkpt>
      <trkpt lat="39.821236012503505" lon="2.902814252302051">
        <ele>677.38999999999999</ele>
        <time>2014-09-04T12:04:18Z</time>
      </trkpt>
      <trkpt lat="39.821217907592654" lon="2.902986165136099">
        <ele>676.41999999999996</ele>
        <time>2014-09-04T12:04:30Z</time>
      </trkpt>
      <trkpt lat="39.821199215948582" lon="2.903016256168485">
        <ele>676.41999999999996</ele>
        <time>2014-09-04T12:04:34Z</time>
      </trkpt>
      <trkpt lat="39.821195611730218" lon="2.903072414919734">
        <ele>677.38999999999999</ele>
        <time>2014-09-04T12:04:41Z</time>
      </trkpt>
      <trkpt lat="39.821193432435393" lon="2.903093034401536">
        <ele>674.98000000000002</ele>
        <time>2014-09-04T12:04:45Z</time>
      </trkpt>
      <trkpt lat="39.821192258968949" lon="2.903113486245275">
        <ele>674.98000000000002</ele>
        <time>2014-09-04T12:04:46Z</time>
      </trkpt>
      <trkpt lat="39.821195947006345" lon="2.903136117383838">
        <ele>675.46000000000004</ele>
        <time>2014-09-04T12:04:47Z</time>
      </trkpt>
      <trkpt lat="39.821202233433723" lon="2.903156653046608">
        <ele>674.01999999999998</ele>
        <time>2014-09-04T12:04:48Z</time>
      </trkpt>
      <trkpt lat="39.821220841258764" lon="2.903191605582833">
        <ele>674.98000000000002</ele>
        <time>2014-09-04T12:04:50Z</time>
      </trkpt>
      <trkpt lat="39.821223104372621" lon="2.903213817626238">
        <ele>674.98000000000002</ele>
        <time>2014-09-04T12:04:51Z</time>
      </trkpt>
      <trkpt lat="39.821261158213019" lon="2.90340106934309">
        <ele>674.01999999999998</ele>
        <time>2014-09-04T12:05:01Z</time>
      </trkpt>
      <trkpt lat="39.821270210668445" lon="2.90341473184526">
        <ele>673.53999999999996</ele>
        <time>2014-09-04T12:05:03Z</time>
      </trkpt>
      <trkpt lat="39.821280855685472" lon="2.903438284993172">
        <ele>673.53999999999996</ele>
        <time>2014-09-04T12:05:04Z</time>
      </trkpt>
      <trkpt lat="39.821289489045739" lon="2.90346116758883">
        <ele>674.01999999999998</ele>
        <time>2014-09-04T12:05:05Z</time>
      </trkpt>
      <trkpt lat="39.821290411055088" lon="2.903490168973804">
        <ele>673.53999999999996</ele>
        <time>2014-09-04T12:05:06Z</time>
      </trkpt>
      <trkpt lat="39.821278089657426" lon="2.903521684929729">
        <ele>673.05999999999995</ele>
        <time>2014-09-04T12:05:11Z</time>
      </trkpt>
      <trkpt lat="39.821274150162935" lon="2.903540711849928">
        <ele>673.05999999999995</ele>
        <time>2014-09-04T12:05:12Z</time>
      </trkpt>
      <trkpt lat="39.821261493489146" lon="2.903562756255269">
        <ele>673.05999999999995</ele>
        <time>2014-09-04T12:05:13Z</time>
      </trkpt>
      <trkpt lat="39.821245400235057" lon="2.903589075431228">
        <ele>673.53999999999996</ele>
        <time>2014-09-04T12:05:14Z</time>
      </trkpt>
      <trkpt lat="39.821229306980968" lon="2.903610533103347">
        <ele>673.53999999999996</ele>
        <time>2014-09-04T12:05:15Z</time>
      </trkpt>
      <trkpt lat="39.821219081059098" lon="2.903624111786485">
        <ele>673.53999999999996</ele>
        <time>2014-09-04T12:05:16Z</time>
      </trkpt>
      <trkpt lat="39.821122270077467" lon="2.903737602755427">
        <ele>673.53999999999996</ele>
        <time>2014-09-04T12:05:26Z</time>
      </trkpt>
      <trkpt lat="39.821098716929555" lon="2.903746906667948">
        <ele>672.58000000000004</ele>
        <time>2014-09-04T12:05:28Z</time>
      </trkpt>
      <trkpt lat="39.821068458259106" lon="2.903775321319699">
        <ele>671.62</ele>
        <time>2014-09-04T12:05:32Z</time>
      </trkpt>
      <trkpt lat="39.821055717766285" lon="2.903791163116694">
        <ele>671.62</ele>
        <time>2014-09-04T12:05:33Z</time>
      </trkpt>
      <trkpt lat="39.821042139083147" lon="2.903809100389481">
        <ele>671.62</ele>
        <time>2014-09-04T12:05:34Z</time>
      </trkpt>
      <trkpt lat="39.821026464924216" lon="2.903828378766775">
        <ele>671.13999999999999</ele>
        <time>2014-09-04T12:05:35Z</time>
      </trkpt>
      <trkpt lat="39.8210134729743" lon="2.903844807296991">
        <ele>671.13999999999999</ele>
        <time>2014-09-04T12:05:36Z</time>
      </trkpt>
      <trkpt lat="39.820938957855105" lon="2.903919741511345">
        <ele>670.17999999999995</ele>
        <time>2014-09-04T12:05:44Z</time>
      </trkpt>
      <trkpt lat="39.820925295352936" lon="2.903933739289641">
        <ele>670.17999999999995</ele>
        <time>2014-09-04T12:05:47Z</time>
      </trkpt>
      <trkpt lat="39.820913979783654" lon="2.90394782088697">
        <ele>669.70000000000005</ele>
        <time>2014-09-04T12:05:48Z</time>
      </trkpt>
      <trkpt lat="39.820853462442756" lon="2.903983108699322">
        <ele>668.73000000000002</ele>
        <time>2014-09-04T12:05:51Z</time>
      </trkpt>
      <trkpt lat="39.820834184065461" lon="2.903978247195482">
        <ele>668.73000000000002</ele>
        <time>2014-09-04T12:05:52Z</time>
      </trkpt>
      <trkpt lat="39.82080677524209" lon="2.903957376256585">
        <ele>668.25</ele>
        <time>2014-09-04T12:05:55Z</time>
      </trkpt>
      <trkpt lat="39.820691104978323" lon="2.903936002403498">
        <ele>665.85000000000002</ele>
        <time>2014-09-04T12:06:03Z</time>
      </trkpt>
      <trkpt lat="39.820683728903532" lon="2.903927871957421">
        <ele>665.85000000000002</ele>
        <time>2014-09-04T12:06:04Z</time>
      </trkpt>
      <trkpt lat="39.8206767719239" lon="2.903922088444233">
        <ele>665.85000000000002</ele>
        <time>2014-09-04T12:06:07Z</time>
      </trkpt>
      <trkpt lat="39.820628073066473" lon="2.903917646035552">
        <ele>664.88999999999999</ele>
        <time>2014-09-04T12:06:09Z</time>
      </trkpt>
      <trkpt lat="39.820599239319563" lon="2.903915215283632">
        <ele>664.40999999999997</ele>
        <time>2014-09-04T12:06:10Z</time>
      </trkpt>
      <trkpt lat="39.820572333410382" lon="2.903916137292981">
        <ele>664.40999999999997</ele>
        <time>2014-09-04T12:06:11Z</time>
      </trkpt>
      <trkpt lat="39.820548025891185" lon="2.903912868350744">
        <ele>663.92999999999995</ele>
        <time>2014-09-04T12:06:12Z</time>
      </trkpt>
      <trkpt lat="39.820507876574993" lon="2.903892667964101">
        <ele>663.92999999999995</ele>
        <time>2014-09-04T12:06:17Z</time>
      </trkpt>
      <trkpt lat="39.82034107670188" lon="2.903932062909007">
        <ele>661.51999999999998</ele>
        <time>2014-09-04T12:06:29Z</time>
      </trkpt>
      <trkpt lat="39.820214845240116" lon="2.903922675177455">
        <ele>658.63999999999999</ele>
        <time>2014-09-04T12:06:40Z</time>
      </trkpt>
      <trkpt lat="39.820119459182024" lon="2.903910605236888">
        <ele>656.72000000000003</ele>
        <time>2014-09-04T12:06:49Z</time>
      </trkpt>
      <trkpt lat="39.820075538009405" lon="2.90390876121819">
        <ele>656.24000000000001</ele>
        <time>2014-09-04T12:06:51Z</time>
      </trkpt>
      <trkpt lat="39.820063384249806" lon="2.903899038210511">
        <ele>656.24000000000001</ele>
        <time>2014-09-04T12:06:52Z</time>
      </trkpt>
      <trkpt lat="39.820041842758656" lon="2.903904989361763">
        <ele>656.24000000000001</ele>
        <time>2014-09-04T12:06:54Z</time>
      </trkpt>
      <trkpt lat="39.820013092830777" lon="2.903909096494317">
        <ele>654.79999999999995</ele>
        <time>2014-09-04T12:06:57Z</time>
      </trkpt>
      <trkpt lat="39.819996831938624" lon="2.903911359608173">
        <ele>653.83000000000004</ele>
        <time>2014-09-04T12:06:58Z</time>
      </trkpt>
      <trkpt lat="39.81998048722744" lon="2.90391119197011">
        <ele>653.35000000000002</ele>
        <time>2014-09-04T12:06:59Z</time>
      </trkpt>
      <trkpt lat="39.81996632181108" lon="2.903910102322698">
        <ele>653.83000000000004</ele>
        <time>2014-09-04T12:07:00Z</time>
      </trkpt>
      <trkpt lat="39.819954419508576" lon="2.903899205848575">
        <ele>653.83000000000004</ele>
        <time>2014-09-04T12:07:01Z</time>
      </trkpt>
      <trkpt lat="39.819944025948644" lon="2.90388478897512">
        <ele>652.87</ele>
        <time>2014-09-04T12:07:02Z</time>
      </trkpt>
      <trkpt lat="39.819937236607075" lon="2.903870958834887">
        <ele>652.87</ele>
        <time>2014-09-04T12:07:03Z</time>
      </trkpt>
      <trkpt lat="39.819912929087877" lon="2.903817566111684">
        <ele>651.90999999999997</ele>
        <time>2014-09-04T12:07:07Z</time>
      </trkpt>
      <trkpt lat="39.819899685680866" lon="2.903808681294322">
        <ele>651.42999999999995</ele>
        <time>2014-09-04T12:07:08Z</time>
      </trkpt>
      <trkpt lat="39.81988275423646" lon="2.903799545019865">
        <ele>651.42999999999995</ele>
        <time>2014-09-04T12:07:09Z</time>
      </trkpt>
      <trkpt lat="39.819841682910919" lon="2.903778841719031">
        <ele>649.99000000000001</ele>
        <time>2014-09-04T12:07:11Z</time>
      </trkpt>
      <trkpt lat="39.819805305451155" lon="2.903744056820869">
        <ele>649.02999999999997</ele>
        <time>2014-09-04T12:07:18Z</time>
      </trkpt>
      <trkpt lat="39.819796001538634" lon="2.903731986880302">
        <ele>648.54999999999995</ele>
        <time>2014-09-04T12:07:19Z</time>
      </trkpt>
      <trkpt lat="39.819740429520607" lon="2.9037044942379">
        <ele>648.07000000000005</ele>
        <time>2014-09-04T12:07:25Z</time>
      </trkpt>
      <trkpt lat="39.819725845009089" lon="2.903706589713693">
        <ele>648.07000000000005</ele>
        <time>2014-09-04T12:07:26Z</time>
      </trkpt>
      <trkpt lat="39.819591986015439" lon="2.903711535036564">
        <ele>646.13999999999999</ele>
        <time>2014-09-04T12:07:38Z</time>
      </trkpt>
      <trkpt lat="39.819579664617777" lon="2.903709942474961">
        <ele>646.13999999999999</ele>
        <time>2014-09-04T12:07:39Z</time>
      </trkpt>
      <trkpt lat="39.819554351270199" lon="2.903707092627883">
        <ele>645.17999999999995</ele>
        <time>2014-09-04T12:07:44Z</time>
      </trkpt>
      <trkpt lat="39.819541107863188" lon="2.90370156057179">
        <ele>644.70000000000005</ele>
        <time>2014-09-04T12:07:45Z</time>
      </trkpt>
      <trkpt lat="39.819527193903923" lon="2.903697621077299">
        <ele>644.70000000000005</ele>
        <time>2014-09-04T12:07:46Z</time>
      </trkpt>
      <trkpt lat="39.819509256631136" lon="2.903700722381473">
        <ele>644.70000000000005</ele>
        <time>2014-09-04T12:07:47Z</time>
      </trkpt>
      <trkpt lat="39.819495342671871" lon="2.90369912981987">
        <ele>644.22000000000003</ele>
        <time>2014-09-04T12:07:48Z</time>
      </trkpt>
      <trkpt lat="39.819481261074543" lon="2.903695777058601">
        <ele>643.74000000000001</ele>
        <time>2014-09-04T12:07:49Z</time>
      </trkpt>
      <trkpt lat="39.81944396160543" lon="2.903694687411189">
        <ele>642.77999999999997</ele>
        <time>2014-09-04T12:07:55Z</time>
      </trkpt>
      <trkpt lat="39.819424096494913" lon="2.903705751523376">
        <ele>641.82000000000005</ele>
        <time>2014-09-04T12:07:56Z</time>
      </trkpt>
      <trkpt lat="39.819402052089572" lon="2.903718575835228">
        <ele>641.82000000000005</ele>
        <time>2014-09-04T12:07:57Z</time>
      </trkpt>
      <trkpt lat="39.819386377930641" lon="2.90372502990067">
        <ele>641.34000000000003</ele>
        <time>2014-09-04T12:07:58Z</time>
      </trkpt>
      <trkpt lat="39.819373553618789" lon="2.903723353520036">
        <ele>641.82000000000005</ele>
        <time>2014-09-04T12:07:59Z</time>
      </trkpt>
      <trkpt lat="39.8193384334445" lon="2.903727125376463">
        <ele>640.86000000000001</ele>
        <time>2014-09-04T12:08:04Z</time>
      </trkpt>
      <trkpt lat="39.819323681294918" lon="2.903740787878633">
        <ele>640.38</ele>
        <time>2014-09-04T12:08:05Z</time>
      </trkpt>
      <trkpt lat="39.819304989650846" lon="2.903752941638231">
        <ele>640.38</ele>
        <time>2014-09-04T12:08:06Z</time>
      </trkpt>
      <trkpt lat="39.819256374612451" lon="2.903777249157429">
        <ele>639.40999999999997</ele>
        <time>2014-09-04T12:08:12Z</time>
      </trkpt>
      <trkpt lat="39.819217398762703" lon="2.903839945793152">
        <ele>637.97000000000003</ele>
        <time>2014-09-04T12:08:17Z</time>
      </trkpt>
      <trkpt lat="39.819203736260533" lon="2.903843801468611">
        <ele>637.49000000000001</ele>
        <time>2014-09-04T12:08:18Z</time>
      </trkpt>
      <trkpt lat="39.819180350750685" lon="2.903846232220531">
        <ele>637.49000000000001</ele>
        <time>2014-09-04T12:08:19Z</time>
      </trkpt>
      <trkpt lat="39.819149589166045" lon="2.903846483677626">
        <ele>637.49000000000001</ele>
        <time>2014-09-04T12:08:20Z</time>
      </trkpt>
      <trkpt lat="39.819110864773393" lon="2.903847824782133">
        <ele>636.52999999999997</ele>
        <time>2014-09-04T12:08:24Z</time>
      </trkpt>
      <trkpt lat="39.819092759862542" lon="2.903844052925706">
        <ele>635.57000000000005</ele>
        <time>2014-09-04T12:08:25Z</time>
      </trkpt>
      <trkpt lat="39.819064261391759" lon="2.903838437050581">
        <ele>635.57000000000005</ele>
        <time>2014-09-04T12:08:27Z</time>
      </trkpt>
      <trkpt lat="39.8190345056355" lon="2.903822846710682">
        <ele>635.57000000000005</ele>
        <time>2014-09-04T12:08:29Z</time>
      </trkpt>
      <trkpt lat="39.819008940830827" lon="2.903814045712352">
        <ele>635.09000000000003</ele>
        <time>2014-09-04T12:08:30Z</time>
      </trkpt>
      <trkpt lat="39.818972898647189" lon="2.903821254149079">
        <ele>634.61000000000001</ele>
        <time>2014-09-04T12:08:35Z</time>
      </trkpt>
      <trkpt lat="39.81895487755537" lon="2.903812536969781">
        <ele>635.09000000000003</ele>
        <time>2014-09-04T12:08:36Z</time>
      </trkpt>
      <trkpt lat="39.818937862291932" lon="2.903804238885641">
        <ele>635.09000000000003</ele>
        <time>2014-09-04T12:08:37Z</time>
      </trkpt>
      <trkpt lat="39.818926295265555" lon="2.903803819790483">
        <ele>634.61000000000001</ele>
        <time>2014-09-04T12:08:38Z</time>
      </trkpt>
      <trkpt lat="39.818911207839847" lon="2.903808848932385">
        <ele>634.13</ele>
        <time>2014-09-04T12:08:39Z</time>
      </trkpt>
      <trkpt lat="39.818825460970402" lon="2.903792001307011">
        <ele>633.16999999999996</ele>
        <time>2014-09-04T12:08:47Z</time>
      </trkpt>
      <trkpt lat="39.818755807355046" lon="2.90377146564424">
        <ele>632.20000000000005</ele>
        <time>2014-09-04T12:08:52Z</time>
      </trkpt>
      <trkpt lat="39.818712305277586" lon="2.903758641332388">
        <ele>631.72000000000003</ele>
        <time>2014-09-04T12:08:56Z</time>
      </trkpt>
      <trkpt lat="39.818579703569412" lon="2.903695274144411">
        <ele>628.84000000000003</ele>
        <time>2014-09-04T12:09:07Z</time>
      </trkpt>
      <trkpt lat="39.818505104631186" lon="2.903640875592828">
        <ele>627.39999999999998</ele>
        <time>2014-09-04T12:09:16Z</time>
      </trkpt>
      <trkpt lat="39.818495297804475" lon="2.903628218919039">
        <ele>626.91999999999996</ele>
        <time>2014-09-04T12:09:17Z</time>
      </trkpt>
      <trkpt lat="39.818483144044876" lon="2.903619166463614">
        <ele>626.44000000000005</ele>
        <time>2014-09-04T12:09:18Z</time>
      </trkpt>
      <trkpt lat="39.818471744656563" lon="2.903606090694666">
        <ele>626.44000000000005</ele>
        <time>2014-09-04T12:09:19Z</time>
      </trkpt>
      <trkpt lat="39.818462524563074" lon="2.903593182563782">
        <ele>625.96000000000004</ele>
        <time>2014-09-04T12:09:20Z</time>
      </trkpt>
      <trkpt lat="39.818350709974766" lon="2.903490923345089">
        <ele>624.50999999999999</ele>
        <time>2014-09-04T12:09:30Z</time>
      </trkpt>
      <trkpt lat="39.818326905369759" lon="2.903478518128395">
        <ele>624.50999999999999</ele>
        <time>2014-09-04T12:09:31Z</time>
      </trkpt>
      <trkpt lat="39.818302597850561" lon="2.903459658846259">
        <ele>624.02999999999997</ele>
        <time>2014-09-04T12:09:33Z</time>
      </trkpt>
      <trkpt lat="39.818299077451229" lon="2.903437279164791">
        <ele>623.07000000000005</ele>
        <time>2014-09-04T12:09:34Z</time>
      </trkpt>
      <trkpt lat="39.818294467404485" lon="2.903416743502021">
        <ele>623.07000000000005</ele>
        <time>2014-09-04T12:09:35Z</time>
      </trkpt>
      <trkpt lat="39.81828591786325" lon="2.903398219496012">
        <ele>622.59000000000003</ele>
        <time>2014-09-04T12:09:36Z</time>
      </trkpt>
      <trkpt lat="39.81828055344522" lon="2.903380114585161">
        <ele>622.59000000000003</ele>
        <time>2014-09-04T12:09:37Z</time>
      </trkpt>
      <trkpt lat="39.818277787417173" lon="2.903356645256281">
        <ele>622.59000000000003</ele>
        <time>2014-09-04T12:09:38Z</time>
      </trkpt>
      <trkpt lat="39.818275943398476" lon="2.903333259746432">
        <ele>622.11000000000001</ele>
        <time>2014-09-04T12:09:39Z</time>
      </trkpt>
      <trkpt lat="39.818264041095972" lon="2.903287326917052">
        <ele>622.11000000000001</ele>
        <time>2014-09-04T12:09:42Z</time>
      </trkpt>
      <trkpt lat="39.818398905918002" lon="2.903207950294018">
        <ele>620.66999999999996</ele>
        <time>2014-09-04T12:09:51Z</time>
      </trkpt>
      <trkpt lat="39.818458249792457" lon="2.903214991092682">
        <ele>619.71000000000004</ele>
        <time>2014-09-04T12:10:00Z</time>
      </trkpt>
      <trkpt lat="39.818575093522668" lon="2.903217170387507">
        <ele>619.71000000000004</ele>
        <time>2014-09-04T12:10:08Z</time>
      </trkpt>
      <trkpt lat="39.818683555349708" lon="2.903206693008542">
        <ele>619.23000000000002</ele>
        <time>2014-09-04T12:10:17Z</time>
      </trkpt>
      <trkpt lat="39.818809954449534" lon="2.903147181496024">
        <ele>618.75</ele>
        <time>2014-09-04T12:10:28Z</time>
      </trkpt>
      <trkpt lat="39.818841889500618" lon="2.903098147362471">
        <ele>617.77999999999997</ele>
        <time>2014-09-04T12:10:33Z</time>
      </trkpt>
      <trkpt lat="39.818886565044522" lon="2.903005862608552">
        <ele>616.82000000000005</ele>
        <time>2014-09-04T12:10:39Z</time>
      </trkpt>
      <trkpt lat="39.818961499258876" lon="2.902840822935104">
        <ele>613.46000000000004</ele>
        <time>2014-09-04T12:10:52Z</time>
      </trkpt>
      <trkpt lat="39.818967282772064" lon="2.902817269787192">
        <ele>613.46000000000004</ele>
        <time>2014-09-04T12:10:54Z</time>
      </trkpt>
      <trkpt lat="39.818976083770394" lon="2.902794554829598">
        <ele>612.01999999999998</ele>
        <time>2014-09-04T12:10:56Z</time>
      </trkpt>
      <trkpt lat="39.819019250571728" lon="2.902602190151811">
        <ele>610.57000000000005</ele>
        <time>2014-09-04T12:11:05Z</time>
      </trkpt>
      <trkpt lat="39.819020926952362" lon="2.902602357789874">
        <ele>610.57000000000005</ele>
        <time>2014-09-04T12:11:06Z</time>
      </trkpt>
      <trkpt lat="39.819032996892929" lon="2.902573356404901">
        <ele>610.57000000000005</ele>
        <time>2014-09-04T12:11:08Z</time>
      </trkpt>
      <trkpt lat="39.819076666608453" lon="2.902503786608577">
        <ele>609.13</ele>
        <time>2014-09-04T12:11:17Z</time>
      </trkpt>
      <trkpt lat="39.81910047121346" lon="2.902434132993221">
        <ele>607.21000000000004</ele>
        <time>2014-09-04T12:11:24Z</time>
      </trkpt>
      <trkpt lat="39.819133412092924" lon="2.902301447466016">
        <ele>605.76999999999998</ele>
        <time>2014-09-04T12:11:31Z</time>
      </trkpt>
      <trkpt lat="39.819160737097263" lon="2.902265153825283">
        <ele>605.28999999999996</ele>
        <time>2014-09-04T12:11:35Z</time>
      </trkpt>
      <trkpt lat="39.819125114008784" lon="2.90217412635684">
        <ele>603.36000000000001</ele>
        <time>2014-09-04T12:11:42Z</time>
      </trkpt>
      <trkpt lat="39.819120252504945" lon="2.902179574593902">
        <ele>603.36000000000001</ele>
        <time>2014-09-04T12:11:44Z</time>
      </trkpt>
      <trkpt lat="39.819083707407117" lon="2.90218728594482">
        <ele>603.85000000000002</ele>
        <time>2014-09-04T12:11:49Z</time>
      </trkpt>
      <trkpt lat="39.819032745435834" lon="2.902228692546487">
        <ele>604.80999999999995</ele>
        <time>2014-09-04T12:11:58Z</time>
      </trkpt>
      <trkpt lat="39.818991171196103" lon="2.902287114411593">
        <ele>604.33000000000004</ele>
        <time>2014-09-04T12:12:03Z</time>
      </trkpt>
      <trkpt lat="39.818931659683585" lon="2.90243212133646">
        <ele>603.85000000000002</ele>
        <time>2014-09-04T12:12:14Z</time>
      </trkpt>
      <trkpt lat="39.818810876458883" lon="2.90253178216517">
        <ele>604.33000000000004</ele>
        <time>2014-09-04T12:12:26Z</time>
      </trkpt>
      <trkpt lat="39.818788412958384" lon="2.902542427182198">
        <ele>604.33000000000004</ele>
        <time>2014-09-04T12:12:28Z</time>
      </trkpt>
      <trkpt lat="39.818656900897622" lon="2.902598585933447">
        <ele>604.80999999999995</ele>
        <time>2014-09-04T12:12:40Z</time>
      </trkpt>
      <trkpt lat="39.818560760468245" lon="2.902631359174848">
        <ele>604.80999999999995</ele>
        <time>2014-09-04T12:12:53Z</time>
      </trkpt>
      <trkpt lat="39.818512396886945" lon="2.902650469914079">
        <ele>605.76999999999998</ele>
        <time>2014-09-04T12:13:00Z</time>
      </trkpt>
      <trkpt lat="39.818470403552055" lon="2.902617277577519">
        <ele>605.28999999999996</ele>
        <time>2014-09-04T12:13:04Z</time>
      </trkpt>
      <trkpt lat="39.818368731066585" lon="2.902562627568841">
        <ele>604.80999999999995</ele>
        <time>2014-09-04T12:13:11Z</time>
      </trkpt>
      <trkpt lat="39.818250210955739" lon="2.902496075257659">
        <ele>603.36000000000001</ele>
        <time>2014-09-04T12:13:23Z</time>
      </trkpt>
      <trkpt lat="39.818207379430532" lon="2.902465565130115">
        <ele>603.85000000000002</ele>
        <time>2014-09-04T12:13:27Z</time>
      </trkpt>
      <trkpt lat="39.818155243992805" lon="2.902415441349149">
        <ele>602.88</ele>
        <time>2014-09-04T12:13:34Z</time>
      </trkpt>
      <trkpt lat="39.81809489428997" lon="2.902364982292056">
        <ele>603.36000000000001</ele>
        <time>2014-09-04T12:13:42Z</time>
      </trkpt>
      <trkpt lat="39.817973943427205" lon="2.902298178523779">
        <ele>603.36000000000001</ele>
        <time>2014-09-04T12:13:53Z</time>
      </trkpt>
      <trkpt lat="39.817918287590146" lon="2.902219472452998">
        <ele>602.88</ele>
        <time>2014-09-04T12:13:58Z</time>
      </trkpt>
      <trkpt lat="39.817867828533053" lon="2.902157697826624">
        <ele>602.39999999999998</ele>
        <time>2014-09-04T12:14:05Z</time>
      </trkpt>
      <trkpt lat="39.817786188796163" lon="2.90207589045167">
        <ele>600.96000000000004</ele>
        <time>2014-09-04T12:14:12Z</time>
      </trkpt>
      <trkpt lat="39.817707566544414" lon="2.901984946802259">
        <ele>600</ele>
        <time>2014-09-04T12:14:18Z</time>
      </trkpt>
      <trkpt lat="39.817691305652261" lon="2.901972960680723">
        <ele>599.51999999999998</ele>
        <time>2014-09-04T12:14:19Z</time>
      </trkpt>
      <trkpt lat="39.817666998133063" lon="2.901962986215949">
        <ele>600.96000000000004</ele>
        <time>2014-09-04T12:14:24Z</time>
      </trkpt>
      <trkpt lat="39.817635733634233" lon="2.901936499401927">
        <ele>600.48000000000002</ele>
        <time>2014-09-04T12:14:26Z</time>
      </trkpt>
      <trkpt lat="39.817614695057273" lon="2.901922753080726">
        <ele>599.51999999999998</ele>
        <time>2014-09-04T12:14:27Z</time>
      </trkpt>
      <trkpt lat="39.817582843825221" lon="2.901902468875051">
        <ele>599.51999999999998</ele>
        <time>2014-09-04T12:14:31Z</time>
      </trkpt>
      <trkpt lat="39.817571779713035" lon="2.901892410591245">
        <ele>599.03999999999996</ele>
        <time>2014-09-04T12:14:32Z</time>
      </trkpt>
      <trkpt lat="39.817549819126725" lon="2.901878748089075">
        <ele>599.03999999999996</ele>
        <time>2014-09-04T12:14:34Z</time>
      </trkpt>
      <trkpt lat="39.817535234615207" lon="2.901860978454351">
        <ele>598.55999999999995</ele>
        <time>2014-09-04T12:14:35Z</time>
      </trkpt>
      <trkpt lat="39.817520650103688" lon="2.901841448619962">
        <ele>599.03999999999996</ele>
        <time>2014-09-04T12:14:36Z</time>
      </trkpt>
      <trkpt lat="39.817509669810534" lon="2.901825774461031">
        <ele>598.08000000000004</ele>
        <time>2014-09-04T12:14:37Z</time>
      </trkpt>
      <trkpt lat="39.817498857155442" lon="2.901815129444003">
        <ele>598.08000000000004</ele>
        <time>2014-09-04T12:14:38Z</time>
      </trkpt>
      <trkpt lat="39.817481674253941" lon="2.901807334274054">
        <ele>597.60000000000002</ele>
        <time>2014-09-04T12:14:41Z</time>
      </trkpt>
      <trkpt lat="39.817466419190168" lon="2.901805993169546">
        <ele>598.08000000000004</ele>
        <time>2014-09-04T12:14:42Z</time>
      </trkpt>
      <trkpt lat="39.817451247945428" lon="2.901801047846675">
        <ele>598.08000000000004</ele>
        <time>2014-09-04T12:14:43Z</time>
      </trkpt>
      <trkpt lat="39.817432388663292" lon="2.901792330667377">
        <ele>597.12</ele>
        <time>2014-09-04T12:14:44Z</time>
      </trkpt>
      <trkpt lat="39.817394083365798" lon="2.901741452515125">
        <ele>596.14999999999998</ele>
        <time>2014-09-04T12:14:50Z</time>
      </trkpt>
      <trkpt lat="39.817350832745433" lon="2.901719324290752">
        <ele>595.19000000000005</ele>
        <time>2014-09-04T12:14:58Z</time>
      </trkpt>
      <trkpt lat="39.817339181900024" lon="2.901698453351855">
        <ele>594.71000000000004</ele>
        <time>2014-09-04T12:15:00Z</time>
      </trkpt>
      <trkpt lat="39.817310431972146" lon="2.901625279337168">
        <ele>593.26999999999998</ele>
        <time>2014-09-04T12:15:04Z</time>
      </trkpt>
      <trkpt lat="39.817275563254952" lon="2.901605581864715">
        <ele>592.78999999999996</ele>
        <time>2014-09-04T12:15:08Z</time>
      </trkpt>
      <trkpt lat="39.817257123067975" lon="2.901594266295433">
        <ele>592.78999999999996</ele>
        <time>2014-09-04T12:15:10Z</time>
      </trkpt>
      <trkpt lat="39.817210184410214" lon="2.901550345122814">
        <ele>591.83000000000004</ele>
        <time>2014-09-04T12:15:15Z</time>
      </trkpt>
      <trkpt lat="39.81710147112608" lon="2.901522098109126">
        <ele>590.38999999999999</ele>
        <time>2014-09-04T12:15:24Z</time>
      </trkpt>
      <trkpt lat="39.817089987918735" lon="2.901470549404621">
        <ele>589.90999999999997</ele>
        <time>2014-09-04T12:15:27Z</time>
      </trkpt>
      <trkpt lat="39.817057885229588" lon="2.901348927989602">
        <ele>588.46000000000004</ele>
        <time>2014-09-04T12:15:37Z</time>
      </trkpt>
      <trkpt lat="39.81700181029737" lon="2.901264941319823">
        <ele>587.01999999999998</ele>
        <time>2014-09-04T12:15:45Z</time>
      </trkpt>
      <trkpt lat="39.817001223564148" lon="2.901232419535518">
        <ele>586.53999999999996</ele>
        <time>2014-09-04T12:15:47Z</time>
      </trkpt>
      <trkpt lat="39.816988483071327" lon="2.901182714849711">
        <ele>586.05999999999995</ele>
        <time>2014-09-04T12:15:53Z</time>
      </trkpt>
      <trkpt lat="39.816927630454302" lon="2.901063524186611">
        <ele>585.10000000000002</ele>
        <time>2014-09-04T12:16:01Z</time>
      </trkpt>
      <trkpt lat="39.81682201847434" lon="2.900956822559238">
        <ele>584.13999999999999</ele>
        <time>2014-09-04T12:16:10Z</time>
      </trkpt>
      <trkpt lat="39.816712718456984" lon="2.900859089568257">
        <ele>583.65999999999997</ele>
        <time>2014-09-04T12:16:16Z</time>
      </trkpt>
      <trkpt lat="39.816665025427938" lon="2.900850204750896">
        <ele>582.22000000000003</ele>
        <time>2014-09-04T12:16:25Z</time>
      </trkpt>
      <trkpt lat="39.816650524735451" lon="2.9007429163903">
        <ele>581.25</ele>
        <time>2014-09-04T12:16:35Z</time>
      </trkpt>
      <trkpt lat="39.816680029034615" lon="2.900603441521525">
        <ele>580.28999999999996</ele>
        <time>2014-09-04T12:16:45Z</time>
      </trkpt>
      <trkpt lat="39.816684303805232" lon="2.90057142265141">
        <ele>579.80999999999995</ele>
        <time>2014-09-04T12:16:48Z</time>
      </trkpt>
      <trkpt lat="39.816596964374185" lon="2.900470420718193">
        <ele>579.33000000000004</ele>
        <time>2014-09-04T12:16:56Z</time>
      </trkpt>
      <trkpt lat="39.816639795899391" lon="2.900410573929548">
        <ele>578.37</ele>
        <time>2014-09-04T12:17:00Z</time>
      </trkpt>
      <trkpt lat="39.816756891086698" lon="2.900388278067112">
        <ele>575.97000000000003</ele>
        <time>2014-09-04T12:17:10Z</time>
      </trkpt>
      <trkpt lat="39.81676971539855" lon="2.900357265025377">
        <ele>575.49000000000001</ele>
        <time>2014-09-04T12:17:13Z</time>
      </trkpt>
      <trkpt lat="39.81676678173244" lon="2.900288365781307">
        <ele>574.52999999999997</ele>
        <time>2014-09-04T12:17:18Z</time>
      </trkpt>
      <trkpt lat="39.816759489476681" lon="2.900266572833061">
        <ele>574.52999999999997</ele>
        <time>2014-09-04T12:17:19Z</time>
      </trkpt>
      <trkpt lat="39.816752867773175" lon="2.900245450437069">
        <ele>574.03999999999996</ele>
        <time>2014-09-04T12:17:20Z</time>
      </trkpt>
      <trkpt lat="39.816742138937116" lon="2.900224160403013">
        <ele>574.03999999999996</ele>
        <time>2014-09-04T12:17:21Z</time>
      </trkpt>
      <trkpt lat="39.816730488091707" lon="2.900201277807355">
        <ele>573.55999999999995</ele>
        <time>2014-09-04T12:17:22Z</time>
      </trkpt>
      <trkpt lat="39.816722022369504" lon="2.900190800428391">
        <ele>573.08000000000004</ele>
        <time>2014-09-04T12:17:23Z</time>
      </trkpt>
      <trkpt lat="39.81671841815114" lon="2.900163475424051">
        <ele>573.08000000000004</ele>
        <time>2014-09-04T12:17:27Z</time>
      </trkpt>
      <trkpt lat="39.8167066834867" lon="2.900160206481814">
        <ele>572.60000000000002</ele>
        <time>2014-09-04T12:17:28Z</time>
      </trkpt>
      <trkpt lat="39.816662427037954" lon="2.900102874264121">
        <ele>572.60000000000002</ele>
        <time>2014-09-04T12:17:39Z</time>
      </trkpt>
      <trkpt lat="39.816653793677688" lon="2.900042356923223">
        <ele>572.12</ele>
        <time>2014-09-04T12:17:43Z</time>
      </trkpt>
      <trkpt lat="39.816563688218594" lon="2.899961639195681">
        <ele>571.15999999999997</ele>
        <time>2014-09-04T12:17:48Z</time>
      </trkpt>
      <trkpt lat="39.816467966884375" lon="2.89979643188417">
        <ele>570.20000000000005</ele>
        <time>2014-09-04T12:18:00Z</time>
      </trkpt>
      <trkpt lat="39.816436283290386" lon="2.899745050817728">
        <ele>569.72000000000003</ele>
        <time>2014-09-04T12:18:05Z</time>
      </trkpt>
      <trkpt lat="39.816423710435629" lon="2.899580178782344">
        <ele>567.79999999999995</ele>
        <time>2014-09-04T12:18:16Z</time>
      </trkpt>
      <trkpt lat="39.81636562384665" lon="2.899497114121914">
        <ele>567.32000000000005</ele>
        <time>2014-09-04T12:18:22Z</time>
      </trkpt>
      <trkpt lat="39.816217850893736" lon="2.89931464008987">
        <ele>565.38999999999999</ele>
        <time>2014-09-04T12:18:36Z</time>
      </trkpt>
      <trkpt lat="39.816189184784889" lon="2.89927457459271">
        <ele>564.90999999999997</ele>
        <time>2014-09-04T12:18:41Z</time>
      </trkpt>
      <trkpt lat="39.816181808710098" lon="2.899242807179689">
        <ele>563.95000000000005</ele>
        <time>2014-09-04T12:18:43Z</time>
      </trkpt>
      <trkpt lat="39.816154148429632" lon="2.899186396971345">
        <ele>562.99000000000001</ele>
        <time>2014-09-04T12:18:49Z</time>
      </trkpt>
      <trkpt lat="39.81617066077888" lon="2.899078270420432">
        <ele>562.50999999999999</ele>
        <time>2014-09-04T12:18:55Z</time>
      </trkpt>
      <trkpt lat="39.816150376573205" lon="2.899067038670182">
        <ele>562.02999999999997</ele>
        <time>2014-09-04T12:18:57Z</time>
      </trkpt>
      <trkpt lat="39.816137552261353" lon="2.898864448070526">
        <ele>561.07000000000005</ele>
        <time>2014-09-04T12:19:09Z</time>
      </trkpt>
      <trkpt lat="39.816125649958849" lon="2.898838045075536">
        <ele>560.11000000000001</ele>
        <time>2014-09-04T12:19:13Z</time>
      </trkpt>
      <trkpt lat="39.816131182014942" lon="2.898825388401747">
        <ele>560.11000000000001</ele>
        <time>2014-09-04T12:19:27Z</time>
      </trkpt>
      <trkpt lat="39.816131182014942" lon="2.898825388401747">
        <ele>558.65999999999997</ele>
        <time>2014-09-04T12:19:28Z</time>
      </trkpt>
      <trkpt lat="39.816095139831305" lon="2.898772582411766">
        <ele>559.13999999999999</ele>
        <time>2014-09-04T12:19:33Z</time>
      </trkpt>
      <trkpt lat="39.816084913909435" lon="2.898754728958011">
        <ele>559.62</ele>
        <time>2014-09-04T12:19:34Z</time>
      </trkpt>
      <trkpt lat="39.816073765978217" lon="2.898736288771033">
        <ele>559.13999999999999</ele>
        <time>2014-09-04T12:19:35Z</time>
      </trkpt>
      <trkpt lat="39.816044345498085" lon="2.898637214675546">
        <ele>557.22000000000003</ele>
        <time>2014-09-04T12:19:42Z</time>
      </trkpt>
      <trkpt lat="39.816050631925464" lon="2.898612404242158">
        <ele>557.70000000000005</ele>
        <time>2014-09-04T12:19:43Z</time>
      </trkpt>
      <trkpt lat="39.816059516742826" lon="2.898586504161358">
        <ele>558.17999999999995</ele>
        <time>2014-09-04T12:19:47Z</time>
      </trkpt>
      <trkpt lat="39.816053817048669" lon="2.898584827780724">
        <ele>558.17999999999995</ele>
        <time>2014-09-04T12:19:48Z</time>
      </trkpt>
      <trkpt lat="39.816057169809937" lon="2.89853285998106">
        <ele>557.70000000000005</ele>
        <time>2014-09-04T12:19:49Z</time>
      </trkpt>
      <trkpt lat="39.816064210608602" lon="2.898488100618124">
        <ele>558.17999999999995</ele>
        <time>2014-09-04T12:19:52Z</time>
      </trkpt>
      <trkpt lat="39.816052727401257" lon="2.898469241335988">
        <ele>558.65999999999997</ele>
        <time>2014-09-04T12:19:53Z</time>
      </trkpt>
      <trkpt lat="39.816044261679053" lon="2.898442503064871">
        <ele>557.70000000000005</ele>
        <time>2014-09-04T12:19:54Z</time>
      </trkpt>
      <trkpt lat="39.8160435911268" lon="2.89841459132731">
        <ele>557.22000000000003</ele>
        <time>2014-09-04T12:19:55Z</time>
      </trkpt>
      <trkpt lat="39.816049039363861" lon="2.898383662104607">
        <ele>557.22000000000003</ele>
        <time>2014-09-04T12:19:56Z</time>
      </trkpt>
      <trkpt lat="39.816057002171874" lon="2.898355247452855">
        <ele>557.22000000000003</ele>
        <time>2014-09-04T12:19:57Z</time>
      </trkpt>
      <trkpt lat="39.81605532579124" lon="2.898312332108617">
        <ele>556.25999999999999</ele>
        <time>2014-09-04T12:20:02Z</time>
      </trkpt>
      <trkpt lat="39.816106371581554" lon="2.898209234699607">
        <ele>555.77999999999997</ele>
        <time>2014-09-04T12:20:07Z</time>
      </trkpt>
      <trkpt lat="39.816109724342823" lon="2.898186771199107">
        <ele>555.29999999999995</ele>
        <time>2014-09-04T12:20:12Z</time>
      </trkpt>
      <trkpt lat="39.816115340217948" lon="2.89816782809794">
        <ele>554.82000000000005</ele>
        <time>2014-09-04T12:20:13Z</time>
      </trkpt>
      <trkpt lat="39.81612958945334" lon="2.898152489215136">
        <ele>554.82000000000005</ele>
        <time>2014-09-04T12:20:14Z</time>
      </trkpt>
      <trkpt lat="39.816133696585894" lon="2.898127259686589">
        <ele>554.82000000000005</ele>
        <time>2014-09-04T12:20:15Z</time>
      </trkpt>
      <trkpt lat="39.816141240298748" lon="2.898080153390765">
        <ele>553.86000000000001</ele>
        <time>2014-09-04T12:20:20Z</time>
      </trkpt>
      <trkpt lat="39.816142749041319" lon="2.898053079843521">
        <ele>553.86000000000001</ele>
        <time>2014-09-04T12:20:21Z</time>
      </trkpt>
      <trkpt lat="39.816145515069366" lon="2.89799876511097">
        <ele>553.86000000000001</ele>
        <time>2014-09-04T12:20:23Z</time>
      </trkpt>
      <trkpt lat="39.816145179793239" lon="2.897957693785429">
        <ele>553.86000000000001</ele>
        <time>2014-09-04T12:20:28Z</time>
      </trkpt>
      <trkpt lat="39.816143335774541" lon="2.897930955514312">
        <ele>552.40999999999997</ele>
        <time>2014-09-04T12:20:29Z</time>
      </trkpt>
      <trkpt lat="39.816144509240985" lon="2.897901367396116">
        <ele>552.40999999999997</ele>
        <time>2014-09-04T12:20:30Z</time>
      </trkpt>
      <trkpt lat="39.816142078489065" lon="2.897877814248204">
        <ele>552.89999999999998</ele>
        <time>2014-09-04T12:20:31Z</time>
      </trkpt>
      <trkpt lat="39.816137803718448" lon="2.897861050441861">
        <ele>552.89999999999998</ele>
        <time>2014-09-04T12:20:32Z</time>
      </trkpt>
      <trkpt lat="39.816146017983556" lon="2.897835066542029">
        <ele>552.40999999999997</ele>
        <time>2014-09-04T12:20:36Z</time>
      </trkpt>
      <trkpt lat="39.816151298582554" lon="2.897808495908976">
        <ele>551.92999999999995</ele>
        <time>2014-09-04T12:20:37Z</time>
      </trkpt>
      <trkpt lat="39.8161540646106" lon="2.897755187004805">
        <ele>551.45000000000005</ele>
        <time>2014-09-04T12:20:39Z</time>
      </trkpt>
      <trkpt lat="39.816155154258013" lon="2.897716630250216">
        <ele>551.45000000000005</ele>
        <time>2014-09-04T12:20:44Z</time>
      </trkpt>
      <trkpt lat="39.816153896972537" lon="2.89769240655005">
        <ele>551.92999999999995</ele>
        <time>2014-09-04T12:20:45Z</time>
      </trkpt>
      <trkpt lat="39.81615892611444" lon="2.897660052403808">
        <ele>551.45000000000005</ele>
        <time>2014-09-04T12:20:46Z</time>
      </trkpt>
      <trkpt lat="39.816165463998914" lon="2.897630548104644">
        <ele>551.45000000000005</ele>
        <time>2014-09-04T12:20:47Z</time>
      </trkpt>
      <trkpt lat="39.816170409321785" lon="2.897609928622842">
        <ele>550.49000000000001</ele>
        <time>2014-09-04T12:20:48Z</time>
      </trkpt>
      <trkpt lat="39.816172085702419" lon="2.897576903924346">
        <ele>550.49000000000001</ele>
        <time>2014-09-04T12:20:53Z</time>
      </trkpt>
      <trkpt lat="39.816150795668364" lon="2.897461066022515">
        <ele>550.00999999999999</ele>
        <time>2014-09-04T12:20:59Z</time>
      </trkpt>
      <trkpt lat="39.816139480099082" lon="2.89744907990098">
        <ele>550.00999999999999</ele>
        <time>2014-09-04T12:21:00Z</time>
      </trkpt>
      <trkpt lat="39.816121878102422" lon="2.89739434607327">
        <ele>549.52999999999997</ele>
        <time>2014-09-04T12:21:03Z</time>
      </trkpt>
      <trkpt lat="39.816126236692071" lon="2.897368697449565">
        <ele>549.04999999999995</ele>
        <time>2014-09-04T12:21:04Z</time>
      </trkpt>
      <trkpt lat="39.816123386844993" lon="2.897348077967763">
        <ele>547.61000000000001</ele>
        <time>2014-09-04T12:21:05Z</time>
      </trkpt>
      <trkpt lat="39.816123638302088" lon="2.897327542304993">
        <ele>547.61000000000001</ele>
        <time>2014-09-04T12:21:10Z</time>
      </trkpt>
      <trkpt lat="39.816133277490735" lon="2.897303821519017">
        <ele>547.13</ele>
        <time>2014-09-04T12:21:11Z</time>
      </trkpt>
      <trkpt lat="39.816142246127129" lon="2.897286722436547">
        <ele>547.61000000000001</ele>
        <time>2014-09-04T12:21:12Z</time>
      </trkpt>
      <trkpt lat="39.816137552261353" lon="2.897277921438217">
        <ele>549.04999999999995</ele>
        <time>2014-09-04T12:21:14Z</time>
      </trkpt>
      <trkpt lat="39.816147945821285" lon="2.897264007478952">
        <ele>550.00999999999999</ele>
        <time>2014-09-04T12:21:18Z</time>
      </trkpt>
      <trkpt lat="39.816153477877378" lon="2.897233916446567">
        <ele>548.09000000000003</ele>
        <time>2014-09-04T12:21:19Z</time>
      </trkpt>
      <trkpt lat="39.816154986619949" lon="2.897201981395483">
        <ele>548.09000000000003</ele>
        <time>2014-09-04T12:21:20Z</time>
      </trkpt>
      <trkpt lat="39.816152891144156" lon="2.897174656391144">
        <ele>548.09000000000003</ele>
        <time>2014-09-04T12:21:25Z</time>
      </trkpt>
      <trkpt lat="39.816157501190901" lon="2.897154875099659">
        <ele>547.61000000000001</ele>
        <time>2014-09-04T12:21:26Z</time>
      </trkpt>
      <trkpt lat="39.816173175349832" lon="2.897128304466605">
        <ele>548.09000000000003</ele>
        <time>2014-09-04T12:21:27Z</time>
      </trkpt>
      <trkpt lat="39.816187173128128" lon="2.897095279768109">
        <ele>546.64999999999998</ele>
        <time>2014-09-04T12:21:28Z</time>
      </trkpt>
      <trkpt lat="39.816200416535139" lon="2.897068960592151">
        <ele>546.64999999999998</ele>
        <time>2014-09-04T12:21:29Z</time>
      </trkpt>
      <trkpt lat="39.816205110400915" lon="2.897025709971786">
        <ele>546.16999999999996</ele>
        <time>2014-09-04T12:21:34Z</time>
      </trkpt>
      <trkpt lat="39.816215001046658" lon="2.896991092711687">
        <ele>547.13</ele>
        <time>2014-09-04T12:21:37Z</time>
      </trkpt>
      <trkpt lat="39.816252551972866" lon="2.896867375820875">
        <ele>543.75999999999999</ele>
        <time>2014-09-04T12:21:46Z</time>
      </trkpt>
      <trkpt lat="39.816294712945819" lon="2.89680308662355">
        <ele>543.75999999999999</ele>
        <time>2014-09-04T12:21:51Z</time>
      </trkpt>
      <trkpt lat="39.816301669925451" lon="2.896791351959109">
        <ele>543.75999999999999</ele>
        <time>2014-09-04T12:21:52Z</time>
      </trkpt>
      <trkpt lat="39.816300831735134" lon="2.896771319210529">
        <ele>542.79999999999995</ele>
        <time>2014-09-04T12:21:53Z</time>
      </trkpt>
      <trkpt lat="39.816304016858339" lon="2.896739216521382">
        <ele>543.27999999999997</ele>
        <time>2014-09-04T12:21:54Z</time>
      </trkpt>
      <trkpt lat="39.816311979666352" lon="2.896711807698011">
        <ele>542.79999999999995</ele>
        <time>2014-09-04T12:21:55Z</time>
      </trkpt>
      <trkpt lat="39.816320110112429" lon="2.896696636453271">
        <ele>542.79999999999995</ele>
        <time>2014-09-04T12:21:56Z</time>
      </trkpt>
      <trkpt lat="39.816331341862679" lon="2.896671909838915">
        <ele>541.84000000000003</ele>
        <time>2014-09-04T12:22:01Z</time>
      </trkpt>
      <trkpt lat="39.816336371004581" lon="2.896645423024893">
        <ele>541.84000000000003</ele>
        <time>2014-09-04T12:22:02Z</time>
      </trkpt>
      <trkpt lat="39.816405940800905" lon="2.896531512960792">
        <ele>542.32000000000005</ele>
        <time>2014-09-04T12:22:11Z</time>
      </trkpt>
      <trkpt lat="39.816435864195228" lon="2.896503936499357">
        <ele>541.84000000000003</ele>
        <time>2014-09-04T12:22:13Z</time>
      </trkpt>
      <trkpt lat="39.816425554454327" lon="2.896485077217221">
        <ele>541.36000000000001</ele>
        <time>2014-09-04T12:22:17Z</time>
      </trkpt>
      <trkpt lat="39.816420106217265" lon="2.896460182964802">
        <ele>541.36000000000001</ele>
        <time>2014-09-04T12:22:18Z</time>
      </trkpt>
      <trkpt lat="39.816419100388885" lon="2.896424559876323">
        <ele>541.36000000000001</ele>
        <time>2014-09-04T12:22:19Z</time>
      </trkpt>
      <trkpt lat="39.816422620788217" lon="2.896388517692685">
        <ele>541.36000000000001</ele>
        <time>2014-09-04T12:22:20Z</time>
      </trkpt>
      <trkpt lat="39.816428823396564" lon="2.8963652998209">
        <ele>541.36000000000001</ele>
        <time>2014-09-04T12:22:21Z</time>
      </trkpt>
      <trkpt lat="39.816436115652323" lon="2.896347949281335">
        <ele>540.88</ele>
        <time>2014-09-04T12:22:26Z</time>
      </trkpt>
      <trkpt lat="39.816434690728784" lon="2.896317690610886">
        <ele>540.39999999999998</ele>
        <time>2014-09-04T12:22:27Z</time>
      </trkpt>
      <trkpt lat="39.816433768719435" lon="2.896286258473992">
        <ele>540.39999999999998</ele>
        <time>2014-09-04T12:22:28Z</time>
      </trkpt>
      <trkpt lat="39.816428991034627" lon="2.8962616994977">
        <ele>540.39999999999998</ele>
        <time>2014-09-04T12:22:29Z</time>
      </trkpt>
      <trkpt lat="39.816434271633625" lon="2.896196991205216">
        <ele>539.91999999999996</ele>
        <time>2014-09-04T12:22:34Z</time>
      </trkpt>
      <trkpt lat="39.816430918872356" lon="2.896168911829591">
        <ele>539.91999999999996</ele>
        <time>2014-09-04T12:22:35Z</time>
      </trkpt>
      <trkpt lat="39.816432259976864" lon="2.896142257377505">
        <ele>539.91999999999996</ele>
        <time>2014-09-04T12:22:36Z</time>
      </trkpt>
      <trkpt lat="39.816459584981203" lon="2.896104454994202">
        <ele>539.91999999999996</ele>
        <time>2014-09-04T12:22:41Z</time>
      </trkpt>
      <trkpt lat="39.816468302160501" lon="2.89608090184629">
        <ele>539.44000000000005</ele>
        <time>2014-09-04T12:22:42Z</time>
      </trkpt>
      <trkpt lat="39.81647408567369" lon="2.896050224080682">
        <ele>539.44000000000005</ele>
        <time>2014-09-04T12:22:43Z</time>
      </trkpt>
      <trkpt lat="39.816481126472354" lon="2.896022396162152">
        <ele>538.96000000000004</ele>
        <time>2014-09-04T12:22:44Z</time>
      </trkpt>
      <trkpt lat="39.816486490890384" lon="2.896004626527429">
        <ele>538.96000000000004</ele>
        <time>2014-09-04T12:22:45Z</time>
      </trkpt>
      <trkpt lat="39.816497135907412" lon="2.895914269611239">
        <ele>538.48000000000002</ele>
        <time>2014-09-04T12:22:52Z</time>
      </trkpt>
      <trkpt lat="39.816491855308414" lon="2.895886274054647">
        <ele>538.96000000000004</ele>
        <time>2014-09-04T12:22:53Z</time>
      </trkpt>
      <trkpt lat="39.816487077623606" lon="2.895856853574514">
        <ele>538.48000000000002</ele>
        <time>2014-09-04T12:22:54Z</time>
      </trkpt>
      <trkpt lat="39.816466709598899" lon="2.895779488608241">
        <ele>538.48000000000002</ele>
        <time>2014-09-04T12:23:00Z</time>
      </trkpt>
      <trkpt lat="39.816463021561503" lon="2.895764987915754">
        <ele>538.48000000000002</ele>
        <time>2014-09-04T12:23:01Z</time>
      </trkpt>
      <trkpt lat="39.816460339352489" lon="2.895720228552818">
        <ele>538.48000000000002</ele>
        <time>2014-09-04T12:23:03Z</time>
      </trkpt>
      <trkpt lat="39.816463608294725" lon="2.895694244652987">
        <ele>537.99000000000001</ele>
        <time>2014-09-04T12:23:04Z</time>
      </trkpt>
      <trkpt lat="39.816451454535127" lon="2.895676642656326">
        <ele>537.99000000000001</ele>
        <time>2014-09-04T12:23:05Z</time>
      </trkpt>
      <trkpt lat="39.816436115652323" lon="2.895650155842304">
        <ele>537.99000000000001</ele>
        <time>2014-09-04T12:23:09Z</time>
      </trkpt>
      <trkpt lat="39.816458746790886" lon="2.89562207646668">
        <ele>537.99000000000001</ele>
        <time>2014-09-04T12:23:11Z</time>
      </trkpt>
      <trkpt lat="39.81646285392344" lon="2.895596846938133">
        <ele>537.99000000000001</ele>
        <time>2014-09-04T12:23:12Z</time>
      </trkpt>
      <trkpt lat="39.816474420949817" lon="2.895576227456331">
        <ele>537.99000000000001</ele>
        <time>2014-09-04T12:23:13Z</time>
      </trkpt>
      <trkpt lat="39.816489424556494" lon="2.895559128373861">
        <ele>537.99000000000001</ele>
        <time>2014-09-04T12:23:14Z</time>
      </trkpt>
      <trkpt lat="39.816490178927779" lon="2.895543873310089">
        <ele>537.50999999999999</ele>
        <time>2014-09-04T12:23:15Z</time>
      </trkpt>
      <trkpt lat="39.816553210839629" lon="2.895465670153499">
        <ele>537.99000000000001</ele>
        <time>2014-09-04T12:23:22Z</time>
      </trkpt>
      <trkpt lat="39.81657181866467" lon="2.895419150590897">
        <ele>537.50999999999999</ele>
        <time>2014-09-04T12:23:27Z</time>
      </trkpt>
      <trkpt lat="39.816581457853317" lon="2.895386377349496">
        <ele>537.50999999999999</ele>
        <time>2014-09-04T12:23:28Z</time>
      </trkpt>
      <trkpt lat="39.816593360155821" lon="2.895361315459013">
        <ele>537.50999999999999</ele>
        <time>2014-09-04T12:23:29Z</time>
      </trkpt>
      <trkpt lat="39.816604005172849" lon="2.895326530560851">
        <ele>537.02999999999997</ele>
        <time>2014-09-04T12:23:33Z</time>
      </trkpt>
      <trkpt lat="39.816558323800564" lon="2.895268024876714">
        <ele>536.54999999999995</ele>
        <time>2014-09-04T12:23:37Z</time>
      </trkpt>
      <trkpt lat="39.816547092050314" lon="2.895240364596248">
        <ele>537.02999999999997</ele>
        <time>2014-09-04T12:23:51Z</time>
      </trkpt>
      <trkpt lat="39.816516330465674" lon="2.895255200564861">
        <ele>537.99000000000001</ele>
        <time>2014-09-04T12:23:59Z</time>
      </trkpt>
      <trkpt lat="39.816504260525107" lon="2.895268360152841">
        <ele>537.99000000000001</ele>
        <time>2014-09-04T12:24:00Z</time>
      </trkpt>
      <trkpt lat="39.816486490890384" lon="2.895281938835979">
        <ele>538.48000000000002</ele>
        <time>2014-09-04T12:24:01Z</time>
      </trkpt>
      <trkpt lat="39.816477941349149" lon="2.895291494205594">
        <ele>538.48000000000002</ele>
        <time>2014-09-04T12:24:02Z</time>
      </trkpt>
      <trkpt lat="39.816475678235292" lon="2.895303480327129">
        <ele>537.99000000000001</ele>
        <time>2014-09-04T12:24:03Z</time>
      </trkpt>
      <trkpt lat="39.81647752225399" lon="2.895368859171867">
        <ele>538.48000000000002</ele>
        <time>2014-09-04T12:24:08Z</time>
      </trkpt>
      <trkpt lat="39.816436534747481" lon="2.895500035956502">
        <ele>538.96000000000004</ele>
        <time>2014-09-04T12:24:17Z</time>
      </trkpt>
      <trkpt lat="39.816429074853659" lon="2.89551705121994">
        <ele>539.44000000000005</ele>
        <time>2014-09-04T12:24:18Z</time>
      </trkpt>
      <trkpt lat="39.816424129530787" lon="2.895537754520774">
        <ele>539.44000000000005</ele>
        <time>2014-09-04T12:24:19Z</time>
      </trkpt>
      <trkpt lat="39.816421698778868" lon="2.895558960735798">
        <ele>539.91999999999996</ele>
        <time>2014-09-04T12:24:20Z</time>
      </trkpt>
      <trkpt lat="39.816422117874026" lon="2.89557664655149">
        <ele>539.44000000000005</ele>
        <time>2014-09-04T12:24:21Z</time>
      </trkpt>
      <trkpt lat="39.816414406523108" lon="2.895613024011254">
        <ele>539.91999999999996</ele>
        <time>2014-09-04T12:24:25Z</time>
      </trkpt>
      <trkpt lat="39.816407533362508" lon="2.895636912435293">
        <ele>539.91999999999996</ele>
        <time>2014-09-04T12:24:26Z</time>
      </trkpt>
      <trkpt lat="39.816404096782207" lon="2.895669685676694">
        <ele>540.39999999999998</ele>
        <time>2014-09-04T12:24:27Z</time>
      </trkpt>
      <trkpt lat="39.816404012963176" lon="2.89569734595716">
        <ele>539.91999999999996</ele>
        <time>2014-09-04T12:24:28Z</time>
      </trkpt>
      <trkpt lat="39.816403342410922" lon="2.895716289058328">
        <ele>540.39999999999998</ele>
        <time>2014-09-04T12:24:29Z</time>
      </trkpt>
      <trkpt lat="39.816378280520439" lon="2.895907480269671">
        <ele>540.39999999999998</ele>
        <time>2014-09-04T12:24:39Z</time>
      </trkpt>
      <trkpt lat="39.816308040171862" lon="2.896045027300715">
        <ele>540.39999999999998</ele>
        <time>2014-09-04T12:24:52Z</time>
      </trkpt>
      <trkpt lat="39.816238973289728" lon="2.896185424178839">
        <ele>540.88</ele>
        <time>2014-09-04T12:25:01Z</time>
      </trkpt>
      <trkpt lat="39.816226568073034" lon="2.896198919042945">
        <ele>541.36000000000001</ele>
        <time>2014-09-04T12:25:02Z</time>
      </trkpt>
      <trkpt lat="39.816212235018611" lon="2.896214006468654">
        <ele>541.84000000000003</ele>
        <time>2014-09-04T12:25:03Z</time>
      </trkpt>
      <trkpt lat="39.816198237240314" lon="2.896231440827251">
        <ele>541.36000000000001</ele>
        <time>2014-09-04T12:25:04Z</time>
      </trkpt>
      <trkpt lat="39.816188765689731" lon="2.89624510332942">
        <ele>541.84000000000003</ele>
        <time>2014-09-04T12:25:05Z</time>
      </trkpt>
      <trkpt lat="39.81611106544733" lon="2.896336633712053">
        <ele>542.79999999999995</ele>
        <time>2014-09-04T12:25:16Z</time>
      </trkpt>
      <trkpt lat="39.816090865060687" lon="2.89634233340621">
        <ele>542.79999999999995</ele>
        <time>2014-09-04T12:25:18Z</time>
      </trkpt>
      <trkpt lat="39.816071167588234" lon="2.896343087777495">
        <ele>543.27999999999997</ele>
        <time>2014-09-04T12:25:19Z</time>
      </trkpt>
      <trkpt lat="39.816062785685062" lon="2.896351050585508">
        <ele>543.27999999999997</ele>
        <time>2014-09-04T12:25:20Z</time>
      </trkpt>
      <trkpt lat="39.815965974703431" lon="2.896363707259297">
        <ele>544.24000000000001</ele>
        <time>2014-09-04T12:25:32Z</time>
      </trkpt>
      <trkpt lat="39.815920041874051" lon="2.896345602348447">
        <ele>544.72000000000003</ele>
        <time>2014-09-04T12:25:39Z</time>
      </trkpt>
      <trkpt lat="39.815902942791581" lon="2.89632716216147">
        <ele>543.27999999999997</ele>
        <time>2014-09-04T12:25:41Z</time>
      </trkpt>
      <trkpt lat="39.815871259197593" lon="2.896286593750119">
        <ele>544.72000000000003</ele>
        <time>2014-09-04T12:25:44Z</time>
      </trkpt>
      <trkpt lat="39.81585156172514" lon="2.896272679790855">
        <ele>545.20000000000005</ele>
        <time>2014-09-04T12:25:45Z</time>
      </trkpt>
      <trkpt lat="39.815797498449683" lon="2.89620403200388">
        <ele>545.69000000000005</ele>
        <time>2014-09-04T12:25:51Z</time>
      </trkpt>
      <trkpt lat="39.815788697451353" lon="2.896189112216234">
        <ele>545.20000000000005</ele>
        <time>2014-09-04T12:25:52Z</time>
      </trkpt>
      <trkpt lat="39.815780483186245" lon="2.896167235448957">
        <ele>546.16999999999996</ele>
        <time>2014-09-04T12:25:53Z</time>
      </trkpt>
      <trkpt lat="39.815773693844676" lon="2.896142173558474">
        <ele>545.69000000000005</ele>
        <time>2014-09-04T12:25:54Z</time>
      </trkpt>
      <trkpt lat="39.8157724365592" lon="2.896117111667991">
        <ele>546.16999999999996</ele>
        <time>2014-09-04T12:25:55Z</time>
      </trkpt>
      <trkpt lat="39.815767072141171" lon="2.896091211587191">
        <ele>545.69000000000005</ele>
        <time>2014-09-04T12:25:56Z</time>
      </trkpt>
      <trkpt lat="39.815763467922807" lon="2.896072855219245">
        <ele>545.69000000000005</ele>
        <time>2014-09-04T12:25:57Z</time>
      </trkpt>
      <trkpt lat="39.815757600590587" lon="2.896042009815574">
        <ele>546.64999999999998</ele>
        <time>2014-09-04T12:26:02Z</time>
      </trkpt>
      <trkpt lat="39.815755253657699" lon="2.896028263494372">
        <ele>546.16999999999996</ele>
        <time>2014-09-04T12:26:03Z</time>
      </trkpt>
      <trkpt lat="39.815751314163208" lon="2.896006554365158">
        <ele>546.16999999999996</ele>
        <time>2014-09-04T12:26:04Z</time>
      </trkpt>
      <trkpt lat="39.815742429345846" lon="2.895978474989533">
        <ele>546.16999999999996</ele>
        <time>2014-09-04T12:26:05Z</time>
      </trkpt>
      <trkpt lat="39.815738154575229" lon="2.895960286259651">
        <ele>546.64999999999998</ele>
        <time>2014-09-04T12:26:06Z</time>
      </trkpt>
      <trkpt lat="39.815743016079068" lon="2.89588987827301">
        <ele>547.13</ele>
        <time>2014-09-04T12:26:12Z</time>
      </trkpt>
      <trkpt lat="39.815745363011956" lon="2.895873952656984">
        <ele>547.13</ele>
        <time>2014-09-04T12:26:13Z</time>
      </trkpt>
      <trkpt lat="39.815748715773225" lon="2.895853584632278">
        <ele>547.13</ele>
        <time>2014-09-04T12:26:14Z</time>
      </trkpt>
      <trkpt lat="39.815749051049352" lon="2.89582877419889">
        <ele>547.13</ele>
        <time>2014-09-04T12:26:15Z</time>
      </trkpt>
      <trkpt lat="39.81574947014451" lon="2.89580823853612">
        <ele>547.13</ele>
        <time>2014-09-04T12:26:16Z</time>
      </trkpt>
      <trkpt lat="39.815697250887752" lon="2.895682090893388">
        <ele>547.61000000000001</ele>
        <time>2014-09-04T12:26:25Z</time>
      </trkpt>
      <trkpt lat="39.815682750195265" lon="2.895642193034291">
        <ele>547.61000000000001</ele>
        <time>2014-09-04T12:26:27Z</time>
      </trkpt>
      <trkpt lat="39.815673027187586" lon="2.895623585209251">
        <ele>547.61000000000001</ele>
        <time>2014-09-04T12:26:28Z</time>
      </trkpt>
      <trkpt lat="39.815658442676067" lon="2.895573126152158">
        <ele>548.09000000000003</ele>
        <time>2014-09-04T12:26:32Z</time>
      </trkpt>
      <trkpt lat="39.815609157085419" lon="2.895411690697074">
        <ele>548.57000000000005</ele>
        <time>2014-09-04T12:26:40Z</time>
      </trkpt>
      <trkpt lat="39.815580490976572" lon="2.895296271890402">
        <ele>548.57000000000005</ele>
        <time>2014-09-04T12:26:48Z</time>
      </trkpt>
      <trkpt lat="39.815580490976572" lon="2.895296271890402">
        <ele>548.57000000000005</ele>
        <time>2014-09-04T12:26:49Z</time>
      </trkpt>
      <trkpt lat="39.815579988062382" lon="2.895272551104426">
        <ele>549.04999999999995</ele>
        <time>2014-09-04T12:26:50Z</time>
      </trkpt>
      <trkpt lat="39.815576551482081" lon="2.895166939124465">
        <ele>549.04999999999995</ele>
        <time>2014-09-04T12:26:57Z</time>
      </trkpt>
      <trkpt lat="39.815574875101447" lon="2.895153192803264">
        <ele>549.52999999999997</ele>
        <time>2014-09-04T12:26:58Z</time>
      </trkpt>
      <trkpt lat="39.815571438521147" lon="2.895136093720794">
        <ele>550.00999999999999</ele>
        <time>2014-09-04T12:26:59Z</time>
      </trkpt>
      <trkpt lat="39.815562637522817" lon="2.895110780373216">
        <ele>550.00999999999999</ele>
        <time>2014-09-04T12:27:00Z</time>
      </trkpt>
      <trkpt lat="39.815548555925488" lon="2.89508119225502">
        <ele>549.04999999999995</ele>
        <time>2014-09-04T12:27:01Z</time>
      </trkpt>
      <trkpt lat="39.815541515126824" lon="2.895062165334821">
        <ele>549.52999999999997</ele>
        <time>2014-09-04T12:27:02Z</time>
      </trkpt>
      <trkpt lat="39.815518045797944" lon="2.894987985491753">
        <ele>550.00999999999999</ele>
        <time>2014-09-04T12:27:04Z</time>
      </trkpt>
      <trkpt lat="39.815481584519148" lon="2.894954793155193">
        <ele>550.49000000000001</ele>
        <time>2014-09-04T12:27:07Z</time>
      </trkpt>
      <trkpt lat="39.81547437608242" lon="2.894903076812625">
        <ele>550.49000000000001</ele>
        <time>2014-09-04T12:27:10Z</time>
      </trkpt>
      <trkpt lat="39.815507149323821" lon="2.894830824807286">
        <ele>550.97000000000003</ele>
        <time>2014-09-04T12:27:16Z</time>
      </trkpt>
      <trkpt lat="39.815515028312802" lon="2.894811546429992">
        <ele>550.49000000000001</ele>
        <time>2014-09-04T12:27:17Z</time>
      </trkpt>
      <trkpt lat="39.815517207607627" lon="2.894787406548858">
        <ele>550.97000000000003</ele>
        <time>2014-09-04T12:27:18Z</time>
      </trkpt>
      <trkpt lat="39.815519638359547" lon="2.894760584458709">
        <ele>550.49000000000001</ele>
        <time>2014-09-04T12:27:19Z</time>
      </trkpt>
      <trkpt lat="39.81551737524569" lon="2.894735438749194">
        <ele>550.97000000000003</ele>
        <time>2014-09-04T12:27:20Z</time>
      </trkpt>
      <trkpt lat="39.815513854846358" lon="2.894717250019312">
        <ele>550.97000000000003</ele>
        <time>2014-09-04T12:27:21Z</time>
      </trkpt>
      <trkpt lat="39.815505472943187" lon="2.894706940278411">
        <ele>551.45000000000005</ele>
        <time>2014-09-04T12:27:22Z</time>
      </trkpt>
      <trkpt lat="39.815489966422319" lon="2.894679196178913">
        <ele>551.92999999999995</ele>
        <time>2014-09-04T12:27:25Z</time>
      </trkpt>
      <trkpt lat="39.815484182909131" lon="2.894671652466059">
        <ele>551.45000000000005</ele>
        <time>2014-09-04T12:27:26Z</time>
      </trkpt>
      <trkpt lat="39.815516956150532" lon="2.894607447087765">
        <ele>551.45000000000005</ele>
        <time>2014-09-04T12:27:29Z</time>
      </trkpt>
      <trkpt lat="39.815521230921149" lon="2.894574087113142">
        <ele>551.92999999999995</ele>
        <time>2014-09-04T12:27:31Z</time>
      </trkpt>
      <trkpt lat="39.815522572025657" lon="2.894543996080756">
        <ele>551.92999999999995</ele>
        <time>2014-09-04T12:27:33Z</time>
      </trkpt>
      <trkpt lat="39.815497007220984" lon="2.894369987770915">
        <ele>554.34000000000003</ele>
        <time>2014-09-04T12:27:44Z</time>
      </trkpt>
      <trkpt lat="39.815489882603288" lon="2.894352804869413">
        <ele>552.89999999999998</ele>
        <time>2014-09-04T12:27:45Z</time>
      </trkpt>
      <trkpt lat="39.815485440194607" lon="2.894336627796292">
        <ele>552.89999999999998</ele>
        <time>2014-09-04T12:27:46Z</time>
      </trkpt>
      <trkpt lat="39.815478147938848" lon="2.894320031628013">
        <ele>552.89999999999998</ele>
        <time>2014-09-04T12:27:47Z</time>
      </trkpt>
      <trkpt lat="39.815466329455376" lon="2.894302345812321">
        <ele>552.89999999999998</ele>
        <time>2014-09-04T12:27:48Z</time>
      </trkpt>
      <trkpt lat="39.815460043027997" lon="2.894289940595627">
        <ele>553.38</ele>
        <time>2014-09-04T12:27:49Z</time>
      </trkpt>
      <trkpt lat="39.815461216494441" lon="2.894275523722172">
        <ele>552.89999999999998</ele>
        <time>2014-09-04T12:27:50Z</time>
      </trkpt>
      <trkpt lat="39.815426934510469" lon="2.894106712192297">
        <ele>552.89999999999998</ele>
        <time>2014-09-04T12:27:58Z</time>
      </trkpt>
      <trkpt lat="39.815389299765229" lon="2.893929518759251">
        <ele>553.86000000000001</ele>
        <time>2014-09-04T12:28:10Z</time>
      </trkpt>
      <trkpt lat="39.815358873456717" lon="2.893766323104501">
        <ele>554.34000000000003</ele>
        <time>2014-09-04T12:28:20Z</time>
      </trkpt>
      <trkpt lat="39.815381420776248" lon="2.893657861277461">
        <ele>554.82000000000005</ele>
        <time>2014-09-04T12:28:25Z</time>
      </trkpt>
      <trkpt lat="39.815420899540186" lon="2.893573790788651">
        <ele>556.25999999999999</ele>
        <time>2014-09-04T12:28:32Z</time>
      </trkpt>
      <trkpt lat="39.815418217331171" lon="2.893550824373961">
        <ele>555.29999999999995</ele>
        <time>2014-09-04T12:28:33Z</time>
      </trkpt>
      <trkpt lat="39.815416876226664" lon="2.893527019768953">
        <ele>555.29999999999995</ele>
        <time>2014-09-04T12:28:34Z</time>
      </trkpt>
      <trkpt lat="39.815415786579251" lon="2.893504640087485">
        <ele>555.29999999999995</ele>
        <time>2014-09-04T12:28:35Z</time>
      </trkpt>
      <trkpt lat="39.815419390797615" lon="2.893486535176635">
        <ele>555.77999999999997</ele>
        <time>2014-09-04T12:28:36Z</time>
      </trkpt>
      <trkpt lat="39.815419726073742" lon="2.893473878502846">
        <ele>555.77999999999997</ele>
        <time>2014-09-04T12:28:37Z</time>
      </trkpt>
      <trkpt lat="39.815420815721154" lon="2.893460718914866">
        <ele>555.77999999999997</ele>
        <time>2014-09-04T12:28:38Z</time>
      </trkpt>
      <trkpt lat="39.815420648083091" lon="2.893447643145919">
        <ele>555.77999999999997</ele>
        <time>2014-09-04T12:28:39Z</time>
      </trkpt>
      <trkpt lat="39.81541427783668" lon="2.893436662852764">
        <ele>555.77999999999997</ele>
        <time>2014-09-04T12:28:40Z</time>
      </trkpt>
      <trkpt lat="39.815405057743192" lon="2.893424509093165">
        <ele>556.74000000000001</ele>
        <time>2014-09-04T12:28:41Z</time>
      </trkpt>
      <trkpt lat="39.815387791022658" lon="2.893410678952932">
        <ele>556.74000000000001</ele>
        <time>2014-09-04T12:28:42Z</time>
      </trkpt>
      <trkpt lat="39.815374547615647" lon="2.893393496051431">
        <ele>556.74000000000001</ele>
        <time>2014-09-04T12:28:43Z</time>
      </trkpt>
      <trkpt lat="39.815323082730174" lon="2.893245304003358">
        <ele>557.22000000000003</ele>
        <time>2014-09-04T12:28:54Z</time>
      </trkpt>
      <trkpt lat="39.815321741625667" lon="2.893219823017716">
        <ele>557.70000000000005</ele>
        <time>2014-09-04T12:28:55Z</time>
      </trkpt>
      <trkpt lat="39.815292237326503" lon="2.893116809427738">
        <ele>557.70000000000005</ele>
        <time>2014-09-04T12:29:02Z</time>
      </trkpt>
      <trkpt lat="39.815291482955217" lon="2.893106751143932">
        <ele>558.17999999999995</ele>
        <time>2014-09-04T12:29:03Z</time>
      </trkpt>
      <trkpt lat="39.815215710550547" lon="2.892926540225744">
        <ele>563.95000000000005</ele>
        <time>2014-09-04T12:29:12Z</time>
      </trkpt>
      <trkpt lat="39.815203724429011" lon="2.892911368981004">
        <ele>559.13999999999999</ele>
        <time>2014-09-04T12:29:13Z</time>
      </trkpt>
      <trkpt lat="39.815190816298127" lon="2.892896449193358">
        <ele>554.34000000000003</ele>
        <time>2014-09-04T12:29:14Z</time>
      </trkpt>
      <trkpt lat="39.815174303948879" lon="2.892883792519569">
        <ele>560.59000000000003</ele>
        <time>2014-09-04T12:29:15Z</time>
      </trkpt>
      <trkpt lat="39.815147314220667" lon="2.892818078398705">
        <ele>559.62</ele>
        <time>2014-09-04T12:29:19Z</time>
      </trkpt>
      <trkpt lat="39.815157288685441" lon="2.892748843878508">
        <ele>562.50999999999999</ele>
        <time>2014-09-04T12:29:23Z</time>
      </trkpt>
      <trkpt lat="39.81515527702868" lon="2.892729062587023">
        <ele>561.07000000000005</ele>
        <time>2014-09-04T12:29:25Z</time>
      </trkpt>
      <trkpt lat="39.815163323655725" lon="2.892717495560646">
        <ele>559.62</ele>
        <time>2014-09-04T12:29:26Z</time>
      </trkpt>
      <trkpt lat="39.815110685303807" lon="2.892549186944962">
        <ele>560.11000000000001</ele>
        <time>2014-09-04T12:29:37Z</time>
      </trkpt>
      <trkpt lat="39.815062656998634" lon="2.892403760924935">
        <ele>561.07000000000005</ele>
        <time>2014-09-04T12:29:47Z</time>
      </trkpt>
      <trkpt lat="39.815032901242375" lon="2.892246432602406">
        <ele>561.54999999999995</ele>
        <time>2014-09-04T12:30:00Z</time>
      </trkpt>
      <trkpt lat="39.815026866272092" lon="2.892231680452824">
        <ele>561.54999999999995</ele>
        <time>2014-09-04T12:30:01Z</time>
      </trkpt>
      <trkpt lat="39.815015802159905" lon="2.892208881676197">
        <ele>562.02999999999997</ele>
        <time>2014-09-04T12:30:02Z</time>
      </trkpt>
      <trkpt lat="39.814999457448721" lon="2.892179377377033">
        <ele>562.50999999999999</ele>
        <time>2014-09-04T12:30:03Z</time>
      </trkpt>
      <trkpt lat="39.814986297860742" lon="2.892156159505248">
        <ele>561.54999999999995</ele>
        <time>2014-09-04T12:30:04Z</time>
      </trkpt>
      <trkpt lat="39.814974311739206" lon="2.892142245545983">
        <ele>562.02999999999997</ele>
        <time>2014-09-04T12:30:05Z</time>
      </trkpt>
      <trkpt lat="39.814879512414336" lon="2.892001597210765">
        <ele>562.99000000000001</ele>
        <time>2014-09-04T12:30:14Z</time>
      </trkpt>
      <trkpt lat="39.814870962873101" lon="2.891976200044155">
        <ele>562.99000000000001</ele>
        <time>2014-09-04T12:30:15Z</time>
      </trkpt>
      <trkpt lat="39.814830981194973" lon="2.89191291667521">
        <ele>562.99000000000001</ele>
        <time>2014-09-04T12:30:18Z</time>
      </trkpt>
      <trkpt lat="39.814852690324187" lon="2.891928255558014">
        <ele>562.50999999999999</ele>
        <time>2014-09-04T12:30:26Z</time>
      </trkpt>
      <trkpt lat="39.814878506585956" lon="2.891949880868197">
        <ele>563.47000000000003</ele>
        <time>2014-09-04T12:30:37Z</time>
      </trkpt>
      <trkpt lat="39.814868280664086" lon="2.891951892524958">
        <ele>563.47000000000003</ele>
        <time>2014-09-04T12:30:53Z</time>
      </trkpt>
      <trkpt lat="39.814872723072767" lon="2.891955580562353">
        <ele>562.99000000000001</ele>
        <time>2014-09-04T12:31:08Z</time>
      </trkpt>
      <trkpt lat="39.814872723072767" lon="2.891955580562353">
        <ele>562.99000000000001</ele>
        <time>2014-09-04T12:31:36Z</time>
      </trkpt>
      <trkpt lat="39.814847409725189" lon="2.891964884474874">
        <ele>562.02999999999997</ele>
        <time>2014-09-04T12:32:06Z</time>
      </trkpt>
      <trkpt lat="39.814847577363253" lon="2.891971673816443">
        <ele>562.50999999999999</ele>
        <time>2014-09-04T12:32:31Z</time>
      </trkpt>
      <trkpt lat="39.814863922074437" lon="2.891956334933639">
        <ele>562.50999999999999</ele>
        <time>2014-09-04T12:32:43Z</time>
      </trkpt>
      <trkpt lat="39.814875489100814" lon="2.89191241376102">
        <ele>562.50999999999999</ele>
        <time>2014-09-04T12:32:51Z</time>
      </trkpt>
      <trkpt lat="39.8149055801332" lon="2.891906127333641">
        <ele>562.02999999999997</ele>
        <time>2014-09-04T12:32:59Z</time>
      </trkpt>
      <trkpt lat="39.814946902915835" lon="2.891889028251171">
        <ele>562.02999999999997</ele>
        <time>2014-09-04T12:33:17Z</time>
      </trkpt>
      <trkpt lat="39.815172627568245" lon="2.891868660226464">
        <ele>562.02999999999997</ele>
        <time>2014-09-04T12:33:32Z</time>
      </trkpt>
      <trkpt lat="39.814921002835035" lon="2.891872599720955">
        <ele>562.02999999999997</ele>
        <time>2014-09-04T12:33:50Z</time>
      </trkpt>
      <trkpt lat="39.814919242635369" lon="2.891874695196748">
        <ele>561.54999999999995</ele>
        <time>2014-09-04T12:34:08Z</time>
      </trkpt>
      <trkpt lat="39.814581284299493" lon="2.891913587227464">
        <ele>562.02999999999997</ele>
        <time>2014-09-04T12:34:19Z</time>
      </trkpt>
      <trkpt lat="39.814719166606665" lon="2.8918875195086">
        <ele>562.02999999999997</ele>
        <time>2014-09-04T12:34:26Z</time>
      </trkpt>
      <trkpt lat="39.814768955111504" lon="2.891835048794746">
        <ele>562.02999999999997</ele>
        <time>2014-09-04T12:34:30Z</time>
      </trkpt>
      <trkpt lat="39.814816396683455" lon="2.891746200621128">
        <ele>562.50999999999999</ele>
        <time>2014-09-04T12:34:37Z</time>
      </trkpt>
      <trkpt lat="39.814819917082787" lon="2.891732789576054">
        <ele>562.50999999999999</ele>
        <time>2014-09-04T12:34:38Z</time>
      </trkpt>
      <trkpt lat="39.814819414168596" lon="2.891716444864869">
        <ele>562.50999999999999</ele>
        <time>2014-09-04T12:34:39Z</time>
      </trkpt>
      <trkpt lat="39.81480348855257" lon="2.891666991636157">
        <ele>562.99000000000001</ele>
        <time>2014-09-04T12:34:44Z</time>
      </trkpt>
      <trkpt lat="39.814797788858414" lon="2.891650563105941">
        <ele>562.99000000000001</ele>
        <time>2014-09-04T12:34:45Z</time>
      </trkpt>
      <trkpt lat="39.814796866849065" lon="2.891629440709949">
        <ele>562.99000000000001</ele>
        <time>2014-09-04T12:34:46Z</time>
      </trkpt>
      <trkpt lat="39.814796531572938" lon="2.8916094917804">
        <ele>563.47000000000003</ele>
        <time>2014-09-04T12:34:47Z</time>
      </trkpt>
      <trkpt lat="39.814803823828697" lon="2.891554590314627">
        <ele>563.47000000000003</ele>
        <time>2014-09-04T12:34:53Z</time>
      </trkpt>
      <trkpt lat="39.814804578199983" lon="2.891535060480237">
        <ele>563.95000000000005</ele>
        <time>2014-09-04T12:34:54Z</time>
      </trkpt>
      <trkpt lat="39.814798459410667" lon="2.891508489847183">
        <ele>563.95000000000005</ele>
        <time>2014-09-04T12:34:55Z</time>
      </trkpt>
      <trkpt lat="39.814787898212671" lon="2.891482589766383">
        <ele>563.47000000000003</ele>
        <time>2014-09-04T12:34:56Z</time>
      </trkpt>
      <trkpt lat="39.814778594300151" lon="2.891456605866551">
        <ele>563.95000000000005</ele>
        <time>2014-09-04T12:34:57Z</time>
      </trkpt>
      <trkpt lat="39.814768368378282" lon="2.89136859588325">
        <ele>563.95000000000005</ele>
        <time>2014-09-04T12:35:04Z</time>
      </trkpt>
      <trkpt lat="39.814768033102155" lon="2.891340516507626">
        <ele>563.47000000000003</ele>
        <time>2014-09-04T12:35:05Z</time>
      </trkpt>
      <trkpt lat="39.814744479954243" lon="2.891170447692275">
        <ele>563.47000000000003</ele>
        <time>2014-09-04T12:35:15Z</time>
      </trkpt>
      <trkpt lat="39.814742971211672" lon="2.891146475449204">
        <ele>562.99000000000001</ele>
        <time>2014-09-04T12:35:16Z</time>
      </trkpt>
      <trkpt lat="39.81473651714623" lon="2.891112864017487">
        <ele>563.47000000000003</ele>
        <time>2014-09-04T12:35:17Z</time>
      </trkpt>
      <trkpt lat="39.814729224890471" lon="2.891082521528006">
        <ele>562.99000000000001</ele>
        <time>2014-09-04T12:35:18Z</time>
      </trkpt>
      <trkpt lat="39.814728135243058" lon="2.891063410788775">
        <ele>562.99000000000001</ele>
        <time>2014-09-04T12:35:19Z</time>
      </trkpt>
      <trkpt lat="39.814724363386631" lon="2.891049161553383">
        <ele>562.99000000000001</ele>
        <time>2014-09-04T12:35:20Z</time>
      </trkpt>
      <trkpt lat="39.814724614843726" lon="2.89101186208427">
        <ele>563.47000000000003</ele>
        <time>2014-09-04T12:35:26Z</time>
      </trkpt>
      <trkpt lat="39.814718663692474" lon="2.890986884012818">
        <ele>563.47000000000003</ele>
        <time>2014-09-04T12:35:27Z</time>
      </trkpt>
      <trkpt lat="39.814687483012676" lon="2.890814132988453">
        <ele>562.99000000000001</ele>
        <time>2014-09-04T12:35:36Z</time>
      </trkpt>
      <trkpt lat="39.814598886296153" lon="2.890682956203818">
        <ele>563.47000000000003</ele>
        <time>2014-09-04T12:35:46Z</time>
      </trkpt>
      <trkpt lat="39.814520347863436" lon="2.890593940392137">
        <ele>562.99000000000001</ele>
        <time>2014-09-04T12:35:55Z</time>
      </trkpt>
      <trkpt lat="39.814486736431718" lon="2.890582289546728">
        <ele>562.99000000000001</ele>
        <time>2014-09-04T12:36:00Z</time>
      </trkpt>
      <trkpt lat="39.814463602378964" lon="2.890580780804157">
        <ele>562.99000000000001</ele>
        <time>2014-09-04T12:36:01Z</time>
      </trkpt>
      <trkpt lat="39.814439965412021" lon="2.890583127737045">
        <ele>563.47000000000003</ele>
        <time>2014-09-04T12:36:02Z</time>
      </trkpt>
      <trkpt lat="39.814422950148582" lon="2.890584133565426">
        <ele>563.47000000000003</ele>
        <time>2014-09-04T12:36:03Z</time>
      </trkpt>
      <trkpt lat="39.81440962292254" lon="2.890579104423523">
        <ele>562.50999999999999</ele>
        <time>2014-09-04T12:36:04Z</time>
      </trkpt>
      <trkpt lat="39.814396044239402" lon="2.890568291768432">
        <ele>563.95000000000005</ele>
        <time>2014-09-04T12:36:05Z</time>
      </trkpt>
      <trkpt lat="39.814372155815363" lon="2.89053057320416">
        <ele>563.47000000000003</ele>
        <time>2014-09-04T12:36:09Z</time>
      </trkpt>
      <trkpt lat="39.814359080046415" lon="2.890520514920354">
        <ele>562.99000000000001</ele>
        <time>2014-09-04T12:36:10Z</time>
      </trkpt>
      <trkpt lat="39.814271070063114" lon="2.890457063913345">
        <ele>563.95000000000005</ele>
        <time>2014-09-04T12:36:17Z</time>
      </trkpt>
      <trkpt lat="39.814260508865118" lon="2.890449184924364">
        <ele>564.42999999999995</ele>
        <time>2014-09-04T12:36:18Z</time>
      </trkpt>
      <trkpt lat="39.814250702038407" lon="2.890439294278622">
        <ele>563.95000000000005</ele>
        <time>2014-09-04T12:36:19Z</time>
      </trkpt>
      <trkpt lat="39.814178366214037" lon="2.890349188819528">
        <ele>565.87</ele>
        <time>2014-09-04T12:36:30Z</time>
      </trkpt>
      <trkpt lat="39.814170151948929" lon="2.890334101393819">
        <ele>565.87</ele>
        <time>2014-09-04T12:36:31Z</time>
      </trkpt>
      <trkpt lat="39.814160261303186" lon="2.890320438891649">
        <ele>566.35000000000002</ele>
        <time>2014-09-04T12:36:32Z</time>
      </trkpt>
      <trkpt lat="39.814126146957278" lon="2.890280624851584">
        <ele>567.32000000000005</ele>
        <time>2014-09-04T12:36:38Z</time>
      </trkpt>
      <trkpt lat="39.814123883843422" lon="2.89026721380651">
        <ele>567.32000000000005</ele>
        <time>2014-09-04T12:36:39Z</time>
      </trkpt>
      <trkpt lat="39.814050206914544" lon="2.890168139711022">
        <ele>568.27999999999997</ele>
        <time>2014-09-04T12:36:51Z</time>
      </trkpt>
      <trkpt lat="39.813932189717889" lon="2.890053139999509">
        <ele>569.72000000000003</ele>
        <time>2014-09-04T12:37:04Z</time>
      </trkpt>
      <trkpt lat="39.813901344314218" lon="2.890018858015537">
        <ele>570.67999999999995</ele>
        <time>2014-09-04T12:37:08Z</time>
      </trkpt>
      <trkpt lat="39.813893800601363" lon="2.889999831095338">
        <ele>570.67999999999995</ele>
        <time>2014-09-04T12:37:09Z</time>
      </trkpt>
      <trkpt lat="39.813882987946272" lon="2.889985917136073">
        <ele>570.67999999999995</ele>
        <time>2014-09-04T12:37:10Z</time>
      </trkpt>
      <trkpt lat="39.813731526955962" lon="2.889834707602859">
        <ele>573.08000000000004</ele>
        <time>2014-09-04T12:37:24Z</time>
      </trkpt>
      <trkpt lat="39.813602529466152" lon="2.889629937708378">
        <ele>575.49000000000001</ele>
        <time>2014-09-04T12:37:40Z</time>
      </trkpt>
      <trkpt lat="39.813548298552632" lon="2.889523236081004">
        <ele>576.92999999999995</ele>
        <time>2014-09-04T12:37:51Z</time>
      </trkpt>
      <trkpt lat="39.813599847257137" lon="2.889484176412225">
        <ele>576.92999999999995</ele>
        <time>2014-09-04T12:37:58Z</time>
      </trkpt>
      <trkpt lat="39.813675368204713" lon="2.88947805762291">
        <ele>575.49000000000001</ele>
        <time>2014-09-04T12:38:06Z</time>
      </trkpt>
      <trkpt lat="39.813690790906549" lon="2.889467999339104">
        <ele>575.49000000000001</ele>
        <time>2014-09-04T12:38:07Z</time>
      </trkpt>
      <trkpt lat="39.813856584951282" lon="2.889426425099373">
        <ele>574.52999999999997</ele>
        <time>2014-09-04T12:38:19Z</time>
      </trkpt>
      <trkpt lat="39.81400653719902" lon="2.889398010447621">
        <ele>574.03999999999996</ele>
        <time>2014-09-04T12:38:31Z</time>
      </trkpt>
      <trkpt lat="39.814138971269131" lon="2.889341432601214">
        <ele>573.08000000000004</ele>
        <time>2014-09-04T12:38:40Z</time>
      </trkpt>
      <trkpt lat="39.814153891056776" lon="2.88932902738452">
        <ele>572.60000000000002</ele>
        <time>2014-09-04T12:38:41Z</time>
      </trkpt>
      <trkpt lat="39.814182221889496" lon="2.889320813119412">
        <ele>573.08000000000004</ele>
        <time>2014-09-04T12:38:42Z</time>
      </trkpt>
      <trkpt lat="39.814239302650094" lon="2.889308659359813">
        <ele>572.60000000000002</ele>
        <time>2014-09-04T12:38:45Z</time>
      </trkpt>
      <trkpt lat="39.81435539200902" lon="2.889277143403888">
        <ele>571.63999999999999</ele>
        <time>2014-09-04T12:38:55Z</time>
      </trkpt>
      <trkpt lat="39.814411550760269" lon="2.889263229444623">
        <ele>571.15999999999997</ele>
        <time>2014-09-04T12:39:01Z</time>
      </trkpt>
      <trkpt lat="39.814539877697825" lon="2.889229618012905">
        <ele>570.67999999999995</ele>
        <time>2014-09-04T12:39:12Z</time>
      </trkpt>
      <trkpt lat="39.814572315663099" lon="2.889217715710402">
        <ele>570.20000000000005</ele>
        <time>2014-09-04T12:39:14Z</time>
      </trkpt>
      <trkpt lat="39.814586732536554" lon="2.889215871691704">
        <ele>570.20000000000005</ele>
        <time>2014-09-04T12:39:15Z</time>
      </trkpt>
      <trkpt lat="39.814598551020026" lon="2.889214614406228">
        <ele>570.20000000000005</ele>
        <time>2014-09-04T12:39:16Z</time>
      </trkpt>
      <trkpt lat="39.814610788598657" lon="2.889209920540452">
        <ele>569.72000000000003</ele>
        <time>2014-09-04T12:39:17Z</time>
      </trkpt>
      <trkpt lat="39.81462218798697" lon="2.889202125370503">
        <ele>570.20000000000005</ele>
        <time>2014-09-04T12:39:18Z</time>
      </trkpt>
      <trkpt lat="39.814643645659089" lon="2.889189217239618">
        <ele>570.20000000000005</ele>
        <time>2014-09-04T12:39:20Z</time>
      </trkpt>
      <trkpt lat="39.814660241827369" lon="2.889182595536113">
        <ele>570.20000000000005</ele>
        <time>2014-09-04T12:39:21Z</time>
      </trkpt>
      <trkpt lat="39.81468178331852" lon="2.889181505888701">
        <ele>570.20000000000005</ele>
        <time>2014-09-04T12:39:22Z</time>
      </trkpt>
      <trkpt lat="39.814795693382621" lon="2.889166083186865">
        <ele>569.72000000000003</ele>
        <time>2014-09-04T12:39:32Z</time>
      </trkpt>
      <trkpt lat="39.814815642312169" lon="2.889162478968501">
        <ele>569.24000000000001</ele>
        <time>2014-09-04T12:39:33Z</time>
      </trkpt>
      <trkpt lat="39.814834669232368" lon="2.8891556058079">
        <ele>569.24000000000001</ele>
        <time>2014-09-04T12:39:34Z</time>
      </trkpt>
      <trkpt lat="39.814847409725189" lon="2.88915267214179">
        <ele>569.72000000000003</ele>
        <time>2014-09-04T12:39:35Z</time>
      </trkpt>
      <trkpt lat="39.814862329512835" lon="2.889153510332108">
        <ele>569.72000000000003</ele>
        <time>2014-09-04T12:39:36Z</time>
      </trkpt>
      <trkpt lat="39.814888816326857" lon="2.889152420684695">
        <ele>568.75999999999999</ele>
        <time>2014-09-04T12:39:41Z</time>
      </trkpt>
      <trkpt lat="39.814903065562248" lon="2.889145882800221">
        <ele>568.75999999999999</ele>
        <time>2014-09-04T12:39:42Z</time>
      </trkpt>
      <trkpt lat="39.814993338659406" lon="2.889110762625933">
        <ele>568.75999999999999</ele>
        <time>2014-09-04T12:39:50Z</time>
      </trkpt>
      <trkpt lat="39.815004654228687" lon="2.889085365459323">
        <ele>568.27999999999997</ele>
        <time>2014-09-04T12:39:51Z</time>
      </trkpt>
      <trkpt lat="39.815034745261073" lon="2.888986626639962">
        <ele>569.24000000000001</ele>
        <time>2014-09-04T12:40:02Z</time>
      </trkpt>
      <trkpt lat="39.815033571794629" lon="2.888966090977192">
        <ele>569.24000000000001</ele>
        <time>2014-09-04T12:40:04Z</time>
      </trkpt>
      <trkpt lat="39.815030470490456" lon="2.88908083923161">
        <ele>569.24000000000001</ele>
        <time>2014-09-04T12:42:19Z</time>
      </trkpt>
      <trkpt lat="39.815017813816667" lon="2.889044964686036">
        <ele>568.27999999999997</ele>
        <time>2014-09-04T12:42:25Z</time>
      </trkpt>
      <trkpt lat="39.814958637580276" lon="2.889091232791543">
        <ele>568.75999999999999</ele>
        <time>2014-09-04T12:42:30Z</time>
      </trkpt>
      <trkpt lat="39.81494128704071" lon="2.889107242226601">
        <ele>566.83000000000004</ele>
        <time>2014-09-04T12:42:32Z</time>
      </trkpt>
      <trkpt lat="39.814867274835706" lon="2.889130963012576">
        <ele>568.75999999999999</ele>
        <time>2014-09-04T12:42:40Z</time>
      </trkpt>
      <trkpt lat="39.814827209338546" lon="2.889134231954813">
        <ele>565.38999999999999</ele>
        <time>2014-09-04T12:42:43Z</time>
      </trkpt>
      <trkpt lat="39.814817989245057" lon="2.889136327430606">
        <ele>569.72000000000003</ele>
        <time>2014-09-04T12:42:44Z</time>
      </trkpt>
      <trkpt lat="39.81471405364573" lon="2.889149403199554">
        <ele>570.67999999999995</ele>
        <time>2014-09-04T12:42:52Z</time>
      </trkpt>
      <trkpt lat="39.814641214907169" lon="2.889177734032273">
        <ele>566.35000000000002</ele>
        <time>2014-09-04T12:42:59Z</time>
      </trkpt>
      <trkpt lat="39.814602574333549" lon="2.889193994924426">
        <ele>569.24000000000001</ele>
        <time>2014-09-04T12:43:03Z</time>
      </trkpt>
      <trkpt lat="39.814476678147912" lon="2.889202460646629">
        <ele>569.24000000000001</ele>
        <time>2014-09-04T12:43:13Z</time>
      </trkpt>
      <trkpt lat="39.814314236864448" lon="2.889201454818249">
        <ele>570.67999999999995</ele>
        <time>2014-09-04T12:43:24Z</time>
      </trkpt>
      <trkpt lat="39.814301077276468" lon="2.889205981045961">
        <ele>571.63999999999999</ele>
        <time>2014-09-04T12:43:25Z</time>
      </trkpt>
      <trkpt lat="39.814286157488823" lon="2.889210423454642">
        <ele>571.15999999999997</ele>
        <time>2014-09-04T12:43:26Z</time>
      </trkpt>
      <trkpt lat="39.814263610169291" lon="2.889213357120752">
        <ele>571.63999999999999</ele>
        <time>2014-09-04T12:43:27Z</time>
      </trkpt>
      <trkpt lat="39.814242823049426" lon="2.889213943853974">
        <ele>571.63999999999999</ele>
        <time>2014-09-04T12:43:28Z</time>
      </trkpt>
      <trkpt lat="39.814212145283818" lon="2.889216793701053">
        <ele>572.12</ele>
        <time>2014-09-04T12:43:32Z</time>
      </trkpt>
      <trkpt lat="39.814121536910534" lon="2.889241687953472">
        <ele>573.08000000000004</ele>
        <time>2014-09-04T12:43:40Z</time>
      </trkpt>
      <trkpt lat="39.814110808074474" lon="2.889247387647629">
        <ele>572.60000000000002</ele>
        <time>2014-09-04T12:43:41Z</time>
      </trkpt>
      <trkpt lat="39.814094211906195" lon="2.889251662418246">
        <ele>572.60000000000002</ele>
        <time>2014-09-04T12:43:42Z</time>
      </trkpt>
      <trkpt lat="39.814075771719217" lon="2.889254847541452">
        <ele>573.08000000000004</ele>
        <time>2014-09-04T12:43:43Z</time>
      </trkpt>
      <trkpt lat="39.814056577160954" lon="2.889250488951802">
        <ele>573.08000000000004</ele>
        <time>2014-09-04T12:43:44Z</time>
      </trkpt>
      <trkpt lat="39.814004776999354" lon="2.889231713488698">
        <ele>573.08000000000004</ele>
        <time>2014-09-04T12:43:49Z</time>
      </trkpt>
      <trkpt lat="39.813989941030741" lon="2.889231713488698">
        <ele>573.55999999999995</ele>
        <time>2014-09-04T12:43:50Z</time>
      </trkpt>
      <trkpt lat="39.813970914110541" lon="2.889230623841286">
        <ele>573.55999999999995</ele>
        <time>2014-09-04T12:43:51Z</time>
      </trkpt>
      <trkpt lat="39.813818028196692" lon="2.889266163110733">
        <ele>575.00999999999999</ele>
        <time>2014-09-04T12:44:03Z</time>
      </trkpt>
      <trkpt lat="39.813695903867483" lon="2.889333302155137">
        <ele>575.97000000000003</ele>
        <time>2014-09-04T12:44:15Z</time>
      </trkpt>
      <trkpt lat="39.813662376254797" lon="2.889346880838275">
        <ele>575.49000000000001</ele>
        <time>2014-09-04T12:44:19Z</time>
      </trkpt>
      <trkpt lat="39.813639409840107" lon="2.889351239427924">
        <ele>575.97000000000003</ele>
        <time>2014-09-04T12:44:20Z</time>
      </trkpt>
      <trkpt lat="39.813615437597036" lon="2.889355262741447">
        <ele>575.97000000000003</ele>
        <time>2014-09-04T12:44:21Z</time>
      </trkpt>
      <trkpt lat="39.813559614121914" lon="2.889366997405887">
        <ele>575.97000000000003</ele>
        <time>2014-09-04T12:44:26Z</time>
      </trkpt>
      <trkpt lat="39.813544107601047" lon="2.889379402622581">
        <ele>575.97000000000003</ele>
        <time>2014-09-04T12:44:27Z</time>
      </trkpt>
      <trkpt lat="39.813524577766657" lon="2.889392897486687">
        <ele>576.45000000000005</ele>
        <time>2014-09-04T12:44:28Z</time>
      </trkpt>
      <trkpt lat="39.813502952456474" lon="2.889407565817237">
        <ele>575.97000000000003</ele>
        <time>2014-09-04T12:44:29Z</time>
      </trkpt>
      <trkpt lat="39.813491301611066" lon="2.889427179470658">
        <ele>575.97000000000003</ele>
        <time>2014-09-04T12:44:30Z</time>
      </trkpt>
      <trkpt lat="39.813489206135273" lon="2.889445284381509">
        <ele>575.97000000000003</ele>
        <time>2014-09-04T12:44:31Z</time>
      </trkpt>
      <trkpt lat="39.813523571938276" lon="2.889634631574154">
        <ele>575.00999999999999</ele>
        <time>2014-09-04T12:44:41Z</time>
      </trkpt>
      <trkpt lat="39.813571264967322" lon="2.889827499166131">
        <ele>573.55999999999995</ele>
        <time>2014-09-04T12:44:50Z</time>
      </trkpt>
      <trkpt lat="39.813587358221412" lon="2.889853566884995">
        <ele>573.08000000000004</ele>
        <time>2014-09-04T12:44:51Z</time>
      </trkpt>
      <trkpt lat="39.813705207780004" lon="2.890051044523716">
        <ele>571.15999999999997</ele>
        <time>2014-09-04T12:45:03Z</time>
      </trkpt>
      <trkpt lat="39.813767317682505" lon="2.890173336490989">
        <ele>569.24000000000001</ele>
        <time>2014-09-04T12:45:14Z</time>
      </trkpt>
      <trkpt lat="39.813779555261135" lon="2.890191357582808">
        <ele>569.24000000000001</ele>
        <time>2014-09-04T12:45:15Z</time>
      </trkpt>
      <trkpt lat="39.813797827810049" lon="2.890209965407848">
        <ele>569.72000000000003</ele>
        <time>2014-09-04T12:45:16Z</time>
      </trkpt>
      <trkpt lat="39.813825404271483" lon="2.890220694243908">
        <ele>569.72000000000003</ele>
        <time>2014-09-04T12:45:17Z</time>
      </trkpt>
      <trkpt lat="39.813845101743937" lon="2.890235697850585">
        <ele>569.24000000000001</ele>
        <time>2014-09-04T12:45:18Z</time>
      </trkpt>
      <trkpt lat="39.813869241625071" lon="2.890244666486979">
        <ele>568.27999999999997</ele>
        <time>2014-09-04T12:45:20Z</time>
      </trkpt>
      <trkpt lat="39.81388189829886" lon="2.890242990106344">
        <ele>567.79999999999995</ele>
        <time>2014-09-04T12:45:23Z</time>
      </trkpt>
      <trkpt lat="39.813902769237757" lon="2.890252461656928">
        <ele>567.32000000000005</ele>
        <time>2014-09-04T12:45:25Z</time>
      </trkpt>
      <trkpt lat="39.813919700682163" lon="2.890248941257596">
        <ele>567.32000000000005</ele>
        <time>2014-09-04T12:45:26Z</time>
      </trkpt>
      <trkpt lat="39.813944594934583" lon="2.890257993713021">
        <ele>567.32000000000005</ele>
        <time>2014-09-04T12:45:27Z</time>
      </trkpt>
      <trkpt lat="39.813973261043429" lon="2.89027794264257">
        <ele>566.83000000000004</ele>
        <time>2014-09-04T12:45:28Z</time>
      </trkpt>
      <trkpt lat="39.813998239114881" lon="2.890292527154088">
        <ele>566.83000000000004</ele>
        <time>2014-09-04T12:45:29Z</time>
      </trkpt>
      <trkpt lat="39.814022798091173" lon="2.890302333980799">
        <ele>566.83000000000004</ele>
        <time>2014-09-04T12:45:32Z</time>
      </trkpt>
      <trkpt lat="39.814043333753943" lon="2.890326557680965">
        <ele>565.87</ele>
        <time>2014-09-04T12:45:38Z</time>
      </trkpt>
      <trkpt lat="39.81406370177865" lon="2.890341309830546">
        <ele>565.38999999999999</ele>
        <time>2014-09-04T12:45:39Z</time>
      </trkpt>
      <trkpt lat="39.814079375937581" lon="2.890359750017524">
        <ele>565.87</ele>
        <time>2014-09-04T12:45:40Z</time>
      </trkpt>
      <trkpt lat="39.814130170270801" lon="2.890429235994816">
        <ele>563.47000000000003</ele>
        <time>2014-09-04T12:45:49Z</time>
      </trkpt>
      <trkpt lat="39.814146682620049" lon="2.89043577387929">
        <ele>563.95000000000005</ele>
        <time>2014-09-04T12:45:50Z</time>
      </trkpt>
      <trkpt lat="39.814169816672802" lon="2.890448598191142">
        <ele>563.47000000000003</ele>
        <time>2014-09-04T12:45:51Z</time>
      </trkpt>
      <trkpt lat="39.814189933240414" lon="2.890467122197151">
        <ele>563.95000000000005</ele>
        <time>2014-09-04T12:45:52Z</time>
      </trkpt>
      <trkpt lat="39.814209379255772" lon="2.890488998964429">
        <ele>563.95000000000005</ele>
        <time>2014-09-04T12:45:53Z</time>
      </trkpt>
      <trkpt lat="39.814227651804686" lon="2.890505427494645">
        <ele>563.47000000000003</ele>
        <time>2014-09-04T12:45:54Z</time>
      </trkpt>
      <trkpt lat="39.814247600734234" lon="2.890520012006164">
        <ele>563.47000000000003</ele>
        <time>2014-09-04T12:45:55Z</time>
      </trkpt>
      <trkpt lat="39.814441306516528" lon="2.890633502975106">
        <ele>563.47000000000003</ele>
        <time>2014-09-04T12:46:09Z</time>
      </trkpt>
      <trkpt lat="39.814541637897491" lon="2.890780437737703">
        <ele>563.47000000000003</ele>
        <time>2014-09-04T12:46:21Z</time>
      </trkpt>
      <trkpt lat="39.814579524099827" lon="2.890858724713326">
        <ele>563.47000000000003</ele>
        <time>2014-09-04T12:46:29Z</time>
      </trkpt>
      <trkpt lat="39.814585810527205" lon="2.890886384993792">
        <ele>562.99000000000001</ele>
        <time>2014-09-04T12:46:30Z</time>
      </trkpt>
      <trkpt lat="39.814590085297823" lon="2.890914129093289">
        <ele>562.99000000000001</ele>
        <time>2014-09-04T12:46:31Z</time>
      </trkpt>
      <trkpt lat="39.814616739749908" lon="2.891074223443866">
        <ele>562.99000000000001</ele>
        <time>2014-09-04T12:46:42Z</time>
      </trkpt>
      <trkpt lat="39.814620176330209" lon="2.891091154888272">
        <ele>563.47000000000003</ele>
        <time>2014-09-04T12:46:43Z</time>
      </trkpt>
      <trkpt lat="39.814662504941225" lon="2.89124982431531">
        <ele>563.95000000000005</ele>
        <time>2014-09-04T12:46:53Z</time>
      </trkpt>
      <trkpt lat="39.814686644822359" lon="2.891320232301951">
        <ele>563.47000000000003</ele>
        <time>2014-09-04T12:46:58Z</time>
      </trkpt>
      <trkpt lat="39.814689327031374" lon="2.89134026505053">
        <ele>563.47000000000003</ele>
        <time>2014-09-04T12:46:59Z</time>
      </trkpt>
      <trkpt lat="39.81472184881568" lon="2.891571940854192">
        <ele>562.99000000000001</ele>
        <time>2014-09-04T12:47:11Z</time>
      </trkpt>
      <trkpt lat="39.814749928191304" lon="2.89175558835268">
        <ele>562.50999999999999</ele>
        <time>2014-09-04T12:47:21Z</time>
      </trkpt>
      <trkpt lat="39.814752442762256" lon="2.891757097095251">
        <ele>562.02999999999997</ele>
        <time>2014-09-04T12:47:24Z</time>
      </trkpt>
      <trkpt lat="39.814754957333207" lon="2.891798503696919">
        <ele>561.54999999999995</ele>
        <time>2014-09-04T12:47:27Z</time>
      </trkpt>
      <trkpt lat="39.814756633713841" lon="2.891823565587401">
        <ele>561.54999999999995</ele>
        <time>2014-09-04T12:47:28Z</time>
      </trkpt>
      <trkpt lat="39.814760321751237" lon="2.891850890591741">
        <ele>561.07000000000005</ele>
        <time>2014-09-04T12:47:29Z</time>
      </trkpt>
      <trkpt lat="39.814791083335876" lon="2.891887854784727">
        <ele>561.54999999999995</ele>
        <time>2014-09-04T12:47:39Z</time>
      </trkpt>
      <trkpt lat="39.814791083335876" lon="2.891887854784727">
        <ele>560.11000000000001</ele>
        <time>2014-09-04T12:48:05Z</time>
      </trkpt>
      <trkpt lat="39.81479368172586" lon="2.89188165217638">
        <ele>561.07000000000005</ele>
        <time>2014-09-04T12:48:27Z</time>
      </trkpt>
      <trkpt lat="39.814795525744557" lon="2.891856003552675">
        <ele>561.54999999999995</ele>
        <time>2014-09-04T12:48:28Z</time>
      </trkpt>
      <trkpt lat="39.814791083335876" lon="2.891815099865198">
        <ele>561.54999999999995</ele>
        <time>2014-09-04T12:48:29Z</time>
      </trkpt>
      <trkpt lat="39.814732745289803" lon="2.891616281121969">
        <ele>562.99000000000001</ele>
        <time>2014-09-04T12:48:35Z</time>
      </trkpt>
      <trkpt lat="39.814711790531874" lon="2.891610246151686">
        <ele>562.99000000000001</ele>
        <time>2014-09-04T12:48:36Z</time>
      </trkpt>
      <trkpt lat="39.814666276797652" lon="2.891611084342003">
        <ele>562.99000000000001</ele>
        <time>2014-09-04T12:48:48Z</time>
      </trkpt>
      <trkpt lat="39.814662924036384" lon="2.891617035493255">
        <ele>562.99000000000001</ele>
        <time>2014-09-04T12:48:51Z</time>
      </trkpt>
      <trkpt lat="39.814654961228371" lon="2.891658190637827">
        <ele>562.99000000000001</ele>
        <time>2014-09-04T12:48:53Z</time>
      </trkpt>
      <trkpt lat="39.814651608467102" lon="2.891702111810446">
        <ele>562.99000000000001</ele>
        <time>2014-09-04T12:48:54Z</time>
      </trkpt>
      <trkpt lat="39.814656134694815" lon="2.89174921810627">
        <ele>563.47000000000003</ele>
        <time>2014-09-04T12:48:55Z</time>
      </trkpt>
      <trkpt lat="39.814677927643061" lon="2.891802527010441">
        <ele>562.99000000000001</ele>
        <time>2014-09-04T12:48:56Z</time>
      </trkpt>
      <trkpt lat="39.814713383093476" lon="2.891876790672541">
        <ele>562.99000000000001</ele>
        <time>2014-09-04T12:48:57Z</time>
      </trkpt>
    </trkseg>
  </trk>

</gpx>
